<?xml version="1.0" encoding="UTF-8" standalone="no" ?>
<gpx xmlns="http://www.topografix.com/GPX/1/1" xmlns:xsi="http://www.w3.org/2001/XMLSchema-instance" xsi:schemaLocation="http://www.topografix.com/GPX/1/1 http://www.topografix.com/GPX/1/1/gpx.xsd" version="1.1" creator="VisuGPX - https://www.visugpx.com">
  <metadata>
    <name>Forêt domaniale de Coat an Hay</name>
    <desc><![CDATA[Recherche de caches de l\'équipe \"juliadream\"]]></desc>
  </metadata>
  <trk>
    <name><![CDATA[Caches Julia ]]></name>
    <trkseg>
      <trkpt lat="48.52366" lon="-3.3208">
        <ele>231</ele>
        <time>2013-03-10T13:14:00Z</time>
      </trkpt>
      <trkpt lat="48.52365" lon="-3.32083">
        <ele>231</ele>
        <time>2013-03-10T13:14:03Z</time>
      </trkpt>
      <trkpt lat="48.52365" lon="-3.32088">
        <ele>230</ele>
        <time>2013-03-10T13:14:06Z</time>
      </trkpt>
      <trkpt lat="48.52365" lon="-3.3209">
        <ele>230</ele>
        <time>2013-03-10T13:14:08Z</time>
      </trkpt>
      <trkpt lat="48.52365" lon="-3.32093">
        <ele>230</ele>
        <time>2013-03-10T13:14:10Z</time>
      </trkpt>
      <trkpt lat="48.52363" lon="-3.32098">
        <ele>229</ele>
        <time>2013-03-10T13:14:13Z</time>
      </trkpt>
      <trkpt lat="48.52364" lon="-3.32103">
        <ele>229</ele>
        <time>2013-03-10T13:14:16Z</time>
      </trkpt>
      <trkpt lat="48.52364" lon="-3.32107">
        <ele>229</ele>
        <time>2013-03-10T13:14:18Z</time>
      </trkpt>
      <trkpt lat="48.52364" lon="-3.32113">
        <ele>228</ele>
        <time>2013-03-10T13:14:21Z</time>
      </trkpt>
      <trkpt lat="48.52363" lon="-3.32118">
        <ele>228</ele>
        <time>2013-03-10T13:14:24Z</time>
      </trkpt>
      <trkpt lat="48.52362" lon="-3.32124">
        <ele>227</ele>
        <time>2013-03-10T13:14:27Z</time>
      </trkpt>
      <trkpt lat="48.52362" lon="-3.32129">
        <ele>227</ele>
        <time>2013-03-10T13:14:30Z</time>
      </trkpt>
      <trkpt lat="48.52361" lon="-3.32133">
        <ele>227</ele>
        <time>2013-03-10T13:14:32Z</time>
      </trkpt>
      <trkpt lat="48.52361" lon="-3.32137">
        <ele>227</ele>
        <time>2013-03-10T13:14:34Z</time>
      </trkpt>
      <trkpt lat="48.5236" lon="-3.32143">
        <ele>227</ele>
        <time>2013-03-10T13:14:37Z</time>
      </trkpt>
      <trkpt lat="48.5236" lon="-3.32147">
        <ele>226</ele>
        <time>2013-03-10T13:14:39Z</time>
      </trkpt>
      <trkpt lat="48.52359" lon="-3.32153">
        <ele>226</ele>
        <time>2013-03-10T13:14:42Z</time>
      </trkpt>
      <trkpt lat="48.52357" lon="-3.32158">
        <ele>226</ele>
        <time>2013-03-10T13:14:45Z</time>
      </trkpt>
      <trkpt lat="48.52357" lon="-3.32165">
        <ele>226</ele>
        <time>2013-03-10T13:14:48Z</time>
      </trkpt>
      <trkpt lat="48.52356" lon="-3.3217">
        <ele>225</ele>
        <time>2013-03-10T13:14:51Z</time>
      </trkpt>
      <trkpt lat="48.52356" lon="-3.32173">
        <ele>224</ele>
        <time>2013-03-10T13:14:53Z</time>
      </trkpt>
      <trkpt lat="48.52356" lon="-3.32179">
        <ele>224</ele>
        <time>2013-03-10T13:14:56Z</time>
      </trkpt>
      <trkpt lat="48.52355" lon="-3.32182">
        <ele>224</ele>
        <time>2013-03-10T13:14:58Z</time>
      </trkpt>
      <trkpt lat="48.52354" lon="-3.32187">
        <ele>224</ele>
        <time>2013-03-10T13:15:01Z</time>
      </trkpt>
      <trkpt lat="48.52354" lon="-3.32189">
        <ele>223</ele>
        <time>2013-03-10T13:15:03Z</time>
      </trkpt>
      <trkpt lat="48.52353" lon="-3.32195">
        <ele>223</ele>
        <time>2013-03-10T13:15:06Z</time>
      </trkpt>
      <trkpt lat="48.52353" lon="-3.32199">
        <ele>222</ele>
        <time>2013-03-10T13:15:08Z</time>
      </trkpt>
      <trkpt lat="48.52352" lon="-3.32203">
        <ele>222</ele>
        <time>2013-03-10T13:15:10Z</time>
      </trkpt>
      <trkpt lat="48.52351" lon="-3.32209">
        <ele>222</ele>
        <time>2013-03-10T13:15:13Z</time>
      </trkpt>
      <trkpt lat="48.52351" lon="-3.32213">
        <ele>222</ele>
        <time>2013-03-10T13:15:15Z</time>
      </trkpt>
      <trkpt lat="48.52351" lon="-3.32219">
        <ele>222</ele>
        <time>2013-03-10T13:15:18Z</time>
      </trkpt>
      <trkpt lat="48.52351" lon="-3.32223">
        <ele>222</ele>
        <time>2013-03-10T13:15:20Z</time>
      </trkpt>
      <trkpt lat="48.5235" lon="-3.32227">
        <ele>222</ele>
        <time>2013-03-10T13:15:22Z</time>
      </trkpt>
      <trkpt lat="48.5235" lon="-3.32233">
        <ele>222</ele>
        <time>2013-03-10T13:15:25Z</time>
      </trkpt>
      <trkpt lat="48.5235" lon="-3.32237">
        <ele>221</ele>
        <time>2013-03-10T13:15:27Z</time>
      </trkpt>
      <trkpt lat="48.52349" lon="-3.32242">
        <ele>221</ele>
        <time>2013-03-10T13:15:30Z</time>
      </trkpt>
      <trkpt lat="48.52349" lon="-3.32247">
        <ele>221</ele>
        <time>2013-03-10T13:15:33Z</time>
      </trkpt>
      <trkpt lat="48.52348" lon="-3.32254">
        <ele>221</ele>
        <time>2013-03-10T13:15:36Z</time>
      </trkpt>
      <trkpt lat="48.52347" lon="-3.32261">
        <ele>220</ele>
        <time>2013-03-10T13:15:39Z</time>
      </trkpt>
      <trkpt lat="48.52346" lon="-3.32265">
        <ele>220</ele>
        <time>2013-03-10T13:15:41Z</time>
      </trkpt>
      <trkpt lat="48.52344" lon="-3.32271">
        <ele>219</ele>
        <time>2013-03-10T13:15:44Z</time>
      </trkpt>
      <trkpt lat="48.52344" lon="-3.32275">
        <ele>219</ele>
        <time>2013-03-10T13:15:46Z</time>
      </trkpt>
      <trkpt lat="48.52343" lon="-3.32281">
        <ele>219</ele>
        <time>2013-03-10T13:15:49Z</time>
      </trkpt>
      <trkpt lat="48.52342" lon="-3.32285">
        <ele>218</ele>
        <time>2013-03-10T13:15:51Z</time>
      </trkpt>
      <trkpt lat="48.52342" lon="-3.32292">
        <ele>218</ele>
        <time>2013-03-10T13:15:54Z</time>
      </trkpt>
      <trkpt lat="48.5234" lon="-3.32297">
        <ele>218</ele>
        <time>2013-03-10T13:15:57Z</time>
      </trkpt>
      <trkpt lat="48.52338" lon="-3.323">
        <ele>217</ele>
        <time>2013-03-10T13:15:59Z</time>
      </trkpt>
      <trkpt lat="48.52336" lon="-3.32301">
        <ele>217</ele>
        <time>2013-03-10T13:16:02Z</time>
      </trkpt>
      <trkpt lat="48.52334" lon="-3.32301">
        <ele>217</ele>
        <time>2013-03-10T13:16:05Z</time>
      </trkpt>
      <trkpt lat="48.52333" lon="-3.323">
        <ele>217</ele>
        <time>2013-03-10T13:16:07Z</time>
      </trkpt>
      <trkpt lat="48.52332" lon="-3.32298">
        <ele>217</ele>
        <time>2013-03-10T13:16:10Z</time>
      </trkpt>
      <trkpt lat="48.5233" lon="-3.32295">
        <ele>218</ele>
        <time>2013-03-10T13:16:13Z</time>
      </trkpt>
      <trkpt lat="48.52329" lon="-3.32294">
        <ele>217</ele>
        <time>2013-03-10T13:16:15Z</time>
      </trkpt>
      <trkpt lat="48.52328" lon="-3.32292">
        <ele>218</ele>
        <time>2013-03-10T13:16:18Z</time>
      </trkpt>
      <trkpt lat="48.52327" lon="-3.32291">
        <ele>218</ele>
        <time>2013-03-10T13:16:20Z</time>
      </trkpt>
      <trkpt lat="48.52325" lon="-3.3229">
        <ele>218</ele>
        <time>2013-03-10T13:16:22Z</time>
      </trkpt>
      <trkpt lat="48.52324" lon="-3.32288">
        <ele>218</ele>
        <time>2013-03-10T13:16:25Z</time>
      </trkpt>
      <trkpt lat="48.52322" lon="-3.32286">
        <ele>218</ele>
        <time>2013-03-10T13:16:28Z</time>
      </trkpt>
      <trkpt lat="48.52321" lon="-3.32285">
        <ele>218</ele>
        <time>2013-03-10T13:16:30Z</time>
      </trkpt>
      <trkpt lat="48.5232" lon="-3.32285">
        <ele>219</ele>
        <time>2013-03-10T13:16:33Z</time>
      </trkpt>
      <trkpt lat="48.52319" lon="-3.32284">
        <ele>218</ele>
        <time>2013-03-10T13:16:36Z</time>
      </trkpt>
      <trkpt lat="48.52317" lon="-3.32284">
        <ele>218</ele>
        <time>2013-03-10T13:16:38Z</time>
      </trkpt>
      <trkpt lat="48.52315" lon="-3.32284">
        <ele>218</ele>
        <time>2013-03-10T13:16:40Z</time>
      </trkpt>
      <trkpt lat="48.52314" lon="-3.32284">
        <ele>218</ele>
        <time>2013-03-10T13:16:42Z</time>
      </trkpt>
      <trkpt lat="48.52313" lon="-3.32284">
        <ele>218</ele>
        <time>2013-03-10T13:16:44Z</time>
      </trkpt>
      <trkpt lat="48.52312" lon="-3.32283">
        <ele>218</ele>
        <time>2013-03-10T13:16:47Z</time>
      </trkpt>
      <trkpt lat="48.52311" lon="-3.32283">
        <ele>218</ele>
        <time>2013-03-10T13:16:50Z</time>
      </trkpt>
      <trkpt lat="48.52311" lon="-3.32283">
        <ele>218</ele>
        <time>2013-03-10T13:16:53Z</time>
      </trkpt>
      <trkpt lat="48.5231" lon="-3.32283">
        <ele>218</ele>
        <time>2013-03-10T13:16:55Z</time>
      </trkpt>
      <trkpt lat="48.52309" lon="-3.32282">
        <ele>218</ele>
        <time>2013-03-10T13:16:58Z</time>
      </trkpt>
      <trkpt lat="48.52309" lon="-3.32281">
        <ele>218</ele>
        <time>2013-03-10T13:17:00Z</time>
      </trkpt>
      <trkpt lat="48.52308" lon="-3.3228">
        <ele>218</ele>
        <time>2013-03-10T13:17:02Z</time>
      </trkpt>
      <trkpt lat="48.52308" lon="-3.32279">
        <ele>219</ele>
        <time>2013-03-10T13:17:05Z</time>
      </trkpt>
      <trkpt lat="48.52307" lon="-3.32277">
        <ele>219</ele>
        <time>2013-03-10T13:17:07Z</time>
      </trkpt>
      <trkpt lat="48.52306" lon="-3.32278">
        <ele>219</ele>
        <time>2013-03-10T13:17:10Z</time>
      </trkpt>
      <trkpt lat="48.52306" lon="-3.32278">
        <ele>219</ele>
        <time>2013-03-10T13:17:13Z</time>
      </trkpt>
      <trkpt lat="48.52306" lon="-3.32278">
        <ele>219</ele>
        <time>2013-03-10T13:17:17Z</time>
      </trkpt>
      <trkpt lat="48.52306" lon="-3.32279">
        <ele>218</ele>
        <time>2013-03-10T13:17:19Z</time>
      </trkpt>
      <trkpt lat="48.52306" lon="-3.3228">
        <ele>218</ele>
        <time>2013-03-10T13:17:22Z</time>
      </trkpt>
      <trkpt lat="48.52306" lon="-3.3228">
        <ele>218</ele>
        <time>2013-03-10T13:17:24Z</time>
      </trkpt>
      <trkpt lat="48.52307" lon="-3.32279">
        <ele>218</ele>
        <time>2013-03-10T13:17:26Z</time>
      </trkpt>
      <trkpt lat="48.52306" lon="-3.32279">
        <ele>218</ele>
        <time>2013-03-10T13:17:29Z</time>
      </trkpt>
      <trkpt lat="48.52306" lon="-3.3228">
        <ele>219</ele>
        <time>2013-03-10T13:17:33Z</time>
      </trkpt>
      <trkpt lat="48.52306" lon="-3.3228">
        <ele>218</ele>
        <time>2013-03-10T13:17:35Z</time>
      </trkpt>
      <trkpt lat="48.52305" lon="-3.32281">
        <ele>219</ele>
        <time>2013-03-10T13:17:38Z</time>
      </trkpt>
      <trkpt lat="48.52305" lon="-3.32281">
        <ele>219</ele>
        <time>2013-03-10T13:17:41Z</time>
      </trkpt>
      <trkpt lat="48.52307" lon="-3.32281">
        <ele>218</ele>
        <time>2013-03-10T13:17:44Z</time>
      </trkpt>
      <trkpt lat="48.52308" lon="-3.32281">
        <ele>218</ele>
        <time>2013-03-10T13:17:47Z</time>
      </trkpt>
      <trkpt lat="48.52308" lon="-3.32281">
        <ele>218</ele>
        <time>2013-03-10T13:17:50Z</time>
      </trkpt>
      <trkpt lat="48.52306" lon="-3.32282">
        <ele>218</ele>
        <time>2013-03-10T13:17:53Z</time>
      </trkpt>
      <trkpt lat="48.52306" lon="-3.32284">
        <ele>218</ele>
        <time>2013-03-10T13:17:58Z</time>
      </trkpt>
      <trkpt lat="48.52306" lon="-3.32285">
        <ele>218</ele>
        <time>2013-03-10T13:18:01Z</time>
      </trkpt>
      <trkpt lat="48.52306" lon="-3.32285">
        <ele>218</ele>
        <time>2013-03-10T13:18:04Z</time>
      </trkpt>
      <trkpt lat="48.52306" lon="-3.32286">
        <ele>218</ele>
        <time>2013-03-10T13:18:06Z</time>
      </trkpt>
      <trkpt lat="48.52305" lon="-3.32286">
        <ele>218</ele>
        <time>2013-03-10T13:18:09Z</time>
      </trkpt>
      <trkpt lat="48.52305" lon="-3.32285">
        <ele>218</ele>
        <time>2013-03-10T13:18:13Z</time>
      </trkpt>
      <trkpt lat="48.52306" lon="-3.32285">
        <ele>218</ele>
        <time>2013-03-10T13:18:15Z</time>
      </trkpt>
      <trkpt lat="48.52305" lon="-3.32286">
        <ele>218</ele>
        <time>2013-03-10T13:18:18Z</time>
      </trkpt>
      <trkpt lat="48.52306" lon="-3.32286">
        <ele>218</ele>
        <time>2013-03-10T13:18:21Z</time>
      </trkpt>
      <trkpt lat="48.52306" lon="-3.32287">
        <ele>218</ele>
        <time>2013-03-10T13:18:23Z</time>
      </trkpt>
      <trkpt lat="48.52307" lon="-3.32287">
        <ele>218</ele>
        <time>2013-03-10T13:18:25Z</time>
      </trkpt>
      <trkpt lat="48.52307" lon="-3.32287">
        <ele>218</ele>
        <time>2013-03-10T13:18:27Z</time>
      </trkpt>
      <trkpt lat="48.52307" lon="-3.32287">
        <ele>218</ele>
        <time>2013-03-10T13:18:29Z</time>
      </trkpt>
      <trkpt lat="48.52308" lon="-3.32287">
        <ele>218</ele>
        <time>2013-03-10T13:18:32Z</time>
      </trkpt>
      <trkpt lat="48.52308" lon="-3.32286">
        <ele>218</ele>
        <time>2013-03-10T13:18:36Z</time>
      </trkpt>
      <trkpt lat="48.52308" lon="-3.32285">
        <ele>218</ele>
        <time>2013-03-10T13:18:38Z</time>
      </trkpt>
      <trkpt lat="48.52309" lon="-3.32285">
        <ele>218</ele>
        <time>2013-03-10T13:18:41Z</time>
      </trkpt>
      <trkpt lat="48.52309" lon="-3.32284">
        <ele>218</ele>
        <time>2013-03-10T13:18:44Z</time>
      </trkpt>
      <trkpt lat="48.52308" lon="-3.32283">
        <ele>219</ele>
        <time>2013-03-10T13:18:47Z</time>
      </trkpt>
      <trkpt lat="48.52309" lon="-3.32283">
        <ele>218</ele>
        <time>2013-03-10T13:18:49Z</time>
      </trkpt>
      <trkpt lat="48.52309" lon="-3.32283">
        <ele>218</ele>
        <time>2013-03-10T13:18:52Z</time>
      </trkpt>
      <trkpt lat="48.52309" lon="-3.32283">
        <ele>218</ele>
        <time>2013-03-10T13:18:54Z</time>
      </trkpt>
      <trkpt lat="48.52309" lon="-3.32282">
        <ele>219</ele>
        <time>2013-03-10T13:18:58Z</time>
      </trkpt>
      <trkpt lat="48.52309" lon="-3.32281">
        <ele>218</ele>
        <time>2013-03-10T13:19:00Z</time>
      </trkpt>
      <trkpt lat="48.52309" lon="-3.32281">
        <ele>219</ele>
        <time>2013-03-10T13:19:03Z</time>
      </trkpt>
      <trkpt lat="48.5231" lon="-3.3228">
        <ele>219</ele>
        <time>2013-03-10T13:19:06Z</time>
      </trkpt>
      <trkpt lat="48.5231" lon="-3.32279">
        <ele>219</ele>
        <time>2013-03-10T13:19:09Z</time>
      </trkpt>
      <trkpt lat="48.5231" lon="-3.32278">
        <ele>218</ele>
        <time>2013-03-10T13:19:12Z</time>
      </trkpt>
      <trkpt lat="48.52311" lon="-3.32278">
        <ele>218</ele>
        <time>2013-03-10T13:19:14Z</time>
      </trkpt>
      <trkpt lat="48.52311" lon="-3.32278">
        <ele>218</ele>
        <time>2013-03-10T13:19:17Z</time>
      </trkpt>
      <trkpt lat="48.5231" lon="-3.32278">
        <ele>218</ele>
        <time>2013-03-10T13:19:20Z</time>
      </trkpt>
      <trkpt lat="48.52309" lon="-3.32278">
        <ele>218</ele>
        <time>2013-03-10T13:19:23Z</time>
      </trkpt>
      <trkpt lat="48.5231" lon="-3.32278">
        <ele>218</ele>
        <time>2013-03-10T13:19:25Z</time>
      </trkpt>
      <trkpt lat="48.5231" lon="-3.32277">
        <ele>219</ele>
        <time>2013-03-10T13:19:28Z</time>
      </trkpt>
      <trkpt lat="48.52309" lon="-3.32277">
        <ele>219</ele>
        <time>2013-03-10T13:19:31Z</time>
      </trkpt>
      <trkpt lat="48.52308" lon="-3.32277">
        <ele>219</ele>
        <time>2013-03-10T13:19:34Z</time>
      </trkpt>
      <trkpt lat="48.52307" lon="-3.32278">
        <ele>219</ele>
        <time>2013-03-10T13:19:36Z</time>
      </trkpt>
      <trkpt lat="48.52306" lon="-3.32279">
        <ele>218</ele>
        <time>2013-03-10T13:19:39Z</time>
      </trkpt>
      <trkpt lat="48.52304" lon="-3.32279">
        <ele>218</ele>
        <time>2013-03-10T13:19:42Z</time>
      </trkpt>
      <trkpt lat="48.52304" lon="-3.3228">
        <ele>218</ele>
        <time>2013-03-10T13:19:44Z</time>
      </trkpt>
      <trkpt lat="48.52303" lon="-3.3228">
        <ele>219</ele>
        <time>2013-03-10T13:19:47Z</time>
      </trkpt>
      <trkpt lat="48.52304" lon="-3.3228">
        <ele>218</ele>
        <time>2013-03-10T13:19:50Z</time>
      </trkpt>
      <trkpt lat="48.52305" lon="-3.32279">
        <ele>218</ele>
        <time>2013-03-10T13:19:52Z</time>
      </trkpt>
      <trkpt lat="48.52306" lon="-3.32279">
        <ele>218</ele>
        <time>2013-03-10T13:19:55Z</time>
      </trkpt>
      <trkpt lat="48.52306" lon="-3.3228">
        <ele>218</ele>
        <time>2013-03-10T13:19:57Z</time>
      </trkpt>
      <trkpt lat="48.52306" lon="-3.3228">
        <ele>218</ele>
        <time>2013-03-10T13:19:59Z</time>
      </trkpt>
      <trkpt lat="48.52306" lon="-3.32279">
        <ele>218</ele>
        <time>2013-03-10T13:20:02Z</time>
      </trkpt>
      <trkpt lat="48.52305" lon="-3.32278">
        <ele>218</ele>
        <time>2013-03-10T13:20:05Z</time>
      </trkpt>
      <trkpt lat="48.52306" lon="-3.32277">
        <ele>218</ele>
        <time>2013-03-10T13:20:08Z</time>
      </trkpt>
      <trkpt lat="48.52305" lon="-3.32277">
        <ele>218</ele>
        <time>2013-03-10T13:20:11Z</time>
      </trkpt>
      <trkpt lat="48.52306" lon="-3.32277">
        <ele>218</ele>
        <time>2013-03-10T13:20:14Z</time>
      </trkpt>
      <trkpt lat="48.52306" lon="-3.32276">
        <ele>218</ele>
        <time>2013-03-10T13:20:17Z</time>
      </trkpt>
      <trkpt lat="48.52305" lon="-3.32275">
        <ele>218</ele>
        <time>2013-03-10T13:20:20Z</time>
      </trkpt>
      <trkpt lat="48.52305" lon="-3.32274">
        <ele>218</ele>
        <time>2013-03-10T13:20:22Z</time>
      </trkpt>
      <trkpt lat="48.52306" lon="-3.32274">
        <ele>218</ele>
        <time>2013-03-10T13:20:25Z</time>
      </trkpt>
      <trkpt lat="48.52306" lon="-3.32275">
        <ele>218</ele>
        <time>2013-03-10T13:20:27Z</time>
      </trkpt>
      <trkpt lat="48.52308" lon="-3.32277">
        <ele>218</ele>
        <time>2013-03-10T13:20:30Z</time>
      </trkpt>
      <trkpt lat="48.52309" lon="-3.32278">
        <ele>218</ele>
        <time>2013-03-10T13:20:32Z</time>
      </trkpt>
      <trkpt lat="48.52311" lon="-3.32279">
        <ele>219</ele>
        <time>2013-03-10T13:20:34Z</time>
      </trkpt>
      <trkpt lat="48.52314" lon="-3.3228">
        <ele>219</ele>
        <time>2013-03-10T13:20:37Z</time>
      </trkpt>
      <trkpt lat="48.52315" lon="-3.32282">
        <ele>219</ele>
        <time>2013-03-10T13:20:39Z</time>
      </trkpt>
      <trkpt lat="48.52316" lon="-3.32284">
        <ele>218</ele>
        <time>2013-03-10T13:20:42Z</time>
      </trkpt>
      <trkpt lat="48.52318" lon="-3.32285">
        <ele>218</ele>
        <time>2013-03-10T13:20:44Z</time>
      </trkpt>
      <trkpt lat="48.5232" lon="-3.3229">
        <ele>218</ele>
        <time>2013-03-10T13:20:47Z</time>
      </trkpt>
      <trkpt lat="48.52321" lon="-3.32293">
        <ele>218</ele>
        <time>2013-03-10T13:20:50Z</time>
      </trkpt>
      <trkpt lat="48.52322" lon="-3.32296">
        <ele>218</ele>
        <time>2013-03-10T13:20:53Z</time>
      </trkpt>
      <trkpt lat="48.52324" lon="-3.32298">
        <ele>218</ele>
        <time>2013-03-10T13:20:55Z</time>
      </trkpt>
      <trkpt lat="48.52326" lon="-3.323">
        <ele>218</ele>
        <time>2013-03-10T13:20:57Z</time>
      </trkpt>
      <trkpt lat="48.52327" lon="-3.32303">
        <ele>218</ele>
        <time>2013-03-10T13:21:00Z</time>
      </trkpt>
      <trkpt lat="48.52329" lon="-3.32305">
        <ele>218</ele>
        <time>2013-03-10T13:21:02Z</time>
      </trkpt>
      <trkpt lat="48.5233" lon="-3.32309">
        <ele>218</ele>
        <time>2013-03-10T13:21:05Z</time>
      </trkpt>
      <trkpt lat="48.52332" lon="-3.32312">
        <ele>218</ele>
        <time>2013-03-10T13:21:07Z</time>
      </trkpt>
      <trkpt lat="48.52333" lon="-3.32318">
        <ele>217</ele>
        <time>2013-03-10T13:21:10Z</time>
      </trkpt>
      <trkpt lat="48.52333" lon="-3.32324">
        <ele>217</ele>
        <time>2013-03-10T13:21:13Z</time>
      </trkpt>
      <trkpt lat="48.52333" lon="-3.32327">
        <ele>217</ele>
        <time>2013-03-10T13:21:15Z</time>
      </trkpt>
      <trkpt lat="48.52334" lon="-3.32331">
        <ele>217</ele>
        <time>2013-03-10T13:21:18Z</time>
      </trkpt>
      <trkpt lat="48.52334" lon="-3.32335">
        <ele>216</ele>
        <time>2013-03-10T13:21:21Z</time>
      </trkpt>
      <trkpt lat="48.52334" lon="-3.32337">
        <ele>216</ele>
        <time>2013-03-10T13:21:23Z</time>
      </trkpt>
      <trkpt lat="48.52334" lon="-3.3234">
        <ele>216</ele>
        <time>2013-03-10T13:21:25Z</time>
      </trkpt>
      <trkpt lat="48.52334" lon="-3.32342">
        <ele>216</ele>
        <time>2013-03-10T13:21:27Z</time>
      </trkpt>
      <trkpt lat="48.52334" lon="-3.32346">
        <ele>216</ele>
        <time>2013-03-10T13:21:30Z</time>
      </trkpt>
      <trkpt lat="48.52333" lon="-3.3235">
        <ele>216</ele>
        <time>2013-03-10T13:21:33Z</time>
      </trkpt>
      <trkpt lat="48.52333" lon="-3.32355">
        <ele>215</ele>
        <time>2013-03-10T13:21:36Z</time>
      </trkpt>
      <trkpt lat="48.52332" lon="-3.32358">
        <ele>215</ele>
        <time>2013-03-10T13:21:38Z</time>
      </trkpt>
      <trkpt lat="48.52332" lon="-3.32361">
        <ele>215</ele>
        <time>2013-03-10T13:21:40Z</time>
      </trkpt>
      <trkpt lat="48.52332" lon="-3.32366">
        <ele>215</ele>
        <time>2013-03-10T13:21:43Z</time>
      </trkpt>
      <trkpt lat="48.52332" lon="-3.32371">
        <ele>215</ele>
        <time>2013-03-10T13:21:46Z</time>
      </trkpt>
      <trkpt lat="48.52332" lon="-3.32375">
        <ele>215</ele>
        <time>2013-03-10T13:21:48Z</time>
      </trkpt>
      <trkpt lat="48.52332" lon="-3.3238">
        <ele>215</ele>
        <time>2013-03-10T13:21:51Z</time>
      </trkpt>
      <trkpt lat="48.52333" lon="-3.32383">
        <ele>214</ele>
        <time>2013-03-10T13:21:53Z</time>
      </trkpt>
      <trkpt lat="48.52332" lon="-3.32389">
        <ele>214</ele>
        <time>2013-03-10T13:21:56Z</time>
      </trkpt>
      <trkpt lat="48.52332" lon="-3.32395">
        <ele>214</ele>
        <time>2013-03-10T13:21:59Z</time>
      </trkpt>
      <trkpt lat="48.52331" lon="-3.32401">
        <ele>214</ele>
        <time>2013-03-10T13:22:02Z</time>
      </trkpt>
      <trkpt lat="48.5233" lon="-3.32404">
        <ele>214</ele>
        <time>2013-03-10T13:22:04Z</time>
      </trkpt>
      <trkpt lat="48.5233" lon="-3.32408">
        <ele>214</ele>
        <time>2013-03-10T13:22:06Z</time>
      </trkpt>
      <trkpt lat="48.52329" lon="-3.32414">
        <ele>214</ele>
        <time>2013-03-10T13:22:09Z</time>
      </trkpt>
      <trkpt lat="48.52328" lon="-3.32418">
        <ele>214</ele>
        <time>2013-03-10T13:22:11Z</time>
      </trkpt>
      <trkpt lat="48.52327" lon="-3.32424">
        <ele>214</ele>
        <time>2013-03-10T13:22:14Z</time>
      </trkpt>
      <trkpt lat="48.52326" lon="-3.3243">
        <ele>214</ele>
        <time>2013-03-10T13:22:17Z</time>
      </trkpt>
      <trkpt lat="48.52325" lon="-3.32435">
        <ele>214</ele>
        <time>2013-03-10T13:22:20Z</time>
      </trkpt>
      <trkpt lat="48.52324" lon="-3.32438">
        <ele>214</ele>
        <time>2013-03-10T13:22:22Z</time>
      </trkpt>
      <trkpt lat="48.52325" lon="-3.32443">
        <ele>213</ele>
        <time>2013-03-10T13:22:25Z</time>
      </trkpt>
      <trkpt lat="48.52324" lon="-3.3245">
        <ele>213</ele>
        <time>2013-03-10T13:22:28Z</time>
      </trkpt>
      <trkpt lat="48.52323" lon="-3.32454">
        <ele>213</ele>
        <time>2013-03-10T13:22:30Z</time>
      </trkpt>
      <trkpt lat="48.52322" lon="-3.3246">
        <ele>213</ele>
        <time>2013-03-10T13:22:33Z</time>
      </trkpt>
      <trkpt lat="48.52322" lon="-3.32464">
        <ele>214</ele>
        <time>2013-03-10T13:22:35Z</time>
      </trkpt>
      <trkpt lat="48.52321" lon="-3.32468">
        <ele>213</ele>
        <time>2013-03-10T13:22:37Z</time>
      </trkpt>
      <trkpt lat="48.5232" lon="-3.32472">
        <ele>213</ele>
        <time>2013-03-10T13:22:39Z</time>
      </trkpt>
      <trkpt lat="48.52319" lon="-3.32476">
        <ele>213</ele>
        <time>2013-03-10T13:22:41Z</time>
      </trkpt>
      <trkpt lat="48.52318" lon="-3.32483">
        <ele>213</ele>
        <time>2013-03-10T13:22:44Z</time>
      </trkpt>
      <trkpt lat="48.52317" lon="-3.32486">
        <ele>213</ele>
        <time>2013-03-10T13:22:46Z</time>
      </trkpt>
      <trkpt lat="48.52316" lon="-3.32493">
        <ele>212</ele>
        <time>2013-03-10T13:22:49Z</time>
      </trkpt>
      <trkpt lat="48.52316" lon="-3.32497">
        <ele>212</ele>
        <time>2013-03-10T13:22:51Z</time>
      </trkpt>
      <trkpt lat="48.52315" lon="-3.32503">
        <ele>212</ele>
        <time>2013-03-10T13:22:54Z</time>
      </trkpt>
      <trkpt lat="48.52314" lon="-3.32509">
        <ele>212</ele>
        <time>2013-03-10T13:22:57Z</time>
      </trkpt>
      <trkpt lat="48.52313" lon="-3.32515">
        <ele>212</ele>
        <time>2013-03-10T13:23:00Z</time>
      </trkpt>
      <trkpt lat="48.52312" lon="-3.32522">
        <ele>212</ele>
        <time>2013-03-10T13:23:03Z</time>
      </trkpt>
      <trkpt lat="48.52311" lon="-3.32526">
        <ele>212</ele>
        <time>2013-03-10T13:23:05Z</time>
      </trkpt>
      <trkpt lat="48.52311" lon="-3.3253">
        <ele>212</ele>
        <time>2013-03-10T13:23:07Z</time>
      </trkpt>
      <trkpt lat="48.52309" lon="-3.32536">
        <ele>212</ele>
        <time>2013-03-10T13:23:10Z</time>
      </trkpt>
      <trkpt lat="48.52309" lon="-3.32542">
        <ele>212</ele>
        <time>2013-03-10T13:23:13Z</time>
      </trkpt>
      <trkpt lat="48.52308" lon="-3.32549">
        <ele>212</ele>
        <time>2013-03-10T13:23:16Z</time>
      </trkpt>
      <trkpt lat="48.52308" lon="-3.32553">
        <ele>212</ele>
        <time>2013-03-10T13:23:18Z</time>
      </trkpt>
      <trkpt lat="48.52308" lon="-3.3256">
        <ele>212</ele>
        <time>2013-03-10T13:23:21Z</time>
      </trkpt>
      <trkpt lat="48.52307" lon="-3.32564">
        <ele>212</ele>
        <time>2013-03-10T13:23:23Z</time>
      </trkpt>
      <trkpt lat="48.52306" lon="-3.32571">
        <ele>211</ele>
        <time>2013-03-10T13:23:26Z</time>
      </trkpt>
      <trkpt lat="48.52305" lon="-3.32577">
        <ele>211</ele>
        <time>2013-03-10T13:23:29Z</time>
      </trkpt>
      <trkpt lat="48.52305" lon="-3.32583">
        <ele>210</ele>
        <time>2013-03-10T13:23:32Z</time>
      </trkpt>
      <trkpt lat="48.52304" lon="-3.3259">
        <ele>210</ele>
        <time>2013-03-10T13:23:35Z</time>
      </trkpt>
      <trkpt lat="48.52303" lon="-3.32596">
        <ele>211</ele>
        <time>2013-03-10T13:23:38Z</time>
      </trkpt>
      <trkpt lat="48.52303" lon="-3.32603">
        <ele>211</ele>
        <time>2013-03-10T13:23:41Z</time>
      </trkpt>
      <trkpt lat="48.52303" lon="-3.32607">
        <ele>211</ele>
        <time>2013-03-10T13:23:43Z</time>
      </trkpt>
      <trkpt lat="48.52303" lon="-3.32614">
        <ele>211</ele>
        <time>2013-03-10T13:23:46Z</time>
      </trkpt>
      <trkpt lat="48.52301" lon="-3.3262">
        <ele>210</ele>
        <time>2013-03-10T13:23:49Z</time>
      </trkpt>
      <trkpt lat="48.523" lon="-3.32626">
        <ele>210</ele>
        <time>2013-03-10T13:23:52Z</time>
      </trkpt>
      <trkpt lat="48.52298" lon="-3.32632">
        <ele>210</ele>
        <time>2013-03-10T13:23:55Z</time>
      </trkpt>
      <trkpt lat="48.52298" lon="-3.32635">
        <ele>210</ele>
        <time>2013-03-10T13:23:57Z</time>
      </trkpt>
      <trkpt lat="48.52299" lon="-3.32638">
        <ele>210</ele>
        <time>2013-03-10T13:23:59Z</time>
      </trkpt>
      <trkpt lat="48.52299" lon="-3.32642">
        <ele>210</ele>
        <time>2013-03-10T13:24:01Z</time>
      </trkpt>
      <trkpt lat="48.52298" lon="-3.32647">
        <ele>210</ele>
        <time>2013-03-10T13:24:04Z</time>
      </trkpt>
      <trkpt lat="48.52296" lon="-3.32653">
        <ele>210</ele>
        <time>2013-03-10T13:24:07Z</time>
      </trkpt>
      <trkpt lat="48.52295" lon="-3.32657">
        <ele>210</ele>
        <time>2013-03-10T13:24:09Z</time>
      </trkpt>
      <trkpt lat="48.52294" lon="-3.32663">
        <ele>210</ele>
        <time>2013-03-10T13:24:12Z</time>
      </trkpt>
      <trkpt lat="48.52294" lon="-3.32667">
        <ele>209</ele>
        <time>2013-03-10T13:24:14Z</time>
      </trkpt>
      <trkpt lat="48.52293" lon="-3.32674">
        <ele>209</ele>
        <time>2013-03-10T13:24:17Z</time>
      </trkpt>
      <trkpt lat="48.52293" lon="-3.32678">
        <ele>209</ele>
        <time>2013-03-10T13:24:19Z</time>
      </trkpt>
      <trkpt lat="48.52292" lon="-3.32682">
        <ele>209</ele>
        <time>2013-03-10T13:24:21Z</time>
      </trkpt>
      <trkpt lat="48.52291" lon="-3.32688">
        <ele>209</ele>
        <time>2013-03-10T13:24:24Z</time>
      </trkpt>
      <trkpt lat="48.5229" lon="-3.32692">
        <ele>209</ele>
        <time>2013-03-10T13:24:26Z</time>
      </trkpt>
      <trkpt lat="48.52289" lon="-3.32696">
        <ele>209</ele>
        <time>2013-03-10T13:24:28Z</time>
      </trkpt>
      <trkpt lat="48.52288" lon="-3.32699">
        <ele>208</ele>
        <time>2013-03-10T13:24:30Z</time>
      </trkpt>
      <trkpt lat="48.52287" lon="-3.32704">
        <ele>208</ele>
        <time>2013-03-10T13:24:33Z</time>
      </trkpt>
      <trkpt lat="48.52286" lon="-3.32711">
        <ele>208</ele>
        <time>2013-03-10T13:24:36Z</time>
      </trkpt>
      <trkpt lat="48.52286" lon="-3.32715">
        <ele>208</ele>
        <time>2013-03-10T13:24:38Z</time>
      </trkpt>
      <trkpt lat="48.52285" lon="-3.3272">
        <ele>208</ele>
        <time>2013-03-10T13:24:41Z</time>
      </trkpt>
      <trkpt lat="48.52284" lon="-3.32724">
        <ele>208</ele>
        <time>2013-03-10T13:24:43Z</time>
      </trkpt>
      <trkpt lat="48.52284" lon="-3.32728">
        <ele>208</ele>
        <time>2013-03-10T13:24:45Z</time>
      </trkpt>
      <trkpt lat="48.52283" lon="-3.32734">
        <ele>208</ele>
        <time>2013-03-10T13:24:48Z</time>
      </trkpt>
      <trkpt lat="48.52282" lon="-3.32739">
        <ele>208</ele>
        <time>2013-03-10T13:24:50Z</time>
      </trkpt>
      <trkpt lat="48.52282" lon="-3.32745">
        <ele>208</ele>
        <time>2013-03-10T13:24:53Z</time>
      </trkpt>
      <trkpt lat="48.52281" lon="-3.32749">
        <ele>207</ele>
        <time>2013-03-10T13:24:55Z</time>
      </trkpt>
      <trkpt lat="48.52281" lon="-3.32756">
        <ele>207</ele>
        <time>2013-03-10T13:24:58Z</time>
      </trkpt>
      <trkpt lat="48.5228" lon="-3.32762">
        <ele>207</ele>
        <time>2013-03-10T13:25:01Z</time>
      </trkpt>
      <trkpt lat="48.52279" lon="-3.32767">
        <ele>207</ele>
        <time>2013-03-10T13:25:04Z</time>
      </trkpt>
      <trkpt lat="48.52278" lon="-3.32771">
        <ele>207</ele>
        <time>2013-03-10T13:25:06Z</time>
      </trkpt>
      <trkpt lat="48.52277" lon="-3.32778">
        <ele>207</ele>
        <time>2013-03-10T13:25:09Z</time>
      </trkpt>
      <trkpt lat="48.52276" lon="-3.32783">
        <ele>207</ele>
        <time>2013-03-10T13:25:12Z</time>
      </trkpt>
      <trkpt lat="48.52275" lon="-3.32787">
        <ele>207</ele>
        <time>2013-03-10T13:25:14Z</time>
      </trkpt>
      <trkpt lat="48.52275" lon="-3.32791">
        <ele>207</ele>
        <time>2013-03-10T13:25:16Z</time>
      </trkpt>
      <trkpt lat="48.52274" lon="-3.32797">
        <ele>206</ele>
        <time>2013-03-10T13:25:19Z</time>
      </trkpt>
      <trkpt lat="48.52273" lon="-3.32803">
        <ele>206</ele>
        <time>2013-03-10T13:25:22Z</time>
      </trkpt>
      <trkpt lat="48.52273" lon="-3.32806">
        <ele>206</ele>
        <time>2013-03-10T13:25:24Z</time>
      </trkpt>
      <trkpt lat="48.52273" lon="-3.32812">
        <ele>206</ele>
        <time>2013-03-10T13:25:27Z</time>
      </trkpt>
      <trkpt lat="48.52272" lon="-3.32816">
        <ele>205</ele>
        <time>2013-03-10T13:25:29Z</time>
      </trkpt>
      <trkpt lat="48.52271" lon="-3.32822">
        <ele>206</ele>
        <time>2013-03-10T13:25:32Z</time>
      </trkpt>
      <trkpt lat="48.52271" lon="-3.32826">
        <ele>206</ele>
        <time>2013-03-10T13:25:34Z</time>
      </trkpt>
      <trkpt lat="48.52271" lon="-3.3283">
        <ele>206</ele>
        <time>2013-03-10T13:25:36Z</time>
      </trkpt>
      <trkpt lat="48.5227" lon="-3.32837">
        <ele>206</ele>
        <time>2013-03-10T13:25:39Z</time>
      </trkpt>
      <trkpt lat="48.52269" lon="-3.32842">
        <ele>206</ele>
        <time>2013-03-10T13:25:42Z</time>
      </trkpt>
      <trkpt lat="48.52269" lon="-3.32846">
        <ele>206</ele>
        <time>2013-03-10T13:25:44Z</time>
      </trkpt>
      <trkpt lat="48.52268" lon="-3.32852">
        <ele>205</ele>
        <time>2013-03-10T13:25:47Z</time>
      </trkpt>
      <trkpt lat="48.52268" lon="-3.32858">
        <ele>205</ele>
        <time>2013-03-10T13:25:50Z</time>
      </trkpt>
      <trkpt lat="48.52267" lon="-3.32862">
        <ele>205</ele>
        <time>2013-03-10T13:25:52Z</time>
      </trkpt>
      <trkpt lat="48.52267" lon="-3.32867">
        <ele>205</ele>
        <time>2013-03-10T13:25:54Z</time>
      </trkpt>
      <trkpt lat="48.52265" lon="-3.32873">
        <ele>205</ele>
        <time>2013-03-10T13:25:57Z</time>
      </trkpt>
      <trkpt lat="48.52265" lon="-3.32877">
        <ele>205</ele>
        <time>2013-03-10T13:25:59Z</time>
      </trkpt>
      <trkpt lat="48.52265" lon="-3.32882">
        <ele>205</ele>
        <time>2013-03-10T13:26:02Z</time>
      </trkpt>
      <trkpt lat="48.52264" lon="-3.32887">
        <ele>205</ele>
        <time>2013-03-10T13:26:04Z</time>
      </trkpt>
      <trkpt lat="48.52264" lon="-3.32891">
        <ele>205</ele>
        <time>2013-03-10T13:26:06Z</time>
      </trkpt>
      <trkpt lat="48.52263" lon="-3.32894">
        <ele>205</ele>
        <time>2013-03-10T13:26:08Z</time>
      </trkpt>
      <trkpt lat="48.52262" lon="-3.32898">
        <ele>205</ele>
        <time>2013-03-10T13:26:10Z</time>
      </trkpt>
      <trkpt lat="48.52262" lon="-3.32904">
        <ele>205</ele>
        <time>2013-03-10T13:26:13Z</time>
      </trkpt>
      <trkpt lat="48.52261" lon="-3.32908">
        <ele>205</ele>
        <time>2013-03-10T13:26:15Z</time>
      </trkpt>
      <trkpt lat="48.52261" lon="-3.32914">
        <ele>205</ele>
        <time>2013-03-10T13:26:18Z</time>
      </trkpt>
      <trkpt lat="48.52261" lon="-3.3292">
        <ele>204</ele>
        <time>2013-03-10T13:26:21Z</time>
      </trkpt>
      <trkpt lat="48.5226" lon="-3.32924">
        <ele>204</ele>
        <time>2013-03-10T13:26:23Z</time>
      </trkpt>
      <trkpt lat="48.52259" lon="-3.3293">
        <ele>204</ele>
        <time>2013-03-10T13:26:26Z</time>
      </trkpt>
      <trkpt lat="48.52258" lon="-3.32936">
        <ele>204</ele>
        <time>2013-03-10T13:26:29Z</time>
      </trkpt>
      <trkpt lat="48.52258" lon="-3.3294">
        <ele>205</ele>
        <time>2013-03-10T13:26:31Z</time>
      </trkpt>
      <trkpt lat="48.52257" lon="-3.32946">
        <ele>204</ele>
        <time>2013-03-10T13:26:34Z</time>
      </trkpt>
      <trkpt lat="48.52257" lon="-3.32949">
        <ele>204</ele>
        <time>2013-03-10T13:26:36Z</time>
      </trkpt>
      <trkpt lat="48.52256" lon="-3.32955">
        <ele>204</ele>
        <time>2013-03-10T13:26:39Z</time>
      </trkpt>
      <trkpt lat="48.52255" lon="-3.32959">
        <ele>204</ele>
        <time>2013-03-10T13:26:41Z</time>
      </trkpt>
      <trkpt lat="48.52255" lon="-3.32964">
        <ele>204</ele>
        <time>2013-03-10T13:26:44Z</time>
      </trkpt>
      <trkpt lat="48.52255" lon="-3.32968">
        <ele>204</ele>
        <time>2013-03-10T13:26:46Z</time>
      </trkpt>
      <trkpt lat="48.52255" lon="-3.32972">
        <ele>204</ele>
        <time>2013-03-10T13:26:48Z</time>
      </trkpt>
      <trkpt lat="48.52254" lon="-3.32977">
        <ele>204</ele>
        <time>2013-03-10T13:26:51Z</time>
      </trkpt>
      <trkpt lat="48.52253" lon="-3.32983">
        <ele>204</ele>
        <time>2013-03-10T13:26:54Z</time>
      </trkpt>
      <trkpt lat="48.52253" lon="-3.32989">
        <ele>204</ele>
        <time>2013-03-10T13:26:57Z</time>
      </trkpt>
      <trkpt lat="48.52252" lon="-3.32993">
        <ele>204</ele>
        <time>2013-03-10T13:26:59Z</time>
      </trkpt>
      <trkpt lat="48.52252" lon="-3.32997">
        <ele>204</ele>
        <time>2013-03-10T13:27:01Z</time>
      </trkpt>
      <trkpt lat="48.52252" lon="-3.33003">
        <ele>203</ele>
        <time>2013-03-10T13:27:04Z</time>
      </trkpt>
      <trkpt lat="48.52251" lon="-3.33007">
        <ele>203</ele>
        <time>2013-03-10T13:27:06Z</time>
      </trkpt>
      <trkpt lat="48.5225" lon="-3.33013">
        <ele>203</ele>
        <time>2013-03-10T13:27:09Z</time>
      </trkpt>
      <trkpt lat="48.5225" lon="-3.33017">
        <ele>203</ele>
        <time>2013-03-10T13:27:11Z</time>
      </trkpt>
      <trkpt lat="48.52249" lon="-3.33021">
        <ele>203</ele>
        <time>2013-03-10T13:27:13Z</time>
      </trkpt>
      <trkpt lat="48.52249" lon="-3.33027">
        <ele>203</ele>
        <time>2013-03-10T13:27:16Z</time>
      </trkpt>
      <trkpt lat="48.52249" lon="-3.33033">
        <ele>203</ele>
        <time>2013-03-10T13:27:19Z</time>
      </trkpt>
      <trkpt lat="48.52249" lon="-3.33036">
        <ele>203</ele>
        <time>2013-03-10T13:27:21Z</time>
      </trkpt>
      <trkpt lat="48.52248" lon="-3.33041">
        <ele>203</ele>
        <time>2013-03-10T13:27:24Z</time>
      </trkpt>
      <trkpt lat="48.52248" lon="-3.33046">
        <ele>203</ele>
        <time>2013-03-10T13:27:27Z</time>
      </trkpt>
      <trkpt lat="48.52246" lon="-3.33051">
        <ele>203</ele>
        <time>2013-03-10T13:27:30Z</time>
      </trkpt>
      <trkpt lat="48.52246" lon="-3.33055">
        <ele>203</ele>
        <time>2013-03-10T13:27:32Z</time>
      </trkpt>
      <trkpt lat="48.52245" lon="-3.33058">
        <ele>203</ele>
        <time>2013-03-10T13:27:34Z</time>
      </trkpt>
      <trkpt lat="48.52245" lon="-3.33062">
        <ele>203</ele>
        <time>2013-03-10T13:27:36Z</time>
      </trkpt>
      <trkpt lat="48.52245" lon="-3.33067">
        <ele>202</ele>
        <time>2013-03-10T13:27:39Z</time>
      </trkpt>
      <trkpt lat="48.52244" lon="-3.33071">
        <ele>202</ele>
        <time>2013-03-10T13:27:41Z</time>
      </trkpt>
      <trkpt lat="48.52243" lon="-3.33074">
        <ele>202</ele>
        <time>2013-03-10T13:27:43Z</time>
      </trkpt>
      <trkpt lat="48.52243" lon="-3.33078">
        <ele>202</ele>
        <time>2013-03-10T13:27:45Z</time>
      </trkpt>
      <trkpt lat="48.52242" lon="-3.33083">
        <ele>202</ele>
        <time>2013-03-10T13:27:48Z</time>
      </trkpt>
      <trkpt lat="48.52241" lon="-3.33088">
        <ele>202</ele>
        <time>2013-03-10T13:27:51Z</time>
      </trkpt>
      <trkpt lat="48.5224" lon="-3.33094">
        <ele>202</ele>
        <time>2013-03-10T13:27:54Z</time>
      </trkpt>
      <trkpt lat="48.5224" lon="-3.33098">
        <ele>202</ele>
        <time>2013-03-10T13:27:56Z</time>
      </trkpt>
      <trkpt lat="48.52239" lon="-3.33102">
        <ele>202</ele>
        <time>2013-03-10T13:27:58Z</time>
      </trkpt>
      <trkpt lat="48.52238" lon="-3.33105">
        <ele>202</ele>
        <time>2013-03-10T13:28:00Z</time>
      </trkpt>
      <trkpt lat="48.52237" lon="-3.33111">
        <ele>202</ele>
        <time>2013-03-10T13:28:03Z</time>
      </trkpt>
      <trkpt lat="48.52236" lon="-3.33116">
        <ele>202</ele>
        <time>2013-03-10T13:28:05Z</time>
      </trkpt>
      <trkpt lat="48.52235" lon="-3.3312">
        <ele>201</ele>
        <time>2013-03-10T13:28:07Z</time>
      </trkpt>
      <trkpt lat="48.52233" lon="-3.33126">
        <ele>201</ele>
        <time>2013-03-10T13:28:10Z</time>
      </trkpt>
      <trkpt lat="48.52231" lon="-3.33132">
        <ele>201</ele>
        <time>2013-03-10T13:28:13Z</time>
      </trkpt>
      <trkpt lat="48.52229" lon="-3.33138">
        <ele>201</ele>
        <time>2013-03-10T13:28:16Z</time>
      </trkpt>
      <trkpt lat="48.52227" lon="-3.33145">
        <ele>201</ele>
        <time>2013-03-10T13:28:19Z</time>
      </trkpt>
      <trkpt lat="48.52227" lon="-3.33149">
        <ele>201</ele>
        <time>2013-03-10T13:28:21Z</time>
      </trkpt>
      <trkpt lat="48.52226" lon="-3.33155">
        <ele>201</ele>
        <time>2013-03-10T13:28:24Z</time>
      </trkpt>
      <trkpt lat="48.52224" lon="-3.3316">
        <ele>201</ele>
        <time>2013-03-10T13:28:27Z</time>
      </trkpt>
      <trkpt lat="48.52224" lon="-3.33165">
        <ele>201</ele>
        <time>2013-03-10T13:28:29Z</time>
      </trkpt>
      <trkpt lat="48.52224" lon="-3.33169">
        <ele>201</ele>
        <time>2013-03-10T13:28:31Z</time>
      </trkpt>
      <trkpt lat="48.52223" lon="-3.33175">
        <ele>201</ele>
        <time>2013-03-10T13:28:34Z</time>
      </trkpt>
      <trkpt lat="48.52222" lon="-3.33179">
        <ele>201</ele>
        <time>2013-03-10T13:28:36Z</time>
      </trkpt>
      <trkpt lat="48.52222" lon="-3.33183">
        <ele>201</ele>
        <time>2013-03-10T13:28:38Z</time>
      </trkpt>
      <trkpt lat="48.52221" lon="-3.3319">
        <ele>201</ele>
        <time>2013-03-10T13:28:41Z</time>
      </trkpt>
      <trkpt lat="48.5222" lon="-3.33196">
        <ele>201</ele>
        <time>2013-03-10T13:28:44Z</time>
      </trkpt>
      <trkpt lat="48.52219" lon="-3.33202">
        <ele>201</ele>
        <time>2013-03-10T13:28:47Z</time>
      </trkpt>
      <trkpt lat="48.52218" lon="-3.33206">
        <ele>200</ele>
        <time>2013-03-10T13:28:49Z</time>
      </trkpt>
      <trkpt lat="48.52217" lon="-3.33212">
        <ele>200</ele>
        <time>2013-03-10T13:28:52Z</time>
      </trkpt>
      <trkpt lat="48.52216" lon="-3.33219">
        <ele>200</ele>
        <time>2013-03-10T13:28:55Z</time>
      </trkpt>
      <trkpt lat="48.52216" lon="-3.33223">
        <ele>200</ele>
        <time>2013-03-10T13:28:57Z</time>
      </trkpt>
      <trkpt lat="48.52215" lon="-3.33226">
        <ele>200</ele>
        <time>2013-03-10T13:28:59Z</time>
      </trkpt>
      <trkpt lat="48.52215" lon="-3.3323">
        <ele>200</ele>
        <time>2013-03-10T13:29:01Z</time>
      </trkpt>
      <trkpt lat="48.52215" lon="-3.33236">
        <ele>200</ele>
        <time>2013-03-10T13:29:04Z</time>
      </trkpt>
      <trkpt lat="48.52214" lon="-3.33242">
        <ele>200</ele>
        <time>2013-03-10T13:29:07Z</time>
      </trkpt>
      <trkpt lat="48.52214" lon="-3.33246">
        <ele>200</ele>
        <time>2013-03-10T13:29:09Z</time>
      </trkpt>
      <trkpt lat="48.52214" lon="-3.33249">
        <ele>200</ele>
        <time>2013-03-10T13:29:11Z</time>
      </trkpt>
      <trkpt lat="48.52213" lon="-3.33256">
        <ele>200</ele>
        <time>2013-03-10T13:29:14Z</time>
      </trkpt>
      <trkpt lat="48.52212" lon="-3.33262">
        <ele>199</ele>
        <time>2013-03-10T13:29:17Z</time>
      </trkpt>
      <trkpt lat="48.52212" lon="-3.33265">
        <ele>200</ele>
        <time>2013-03-10T13:29:19Z</time>
      </trkpt>
      <trkpt lat="48.52212" lon="-3.33271">
        <ele>199</ele>
        <time>2013-03-10T13:29:22Z</time>
      </trkpt>
      <trkpt lat="48.52212" lon="-3.33275">
        <ele>199</ele>
        <time>2013-03-10T13:29:24Z</time>
      </trkpt>
      <trkpt lat="48.52212" lon="-3.33279">
        <ele>199</ele>
        <time>2013-03-10T13:29:27Z</time>
      </trkpt>
      <trkpt lat="48.52211" lon="-3.33286">
        <ele>199</ele>
        <time>2013-03-10T13:29:30Z</time>
      </trkpt>
      <trkpt lat="48.52211" lon="-3.33292">
        <ele>199</ele>
        <time>2013-03-10T13:29:33Z</time>
      </trkpt>
      <trkpt lat="48.5221" lon="-3.33297">
        <ele>199</ele>
        <time>2013-03-10T13:29:36Z</time>
      </trkpt>
      <trkpt lat="48.5221" lon="-3.33301">
        <ele>198</ele>
        <time>2013-03-10T13:29:38Z</time>
      </trkpt>
      <trkpt lat="48.52208" lon="-3.33308">
        <ele>199</ele>
        <time>2013-03-10T13:29:41Z</time>
      </trkpt>
      <trkpt lat="48.52207" lon="-3.33313">
        <ele>199</ele>
        <time>2013-03-10T13:29:44Z</time>
      </trkpt>
      <trkpt lat="48.52206" lon="-3.33317">
        <ele>199</ele>
        <time>2013-03-10T13:29:46Z</time>
      </trkpt>
      <trkpt lat="48.52206" lon="-3.33323">
        <ele>198</ele>
        <time>2013-03-10T13:29:49Z</time>
      </trkpt>
      <trkpt lat="48.52206" lon="-3.33328">
        <ele>198</ele>
        <time>2013-03-10T13:29:51Z</time>
      </trkpt>
      <trkpt lat="48.52205" lon="-3.33334">
        <ele>198</ele>
        <time>2013-03-10T13:29:54Z</time>
      </trkpt>
      <trkpt lat="48.52204" lon="-3.3334">
        <ele>198</ele>
        <time>2013-03-10T13:29:57Z</time>
      </trkpt>
      <trkpt lat="48.52204" lon="-3.33343">
        <ele>198</ele>
        <time>2013-03-10T13:29:59Z</time>
      </trkpt>
      <trkpt lat="48.52205" lon="-3.33349">
        <ele>197</ele>
        <time>2013-03-10T13:30:02Z</time>
      </trkpt>
      <trkpt lat="48.52204" lon="-3.33354">
        <ele>197</ele>
        <time>2013-03-10T13:30:05Z</time>
      </trkpt>
      <trkpt lat="48.52203" lon="-3.33361">
        <ele>197</ele>
        <time>2013-03-10T13:30:08Z</time>
      </trkpt>
      <trkpt lat="48.52203" lon="-3.33365">
        <ele>198</ele>
        <time>2013-03-10T13:30:10Z</time>
      </trkpt>
      <trkpt lat="48.52203" lon="-3.3337">
        <ele>197</ele>
        <time>2013-03-10T13:30:13Z</time>
      </trkpt>
      <trkpt lat="48.52202" lon="-3.33376">
        <ele>197</ele>
        <time>2013-03-10T13:30:16Z</time>
      </trkpt>
      <trkpt lat="48.52201" lon="-3.3338">
        <ele>197</ele>
        <time>2013-03-10T13:30:18Z</time>
      </trkpt>
      <trkpt lat="48.52201" lon="-3.33386">
        <ele>197</ele>
        <time>2013-03-10T13:30:21Z</time>
      </trkpt>
      <trkpt lat="48.522" lon="-3.33389">
        <ele>197</ele>
        <time>2013-03-10T13:30:23Z</time>
      </trkpt>
      <trkpt lat="48.52199" lon="-3.33396">
        <ele>197</ele>
        <time>2013-03-10T13:30:26Z</time>
      </trkpt>
      <trkpt lat="48.52199" lon="-3.33401">
        <ele>197</ele>
        <time>2013-03-10T13:30:28Z</time>
      </trkpt>
      <trkpt lat="48.52197" lon="-3.33405">
        <ele>197</ele>
        <time>2013-03-10T13:30:31Z</time>
      </trkpt>
      <trkpt lat="48.52196" lon="-3.33411">
        <ele>197</ele>
        <time>2013-03-10T13:30:34Z</time>
      </trkpt>
      <trkpt lat="48.52196" lon="-3.33415">
        <ele>196</ele>
        <time>2013-03-10T13:30:36Z</time>
      </trkpt>
      <trkpt lat="48.52195" lon="-3.33421">
        <ele>196</ele>
        <time>2013-03-10T13:30:39Z</time>
      </trkpt>
      <trkpt lat="48.52195" lon="-3.33425">
        <ele>197</ele>
        <time>2013-03-10T13:30:41Z</time>
      </trkpt>
      <trkpt lat="48.52195" lon="-3.33429">
        <ele>197</ele>
        <time>2013-03-10T13:30:43Z</time>
      </trkpt>
      <trkpt lat="48.52194" lon="-3.33436">
        <ele>197</ele>
        <time>2013-03-10T13:30:46Z</time>
      </trkpt>
      <trkpt lat="48.52193" lon="-3.3344">
        <ele>197</ele>
        <time>2013-03-10T13:30:48Z</time>
      </trkpt>
      <trkpt lat="48.52193" lon="-3.33443">
        <ele>196</ele>
        <time>2013-03-10T13:30:51Z</time>
      </trkpt>
      <trkpt lat="48.52193" lon="-3.33444">
        <ele>196</ele>
        <time>2013-03-10T13:30:54Z</time>
      </trkpt>
      <trkpt lat="48.52193" lon="-3.33449">
        <ele>196</ele>
        <time>2013-03-10T13:30:57Z</time>
      </trkpt>
      <trkpt lat="48.52193" lon="-3.33453">
        <ele>196</ele>
        <time>2013-03-10T13:30:59Z</time>
      </trkpt>
      <trkpt lat="48.52193" lon="-3.33458">
        <ele>196</ele>
        <time>2013-03-10T13:31:02Z</time>
      </trkpt>
      <trkpt lat="48.52191" lon="-3.33462">
        <ele>196</ele>
        <time>2013-03-10T13:31:04Z</time>
      </trkpt>
      <trkpt lat="48.5219" lon="-3.33469">
        <ele>196</ele>
        <time>2013-03-10T13:31:07Z</time>
      </trkpt>
      <trkpt lat="48.52188" lon="-3.33474">
        <ele>195</ele>
        <time>2013-03-10T13:31:10Z</time>
      </trkpt>
      <trkpt lat="48.52187" lon="-3.33479">
        <ele>195</ele>
        <time>2013-03-10T13:31:13Z</time>
      </trkpt>
      <trkpt lat="48.52187" lon="-3.33486">
        <ele>195</ele>
        <time>2013-03-10T13:31:16Z</time>
      </trkpt>
      <trkpt lat="48.52186" lon="-3.33489">
        <ele>195</ele>
        <time>2013-03-10T13:31:18Z</time>
      </trkpt>
      <trkpt lat="48.52186" lon="-3.33491">
        <ele>195</ele>
        <time>2013-03-10T13:31:20Z</time>
      </trkpt>
      <trkpt lat="48.52185" lon="-3.33492">
        <ele>195</ele>
        <time>2013-03-10T13:31:23Z</time>
      </trkpt>
      <trkpt lat="48.52183" lon="-3.33493">
        <ele>195</ele>
        <time>2013-03-10T13:31:26Z</time>
      </trkpt>
      <trkpt lat="48.52181" lon="-3.33493">
        <ele>195</ele>
        <time>2013-03-10T13:31:28Z</time>
      </trkpt>
      <trkpt lat="48.5218" lon="-3.33493">
        <ele>195</ele>
        <time>2013-03-10T13:31:31Z</time>
      </trkpt>
      <trkpt lat="48.52181" lon="-3.33494">
        <ele>195</ele>
        <time>2013-03-10T13:31:33Z</time>
      </trkpt>
      <trkpt lat="48.52183" lon="-3.33497">
        <ele>195</ele>
        <time>2013-03-10T13:31:36Z</time>
      </trkpt>
      <trkpt lat="48.52183" lon="-3.335">
        <ele>195</ele>
        <time>2013-03-10T13:31:38Z</time>
      </trkpt>
      <trkpt lat="48.52182" lon="-3.33505">
        <ele>195</ele>
        <time>2013-03-10T13:31:41Z</time>
      </trkpt>
      <trkpt lat="48.52181" lon="-3.33508">
        <ele>195</ele>
        <time>2013-03-10T13:31:43Z</time>
      </trkpt>
      <trkpt lat="48.5218" lon="-3.33512">
        <ele>195</ele>
        <time>2013-03-10T13:31:45Z</time>
      </trkpt>
      <trkpt lat="48.52179" lon="-3.33518">
        <ele>195</ele>
        <time>2013-03-10T13:31:48Z</time>
      </trkpt>
      <trkpt lat="48.52179" lon="-3.33525">
        <ele>195</ele>
        <time>2013-03-10T13:31:51Z</time>
      </trkpt>
      <trkpt lat="48.52179" lon="-3.33529">
        <ele>195</ele>
        <time>2013-03-10T13:31:53Z</time>
      </trkpt>
      <trkpt lat="48.52178" lon="-3.33535">
        <ele>194</ele>
        <time>2013-03-10T13:31:56Z</time>
      </trkpt>
      <trkpt lat="48.52177" lon="-3.3354">
        <ele>194</ele>
        <time>2013-03-10T13:31:58Z</time>
      </trkpt>
      <trkpt lat="48.52177" lon="-3.33546">
        <ele>194</ele>
        <time>2013-03-10T13:32:01Z</time>
      </trkpt>
      <trkpt lat="48.52177" lon="-3.3355">
        <ele>194</ele>
        <time>2013-03-10T13:32:03Z</time>
      </trkpt>
      <trkpt lat="48.52176" lon="-3.33556">
        <ele>194</ele>
        <time>2013-03-10T13:32:06Z</time>
      </trkpt>
      <trkpt lat="48.52175" lon="-3.33559">
        <ele>194</ele>
        <time>2013-03-10T13:32:08Z</time>
      </trkpt>
      <trkpt lat="48.52175" lon="-3.33562">
        <ele>194</ele>
        <time>2013-03-10T13:32:10Z</time>
      </trkpt>
      <trkpt lat="48.52174" lon="-3.33568">
        <ele>194</ele>
        <time>2013-03-10T13:32:13Z</time>
      </trkpt>
      <trkpt lat="48.52174" lon="-3.33575">
        <ele>194</ele>
        <time>2013-03-10T13:32:16Z</time>
      </trkpt>
      <trkpt lat="48.52173" lon="-3.3358">
        <ele>194</ele>
        <time>2013-03-10T13:32:19Z</time>
      </trkpt>
      <trkpt lat="48.52173" lon="-3.33584">
        <ele>194</ele>
        <time>2013-03-10T13:32:21Z</time>
      </trkpt>
      <trkpt lat="48.52172" lon="-3.3359">
        <ele>194</ele>
        <time>2013-03-10T13:32:24Z</time>
      </trkpt>
      <trkpt lat="48.52171" lon="-3.33596">
        <ele>194</ele>
        <time>2013-03-10T13:32:27Z</time>
      </trkpt>
      <trkpt lat="48.52171" lon="-3.33601">
        <ele>193</ele>
        <time>2013-03-10T13:32:30Z</time>
      </trkpt>
      <trkpt lat="48.5217" lon="-3.33608">
        <ele>193</ele>
        <time>2013-03-10T13:32:33Z</time>
      </trkpt>
      <trkpt lat="48.5217" lon="-3.33614">
        <ele>193</ele>
        <time>2013-03-10T13:32:36Z</time>
      </trkpt>
      <trkpt lat="48.52169" lon="-3.33619">
        <ele>193</ele>
        <time>2013-03-10T13:32:39Z</time>
      </trkpt>
      <trkpt lat="48.52169" lon="-3.33626">
        <ele>193</ele>
        <time>2013-03-10T13:32:42Z</time>
      </trkpt>
      <trkpt lat="48.52167" lon="-3.33632">
        <ele>193</ele>
        <time>2013-03-10T13:32:45Z</time>
      </trkpt>
      <trkpt lat="48.52166" lon="-3.33638">
        <ele>193</ele>
        <time>2013-03-10T13:32:48Z</time>
      </trkpt>
      <trkpt lat="48.52166" lon="-3.33645">
        <ele>193</ele>
        <time>2013-03-10T13:32:51Z</time>
      </trkpt>
      <trkpt lat="48.52165" lon="-3.33649">
        <ele>192</ele>
        <time>2013-03-10T13:32:53Z</time>
      </trkpt>
      <trkpt lat="48.52165" lon="-3.33653">
        <ele>192</ele>
        <time>2013-03-10T13:32:55Z</time>
      </trkpt>
      <trkpt lat="48.52164" lon="-3.33657">
        <ele>192</ele>
        <time>2013-03-10T13:32:57Z</time>
      </trkpt>
      <trkpt lat="48.52163" lon="-3.33663">
        <ele>192</ele>
        <time>2013-03-10T13:33:00Z</time>
      </trkpt>
      <trkpt lat="48.52162" lon="-3.33668">
        <ele>192</ele>
        <time>2013-03-10T13:33:03Z</time>
      </trkpt>
      <trkpt lat="48.52161" lon="-3.33675">
        <ele>192</ele>
        <time>2013-03-10T13:33:06Z</time>
      </trkpt>
      <trkpt lat="48.5216" lon="-3.33679">
        <ele>192</ele>
        <time>2013-03-10T13:33:09Z</time>
      </trkpt>
      <trkpt lat="48.52158" lon="-3.3368">
        <ele>192</ele>
        <time>2013-03-10T13:33:11Z</time>
      </trkpt>
      <trkpt lat="48.52156" lon="-3.33682">
        <ele>192</ele>
        <time>2013-03-10T13:33:13Z</time>
      </trkpt>
      <trkpt lat="48.52153" lon="-3.33683">
        <ele>192</ele>
        <time>2013-03-10T13:33:16Z</time>
      </trkpt>
      <trkpt lat="48.52152" lon="-3.33683">
        <ele>191</ele>
        <time>2013-03-10T13:33:18Z</time>
      </trkpt>
      <trkpt lat="48.52149" lon="-3.33682">
        <ele>191</ele>
        <time>2013-03-10T13:33:21Z</time>
      </trkpt>
      <trkpt lat="48.52146" lon="-3.33682">
        <ele>192</ele>
        <time>2013-03-10T13:33:24Z</time>
      </trkpt>
      <trkpt lat="48.52143" lon="-3.3368">
        <ele>192</ele>
        <time>2013-03-10T13:33:27Z</time>
      </trkpt>
      <trkpt lat="48.52141" lon="-3.33679">
        <ele>193</ele>
        <time>2013-03-10T13:33:29Z</time>
      </trkpt>
      <trkpt lat="48.52139" lon="-3.33678">
        <ele>193</ele>
        <time>2013-03-10T13:33:31Z</time>
      </trkpt>
      <trkpt lat="48.52137" lon="-3.33677">
        <ele>193</ele>
        <time>2013-03-10T13:33:34Z</time>
      </trkpt>
      <trkpt lat="48.52135" lon="-3.33676">
        <ele>193</ele>
        <time>2013-03-10T13:33:36Z</time>
      </trkpt>
      <trkpt lat="48.52132" lon="-3.33674">
        <ele>193</ele>
        <time>2013-03-10T13:33:39Z</time>
      </trkpt>
      <trkpt lat="48.52128" lon="-3.33671">
        <ele>193</ele>
        <time>2013-03-10T13:33:42Z</time>
      </trkpt>
      <trkpt lat="48.52126" lon="-3.33671">
        <ele>193</ele>
        <time>2013-03-10T13:33:44Z</time>
      </trkpt>
      <trkpt lat="48.52123" lon="-3.3367">
        <ele>194</ele>
        <time>2013-03-10T13:33:47Z</time>
      </trkpt>
      <trkpt lat="48.52119" lon="-3.33667">
        <ele>194</ele>
        <time>2013-03-10T13:33:50Z</time>
      </trkpt>
      <trkpt lat="48.52116" lon="-3.33667">
        <ele>194</ele>
        <time>2013-03-10T13:33:53Z</time>
      </trkpt>
      <trkpt lat="48.52113" lon="-3.33666">
        <ele>194</ele>
        <time>2013-03-10T13:33:56Z</time>
      </trkpt>
      <trkpt lat="48.5211" lon="-3.33665">
        <ele>194</ele>
        <time>2013-03-10T13:33:59Z</time>
      </trkpt>
      <trkpt lat="48.52107" lon="-3.33664">
        <ele>194</ele>
        <time>2013-03-10T13:34:02Z</time>
      </trkpt>
      <trkpt lat="48.52104" lon="-3.33663">
        <ele>194</ele>
        <time>2013-03-10T13:34:05Z</time>
      </trkpt>
      <trkpt lat="48.52101" lon="-3.33662">
        <ele>194</ele>
        <time>2013-03-10T13:34:08Z</time>
      </trkpt>
      <trkpt lat="48.52097" lon="-3.3366">
        <ele>194</ele>
        <time>2013-03-10T13:34:11Z</time>
      </trkpt>
      <trkpt lat="48.52094" lon="-3.33658">
        <ele>194</ele>
        <time>2013-03-10T13:34:14Z</time>
      </trkpt>
      <trkpt lat="48.52091" lon="-3.33657">
        <ele>194</ele>
        <time>2013-03-10T13:34:17Z</time>
      </trkpt>
      <trkpt lat="48.52088" lon="-3.33657">
        <ele>194</ele>
        <time>2013-03-10T13:34:20Z</time>
      </trkpt>
      <trkpt lat="48.52087" lon="-3.33656">
        <ele>194</ele>
        <time>2013-03-10T13:34:22Z</time>
      </trkpt>
      <trkpt lat="48.52084" lon="-3.33655">
        <ele>194</ele>
        <time>2013-03-10T13:34:25Z</time>
      </trkpt>
      <trkpt lat="48.52082" lon="-3.33655">
        <ele>194</ele>
        <time>2013-03-10T13:34:27Z</time>
      </trkpt>
      <trkpt lat="48.52078" lon="-3.33654">
        <ele>194</ele>
        <time>2013-03-10T13:34:30Z</time>
      </trkpt>
      <trkpt lat="48.52076" lon="-3.33654">
        <ele>195</ele>
        <time>2013-03-10T13:34:32Z</time>
      </trkpt>
      <trkpt lat="48.52073" lon="-3.33653">
        <ele>194</ele>
        <time>2013-03-10T13:34:35Z</time>
      </trkpt>
      <trkpt lat="48.5207" lon="-3.33653">
        <ele>194</ele>
        <time>2013-03-10T13:34:38Z</time>
      </trkpt>
      <trkpt lat="48.52068" lon="-3.33652">
        <ele>194</ele>
        <time>2013-03-10T13:34:40Z</time>
      </trkpt>
      <trkpt lat="48.52065" lon="-3.33653">
        <ele>194</ele>
        <time>2013-03-10T13:34:43Z</time>
      </trkpt>
      <trkpt lat="48.52063" lon="-3.33652">
        <ele>194</ele>
        <time>2013-03-10T13:34:45Z</time>
      </trkpt>
      <trkpt lat="48.5206" lon="-3.33651">
        <ele>194</ele>
        <time>2013-03-10T13:34:48Z</time>
      </trkpt>
      <trkpt lat="48.52056" lon="-3.3365">
        <ele>194</ele>
        <time>2013-03-10T13:34:51Z</time>
      </trkpt>
      <trkpt lat="48.52053" lon="-3.33649">
        <ele>194</ele>
        <time>2013-03-10T13:34:54Z</time>
      </trkpt>
      <trkpt lat="48.5205" lon="-3.3365">
        <ele>193</ele>
        <time>2013-03-10T13:34:57Z</time>
      </trkpt>
      <trkpt lat="48.52048" lon="-3.3365">
        <ele>193</ele>
        <time>2013-03-10T13:34:59Z</time>
      </trkpt>
      <trkpt lat="48.52045" lon="-3.3365">
        <ele>193</ele>
        <time>2013-03-10T13:35:02Z</time>
      </trkpt>
      <trkpt lat="48.52044" lon="-3.3365">
        <ele>193</ele>
        <time>2013-03-10T13:35:04Z</time>
      </trkpt>
      <trkpt lat="48.52041" lon="-3.33649">
        <ele>193</ele>
        <time>2013-03-10T13:35:06Z</time>
      </trkpt>
      <trkpt lat="48.52038" lon="-3.3365">
        <ele>193</ele>
        <time>2013-03-10T13:35:09Z</time>
      </trkpt>
      <trkpt lat="48.52035" lon="-3.3365">
        <ele>193</ele>
        <time>2013-03-10T13:35:12Z</time>
      </trkpt>
      <trkpt lat="48.52032" lon="-3.3365">
        <ele>193</ele>
        <time>2013-03-10T13:35:14Z</time>
      </trkpt>
      <trkpt lat="48.52029" lon="-3.33649">
        <ele>193</ele>
        <time>2013-03-10T13:35:17Z</time>
      </trkpt>
      <trkpt lat="48.52028" lon="-3.33648">
        <ele>193</ele>
        <time>2013-03-10T13:35:19Z</time>
      </trkpt>
      <trkpt lat="48.52025" lon="-3.33647">
        <ele>193</ele>
        <time>2013-03-10T13:35:21Z</time>
      </trkpt>
      <trkpt lat="48.52023" lon="-3.33647">
        <ele>193</ele>
        <time>2013-03-10T13:35:23Z</time>
      </trkpt>
      <trkpt lat="48.5202" lon="-3.33646">
        <ele>193</ele>
        <time>2013-03-10T13:35:26Z</time>
      </trkpt>
      <trkpt lat="48.52017" lon="-3.33645">
        <ele>193</ele>
        <time>2013-03-10T13:35:28Z</time>
      </trkpt>
      <trkpt lat="48.52015" lon="-3.33644">
        <ele>192</ele>
        <time>2013-03-10T13:35:30Z</time>
      </trkpt>
      <trkpt lat="48.52011" lon="-3.33642">
        <ele>192</ele>
        <time>2013-03-10T13:35:32Z</time>
      </trkpt>
      <trkpt lat="48.52008" lon="-3.3364">
        <ele>192</ele>
        <time>2013-03-10T13:35:35Z</time>
      </trkpt>
      <trkpt lat="48.52003" lon="-3.33639">
        <ele>192</ele>
        <time>2013-03-10T13:35:38Z</time>
      </trkpt>
      <trkpt lat="48.52" lon="-3.33637">
        <ele>192</ele>
        <time>2013-03-10T13:35:41Z</time>
      </trkpt>
      <trkpt lat="48.51996" lon="-3.33637">
        <ele>191</ele>
        <time>2013-03-10T13:35:44Z</time>
      </trkpt>
      <trkpt lat="48.51994" lon="-3.33637">
        <ele>191</ele>
        <time>2013-03-10T13:35:46Z</time>
      </trkpt>
      <trkpt lat="48.5199" lon="-3.33636">
        <ele>191</ele>
        <time>2013-03-10T13:35:49Z</time>
      </trkpt>
      <trkpt lat="48.51987" lon="-3.33635">
        <ele>191</ele>
        <time>2013-03-10T13:35:51Z</time>
      </trkpt>
      <trkpt lat="48.51984" lon="-3.33634">
        <ele>191</ele>
        <time>2013-03-10T13:35:54Z</time>
      </trkpt>
      <trkpt lat="48.5198" lon="-3.33633">
        <ele>191</ele>
        <time>2013-03-10T13:35:57Z</time>
      </trkpt>
      <trkpt lat="48.51977" lon="-3.33633">
        <ele>190</ele>
        <time>2013-03-10T13:36:00Z</time>
      </trkpt>
      <trkpt lat="48.51975" lon="-3.33632">
        <ele>189</ele>
        <time>2013-03-10T13:36:03Z</time>
      </trkpt>
      <trkpt lat="48.5197" lon="-3.3363">
        <ele>189</ele>
        <time>2013-03-10T13:36:06Z</time>
      </trkpt>
      <trkpt lat="48.51967" lon="-3.3363">
        <ele>188</ele>
        <time>2013-03-10T13:36:09Z</time>
      </trkpt>
      <trkpt lat="48.51964" lon="-3.3363">
        <ele>188</ele>
        <time>2013-03-10T13:36:12Z</time>
      </trkpt>
      <trkpt lat="48.5196" lon="-3.33629">
        <ele>187</ele>
        <time>2013-03-10T13:36:15Z</time>
      </trkpt>
      <trkpt lat="48.51957" lon="-3.3363">
        <ele>187</ele>
        <time>2013-03-10T13:36:17Z</time>
      </trkpt>
      <trkpt lat="48.51955" lon="-3.3363">
        <ele>187</ele>
        <time>2013-03-10T13:36:19Z</time>
      </trkpt>
      <trkpt lat="48.51952" lon="-3.3363">
        <ele>186</ele>
        <time>2013-03-10T13:36:22Z</time>
      </trkpt>
      <trkpt lat="48.51949" lon="-3.3363">
        <ele>186</ele>
        <time>2013-03-10T13:36:24Z</time>
      </trkpt>
      <trkpt lat="48.51946" lon="-3.33628">
        <ele>185</ele>
        <time>2013-03-10T13:36:26Z</time>
      </trkpt>
      <trkpt lat="48.51944" lon="-3.33627">
        <ele>185</ele>
        <time>2013-03-10T13:36:28Z</time>
      </trkpt>
      <trkpt lat="48.51941" lon="-3.33626">
        <ele>185</ele>
        <time>2013-03-10T13:36:31Z</time>
      </trkpt>
      <trkpt lat="48.51939" lon="-3.33625">
        <ele>185</ele>
        <time>2013-03-10T13:36:33Z</time>
      </trkpt>
      <trkpt lat="48.51936" lon="-3.33624">
        <ele>184</ele>
        <time>2013-03-10T13:36:35Z</time>
      </trkpt>
      <trkpt lat="48.51931" lon="-3.33623">
        <ele>184</ele>
        <time>2013-03-10T13:36:38Z</time>
      </trkpt>
      <trkpt lat="48.51929" lon="-3.33622">
        <ele>184</ele>
        <time>2013-03-10T13:36:40Z</time>
      </trkpt>
      <trkpt lat="48.51926" lon="-3.3362">
        <ele>184</ele>
        <time>2013-03-10T13:36:43Z</time>
      </trkpt>
      <trkpt lat="48.51923" lon="-3.33619">
        <ele>184</ele>
        <time>2013-03-10T13:36:45Z</time>
      </trkpt>
      <trkpt lat="48.5192" lon="-3.33618">
        <ele>184</ele>
        <time>2013-03-10T13:36:48Z</time>
      </trkpt>
      <trkpt lat="48.51917" lon="-3.33617">
        <ele>183</ele>
        <time>2013-03-10T13:36:51Z</time>
      </trkpt>
      <trkpt lat="48.51913" lon="-3.33616">
        <ele>183</ele>
        <time>2013-03-10T13:36:54Z</time>
      </trkpt>
      <trkpt lat="48.51911" lon="-3.33616">
        <ele>183</ele>
        <time>2013-03-10T13:36:56Z</time>
      </trkpt>
      <trkpt lat="48.51909" lon="-3.33615">
        <ele>182</ele>
        <time>2013-03-10T13:36:58Z</time>
      </trkpt>
      <trkpt lat="48.51906" lon="-3.33614">
        <ele>182</ele>
        <time>2013-03-10T13:37:01Z</time>
      </trkpt>
      <trkpt lat="48.51902" lon="-3.33614">
        <ele>182</ele>
        <time>2013-03-10T13:37:04Z</time>
      </trkpt>
      <trkpt lat="48.51899" lon="-3.33613">
        <ele>182</ele>
        <time>2013-03-10T13:37:06Z</time>
      </trkpt>
      <trkpt lat="48.51895" lon="-3.33614">
        <ele>182</ele>
        <time>2013-03-10T13:37:09Z</time>
      </trkpt>
      <trkpt lat="48.51892" lon="-3.33613">
        <ele>182</ele>
        <time>2013-03-10T13:37:11Z</time>
      </trkpt>
      <trkpt lat="48.5189" lon="-3.33613">
        <ele>181</ele>
        <time>2013-03-10T13:37:14Z</time>
      </trkpt>
      <trkpt lat="48.51886" lon="-3.33614">
        <ele>182</ele>
        <time>2013-03-10T13:37:17Z</time>
      </trkpt>
      <trkpt lat="48.51883" lon="-3.33613">
        <ele>182</ele>
        <time>2013-03-10T13:37:19Z</time>
      </trkpt>
      <trkpt lat="48.5188" lon="-3.33612">
        <ele>181</ele>
        <time>2013-03-10T13:37:22Z</time>
      </trkpt>
      <trkpt lat="48.51877" lon="-3.33612">
        <ele>181</ele>
        <time>2013-03-10T13:37:24Z</time>
      </trkpt>
      <trkpt lat="48.51874" lon="-3.33611">
        <ele>181</ele>
        <time>2013-03-10T13:37:27Z</time>
      </trkpt>
      <trkpt lat="48.5187" lon="-3.3361">
        <ele>180</ele>
        <time>2013-03-10T13:37:30Z</time>
      </trkpt>
      <trkpt lat="48.51867" lon="-3.3361">
        <ele>179</ele>
        <time>2013-03-10T13:37:33Z</time>
      </trkpt>
      <trkpt lat="48.51865" lon="-3.3361">
        <ele>178</ele>
        <time>2013-03-10T13:37:36Z</time>
      </trkpt>
      <trkpt lat="48.51861" lon="-3.33608">
        <ele>178</ele>
        <time>2013-03-10T13:37:39Z</time>
      </trkpt>
      <trkpt lat="48.51859" lon="-3.33606">
        <ele>177</ele>
        <time>2013-03-10T13:37:42Z</time>
      </trkpt>
      <trkpt lat="48.51858" lon="-3.33605">
        <ele>177</ele>
        <time>2013-03-10T13:37:44Z</time>
      </trkpt>
      <trkpt lat="48.51857" lon="-3.33604">
        <ele>177</ele>
        <time>2013-03-10T13:37:46Z</time>
      </trkpt>
      <trkpt lat="48.51854" lon="-3.33603">
        <ele>177</ele>
        <time>2013-03-10T13:37:48Z</time>
      </trkpt>
      <trkpt lat="48.5185" lon="-3.33602">
        <ele>176</ele>
        <time>2013-03-10T13:37:51Z</time>
      </trkpt>
      <trkpt lat="48.51848" lon="-3.33601">
        <ele>176</ele>
        <time>2013-03-10T13:37:53Z</time>
      </trkpt>
      <trkpt lat="48.51847" lon="-3.33601">
        <ele>176</ele>
        <time>2013-03-10T13:37:56Z</time>
      </trkpt>
      <trkpt lat="48.51844" lon="-3.33599">
        <ele>176</ele>
        <time>2013-03-10T13:37:59Z</time>
      </trkpt>
      <trkpt lat="48.51844" lon="-3.33599">
        <ele>177</ele>
        <time>2013-03-10T13:38:01Z</time>
      </trkpt>
      <trkpt lat="48.51842" lon="-3.33599">
        <ele>177</ele>
        <time>2013-03-10T13:38:04Z</time>
      </trkpt>
      <trkpt lat="48.51839" lon="-3.33598">
        <ele>178</ele>
        <time>2013-03-10T13:38:07Z</time>
      </trkpt>
      <trkpt lat="48.51837" lon="-3.33598">
        <ele>178</ele>
        <time>2013-03-10T13:38:10Z</time>
      </trkpt>
      <trkpt lat="48.51835" lon="-3.33597">
        <ele>179</ele>
        <time>2013-03-10T13:38:13Z</time>
      </trkpt>
      <trkpt lat="48.51832" lon="-3.33597">
        <ele>179</ele>
        <time>2013-03-10T13:38:16Z</time>
      </trkpt>
      <trkpt lat="48.51831" lon="-3.33596">
        <ele>180</ele>
        <time>2013-03-10T13:38:18Z</time>
      </trkpt>
      <trkpt lat="48.51828" lon="-3.33596">
        <ele>181</ele>
        <time>2013-03-10T13:38:21Z</time>
      </trkpt>
      <trkpt lat="48.51826" lon="-3.33596">
        <ele>181</ele>
        <time>2013-03-10T13:38:23Z</time>
      </trkpt>
      <trkpt lat="48.51825" lon="-3.33596">
        <ele>181</ele>
        <time>2013-03-10T13:38:25Z</time>
      </trkpt>
      <trkpt lat="48.51824" lon="-3.33595">
        <ele>182</ele>
        <time>2013-03-10T13:38:28Z</time>
      </trkpt>
      <trkpt lat="48.51823" lon="-3.33595">
        <ele>182</ele>
        <time>2013-03-10T13:38:30Z</time>
      </trkpt>
      <trkpt lat="48.51821" lon="-3.33593">
        <ele>182</ele>
        <time>2013-03-10T13:38:33Z</time>
      </trkpt>
      <trkpt lat="48.51818" lon="-3.33592">
        <ele>182</ele>
        <time>2013-03-10T13:38:36Z</time>
      </trkpt>
      <trkpt lat="48.51817" lon="-3.33591">
        <ele>182</ele>
        <time>2013-03-10T13:38:38Z</time>
      </trkpt>
      <trkpt lat="48.51814" lon="-3.33589">
        <ele>182</ele>
        <time>2013-03-10T13:38:41Z</time>
      </trkpt>
      <trkpt lat="48.51811" lon="-3.33588">
        <ele>182</ele>
        <time>2013-03-10T13:38:44Z</time>
      </trkpt>
      <trkpt lat="48.5181" lon="-3.33587">
        <ele>183</ele>
        <time>2013-03-10T13:38:46Z</time>
      </trkpt>
      <trkpt lat="48.51807" lon="-3.33586">
        <ele>183</ele>
        <time>2013-03-10T13:38:49Z</time>
      </trkpt>
      <trkpt lat="48.51804" lon="-3.33584">
        <ele>183</ele>
        <time>2013-03-10T13:38:52Z</time>
      </trkpt>
      <trkpt lat="48.51802" lon="-3.33583">
        <ele>183</ele>
        <time>2013-03-10T13:38:54Z</time>
      </trkpt>
      <trkpt lat="48.51799" lon="-3.33582">
        <ele>184</ele>
        <time>2013-03-10T13:38:57Z</time>
      </trkpt>
      <trkpt lat="48.51797" lon="-3.33582">
        <ele>184</ele>
        <time>2013-03-10T13:38:59Z</time>
      </trkpt>
      <trkpt lat="48.51794" lon="-3.33581">
        <ele>184</ele>
        <time>2013-03-10T13:39:02Z</time>
      </trkpt>
      <trkpt lat="48.51792" lon="-3.33579">
        <ele>184</ele>
        <time>2013-03-10T13:39:05Z</time>
      </trkpt>
      <trkpt lat="48.5179" lon="-3.33577">
        <ele>184</ele>
        <time>2013-03-10T13:39:07Z</time>
      </trkpt>
      <trkpt lat="48.51788" lon="-3.33577">
        <ele>184</ele>
        <time>2013-03-10T13:39:10Z</time>
      </trkpt>
      <trkpt lat="48.51786" lon="-3.33576">
        <ele>184</ele>
        <time>2013-03-10T13:39:12Z</time>
      </trkpt>
      <trkpt lat="48.51783" lon="-3.33575">
        <ele>185</ele>
        <time>2013-03-10T13:39:15Z</time>
      </trkpt>
      <trkpt lat="48.5178" lon="-3.33575">
        <ele>185</ele>
        <time>2013-03-10T13:39:18Z</time>
      </trkpt>
      <trkpt lat="48.51778" lon="-3.33575">
        <ele>185</ele>
        <time>2013-03-10T13:39:21Z</time>
      </trkpt>
      <trkpt lat="48.51776" lon="-3.33574">
        <ele>185</ele>
        <time>2013-03-10T13:39:24Z</time>
      </trkpt>
      <trkpt lat="48.51773" lon="-3.33574">
        <ele>185</ele>
        <time>2013-03-10T13:39:27Z</time>
      </trkpt>
      <trkpt lat="48.5177" lon="-3.33575">
        <ele>185</ele>
        <time>2013-03-10T13:39:30Z</time>
      </trkpt>
      <trkpt lat="48.51768" lon="-3.33575">
        <ele>185</ele>
        <time>2013-03-10T13:39:33Z</time>
      </trkpt>
      <trkpt lat="48.51766" lon="-3.33574">
        <ele>185</ele>
        <time>2013-03-10T13:39:36Z</time>
      </trkpt>
      <trkpt lat="48.51764" lon="-3.33574">
        <ele>185</ele>
        <time>2013-03-10T13:39:38Z</time>
      </trkpt>
      <trkpt lat="48.51762" lon="-3.33576">
        <ele>185</ele>
        <time>2013-03-10T13:39:41Z</time>
      </trkpt>
      <trkpt lat="48.51762" lon="-3.33576">
        <ele>185</ele>
        <time>2013-03-10T13:39:44Z</time>
      </trkpt>
      <trkpt lat="48.51762" lon="-3.33576">
        <ele>185</ele>
        <time>2013-03-10T13:39:47Z</time>
      </trkpt>
      <trkpt lat="48.51762" lon="-3.33576">
        <ele>185</ele>
        <time>2013-03-10T13:39:50Z</time>
      </trkpt>
      <trkpt lat="48.51761" lon="-3.33577">
        <ele>185</ele>
        <time>2013-03-10T13:39:52Z</time>
      </trkpt>
      <trkpt lat="48.51761" lon="-3.33578">
        <ele>185</ele>
        <time>2013-03-10T13:39:54Z</time>
      </trkpt>
      <trkpt lat="48.5176" lon="-3.3358">
        <ele>185</ele>
        <time>2013-03-10T13:39:57Z</time>
      </trkpt>
      <trkpt lat="48.51761" lon="-3.33581">
        <ele>185</ele>
        <time>2013-03-10T13:39:59Z</time>
      </trkpt>
      <trkpt lat="48.5176" lon="-3.33584">
        <ele>186</ele>
        <time>2013-03-10T13:40:02Z</time>
      </trkpt>
      <trkpt lat="48.5176" lon="-3.33586">
        <ele>186</ele>
        <time>2013-03-10T13:40:04Z</time>
      </trkpt>
      <trkpt lat="48.51761" lon="-3.33587">
        <ele>186</ele>
        <time>2013-03-10T13:40:08Z</time>
      </trkpt>
      <trkpt lat="48.51761" lon="-3.33587">
        <ele>185</ele>
        <time>2013-03-10T13:40:10Z</time>
      </trkpt>
      <trkpt lat="48.51761" lon="-3.33587">
        <ele>185</ele>
        <time>2013-03-10T13:40:13Z</time>
      </trkpt>
      <trkpt lat="48.5176" lon="-3.33588">
        <ele>185</ele>
        <time>2013-03-10T13:40:15Z</time>
      </trkpt>
      <trkpt lat="48.5176" lon="-3.33589">
        <ele>185</ele>
        <time>2013-03-10T13:40:17Z</time>
      </trkpt>
      <trkpt lat="48.5176" lon="-3.33589">
        <ele>186</ele>
        <time>2013-03-10T13:40:19Z</time>
      </trkpt>
      <trkpt lat="48.51761" lon="-3.33589">
        <ele>186</ele>
        <time>2013-03-10T13:40:21Z</time>
      </trkpt>
      <trkpt lat="48.51762" lon="-3.33589">
        <ele>186</ele>
        <time>2013-03-10T13:40:24Z</time>
      </trkpt>
      <trkpt lat="48.51764" lon="-3.3359">
        <ele>186</ele>
        <time>2013-03-10T13:40:27Z</time>
      </trkpt>
      <trkpt lat="48.51765" lon="-3.3359">
        <ele>186</ele>
        <time>2013-03-10T13:40:29Z</time>
      </trkpt>
      <trkpt lat="48.51767" lon="-3.3359">
        <ele>186</ele>
        <time>2013-03-10T13:40:32Z</time>
      </trkpt>
      <trkpt lat="48.51767" lon="-3.33591">
        <ele>186</ele>
        <time>2013-03-10T13:40:34Z</time>
      </trkpt>
      <trkpt lat="48.51768" lon="-3.33591">
        <ele>186</ele>
        <time>2013-03-10T13:40:36Z</time>
      </trkpt>
      <trkpt lat="48.51768" lon="-3.3359">
        <ele>186</ele>
        <time>2013-03-10T13:40:39Z</time>
      </trkpt>
      <trkpt lat="48.51769" lon="-3.3359">
        <ele>186</ele>
        <time>2013-03-10T13:40:41Z</time>
      </trkpt>
      <trkpt lat="48.5177" lon="-3.33591">
        <ele>186</ele>
        <time>2013-03-10T13:40:43Z</time>
      </trkpt>
      <trkpt lat="48.51771" lon="-3.3359">
        <ele>186</ele>
        <time>2013-03-10T13:40:46Z</time>
      </trkpt>
      <trkpt lat="48.51771" lon="-3.3359">
        <ele>186</ele>
        <time>2013-03-10T13:40:49Z</time>
      </trkpt>
      <trkpt lat="48.51771" lon="-3.33589">
        <ele>186</ele>
        <time>2013-03-10T13:40:52Z</time>
      </trkpt>
      <trkpt lat="48.51772" lon="-3.33588">
        <ele>185</ele>
        <time>2013-03-10T13:40:55Z</time>
      </trkpt>
      <trkpt lat="48.51772" lon="-3.33587">
        <ele>186</ele>
        <time>2013-03-10T13:40:57Z</time>
      </trkpt>
      <trkpt lat="48.51772" lon="-3.33585">
        <ele>186</ele>
        <time>2013-03-10T13:41:00Z</time>
      </trkpt>
      <trkpt lat="48.51771" lon="-3.33583">
        <ele>186</ele>
        <time>2013-03-10T13:41:02Z</time>
      </trkpt>
      <trkpt lat="48.5177" lon="-3.33582">
        <ele>186</ele>
        <time>2013-03-10T13:41:04Z</time>
      </trkpt>
      <trkpt lat="48.51767" lon="-3.33581">
        <ele>186</ele>
        <time>2013-03-10T13:41:07Z</time>
      </trkpt>
      <trkpt lat="48.51765" lon="-3.33581">
        <ele>186</ele>
        <time>2013-03-10T13:41:09Z</time>
      </trkpt>
      <trkpt lat="48.51764" lon="-3.33581">
        <ele>186</ele>
        <time>2013-03-10T13:41:12Z</time>
      </trkpt>
      <trkpt lat="48.51764" lon="-3.33581">
        <ele>185</ele>
        <time>2013-03-10T13:41:15Z</time>
      </trkpt>
      <trkpt lat="48.51764" lon="-3.33582">
        <ele>185</ele>
        <time>2013-03-10T13:41:18Z</time>
      </trkpt>
      <trkpt lat="48.51763" lon="-3.33583">
        <ele>185</ele>
        <time>2013-03-10T13:41:21Z</time>
      </trkpt>
      <trkpt lat="48.51763" lon="-3.33583">
        <ele>185</ele>
        <time>2013-03-10T13:41:23Z</time>
      </trkpt>
      <trkpt lat="48.51763" lon="-3.33584">
        <ele>185</ele>
        <time>2013-03-10T13:41:26Z</time>
      </trkpt>
      <trkpt lat="48.51762" lon="-3.33584">
        <ele>186</ele>
        <time>2013-03-10T13:41:28Z</time>
      </trkpt>
      <trkpt lat="48.51762" lon="-3.33585">
        <ele>186</ele>
        <time>2013-03-10T13:41:30Z</time>
      </trkpt>
      <trkpt lat="48.51763" lon="-3.33586">
        <ele>185</ele>
        <time>2013-03-10T13:41:32Z</time>
      </trkpt>
      <trkpt lat="48.51764" lon="-3.33587">
        <ele>186</ele>
        <time>2013-03-10T13:41:35Z</time>
      </trkpt>
      <trkpt lat="48.51765" lon="-3.33588">
        <ele>186</ele>
        <time>2013-03-10T13:41:38Z</time>
      </trkpt>
      <trkpt lat="48.51765" lon="-3.33589">
        <ele>186</ele>
        <time>2013-03-10T13:41:41Z</time>
      </trkpt>
      <trkpt lat="48.51765" lon="-3.3359">
        <ele>186</ele>
        <time>2013-03-10T13:41:43Z</time>
      </trkpt>
      <trkpt lat="48.51766" lon="-3.3359">
        <ele>186</ele>
        <time>2013-03-10T13:41:46Z</time>
      </trkpt>
      <trkpt lat="48.51766" lon="-3.3359">
        <ele>186</ele>
        <time>2013-03-10T13:41:49Z</time>
      </trkpt>
      <trkpt lat="48.51767" lon="-3.3359">
        <ele>186</ele>
        <time>2013-03-10T13:41:52Z</time>
      </trkpt>
      <trkpt lat="48.51767" lon="-3.33591">
        <ele>186</ele>
        <time>2013-03-10T13:41:54Z</time>
      </trkpt>
      <trkpt lat="48.51768" lon="-3.33591">
        <ele>186</ele>
        <time>2013-03-10T13:41:57Z</time>
      </trkpt>
      <trkpt lat="48.51767" lon="-3.3359">
        <ele>186</ele>
        <time>2013-03-10T13:42:00Z</time>
      </trkpt>
      <trkpt lat="48.51767" lon="-3.33589">
        <ele>186</ele>
        <time>2013-03-10T13:42:02Z</time>
      </trkpt>
      <trkpt lat="48.51768" lon="-3.33589">
        <ele>186</ele>
        <time>2013-03-10T13:42:05Z</time>
      </trkpt>
      <trkpt lat="48.51767" lon="-3.33589">
        <ele>186</ele>
        <time>2013-03-10T13:42:07Z</time>
      </trkpt>
      <trkpt lat="48.51768" lon="-3.33588">
        <ele>186</ele>
        <time>2013-03-10T13:42:09Z</time>
      </trkpt>
      <trkpt lat="48.51767" lon="-3.33588">
        <ele>186</ele>
        <time>2013-03-10T13:42:12Z</time>
      </trkpt>
      <trkpt lat="48.51768" lon="-3.33588">
        <ele>186</ele>
        <time>2013-03-10T13:42:14Z</time>
      </trkpt>
      <trkpt lat="48.51768" lon="-3.33588">
        <ele>186</ele>
        <time>2013-03-10T13:42:17Z</time>
      </trkpt>
      <trkpt lat="48.51769" lon="-3.33589">
        <ele>186</ele>
        <time>2013-03-10T13:42:20Z</time>
      </trkpt>
      <trkpt lat="48.51769" lon="-3.33589">
        <ele>186</ele>
        <time>2013-03-10T13:42:22Z</time>
      </trkpt>
      <trkpt lat="48.51768" lon="-3.33589">
        <ele>186</ele>
        <time>2013-03-10T13:42:25Z</time>
      </trkpt>
      <trkpt lat="48.51767" lon="-3.33589">
        <ele>186</ele>
        <time>2013-03-10T13:42:27Z</time>
      </trkpt>
      <trkpt lat="48.51767" lon="-3.33588">
        <ele>185</ele>
        <time>2013-03-10T13:42:30Z</time>
      </trkpt>
      <trkpt lat="48.51766" lon="-3.33587">
        <ele>185</ele>
        <time>2013-03-10T13:42:33Z</time>
      </trkpt>
      <trkpt lat="48.51766" lon="-3.33587">
        <ele>185</ele>
        <time>2013-03-10T13:42:35Z</time>
      </trkpt>
      <trkpt lat="48.51767" lon="-3.33587">
        <ele>186</ele>
        <time>2013-03-10T13:42:38Z</time>
      </trkpt>
      <trkpt lat="48.51769" lon="-3.33586">
        <ele>186</ele>
        <time>2013-03-10T13:42:41Z</time>
      </trkpt>
      <trkpt lat="48.51771" lon="-3.33586">
        <ele>186</ele>
        <time>2013-03-10T13:42:44Z</time>
      </trkpt>
      <trkpt lat="48.51773" lon="-3.33586">
        <ele>185</ele>
        <time>2013-03-10T13:42:47Z</time>
      </trkpt>
      <trkpt lat="48.51775" lon="-3.33588">
        <ele>185</ele>
        <time>2013-03-10T13:42:50Z</time>
      </trkpt>
      <trkpt lat="48.51777" lon="-3.33589">
        <ele>185</ele>
        <time>2013-03-10T13:42:53Z</time>
      </trkpt>
      <trkpt lat="48.51777" lon="-3.3359">
        <ele>185</ele>
        <time>2013-03-10T13:42:55Z</time>
      </trkpt>
      <trkpt lat="48.51778" lon="-3.33591">
        <ele>185</ele>
        <time>2013-03-10T13:42:58Z</time>
      </trkpt>
      <trkpt lat="48.51778" lon="-3.33591">
        <ele>185</ele>
        <time>2013-03-10T13:43:02Z</time>
      </trkpt>
      <trkpt lat="48.51777" lon="-3.33591">
        <ele>185</ele>
        <time>2013-03-10T13:43:05Z</time>
      </trkpt>
      <trkpt lat="48.51777" lon="-3.3359">
        <ele>185</ele>
        <time>2013-03-10T13:43:08Z</time>
      </trkpt>
      <trkpt lat="48.51776" lon="-3.33589">
        <ele>185</ele>
        <time>2013-03-10T13:43:11Z</time>
      </trkpt>
      <trkpt lat="48.51776" lon="-3.33589">
        <ele>186</ele>
        <time>2013-03-10T13:43:13Z</time>
      </trkpt>
      <trkpt lat="48.51775" lon="-3.33588">
        <ele>186</ele>
        <time>2013-03-10T13:43:16Z</time>
      </trkpt>
      <trkpt lat="48.51775" lon="-3.33588">
        <ele>185</ele>
        <time>2013-03-10T13:43:19Z</time>
      </trkpt>
      <trkpt lat="48.51775" lon="-3.33587">
        <ele>185</ele>
        <time>2013-03-10T13:43:21Z</time>
      </trkpt>
      <trkpt lat="48.51773" lon="-3.33586">
        <ele>186</ele>
        <time>2013-03-10T13:43:24Z</time>
      </trkpt>
      <trkpt lat="48.51772" lon="-3.33585">
        <ele>186</ele>
        <time>2013-03-10T13:43:27Z</time>
      </trkpt>
      <trkpt lat="48.5177" lon="-3.33584">
        <ele>186</ele>
        <time>2013-03-10T13:43:29Z</time>
      </trkpt>
      <trkpt lat="48.51768" lon="-3.33581">
        <ele>186</ele>
        <time>2013-03-10T13:43:32Z</time>
      </trkpt>
      <trkpt lat="48.51765" lon="-3.33578">
        <ele>185</ele>
        <time>2013-03-10T13:43:35Z</time>
      </trkpt>
      <trkpt lat="48.51763" lon="-3.33575">
        <ele>185</ele>
        <time>2013-03-10T13:43:38Z</time>
      </trkpt>
      <trkpt lat="48.51762" lon="-3.33572">
        <ele>185</ele>
        <time>2013-03-10T13:43:41Z</time>
      </trkpt>
      <trkpt lat="48.51761" lon="-3.3357">
        <ele>185</ele>
        <time>2013-03-10T13:43:44Z</time>
      </trkpt>
      <trkpt lat="48.5176" lon="-3.33569">
        <ele>185</ele>
        <time>2013-03-10T13:43:46Z</time>
      </trkpt>
      <trkpt lat="48.51761" lon="-3.33569">
        <ele>185</ele>
        <time>2013-03-10T13:43:49Z</time>
      </trkpt>
      <trkpt lat="48.51762" lon="-3.33569">
        <ele>185</ele>
        <time>2013-03-10T13:43:51Z</time>
      </trkpt>
      <trkpt lat="48.51762" lon="-3.3357">
        <ele>185</ele>
        <time>2013-03-10T13:43:55Z</time>
      </trkpt>
      <trkpt lat="48.51762" lon="-3.3357">
        <ele>186</ele>
        <time>2013-03-10T13:43:58Z</time>
      </trkpt>
      <trkpt lat="48.51762" lon="-3.33571">
        <ele>186</ele>
        <time>2013-03-10T13:44:01Z</time>
      </trkpt>
      <trkpt lat="48.51764" lon="-3.33572">
        <ele>186</ele>
        <time>2013-03-10T13:44:04Z</time>
      </trkpt>
      <trkpt lat="48.51765" lon="-3.33573">
        <ele>186</ele>
        <time>2013-03-10T13:44:07Z</time>
      </trkpt>
      <trkpt lat="48.51767" lon="-3.33574">
        <ele>186</ele>
        <time>2013-03-10T13:44:09Z</time>
      </trkpt>
      <trkpt lat="48.51768" lon="-3.33577">
        <ele>186</ele>
        <time>2013-03-10T13:44:11Z</time>
      </trkpt>
      <trkpt lat="48.5177" lon="-3.33579">
        <ele>186</ele>
        <time>2013-03-10T13:44:14Z</time>
      </trkpt>
      <trkpt lat="48.51773" lon="-3.33581">
        <ele>186</ele>
        <time>2013-03-10T13:44:17Z</time>
      </trkpt>
      <trkpt lat="48.51775" lon="-3.33583">
        <ele>186</ele>
        <time>2013-03-10T13:44:19Z</time>
      </trkpt>
      <trkpt lat="48.51775" lon="-3.33584">
        <ele>186</ele>
        <time>2013-03-10T13:44:21Z</time>
      </trkpt>
      <trkpt lat="48.51778" lon="-3.33586">
        <ele>186</ele>
        <time>2013-03-10T13:44:24Z</time>
      </trkpt>
      <trkpt lat="48.51779" lon="-3.33588">
        <ele>186</ele>
        <time>2013-03-10T13:44:27Z</time>
      </trkpt>
      <trkpt lat="48.51781" lon="-3.33589">
        <ele>186</ele>
        <time>2013-03-10T13:44:29Z</time>
      </trkpt>
      <trkpt lat="48.51782" lon="-3.3359">
        <ele>186</ele>
        <time>2013-03-10T13:44:31Z</time>
      </trkpt>
      <trkpt lat="48.51784" lon="-3.33591">
        <ele>186</ele>
        <time>2013-03-10T13:44:33Z</time>
      </trkpt>
      <trkpt lat="48.51785" lon="-3.33592">
        <ele>186</ele>
        <time>2013-03-10T13:44:35Z</time>
      </trkpt>
      <trkpt lat="48.51784" lon="-3.33594">
        <ele>186</ele>
        <time>2013-03-10T13:44:38Z</time>
      </trkpt>
      <trkpt lat="48.51784" lon="-3.33594">
        <ele>186</ele>
        <time>2013-03-10T13:44:40Z</time>
      </trkpt>
      <trkpt lat="48.51784" lon="-3.33594">
        <ele>186</ele>
        <time>2013-03-10T13:44:43Z</time>
      </trkpt>
      <trkpt lat="48.51784" lon="-3.33594">
        <ele>186</ele>
        <time>2013-03-10T13:44:45Z</time>
      </trkpt>
      <trkpt lat="48.51783" lon="-3.33595">
        <ele>186</ele>
        <time>2013-03-10T13:44:47Z</time>
      </trkpt>
      <trkpt lat="48.51781" lon="-3.33594">
        <ele>186</ele>
        <time>2013-03-10T13:44:50Z</time>
      </trkpt>
      <trkpt lat="48.51778" lon="-3.33594">
        <ele>186</ele>
        <time>2013-03-10T13:44:53Z</time>
      </trkpt>
      <trkpt lat="48.51776" lon="-3.33593">
        <ele>186</ele>
        <time>2013-03-10T13:44:56Z</time>
      </trkpt>
      <trkpt lat="48.51774" lon="-3.33593">
        <ele>186</ele>
        <time>2013-03-10T13:44:59Z</time>
      </trkpt>
      <trkpt lat="48.51772" lon="-3.33592">
        <ele>186</ele>
        <time>2013-03-10T13:45:02Z</time>
      </trkpt>
      <trkpt lat="48.51772" lon="-3.33591">
        <ele>185</ele>
        <time>2013-03-10T13:45:04Z</time>
      </trkpt>
      <trkpt lat="48.51771" lon="-3.33591">
        <ele>185</ele>
        <time>2013-03-10T13:45:07Z</time>
      </trkpt>
      <trkpt lat="48.51771" lon="-3.3359">
        <ele>185</ele>
        <time>2013-03-10T13:45:09Z</time>
      </trkpt>
      <trkpt lat="48.5177" lon="-3.33589">
        <ele>185</ele>
        <time>2013-03-10T13:45:12Z</time>
      </trkpt>
      <trkpt lat="48.5177" lon="-3.33589">
        <ele>186</ele>
        <time>2013-03-10T13:45:14Z</time>
      </trkpt>
      <trkpt lat="48.5177" lon="-3.33589">
        <ele>186</ele>
        <time>2013-03-10T13:45:17Z</time>
      </trkpt>
      <trkpt lat="48.51771" lon="-3.33589">
        <ele>186</ele>
        <time>2013-03-10T13:45:20Z</time>
      </trkpt>
      <trkpt lat="48.51772" lon="-3.33588">
        <ele>185</ele>
        <time>2013-03-10T13:45:23Z</time>
      </trkpt>
      <trkpt lat="48.51772" lon="-3.33588">
        <ele>185</ele>
        <time>2013-03-10T13:45:26Z</time>
      </trkpt>
      <trkpt lat="48.51771" lon="-3.33588">
        <ele>185</ele>
        <time>2013-03-10T13:45:28Z</time>
      </trkpt>
      <trkpt lat="48.51771" lon="-3.33587">
        <ele>184</ele>
        <time>2013-03-10T13:45:30Z</time>
      </trkpt>
      <trkpt lat="48.5177" lon="-3.33587">
        <ele>184</ele>
        <time>2013-03-10T13:45:32Z</time>
      </trkpt>
      <trkpt lat="48.5177" lon="-3.33587">
        <ele>184</ele>
        <time>2013-03-10T13:45:34Z</time>
      </trkpt>
      <trkpt lat="48.51769" lon="-3.33587">
        <ele>185</ele>
        <time>2013-03-10T13:45:37Z</time>
      </trkpt>
      <trkpt lat="48.51768" lon="-3.33586">
        <ele>185</ele>
        <time>2013-03-10T13:45:39Z</time>
      </trkpt>
      <trkpt lat="48.51767" lon="-3.33586">
        <ele>185</ele>
        <time>2013-03-10T13:45:41Z</time>
      </trkpt>
      <trkpt lat="48.51765" lon="-3.33583">
        <ele>185</ele>
        <time>2013-03-10T13:45:44Z</time>
      </trkpt>
      <trkpt lat="48.51764" lon="-3.33583">
        <ele>185</ele>
        <time>2013-03-10T13:45:46Z</time>
      </trkpt>
      <trkpt lat="48.51765" lon="-3.33582">
        <ele>186</ele>
        <time>2013-03-10T13:45:48Z</time>
      </trkpt>
      <trkpt lat="48.51766" lon="-3.33583">
        <ele>186</ele>
        <time>2013-03-10T13:45:51Z</time>
      </trkpt>
      <trkpt lat="48.51767" lon="-3.33584">
        <ele>186</ele>
        <time>2013-03-10T13:45:53Z</time>
      </trkpt>
      <trkpt lat="48.51767" lon="-3.33587">
        <ele>186</ele>
        <time>2013-03-10T13:45:55Z</time>
      </trkpt>
      <trkpt lat="48.51767" lon="-3.3359">
        <ele>185</ele>
        <time>2013-03-10T13:45:58Z</time>
      </trkpt>
      <trkpt lat="48.51767" lon="-3.33592">
        <ele>185</ele>
        <time>2013-03-10T13:46:01Z</time>
      </trkpt>
      <trkpt lat="48.51766" lon="-3.33595">
        <ele>185</ele>
        <time>2013-03-10T13:46:03Z</time>
      </trkpt>
      <trkpt lat="48.51765" lon="-3.33599">
        <ele>184</ele>
        <time>2013-03-10T13:46:06Z</time>
      </trkpt>
      <trkpt lat="48.51764" lon="-3.33603">
        <ele>184</ele>
        <time>2013-03-10T13:46:09Z</time>
      </trkpt>
      <trkpt lat="48.51763" lon="-3.33606">
        <ele>184</ele>
        <time>2013-03-10T13:46:11Z</time>
      </trkpt>
      <trkpt lat="48.51762" lon="-3.33609">
        <ele>184</ele>
        <time>2013-03-10T13:46:14Z</time>
      </trkpt>
      <trkpt lat="48.51761" lon="-3.33611">
        <ele>184</ele>
        <time>2013-03-10T13:46:16Z</time>
      </trkpt>
      <trkpt lat="48.51761" lon="-3.33613">
        <ele>183</ele>
        <time>2013-03-10T13:46:18Z</time>
      </trkpt>
      <trkpt lat="48.5176" lon="-3.33617">
        <ele>183</ele>
        <time>2013-03-10T13:46:21Z</time>
      </trkpt>
      <trkpt lat="48.51759" lon="-3.33621">
        <ele>182</ele>
        <time>2013-03-10T13:46:24Z</time>
      </trkpt>
      <trkpt lat="48.51759" lon="-3.33626">
        <ele>182</ele>
        <time>2013-03-10T13:46:27Z</time>
      </trkpt>
      <trkpt lat="48.51758" lon="-3.33629">
        <ele>182</ele>
        <time>2013-03-10T13:46:29Z</time>
      </trkpt>
      <trkpt lat="48.51758" lon="-3.33634">
        <ele>182</ele>
        <time>2013-03-10T13:46:32Z</time>
      </trkpt>
      <trkpt lat="48.51758" lon="-3.33637">
        <ele>181</ele>
        <time>2013-03-10T13:46:35Z</time>
      </trkpt>
      <trkpt lat="48.51758" lon="-3.3364">
        <ele>181</ele>
        <time>2013-03-10T13:46:37Z</time>
      </trkpt>
      <trkpt lat="48.51758" lon="-3.33645">
        <ele>180</ele>
        <time>2013-03-10T13:46:40Z</time>
      </trkpt>
      <trkpt lat="48.51758" lon="-3.33648">
        <ele>180</ele>
        <time>2013-03-10T13:46:42Z</time>
      </trkpt>
      <trkpt lat="48.51757" lon="-3.33651">
        <ele>180</ele>
        <time>2013-03-10T13:46:44Z</time>
      </trkpt>
      <trkpt lat="48.51756" lon="-3.33656">
        <ele>180</ele>
        <time>2013-03-10T13:46:47Z</time>
      </trkpt>
      <trkpt lat="48.51756" lon="-3.3366">
        <ele>179</ele>
        <time>2013-03-10T13:46:50Z</time>
      </trkpt>
      <trkpt lat="48.51757" lon="-3.33664">
        <ele>179</ele>
        <time>2013-03-10T13:46:53Z</time>
      </trkpt>
      <trkpt lat="48.51757" lon="-3.33667">
        <ele>178</ele>
        <time>2013-03-10T13:46:55Z</time>
      </trkpt>
      <trkpt lat="48.51757" lon="-3.33673">
        <ele>178</ele>
        <time>2013-03-10T13:46:58Z</time>
      </trkpt>
      <trkpt lat="48.51755" lon="-3.33676">
        <ele>178</ele>
        <time>2013-03-10T13:47:00Z</time>
      </trkpt>
      <trkpt lat="48.51755" lon="-3.33682">
        <ele>177</ele>
        <time>2013-03-10T13:47:03Z</time>
      </trkpt>
      <trkpt lat="48.51754" lon="-3.33688">
        <ele>177</ele>
        <time>2013-03-10T13:47:06Z</time>
      </trkpt>
      <trkpt lat="48.51754" lon="-3.33691">
        <ele>177</ele>
        <time>2013-03-10T13:47:08Z</time>
      </trkpt>
      <trkpt lat="48.51755" lon="-3.33694">
        <ele>177</ele>
        <time>2013-03-10T13:47:10Z</time>
      </trkpt>
      <trkpt lat="48.51755" lon="-3.33697">
        <ele>176</ele>
        <time>2013-03-10T13:47:12Z</time>
      </trkpt>
      <trkpt lat="48.51755" lon="-3.337">
        <ele>176</ele>
        <time>2013-03-10T13:47:14Z</time>
      </trkpt>
      <trkpt lat="48.51755" lon="-3.33706">
        <ele>176</ele>
        <time>2013-03-10T13:47:17Z</time>
      </trkpt>
      <trkpt lat="48.51754" lon="-3.3371">
        <ele>175</ele>
        <time>2013-03-10T13:47:19Z</time>
      </trkpt>
      <trkpt lat="48.51753" lon="-3.33716">
        <ele>175</ele>
        <time>2013-03-10T13:47:22Z</time>
      </trkpt>
      <trkpt lat="48.51753" lon="-3.33719">
        <ele>175</ele>
        <time>2013-03-10T13:47:24Z</time>
      </trkpt>
      <trkpt lat="48.51753" lon="-3.33723">
        <ele>175</ele>
        <time>2013-03-10T13:47:26Z</time>
      </trkpt>
      <trkpt lat="48.51753" lon="-3.33726">
        <ele>175</ele>
        <time>2013-03-10T13:47:28Z</time>
      </trkpt>
      <trkpt lat="48.51753" lon="-3.33731">
        <ele>175</ele>
        <time>2013-03-10T13:47:31Z</time>
      </trkpt>
      <trkpt lat="48.51752" lon="-3.33736">
        <ele>175</ele>
        <time>2013-03-10T13:47:34Z</time>
      </trkpt>
      <trkpt lat="48.51751" lon="-3.3374">
        <ele>175</ele>
        <time>2013-03-10T13:47:36Z</time>
      </trkpt>
      <trkpt lat="48.51751" lon="-3.33744">
        <ele>175</ele>
        <time>2013-03-10T13:47:38Z</time>
      </trkpt>
      <trkpt lat="48.5175" lon="-3.33748">
        <ele>174</ele>
        <time>2013-03-10T13:47:40Z</time>
      </trkpt>
      <trkpt lat="48.5175" lon="-3.33754">
        <ele>174</ele>
        <time>2013-03-10T13:47:43Z</time>
      </trkpt>
      <trkpt lat="48.51749" lon="-3.33758">
        <ele>174</ele>
        <time>2013-03-10T13:47:45Z</time>
      </trkpt>
      <trkpt lat="48.51749" lon="-3.33764">
        <ele>174</ele>
        <time>2013-03-10T13:47:48Z</time>
      </trkpt>
      <trkpt lat="48.51748" lon="-3.33767">
        <ele>174</ele>
        <time>2013-03-10T13:47:50Z</time>
      </trkpt>
      <trkpt lat="48.51748" lon="-3.3377">
        <ele>173</ele>
        <time>2013-03-10T13:47:52Z</time>
      </trkpt>
      <trkpt lat="48.51747" lon="-3.33775">
        <ele>173</ele>
        <time>2013-03-10T13:47:55Z</time>
      </trkpt>
      <trkpt lat="48.51746" lon="-3.33782">
        <ele>173</ele>
        <time>2013-03-10T13:47:58Z</time>
      </trkpt>
      <trkpt lat="48.51746" lon="-3.33786">
        <ele>173</ele>
        <time>2013-03-10T13:48:00Z</time>
      </trkpt>
      <trkpt lat="48.51745" lon="-3.33792">
        <ele>173</ele>
        <time>2013-03-10T13:48:03Z</time>
      </trkpt>
      <trkpt lat="48.51745" lon="-3.33797">
        <ele>172</ele>
        <time>2013-03-10T13:48:05Z</time>
      </trkpt>
      <trkpt lat="48.51744" lon="-3.33802">
        <ele>172</ele>
        <time>2013-03-10T13:48:08Z</time>
      </trkpt>
      <trkpt lat="48.51743" lon="-3.33808">
        <ele>172</ele>
        <time>2013-03-10T13:48:11Z</time>
      </trkpt>
      <trkpt lat="48.51742" lon="-3.33813">
        <ele>171</ele>
        <time>2013-03-10T13:48:14Z</time>
      </trkpt>
      <trkpt lat="48.51741" lon="-3.33817">
        <ele>171</ele>
        <time>2013-03-10T13:48:16Z</time>
      </trkpt>
      <trkpt lat="48.5174" lon="-3.33821">
        <ele>171</ele>
        <time>2013-03-10T13:48:19Z</time>
      </trkpt>
      <trkpt lat="48.5174" lon="-3.33826">
        <ele>171</ele>
        <time>2013-03-10T13:48:22Z</time>
      </trkpt>
      <trkpt lat="48.51739" lon="-3.33828">
        <ele>170</ele>
        <time>2013-03-10T13:48:24Z</time>
      </trkpt>
      <trkpt lat="48.51738" lon="-3.33831">
        <ele>170</ele>
        <time>2013-03-10T13:48:26Z</time>
      </trkpt>
      <trkpt lat="48.51738" lon="-3.33834">
        <ele>169</ele>
        <time>2013-03-10T13:48:29Z</time>
      </trkpt>
      <trkpt lat="48.51737" lon="-3.33836">
        <ele>169</ele>
        <time>2013-03-10T13:48:31Z</time>
      </trkpt>
      <trkpt lat="48.51738" lon="-3.33837">
        <ele>168</ele>
        <time>2013-03-10T13:48:33Z</time>
      </trkpt>
      <trkpt lat="48.51738" lon="-3.33842">
        <ele>168</ele>
        <time>2013-03-10T13:48:36Z</time>
      </trkpt>
      <trkpt lat="48.51738" lon="-3.33844">
        <ele>168</ele>
        <time>2013-03-10T13:48:39Z</time>
      </trkpt>
      <trkpt lat="48.51737" lon="-3.33846">
        <ele>168</ele>
        <time>2013-03-10T13:48:41Z</time>
      </trkpt>
      <trkpt lat="48.51736" lon="-3.33848">
        <ele>167</ele>
        <time>2013-03-10T13:48:44Z</time>
      </trkpt>
      <trkpt lat="48.51736" lon="-3.3385">
        <ele>167</ele>
        <time>2013-03-10T13:48:46Z</time>
      </trkpt>
      <trkpt lat="48.51736" lon="-3.33851">
        <ele>167</ele>
        <time>2013-03-10T13:48:49Z</time>
      </trkpt>
      <trkpt lat="48.51735" lon="-3.33854">
        <ele>167</ele>
        <time>2013-03-10T13:48:52Z</time>
      </trkpt>
      <trkpt lat="48.51735" lon="-3.33855">
        <ele>167</ele>
        <time>2013-03-10T13:48:55Z</time>
      </trkpt>
      <trkpt lat="48.51734" lon="-3.33856">
        <ele>167</ele>
        <time>2013-03-10T13:48:57Z</time>
      </trkpt>
      <trkpt lat="48.51734" lon="-3.33858">
        <ele>167</ele>
        <time>2013-03-10T13:48:59Z</time>
      </trkpt>
      <trkpt lat="48.51733" lon="-3.33861">
        <ele>167</ele>
        <time>2013-03-10T13:49:02Z</time>
      </trkpt>
      <trkpt lat="48.51733" lon="-3.33863">
        <ele>166</ele>
        <time>2013-03-10T13:49:04Z</time>
      </trkpt>
      <trkpt lat="48.51733" lon="-3.33865">
        <ele>166</ele>
        <time>2013-03-10T13:49:07Z</time>
      </trkpt>
      <trkpt lat="48.51733" lon="-3.33866">
        <ele>166</ele>
        <time>2013-03-10T13:49:09Z</time>
      </trkpt>
      <trkpt lat="48.51733" lon="-3.33867">
        <ele>166</ele>
        <time>2013-03-10T13:49:12Z</time>
      </trkpt>
      <trkpt lat="48.51733" lon="-3.33868">
        <ele>166</ele>
        <time>2013-03-10T13:49:15Z</time>
      </trkpt>
      <trkpt lat="48.51732" lon="-3.33869">
        <ele>166</ele>
        <time>2013-03-10T13:49:18Z</time>
      </trkpt>
      <trkpt lat="48.51732" lon="-3.3387">
        <ele>166</ele>
        <time>2013-03-10T13:49:20Z</time>
      </trkpt>
      <trkpt lat="48.51732" lon="-3.33871">
        <ele>166</ele>
        <time>2013-03-10T13:49:23Z</time>
      </trkpt>
      <trkpt lat="48.51733" lon="-3.33872">
        <ele>166</ele>
        <time>2013-03-10T13:49:25Z</time>
      </trkpt>
      <trkpt lat="48.51733" lon="-3.33873">
        <ele>165</ele>
        <time>2013-03-10T13:49:28Z</time>
      </trkpt>
      <trkpt lat="48.51735" lon="-3.33874">
        <ele>165</ele>
        <time>2013-03-10T13:49:31Z</time>
      </trkpt>
      <trkpt lat="48.51736" lon="-3.33874">
        <ele>165</ele>
        <time>2013-03-10T13:49:33Z</time>
      </trkpt>
      <trkpt lat="48.51737" lon="-3.33874">
        <ele>165</ele>
        <time>2013-03-10T13:49:35Z</time>
      </trkpt>
      <trkpt lat="48.51738" lon="-3.33875">
        <ele>166</ele>
        <time>2013-03-10T13:49:38Z</time>
      </trkpt>
      <trkpt lat="48.5174" lon="-3.33875">
        <ele>166</ele>
        <time>2013-03-10T13:49:41Z</time>
      </trkpt>
      <trkpt lat="48.51741" lon="-3.33877">
        <ele>166</ele>
        <time>2013-03-10T13:49:43Z</time>
      </trkpt>
      <trkpt lat="48.51743" lon="-3.33879">
        <ele>166</ele>
        <time>2013-03-10T13:49:46Z</time>
      </trkpt>
      <trkpt lat="48.51744" lon="-3.3388">
        <ele>165</ele>
        <time>2013-03-10T13:49:48Z</time>
      </trkpt>
      <trkpt lat="48.51746" lon="-3.33882">
        <ele>165</ele>
        <time>2013-03-10T13:49:50Z</time>
      </trkpt>
      <trkpt lat="48.51747" lon="-3.33884">
        <ele>165</ele>
        <time>2013-03-10T13:49:53Z</time>
      </trkpt>
      <trkpt lat="48.51747" lon="-3.33887">
        <ele>165</ele>
        <time>2013-03-10T13:49:56Z</time>
      </trkpt>
      <trkpt lat="48.51747" lon="-3.33889">
        <ele>165</ele>
        <time>2013-03-10T13:49:58Z</time>
      </trkpt>
      <trkpt lat="48.51748" lon="-3.33892">
        <ele>165</ele>
        <time>2013-03-10T13:50:00Z</time>
      </trkpt>
      <trkpt lat="48.5175" lon="-3.33894">
        <ele>165</ele>
        <time>2013-03-10T13:50:03Z</time>
      </trkpt>
      <trkpt lat="48.51751" lon="-3.33895">
        <ele>165</ele>
        <time>2013-03-10T13:50:05Z</time>
      </trkpt>
      <trkpt lat="48.51753" lon="-3.33897">
        <ele>165</ele>
        <time>2013-03-10T13:50:08Z</time>
      </trkpt>
      <trkpt lat="48.51755" lon="-3.339">
        <ele>165</ele>
        <time>2013-03-10T13:50:11Z</time>
      </trkpt>
      <trkpt lat="48.51757" lon="-3.33902">
        <ele>165</ele>
        <time>2013-03-10T13:50:14Z</time>
      </trkpt>
      <trkpt lat="48.51758" lon="-3.33904">
        <ele>164</ele>
        <time>2013-03-10T13:50:16Z</time>
      </trkpt>
      <trkpt lat="48.51759" lon="-3.33906">
        <ele>164</ele>
        <time>2013-03-10T13:50:18Z</time>
      </trkpt>
      <trkpt lat="48.51759" lon="-3.33908">
        <ele>164</ele>
        <time>2013-03-10T13:50:21Z</time>
      </trkpt>
      <trkpt lat="48.51761" lon="-3.33911">
        <ele>164</ele>
        <time>2013-03-10T13:50:24Z</time>
      </trkpt>
      <trkpt lat="48.51762" lon="-3.33914">
        <ele>164</ele>
        <time>2013-03-10T13:50:27Z</time>
      </trkpt>
      <trkpt lat="48.51764" lon="-3.33916">
        <ele>165</ele>
        <time>2013-03-10T13:50:29Z</time>
      </trkpt>
      <trkpt lat="48.51765" lon="-3.33918">
        <ele>165</ele>
        <time>2013-03-10T13:50:31Z</time>
      </trkpt>
      <trkpt lat="48.51767" lon="-3.33921">
        <ele>165</ele>
        <time>2013-03-10T13:50:34Z</time>
      </trkpt>
      <trkpt lat="48.51769" lon="-3.33922">
        <ele>165</ele>
        <time>2013-03-10T13:50:36Z</time>
      </trkpt>
      <trkpt lat="48.5177" lon="-3.33925">
        <ele>165</ele>
        <time>2013-03-10T13:50:39Z</time>
      </trkpt>
      <trkpt lat="48.5177" lon="-3.33927">
        <ele>165</ele>
        <time>2013-03-10T13:50:42Z</time>
      </trkpt>
      <trkpt lat="48.5177" lon="-3.33929">
        <ele>165</ele>
        <time>2013-03-10T13:50:45Z</time>
      </trkpt>
      <trkpt lat="48.5177" lon="-3.3393">
        <ele>165</ele>
        <time>2013-03-10T13:50:48Z</time>
      </trkpt>
      <trkpt lat="48.5177" lon="-3.33931">
        <ele>164</ele>
        <time>2013-03-10T13:50:50Z</time>
      </trkpt>
      <trkpt lat="48.5177" lon="-3.33932">
        <ele>165</ele>
        <time>2013-03-10T13:50:52Z</time>
      </trkpt>
      <trkpt lat="48.5177" lon="-3.33934">
        <ele>164</ele>
        <time>2013-03-10T13:50:55Z</time>
      </trkpt>
      <trkpt lat="48.5177" lon="-3.33937">
        <ele>164</ele>
        <time>2013-03-10T13:50:57Z</time>
      </trkpt>
      <trkpt lat="48.5177" lon="-3.33937">
        <ele>164</ele>
        <time>2013-03-10T13:50:59Z</time>
      </trkpt>
      <trkpt lat="48.5177" lon="-3.33939">
        <ele>164</ele>
        <time>2013-03-10T13:51:02Z</time>
      </trkpt>
      <trkpt lat="48.5177" lon="-3.33942">
        <ele>164</ele>
        <time>2013-03-10T13:51:05Z</time>
      </trkpt>
      <trkpt lat="48.51772" lon="-3.33943">
        <ele>164</ele>
        <time>2013-03-10T13:51:07Z</time>
      </trkpt>
      <trkpt lat="48.51773" lon="-3.33944">
        <ele>164</ele>
        <time>2013-03-10T13:51:09Z</time>
      </trkpt>
      <trkpt lat="48.51775" lon="-3.33946">
        <ele>164</ele>
        <time>2013-03-10T13:51:12Z</time>
      </trkpt>
      <trkpt lat="48.51777" lon="-3.33947">
        <ele>164</ele>
        <time>2013-03-10T13:51:15Z</time>
      </trkpt>
      <trkpt lat="48.51778" lon="-3.33949">
        <ele>165</ele>
        <time>2013-03-10T13:51:18Z</time>
      </trkpt>
      <trkpt lat="48.51779" lon="-3.3395">
        <ele>165</ele>
        <time>2013-03-10T13:51:20Z</time>
      </trkpt>
      <trkpt lat="48.5178" lon="-3.33952">
        <ele>165</ele>
        <time>2013-03-10T13:51:23Z</time>
      </trkpt>
      <trkpt lat="48.51781" lon="-3.33952">
        <ele>165</ele>
        <time>2013-03-10T13:51:25Z</time>
      </trkpt>
      <trkpt lat="48.51782" lon="-3.33953">
        <ele>165</ele>
        <time>2013-03-10T13:51:28Z</time>
      </trkpt>
      <trkpt lat="48.51783" lon="-3.33952">
        <ele>165</ele>
        <time>2013-03-10T13:51:30Z</time>
      </trkpt>
      <trkpt lat="48.51784" lon="-3.33952">
        <ele>165</ele>
        <time>2013-03-10T13:51:33Z</time>
      </trkpt>
      <trkpt lat="48.51786" lon="-3.33952">
        <ele>165</ele>
        <time>2013-03-10T13:51:35Z</time>
      </trkpt>
      <trkpt lat="48.51789" lon="-3.33953">
        <ele>165</ele>
        <time>2013-03-10T13:51:38Z</time>
      </trkpt>
      <trkpt lat="48.51792" lon="-3.33954">
        <ele>165</ele>
        <time>2013-03-10T13:51:41Z</time>
      </trkpt>
      <trkpt lat="48.51794" lon="-3.33956">
        <ele>166</ele>
        <time>2013-03-10T13:51:44Z</time>
      </trkpt>
      <trkpt lat="48.51796" lon="-3.33956">
        <ele>166</ele>
        <time>2013-03-10T13:51:46Z</time>
      </trkpt>
      <trkpt lat="48.51799" lon="-3.33957">
        <ele>166</ele>
        <time>2013-03-10T13:51:49Z</time>
      </trkpt>
      <trkpt lat="48.51801" lon="-3.33958">
        <ele>167</ele>
        <time>2013-03-10T13:51:52Z</time>
      </trkpt>
      <trkpt lat="48.51803" lon="-3.33958">
        <ele>167</ele>
        <time>2013-03-10T13:51:54Z</time>
      </trkpt>
      <trkpt lat="48.51807" lon="-3.33959">
        <ele>167</ele>
        <time>2013-03-10T13:51:57Z</time>
      </trkpt>
      <trkpt lat="48.51809" lon="-3.33959">
        <ele>167</ele>
        <time>2013-03-10T13:51:59Z</time>
      </trkpt>
      <trkpt lat="48.51811" lon="-3.3396">
        <ele>168</ele>
        <time>2013-03-10T13:52:01Z</time>
      </trkpt>
      <trkpt lat="48.51814" lon="-3.33961">
        <ele>168</ele>
        <time>2013-03-10T13:52:03Z</time>
      </trkpt>
      <trkpt lat="48.51817" lon="-3.33962">
        <ele>168</ele>
        <time>2013-03-10T13:52:06Z</time>
      </trkpt>
      <trkpt lat="48.51819" lon="-3.33963">
        <ele>168</ele>
        <time>2013-03-10T13:52:09Z</time>
      </trkpt>
      <trkpt lat="48.5182" lon="-3.33964">
        <ele>168</ele>
        <time>2013-03-10T13:52:11Z</time>
      </trkpt>
      <trkpt lat="48.51822" lon="-3.33964">
        <ele>168</ele>
        <time>2013-03-10T13:52:13Z</time>
      </trkpt>
      <trkpt lat="48.51824" lon="-3.33965">
        <ele>168</ele>
        <time>2013-03-10T13:52:15Z</time>
      </trkpt>
      <trkpt lat="48.51827" lon="-3.33967">
        <ele>168</ele>
        <time>2013-03-10T13:52:18Z</time>
      </trkpt>
      <trkpt lat="48.5183" lon="-3.33967">
        <ele>169</ele>
        <time>2013-03-10T13:52:21Z</time>
      </trkpt>
      <trkpt lat="48.51832" lon="-3.33967">
        <ele>169</ele>
        <time>2013-03-10T13:52:23Z</time>
      </trkpt>
      <trkpt lat="48.51835" lon="-3.33968">
        <ele>169</ele>
        <time>2013-03-10T13:52:25Z</time>
      </trkpt>
      <trkpt lat="48.51837" lon="-3.33968">
        <ele>169</ele>
        <time>2013-03-10T13:52:28Z</time>
      </trkpt>
      <trkpt lat="48.51841" lon="-3.33969">
        <ele>170</ele>
        <time>2013-03-10T13:52:31Z</time>
      </trkpt>
      <trkpt lat="48.51844" lon="-3.3397">
        <ele>170</ele>
        <time>2013-03-10T13:52:34Z</time>
      </trkpt>
      <trkpt lat="48.51846" lon="-3.33971">
        <ele>171</ele>
        <time>2013-03-10T13:52:36Z</time>
      </trkpt>
      <trkpt lat="48.51848" lon="-3.33971">
        <ele>171</ele>
        <time>2013-03-10T13:52:38Z</time>
      </trkpt>
      <trkpt lat="48.51851" lon="-3.33972">
        <ele>171</ele>
        <time>2013-03-10T13:52:41Z</time>
      </trkpt>
      <trkpt lat="48.51854" lon="-3.33973">
        <ele>171</ele>
        <time>2013-03-10T13:52:44Z</time>
      </trkpt>
      <trkpt lat="48.51856" lon="-3.33974">
        <ele>171</ele>
        <time>2013-03-10T13:52:46Z</time>
      </trkpt>
      <trkpt lat="48.51859" lon="-3.33975">
        <ele>172</ele>
        <time>2013-03-10T13:52:49Z</time>
      </trkpt>
      <trkpt lat="48.51862" lon="-3.33975">
        <ele>172</ele>
        <time>2013-03-10T13:52:52Z</time>
      </trkpt>
      <trkpt lat="48.51865" lon="-3.33976">
        <ele>172</ele>
        <time>2013-03-10T13:52:55Z</time>
      </trkpt>
      <trkpt lat="48.51868" lon="-3.33977">
        <ele>172</ele>
        <time>2013-03-10T13:52:58Z</time>
      </trkpt>
      <trkpt lat="48.51869" lon="-3.33977">
        <ele>172</ele>
        <time>2013-03-10T13:53:00Z</time>
      </trkpt>
      <trkpt lat="48.51871" lon="-3.33979">
        <ele>172</ele>
        <time>2013-03-10T13:53:03Z</time>
      </trkpt>
      <trkpt lat="48.51873" lon="-3.33979">
        <ele>173</ele>
        <time>2013-03-10T13:53:05Z</time>
      </trkpt>
      <trkpt lat="48.51875" lon="-3.3398">
        <ele>173</ele>
        <time>2013-03-10T13:53:08Z</time>
      </trkpt>
      <trkpt lat="48.51876" lon="-3.33981">
        <ele>173</ele>
        <time>2013-03-10T13:53:10Z</time>
      </trkpt>
      <trkpt lat="48.51876" lon="-3.33981">
        <ele>173</ele>
        <time>2013-03-10T13:53:12Z</time>
      </trkpt>
      <trkpt lat="48.51877" lon="-3.33982">
        <ele>174</ele>
        <time>2013-03-10T13:53:15Z</time>
      </trkpt>
      <trkpt lat="48.51877" lon="-3.33982">
        <ele>174</ele>
        <time>2013-03-10T13:53:18Z</time>
      </trkpt>
      <trkpt lat="48.51878" lon="-3.33982">
        <ele>174</ele>
        <time>2013-03-10T13:53:20Z</time>
      </trkpt>
      <trkpt lat="48.51878" lon="-3.33982">
        <ele>174</ele>
        <time>2013-03-10T13:53:23Z</time>
      </trkpt>
      <trkpt lat="48.51878" lon="-3.33983">
        <ele>174</ele>
        <time>2013-03-10T13:53:25Z</time>
      </trkpt>
      <trkpt lat="48.51879" lon="-3.33983">
        <ele>174</ele>
        <time>2013-03-10T13:53:29Z</time>
      </trkpt>
      <trkpt lat="48.5188" lon="-3.33983">
        <ele>174</ele>
        <time>2013-03-10T13:53:32Z</time>
      </trkpt>
      <trkpt lat="48.5188" lon="-3.33982">
        <ele>174</ele>
        <time>2013-03-10T13:53:34Z</time>
      </trkpt>
      <trkpt lat="48.5188" lon="-3.33982">
        <ele>174</ele>
        <time>2013-03-10T13:53:37Z</time>
      </trkpt>
      <trkpt lat="48.5188" lon="-3.33982">
        <ele>174</ele>
        <time>2013-03-10T13:53:40Z</time>
      </trkpt>
      <trkpt lat="48.51879" lon="-3.33983">
        <ele>174</ele>
        <time>2013-03-10T13:53:43Z</time>
      </trkpt>
      <trkpt lat="48.51879" lon="-3.33983">
        <ele>174</ele>
        <time>2013-03-10T13:53:46Z</time>
      </trkpt>
      <trkpt lat="48.5188" lon="-3.33983">
        <ele>174</ele>
        <time>2013-03-10T13:53:49Z</time>
      </trkpt>
      <trkpt lat="48.5188" lon="-3.33983">
        <ele>174</ele>
        <time>2013-03-10T13:53:51Z</time>
      </trkpt>
      <trkpt lat="48.51881" lon="-3.33983">
        <ele>174</ele>
        <time>2013-03-10T13:53:54Z</time>
      </trkpt>
      <trkpt lat="48.51882" lon="-3.33984">
        <ele>174</ele>
        <time>2013-03-10T13:53:56Z</time>
      </trkpt>
      <trkpt lat="48.51884" lon="-3.33984">
        <ele>175</ele>
        <time>2013-03-10T13:53:59Z</time>
      </trkpt>
      <trkpt lat="48.51886" lon="-3.33984">
        <ele>175</ele>
        <time>2013-03-10T13:54:01Z</time>
      </trkpt>
      <trkpt lat="48.51888" lon="-3.33984">
        <ele>175</ele>
        <time>2013-03-10T13:54:04Z</time>
      </trkpt>
      <trkpt lat="48.51889" lon="-3.33985">
        <ele>175</ele>
        <time>2013-03-10T13:54:07Z</time>
      </trkpt>
      <trkpt lat="48.5189" lon="-3.33985">
        <ele>175</ele>
        <time>2013-03-10T13:54:09Z</time>
      </trkpt>
      <trkpt lat="48.51892" lon="-3.33986">
        <ele>175</ele>
        <time>2013-03-10T13:54:12Z</time>
      </trkpt>
      <trkpt lat="48.51895" lon="-3.33986">
        <ele>176</ele>
        <time>2013-03-10T13:54:15Z</time>
      </trkpt>
      <trkpt lat="48.51897" lon="-3.33986">
        <ele>176</ele>
        <time>2013-03-10T13:54:17Z</time>
      </trkpt>
      <trkpt lat="48.519" lon="-3.33987">
        <ele>176</ele>
        <time>2013-03-10T13:54:20Z</time>
      </trkpt>
      <trkpt lat="48.51903" lon="-3.33988">
        <ele>176</ele>
        <time>2013-03-10T13:54:23Z</time>
      </trkpt>
      <trkpt lat="48.51905" lon="-3.3399">
        <ele>177</ele>
        <time>2013-03-10T13:54:25Z</time>
      </trkpt>
      <trkpt lat="48.51908" lon="-3.33991">
        <ele>177</ele>
        <time>2013-03-10T13:54:28Z</time>
      </trkpt>
      <trkpt lat="48.5191" lon="-3.33992">
        <ele>177</ele>
        <time>2013-03-10T13:54:30Z</time>
      </trkpt>
      <trkpt lat="48.51913" lon="-3.33993">
        <ele>177</ele>
        <time>2013-03-10T13:54:33Z</time>
      </trkpt>
      <trkpt lat="48.51915" lon="-3.33994">
        <ele>177</ele>
        <time>2013-03-10T13:54:35Z</time>
      </trkpt>
      <trkpt lat="48.51918" lon="-3.33994">
        <ele>178</ele>
        <time>2013-03-10T13:54:38Z</time>
      </trkpt>
      <trkpt lat="48.51921" lon="-3.33995">
        <ele>178</ele>
        <time>2013-03-10T13:54:40Z</time>
      </trkpt>
      <trkpt lat="48.51923" lon="-3.33996">
        <ele>178</ele>
        <time>2013-03-10T13:54:42Z</time>
      </trkpt>
      <trkpt lat="48.51926" lon="-3.33996">
        <ele>179</ele>
        <time>2013-03-10T13:54:45Z</time>
      </trkpt>
      <trkpt lat="48.5193" lon="-3.33997">
        <ele>179</ele>
        <time>2013-03-10T13:54:48Z</time>
      </trkpt>
      <trkpt lat="48.51933" lon="-3.33999">
        <ele>179</ele>
        <time>2013-03-10T13:54:51Z</time>
      </trkpt>
      <trkpt lat="48.51935" lon="-3.34">
        <ele>179</ele>
        <time>2013-03-10T13:54:53Z</time>
      </trkpt>
      <trkpt lat="48.51937" lon="-3.34001">
        <ele>179</ele>
        <time>2013-03-10T13:54:55Z</time>
      </trkpt>
      <trkpt lat="48.5194" lon="-3.34002">
        <ele>179</ele>
        <time>2013-03-10T13:54:58Z</time>
      </trkpt>
      <trkpt lat="48.51942" lon="-3.34003">
        <ele>179</ele>
        <time>2013-03-10T13:55:00Z</time>
      </trkpt>
      <trkpt lat="48.51946" lon="-3.34004">
        <ele>180</ele>
        <time>2013-03-10T13:55:03Z</time>
      </trkpt>
      <trkpt lat="48.51949" lon="-3.34004">
        <ele>180</ele>
        <time>2013-03-10T13:55:05Z</time>
      </trkpt>
      <trkpt lat="48.51951" lon="-3.34004">
        <ele>180</ele>
        <time>2013-03-10T13:55:07Z</time>
      </trkpt>
      <trkpt lat="48.51954" lon="-3.34005">
        <ele>180</ele>
        <time>2013-03-10T13:55:10Z</time>
      </trkpt>
      <trkpt lat="48.51956" lon="-3.34005">
        <ele>180</ele>
        <time>2013-03-10T13:55:13Z</time>
      </trkpt>
      <trkpt lat="48.51958" lon="-3.34005">
        <ele>180</ele>
        <time>2013-03-10T13:55:15Z</time>
      </trkpt>
      <trkpt lat="48.5196" lon="-3.34006">
        <ele>180</ele>
        <time>2013-03-10T13:55:17Z</time>
      </trkpt>
      <trkpt lat="48.51962" lon="-3.34006">
        <ele>180</ele>
        <time>2013-03-10T13:55:19Z</time>
      </trkpt>
      <trkpt lat="48.51963" lon="-3.34008">
        <ele>181</ele>
        <time>2013-03-10T13:55:21Z</time>
      </trkpt>
      <trkpt lat="48.51965" lon="-3.34008">
        <ele>181</ele>
        <time>2013-03-10T13:55:23Z</time>
      </trkpt>
      <trkpt lat="48.51968" lon="-3.34009">
        <ele>181</ele>
        <time>2013-03-10T13:55:26Z</time>
      </trkpt>
      <trkpt lat="48.5197" lon="-3.34008">
        <ele>181</ele>
        <time>2013-03-10T13:55:28Z</time>
      </trkpt>
      <trkpt lat="48.51973" lon="-3.34009">
        <ele>181</ele>
        <time>2013-03-10T13:55:31Z</time>
      </trkpt>
      <trkpt lat="48.51976" lon="-3.34009">
        <ele>182</ele>
        <time>2013-03-10T13:55:33Z</time>
      </trkpt>
      <trkpt lat="48.51979" lon="-3.34009">
        <ele>181</ele>
        <time>2013-03-10T13:55:35Z</time>
      </trkpt>
      <trkpt lat="48.51981" lon="-3.34009">
        <ele>181</ele>
        <time>2013-03-10T13:55:37Z</time>
      </trkpt>
      <trkpt lat="48.51984" lon="-3.34011">
        <ele>182</ele>
        <time>2013-03-10T13:55:40Z</time>
      </trkpt>
      <trkpt lat="48.51986" lon="-3.34012">
        <ele>182</ele>
        <time>2013-03-10T13:55:43Z</time>
      </trkpt>
      <trkpt lat="48.51988" lon="-3.34013">
        <ele>182</ele>
        <time>2013-03-10T13:55:45Z</time>
      </trkpt>
      <trkpt lat="48.51991" lon="-3.34014">
        <ele>182</ele>
        <time>2013-03-10T13:55:48Z</time>
      </trkpt>
      <trkpt lat="48.51994" lon="-3.34015">
        <ele>182</ele>
        <time>2013-03-10T13:55:51Z</time>
      </trkpt>
      <trkpt lat="48.51997" lon="-3.34016">
        <ele>182</ele>
        <time>2013-03-10T13:55:54Z</time>
      </trkpt>
      <trkpt lat="48.52" lon="-3.34016">
        <ele>182</ele>
        <time>2013-03-10T13:55:57Z</time>
      </trkpt>
      <trkpt lat="48.52003" lon="-3.34017">
        <ele>182</ele>
        <time>2013-03-10T13:56:00Z</time>
      </trkpt>
      <trkpt lat="48.52005" lon="-3.34018">
        <ele>183</ele>
        <time>2013-03-10T13:56:02Z</time>
      </trkpt>
      <trkpt lat="48.52007" lon="-3.34018">
        <ele>183</ele>
        <time>2013-03-10T13:56:04Z</time>
      </trkpt>
      <trkpt lat="48.5201" lon="-3.34018">
        <ele>183</ele>
        <time>2013-03-10T13:56:07Z</time>
      </trkpt>
      <trkpt lat="48.52013" lon="-3.34019">
        <ele>183</ele>
        <time>2013-03-10T13:56:10Z</time>
      </trkpt>
      <trkpt lat="48.52016" lon="-3.3402">
        <ele>183</ele>
        <time>2013-03-10T13:56:13Z</time>
      </trkpt>
      <trkpt lat="48.52019" lon="-3.3402">
        <ele>183</ele>
        <time>2013-03-10T13:56:15Z</time>
      </trkpt>
      <trkpt lat="48.52022" lon="-3.34021">
        <ele>183</ele>
        <time>2013-03-10T13:56:18Z</time>
      </trkpt>
      <trkpt lat="48.52024" lon="-3.34022">
        <ele>183</ele>
        <time>2013-03-10T13:56:20Z</time>
      </trkpt>
      <trkpt lat="48.52028" lon="-3.34023">
        <ele>184</ele>
        <time>2013-03-10T13:56:23Z</time>
      </trkpt>
      <trkpt lat="48.5203" lon="-3.34023">
        <ele>184</ele>
        <time>2013-03-10T13:56:25Z</time>
      </trkpt>
      <trkpt lat="48.52032" lon="-3.34024">
        <ele>185</ele>
        <time>2013-03-10T13:56:27Z</time>
      </trkpt>
      <trkpt lat="48.52035" lon="-3.34026">
        <ele>184</ele>
        <time>2013-03-10T13:56:30Z</time>
      </trkpt>
      <trkpt lat="48.52037" lon="-3.34026">
        <ele>185</ele>
        <time>2013-03-10T13:56:33Z</time>
      </trkpt>
      <trkpt lat="48.52039" lon="-3.34027">
        <ele>185</ele>
        <time>2013-03-10T13:56:35Z</time>
      </trkpt>
      <trkpt lat="48.5204" lon="-3.34028">
        <ele>185</ele>
        <time>2013-03-10T13:56:37Z</time>
      </trkpt>
      <trkpt lat="48.52043" lon="-3.34029">
        <ele>185</ele>
        <time>2013-03-10T13:56:40Z</time>
      </trkpt>
      <trkpt lat="48.52046" lon="-3.3403">
        <ele>184</ele>
        <time>2013-03-10T13:56:43Z</time>
      </trkpt>
      <trkpt lat="48.52048" lon="-3.34031">
        <ele>184</ele>
        <time>2013-03-10T13:56:45Z</time>
      </trkpt>
      <trkpt lat="48.5205" lon="-3.34033">
        <ele>184</ele>
        <time>2013-03-10T13:56:48Z</time>
      </trkpt>
      <trkpt lat="48.52051" lon="-3.34035">
        <ele>184</ele>
        <time>2013-03-10T13:56:51Z</time>
      </trkpt>
      <trkpt lat="48.52052" lon="-3.34037">
        <ele>184</ele>
        <time>2013-03-10T13:56:53Z</time>
      </trkpt>
      <trkpt lat="48.52054" lon="-3.34039">
        <ele>184</ele>
        <time>2013-03-10T13:56:56Z</time>
      </trkpt>
      <trkpt lat="48.52056" lon="-3.34041">
        <ele>184</ele>
        <time>2013-03-10T13:56:59Z</time>
      </trkpt>
      <trkpt lat="48.52057" lon="-3.34042">
        <ele>184</ele>
        <time>2013-03-10T13:57:01Z</time>
      </trkpt>
      <trkpt lat="48.52058" lon="-3.34043">
        <ele>184</ele>
        <time>2013-03-10T13:57:03Z</time>
      </trkpt>
      <trkpt lat="48.52059" lon="-3.34045">
        <ele>184</ele>
        <time>2013-03-10T13:57:06Z</time>
      </trkpt>
      <trkpt lat="48.5206" lon="-3.34046">
        <ele>185</ele>
        <time>2013-03-10T13:57:08Z</time>
      </trkpt>
      <trkpt lat="48.52062" lon="-3.34048">
        <ele>185</ele>
        <time>2013-03-10T13:57:11Z</time>
      </trkpt>
      <trkpt lat="48.52063" lon="-3.3405">
        <ele>185</ele>
        <time>2013-03-10T13:57:14Z</time>
      </trkpt>
      <trkpt lat="48.52063" lon="-3.34051">
        <ele>185</ele>
        <time>2013-03-10T13:57:16Z</time>
      </trkpt>
      <trkpt lat="48.52063" lon="-3.34052">
        <ele>185</ele>
        <time>2013-03-10T13:57:18Z</time>
      </trkpt>
      <trkpt lat="48.52062" lon="-3.34054">
        <ele>184</ele>
        <time>2013-03-10T13:57:21Z</time>
      </trkpt>
      <trkpt lat="48.52062" lon="-3.34058">
        <ele>184</ele>
        <time>2013-03-10T13:57:24Z</time>
      </trkpt>
      <trkpt lat="48.52061" lon="-3.34061">
        <ele>184</ele>
        <time>2013-03-10T13:57:27Z</time>
      </trkpt>
      <trkpt lat="48.52061" lon="-3.34064">
        <ele>184</ele>
        <time>2013-03-10T13:57:29Z</time>
      </trkpt>
      <trkpt lat="48.52062" lon="-3.34065">
        <ele>184</ele>
        <time>2013-03-10T13:57:32Z</time>
      </trkpt>
      <trkpt lat="48.52062" lon="-3.34067">
        <ele>184</ele>
        <time>2013-03-10T13:57:35Z</time>
      </trkpt>
      <trkpt lat="48.52063" lon="-3.34067">
        <ele>184</ele>
        <time>2013-03-10T13:57:37Z</time>
      </trkpt>
      <trkpt lat="48.52063" lon="-3.34068">
        <ele>184</ele>
        <time>2013-03-10T13:57:39Z</time>
      </trkpt>
      <trkpt lat="48.52064" lon="-3.34068">
        <ele>184</ele>
        <time>2013-03-10T13:57:41Z</time>
      </trkpt>
      <trkpt lat="48.52064" lon="-3.34068">
        <ele>184</ele>
        <time>2013-03-10T13:57:43Z</time>
      </trkpt>
      <trkpt lat="48.52065" lon="-3.34068">
        <ele>184</ele>
        <time>2013-03-10T13:57:46Z</time>
      </trkpt>
      <trkpt lat="48.52065" lon="-3.34068">
        <ele>184</ele>
        <time>2013-03-10T13:57:48Z</time>
      </trkpt>
      <trkpt lat="48.52066" lon="-3.34068">
        <ele>184</ele>
        <time>2013-03-10T13:57:50Z</time>
      </trkpt>
      <trkpt lat="48.52066" lon="-3.34068">
        <ele>184</ele>
        <time>2013-03-10T13:57:52Z</time>
      </trkpt>
      <trkpt lat="48.52066" lon="-3.34068">
        <ele>184</ele>
        <time>2013-03-10T13:57:54Z</time>
      </trkpt>
      <trkpt lat="48.52067" lon="-3.34068">
        <ele>184</ele>
        <time>2013-03-10T13:57:56Z</time>
      </trkpt>
      <trkpt lat="48.52066" lon="-3.34067">
        <ele>185</ele>
        <time>2013-03-10T13:57:59Z</time>
      </trkpt>
      <trkpt lat="48.52066" lon="-3.34067">
        <ele>185</ele>
        <time>2013-03-10T13:58:01Z</time>
      </trkpt>
      <trkpt lat="48.52066" lon="-3.34068">
        <ele>185</ele>
        <time>2013-03-10T13:58:03Z</time>
      </trkpt>
      <trkpt lat="48.52065" lon="-3.34068">
        <ele>185</ele>
        <time>2013-03-10T13:58:06Z</time>
      </trkpt>
      <trkpt lat="48.52066" lon="-3.3407">
        <ele>185</ele>
        <time>2013-03-10T13:58:09Z</time>
      </trkpt>
      <trkpt lat="48.52065" lon="-3.3407">
        <ele>184</ele>
        <time>2013-03-10T13:58:12Z</time>
      </trkpt>
      <trkpt lat="48.52064" lon="-3.3407">
        <ele>184</ele>
        <time>2013-03-10T13:58:14Z</time>
      </trkpt>
      <trkpt lat="48.52064" lon="-3.34072">
        <ele>185</ele>
        <time>2013-03-10T13:58:18Z</time>
      </trkpt>
      <trkpt lat="48.52065" lon="-3.34072">
        <ele>184</ele>
        <time>2013-03-10T13:58:20Z</time>
      </trkpt>
      <trkpt lat="48.52065" lon="-3.34072">
        <ele>185</ele>
        <time>2013-03-10T13:58:22Z</time>
      </trkpt>
      <trkpt lat="48.52065" lon="-3.34073">
        <ele>184</ele>
        <time>2013-03-10T13:58:25Z</time>
      </trkpt>
      <trkpt lat="48.52065" lon="-3.34074">
        <ele>184</ele>
        <time>2013-03-10T13:58:28Z</time>
      </trkpt>
      <trkpt lat="48.52065" lon="-3.34074">
        <ele>184</ele>
        <time>2013-03-10T13:58:30Z</time>
      </trkpt>
      <trkpt lat="48.52066" lon="-3.34074">
        <ele>184</ele>
        <time>2013-03-10T13:58:33Z</time>
      </trkpt>
      <trkpt lat="48.52067" lon="-3.34074">
        <ele>184</ele>
        <time>2013-03-10T13:58:36Z</time>
      </trkpt>
      <trkpt lat="48.52068" lon="-3.34073">
        <ele>184</ele>
        <time>2013-03-10T13:58:39Z</time>
      </trkpt>
      <trkpt lat="48.52069" lon="-3.34072">
        <ele>184</ele>
        <time>2013-03-10T13:58:41Z</time>
      </trkpt>
      <trkpt lat="48.52071" lon="-3.3407">
        <ele>185</ele>
        <time>2013-03-10T13:58:43Z</time>
      </trkpt>
      <trkpt lat="48.52071" lon="-3.34069">
        <ele>185</ele>
        <time>2013-03-10T13:58:45Z</time>
      </trkpt>
      <trkpt lat="48.52071" lon="-3.34067">
        <ele>185</ele>
        <time>2013-03-10T13:58:48Z</time>
      </trkpt>
      <trkpt lat="48.52069" lon="-3.34065">
        <ele>185</ele>
        <time>2013-03-10T13:58:51Z</time>
      </trkpt>
      <trkpt lat="48.52069" lon="-3.34065">
        <ele>185</ele>
        <time>2013-03-10T13:58:53Z</time>
      </trkpt>
      <trkpt lat="48.52069" lon="-3.34066">
        <ele>185</ele>
        <time>2013-03-10T13:58:56Z</time>
      </trkpt>
      <trkpt lat="48.52069" lon="-3.34067">
        <ele>185</ele>
        <time>2013-03-10T13:58:58Z</time>
      </trkpt>
      <trkpt lat="48.52068" lon="-3.34068">
        <ele>185</ele>
        <time>2013-03-10T13:59:00Z</time>
      </trkpt>
      <trkpt lat="48.52068" lon="-3.34071">
        <ele>184</ele>
        <time>2013-03-10T13:59:03Z</time>
      </trkpt>
      <trkpt lat="48.52068" lon="-3.34072">
        <ele>185</ele>
        <time>2013-03-10T13:59:06Z</time>
      </trkpt>
      <trkpt lat="48.52068" lon="-3.34073">
        <ele>185</ele>
        <time>2013-03-10T13:59:08Z</time>
      </trkpt>
      <trkpt lat="48.52066" lon="-3.34074">
        <ele>185</ele>
        <time>2013-03-10T13:59:10Z</time>
      </trkpt>
      <trkpt lat="48.52065" lon="-3.34073">
        <ele>185</ele>
        <time>2013-03-10T13:59:13Z</time>
      </trkpt>
      <trkpt lat="48.52064" lon="-3.3407">
        <ele>185</ele>
        <time>2013-03-10T13:59:16Z</time>
      </trkpt>
      <trkpt lat="48.52064" lon="-3.3407">
        <ele>184</ele>
        <time>2013-03-10T13:59:18Z</time>
      </trkpt>
      <trkpt lat="48.52064" lon="-3.34069">
        <ele>184</ele>
        <time>2013-03-10T13:59:22Z</time>
      </trkpt>
      <trkpt lat="48.52064" lon="-3.34069">
        <ele>184</ele>
        <time>2013-03-10T13:59:25Z</time>
      </trkpt>
      <trkpt lat="48.52064" lon="-3.34069">
        <ele>184</ele>
        <time>2013-03-10T13:59:28Z</time>
      </trkpt>
      <trkpt lat="48.52064" lon="-3.34069">
        <ele>184</ele>
        <time>2013-03-10T13:59:30Z</time>
      </trkpt>
      <trkpt lat="48.52065" lon="-3.34068">
        <ele>184</ele>
        <time>2013-03-10T13:59:33Z</time>
      </trkpt>
      <trkpt lat="48.52065" lon="-3.34067">
        <ele>184</ele>
        <time>2013-03-10T13:59:35Z</time>
      </trkpt>
      <trkpt lat="48.52066" lon="-3.34066">
        <ele>184</ele>
        <time>2013-03-10T13:59:38Z</time>
      </trkpt>
      <trkpt lat="48.52066" lon="-3.34065">
        <ele>184</ele>
        <time>2013-03-10T13:59:40Z</time>
      </trkpt>
      <trkpt lat="48.52067" lon="-3.34065">
        <ele>184</ele>
        <time>2013-03-10T13:59:42Z</time>
      </trkpt>
      <trkpt lat="48.52067" lon="-3.34065">
        <ele>184</ele>
        <time>2013-03-10T13:59:44Z</time>
      </trkpt>
      <trkpt lat="48.52068" lon="-3.34064">
        <ele>184</ele>
        <time>2013-03-10T13:59:46Z</time>
      </trkpt>
      <trkpt lat="48.52068" lon="-3.34064">
        <ele>184</ele>
        <time>2013-03-10T13:59:49Z</time>
      </trkpt>
      <trkpt lat="48.52069" lon="-3.34064">
        <ele>184</ele>
        <time>2013-03-10T13:59:51Z</time>
      </trkpt>
      <trkpt lat="48.52068" lon="-3.34065">
        <ele>185</ele>
        <time>2013-03-10T13:59:55Z</time>
      </trkpt>
      <trkpt lat="48.52068" lon="-3.34066">
        <ele>185</ele>
        <time>2013-03-10T13:59:58Z</time>
      </trkpt>
      <trkpt lat="48.52068" lon="-3.34067">
        <ele>184</ele>
        <time>2013-03-10T14:00:01Z</time>
      </trkpt>
      <trkpt lat="48.52069" lon="-3.34068">
        <ele>184</ele>
        <time>2013-03-10T14:00:03Z</time>
      </trkpt>
      <trkpt lat="48.52069" lon="-3.34069">
        <ele>184</ele>
        <time>2013-03-10T14:00:06Z</time>
      </trkpt>
      <trkpt lat="48.52069" lon="-3.3407">
        <ele>184</ele>
        <time>2013-03-10T14:00:09Z</time>
      </trkpt>
      <trkpt lat="48.52069" lon="-3.34071">
        <ele>184</ele>
        <time>2013-03-10T14:00:11Z</time>
      </trkpt>
      <trkpt lat="48.52069" lon="-3.34072">
        <ele>185</ele>
        <time>2013-03-10T14:00:13Z</time>
      </trkpt>
      <trkpt lat="48.52068" lon="-3.34074">
        <ele>185</ele>
        <time>2013-03-10T14:00:15Z</time>
      </trkpt>
      <trkpt lat="48.52068" lon="-3.34076">
        <ele>185</ele>
        <time>2013-03-10T14:00:17Z</time>
      </trkpt>
      <trkpt lat="48.52069" lon="-3.34078">
        <ele>186</ele>
        <time>2013-03-10T14:00:20Z</time>
      </trkpt>
      <trkpt lat="48.52069" lon="-3.34079">
        <ele>185</ele>
        <time>2013-03-10T14:00:23Z</time>
      </trkpt>
      <trkpt lat="48.5207" lon="-3.34078">
        <ele>185</ele>
        <time>2013-03-10T14:00:25Z</time>
      </trkpt>
      <trkpt lat="48.5207" lon="-3.34078">
        <ele>185</ele>
        <time>2013-03-10T14:00:27Z</time>
      </trkpt>
      <trkpt lat="48.52071" lon="-3.34076">
        <ele>185</ele>
        <time>2013-03-10T14:00:29Z</time>
      </trkpt>
      <trkpt lat="48.52071" lon="-3.34075">
        <ele>185</ele>
        <time>2013-03-10T14:00:31Z</time>
      </trkpt>
      <trkpt lat="48.52072" lon="-3.34073">
        <ele>185</ele>
        <time>2013-03-10T14:00:34Z</time>
      </trkpt>
      <trkpt lat="48.52073" lon="-3.34072">
        <ele>185</ele>
        <time>2013-03-10T14:00:37Z</time>
      </trkpt>
      <trkpt lat="48.52073" lon="-3.34073">
        <ele>185</ele>
        <time>2013-03-10T14:00:40Z</time>
      </trkpt>
      <trkpt lat="48.52072" lon="-3.34073">
        <ele>185</ele>
        <time>2013-03-10T14:00:42Z</time>
      </trkpt>
      <trkpt lat="48.52071" lon="-3.34074">
        <ele>185</ele>
        <time>2013-03-10T14:00:45Z</time>
      </trkpt>
      <trkpt lat="48.5207" lon="-3.34073">
        <ele>185</ele>
        <time>2013-03-10T14:00:48Z</time>
      </trkpt>
      <trkpt lat="48.52069" lon="-3.34072">
        <ele>185</ele>
        <time>2013-03-10T14:00:50Z</time>
      </trkpt>
      <trkpt lat="48.5207" lon="-3.34071">
        <ele>185</ele>
        <time>2013-03-10T14:00:52Z</time>
      </trkpt>
      <trkpt lat="48.5207" lon="-3.3407">
        <ele>185</ele>
        <time>2013-03-10T14:00:54Z</time>
      </trkpt>
      <trkpt lat="48.52071" lon="-3.34069">
        <ele>185</ele>
        <time>2013-03-10T14:00:57Z</time>
      </trkpt>
      <trkpt lat="48.52071" lon="-3.34068">
        <ele>185</ele>
        <time>2013-03-10T14:00:59Z</time>
      </trkpt>
      <trkpt lat="48.52072" lon="-3.34067">
        <ele>185</ele>
        <time>2013-03-10T14:01:02Z</time>
      </trkpt>
      <trkpt lat="48.52072" lon="-3.34067">
        <ele>185</ele>
        <time>2013-03-10T14:01:04Z</time>
      </trkpt>
      <trkpt lat="48.52071" lon="-3.34067">
        <ele>185</ele>
        <time>2013-03-10T14:01:06Z</time>
      </trkpt>
      <trkpt lat="48.52071" lon="-3.34067">
        <ele>186</ele>
        <time>2013-03-10T14:01:09Z</time>
      </trkpt>
      <trkpt lat="48.52071" lon="-3.34067">
        <ele>185</ele>
        <time>2013-03-10T14:01:11Z</time>
      </trkpt>
      <trkpt lat="48.52071" lon="-3.34066">
        <ele>185</ele>
        <time>2013-03-10T14:01:14Z</time>
      </trkpt>
      <trkpt lat="48.52071" lon="-3.34067">
        <ele>185</ele>
        <time>2013-03-10T14:01:16Z</time>
      </trkpt>
      <trkpt lat="48.5207" lon="-3.34067">
        <ele>185</ele>
        <time>2013-03-10T14:01:19Z</time>
      </trkpt>
      <trkpt lat="48.52069" lon="-3.34067">
        <ele>185</ele>
        <time>2013-03-10T14:01:21Z</time>
      </trkpt>
      <trkpt lat="48.52069" lon="-3.34066">
        <ele>185</ele>
        <time>2013-03-10T14:01:23Z</time>
      </trkpt>
      <trkpt lat="48.52068" lon="-3.34066">
        <ele>184</ele>
        <time>2013-03-10T14:01:26Z</time>
      </trkpt>
      <trkpt lat="48.52068" lon="-3.34065">
        <ele>184</ele>
        <time>2013-03-10T14:01:28Z</time>
      </trkpt>
      <trkpt lat="48.52068" lon="-3.34066">
        <ele>184</ele>
        <time>2013-03-10T14:01:30Z</time>
      </trkpt>
      <trkpt lat="48.52068" lon="-3.34066">
        <ele>184</ele>
        <time>2013-03-10T14:01:34Z</time>
      </trkpt>
      <trkpt lat="48.52068" lon="-3.34064">
        <ele>185</ele>
        <time>2013-03-10T14:01:36Z</time>
      </trkpt>
      <trkpt lat="48.52069" lon="-3.34064">
        <ele>184</ele>
        <time>2013-03-10T14:01:38Z</time>
      </trkpt>
      <trkpt lat="48.52069" lon="-3.34064">
        <ele>184</ele>
        <time>2013-03-10T14:01:40Z</time>
      </trkpt>
      <trkpt lat="48.52068" lon="-3.34063">
        <ele>184</ele>
        <time>2013-03-10T14:01:44Z</time>
      </trkpt>
      <trkpt lat="48.52069" lon="-3.34062">
        <ele>184</ele>
        <time>2013-03-10T14:01:48Z</time>
      </trkpt>
      <trkpt lat="48.52068" lon="-3.34063">
        <ele>184</ele>
        <time>2013-03-10T14:01:51Z</time>
      </trkpt>
      <trkpt lat="48.52068" lon="-3.34063">
        <ele>184</ele>
        <time>2013-03-10T14:01:55Z</time>
      </trkpt>
      <trkpt lat="48.52068" lon="-3.34063">
        <ele>185</ele>
        <time>2013-03-10T14:01:58Z</time>
      </trkpt>
      <trkpt lat="48.52067" lon="-3.34063">
        <ele>185</ele>
        <time>2013-03-10T14:02:01Z</time>
      </trkpt>
      <trkpt lat="48.52067" lon="-3.34064">
        <ele>185</ele>
        <time>2013-03-10T14:02:03Z</time>
      </trkpt>
      <trkpt lat="48.52066" lon="-3.34064">
        <ele>185</ele>
        <time>2013-03-10T14:02:05Z</time>
      </trkpt>
      <trkpt lat="48.52065" lon="-3.34063">
        <ele>185</ele>
        <time>2013-03-10T14:02:08Z</time>
      </trkpt>
      <trkpt lat="48.52065" lon="-3.34064">
        <ele>185</ele>
        <time>2013-03-10T14:02:11Z</time>
      </trkpt>
      <trkpt lat="48.52064" lon="-3.34064">
        <ele>185</ele>
        <time>2013-03-10T14:02:13Z</time>
      </trkpt>
      <trkpt lat="48.52064" lon="-3.34065">
        <ele>185</ele>
        <time>2013-03-10T14:02:17Z</time>
      </trkpt>
      <trkpt lat="48.52065" lon="-3.34066">
        <ele>185</ele>
        <time>2013-03-10T14:02:19Z</time>
      </trkpt>
      <trkpt lat="48.52064" lon="-3.34066">
        <ele>185</ele>
        <time>2013-03-10T14:02:21Z</time>
      </trkpt>
      <trkpt lat="48.52065" lon="-3.34067">
        <ele>185</ele>
        <time>2013-03-10T14:02:24Z</time>
      </trkpt>
      <trkpt lat="48.52067" lon="-3.34068">
        <ele>185</ele>
        <time>2013-03-10T14:02:27Z</time>
      </trkpt>
      <trkpt lat="48.52068" lon="-3.34068">
        <ele>185</ele>
        <time>2013-03-10T14:02:29Z</time>
      </trkpt>
      <trkpt lat="48.5207" lon="-3.34066">
        <ele>185</ele>
        <time>2013-03-10T14:02:31Z</time>
      </trkpt>
      <trkpt lat="48.52071" lon="-3.34063">
        <ele>185</ele>
        <time>2013-03-10T14:02:34Z</time>
      </trkpt>
      <trkpt lat="48.52071" lon="-3.34062">
        <ele>185</ele>
        <time>2013-03-10T14:02:36Z</time>
      </trkpt>
      <trkpt lat="48.52072" lon="-3.34061">
        <ele>185</ele>
        <time>2013-03-10T14:02:39Z</time>
      </trkpt>
      <trkpt lat="48.52073" lon="-3.3406">
        <ele>185</ele>
        <time>2013-03-10T14:02:41Z</time>
      </trkpt>
      <trkpt lat="48.52074" lon="-3.3406">
        <ele>185</ele>
        <time>2013-03-10T14:02:44Z</time>
      </trkpt>
      <trkpt lat="48.52074" lon="-3.34059">
        <ele>185</ele>
        <time>2013-03-10T14:02:47Z</time>
      </trkpt>
      <trkpt lat="48.52074" lon="-3.34058">
        <ele>185</ele>
        <time>2013-03-10T14:02:49Z</time>
      </trkpt>
      <trkpt lat="48.52076" lon="-3.34058">
        <ele>185</ele>
        <time>2013-03-10T14:02:51Z</time>
      </trkpt>
      <trkpt lat="48.52078" lon="-3.34056">
        <ele>185</ele>
        <time>2013-03-10T14:02:54Z</time>
      </trkpt>
      <trkpt lat="48.52079" lon="-3.34055">
        <ele>185</ele>
        <time>2013-03-10T14:02:56Z</time>
      </trkpt>
      <trkpt lat="48.52081" lon="-3.34055">
        <ele>185</ele>
        <time>2013-03-10T14:02:59Z</time>
      </trkpt>
      <trkpt lat="48.52082" lon="-3.34053">
        <ele>185</ele>
        <time>2013-03-10T14:03:01Z</time>
      </trkpt>
      <trkpt lat="48.52082" lon="-3.34054">
        <ele>185</ele>
        <time>2013-03-10T14:03:03Z</time>
      </trkpt>
      <trkpt lat="48.52082" lon="-3.34056">
        <ele>185</ele>
        <time>2013-03-10T14:03:05Z</time>
      </trkpt>
      <trkpt lat="48.5208" lon="-3.34058">
        <ele>185</ele>
        <time>2013-03-10T14:03:08Z</time>
      </trkpt>
      <trkpt lat="48.52078" lon="-3.34059">
        <ele>186</ele>
        <time>2013-03-10T14:03:10Z</time>
      </trkpt>
      <trkpt lat="48.52083" lon="-3.34061">
        <ele>186</ele>
        <time>2013-03-10T14:03:13Z</time>
      </trkpt>
      <trkpt lat="48.52087" lon="-3.34062">
        <ele>186</ele>
        <time>2013-03-10T14:03:15Z</time>
      </trkpt>
      <trkpt lat="48.52089" lon="-3.34064">
        <ele>186</ele>
        <time>2013-03-10T14:03:18Z</time>
      </trkpt>
      <trkpt lat="48.52088" lon="-3.34064">
        <ele>186</ele>
        <time>2013-03-10T14:03:20Z</time>
      </trkpt>
      <trkpt lat="48.52088" lon="-3.34064">
        <ele>186</ele>
        <time>2013-03-10T14:03:23Z</time>
      </trkpt>
      <trkpt lat="48.52087" lon="-3.34064">
        <ele>185</ele>
        <time>2013-03-10T14:03:25Z</time>
      </trkpt>
      <trkpt lat="48.52087" lon="-3.34063">
        <ele>185</ele>
        <time>2013-03-10T14:03:28Z</time>
      </trkpt>
      <trkpt lat="48.52087" lon="-3.34061">
        <ele>185</ele>
        <time>2013-03-10T14:03:31Z</time>
      </trkpt>
      <trkpt lat="48.52087" lon="-3.3406">
        <ele>186</ele>
        <time>2013-03-10T14:03:33Z</time>
      </trkpt>
      <trkpt lat="48.52087" lon="-3.3406">
        <ele>186</ele>
        <time>2013-03-10T14:03:36Z</time>
      </trkpt>
      <trkpt lat="48.52087" lon="-3.3406">
        <ele>186</ele>
        <time>2013-03-10T14:03:38Z</time>
      </trkpt>
      <trkpt lat="48.52088" lon="-3.34061">
        <ele>186</ele>
        <time>2013-03-10T14:03:40Z</time>
      </trkpt>
      <trkpt lat="48.52088" lon="-3.34059">
        <ele>186</ele>
        <time>2013-03-10T14:03:43Z</time>
      </trkpt>
      <trkpt lat="48.52088" lon="-3.34057">
        <ele>186</ele>
        <time>2013-03-10T14:03:46Z</time>
      </trkpt>
      <trkpt lat="48.52088" lon="-3.34055">
        <ele>186</ele>
        <time>2013-03-10T14:03:49Z</time>
      </trkpt>
      <trkpt lat="48.52087" lon="-3.34053">
        <ele>186</ele>
        <time>2013-03-10T14:03:51Z</time>
      </trkpt>
      <trkpt lat="48.52086" lon="-3.34052">
        <ele>186</ele>
        <time>2013-03-10T14:03:53Z</time>
      </trkpt>
      <trkpt lat="48.52086" lon="-3.34051">
        <ele>186</ele>
        <time>2013-03-10T14:03:55Z</time>
      </trkpt>
      <trkpt lat="48.52085" lon="-3.3405">
        <ele>186</ele>
        <time>2013-03-10T14:03:58Z</time>
      </trkpt>
      <trkpt lat="48.52085" lon="-3.34048">
        <ele>186</ele>
        <time>2013-03-10T14:04:01Z</time>
      </trkpt>
      <trkpt lat="48.52085" lon="-3.34048">
        <ele>186</ele>
        <time>2013-03-10T14:04:03Z</time>
      </trkpt>
      <trkpt lat="48.52084" lon="-3.34048">
        <ele>186</ele>
        <time>2013-03-10T14:04:05Z</time>
      </trkpt>
      <trkpt lat="48.52083" lon="-3.3405">
        <ele>186</ele>
        <time>2013-03-10T14:04:08Z</time>
      </trkpt>
      <trkpt lat="48.52082" lon="-3.34052">
        <ele>186</ele>
        <time>2013-03-10T14:04:10Z</time>
      </trkpt>
      <trkpt lat="48.52082" lon="-3.34055">
        <ele>186</ele>
        <time>2013-03-10T14:04:13Z</time>
      </trkpt>
      <trkpt lat="48.52081" lon="-3.34058">
        <ele>186</ele>
        <time>2013-03-10T14:04:16Z</time>
      </trkpt>
      <trkpt lat="48.5208" lon="-3.34061">
        <ele>186</ele>
        <time>2013-03-10T14:04:18Z</time>
      </trkpt>
      <trkpt lat="48.52079" lon="-3.34061">
        <ele>186</ele>
        <time>2013-03-10T14:04:21Z</time>
      </trkpt>
      <trkpt lat="48.52078" lon="-3.34061">
        <ele>186</ele>
        <time>2013-03-10T14:04:23Z</time>
      </trkpt>
      <trkpt lat="48.52076" lon="-3.34062">
        <ele>186</ele>
        <time>2013-03-10T14:04:25Z</time>
      </trkpt>
      <trkpt lat="48.52074" lon="-3.34063">
        <ele>185</ele>
        <time>2013-03-10T14:04:28Z</time>
      </trkpt>
      <trkpt lat="48.52074" lon="-3.34064">
        <ele>186</ele>
        <time>2013-03-10T14:04:30Z</time>
      </trkpt>
      <trkpt lat="48.52074" lon="-3.34064">
        <ele>185</ele>
        <time>2013-03-10T14:04:33Z</time>
      </trkpt>
      <trkpt lat="48.52073" lon="-3.34064">
        <ele>185</ele>
        <time>2013-03-10T14:04:35Z</time>
      </trkpt>
      <trkpt lat="48.52073" lon="-3.34065">
        <ele>185</ele>
        <time>2013-03-10T14:04:37Z</time>
      </trkpt>
      <trkpt lat="48.52072" lon="-3.34066">
        <ele>185</ele>
        <time>2013-03-10T14:04:40Z</time>
      </trkpt>
      <trkpt lat="48.52071" lon="-3.34067">
        <ele>185</ele>
        <time>2013-03-10T14:04:42Z</time>
      </trkpt>
      <trkpt lat="48.5207" lon="-3.34068">
        <ele>185</ele>
        <time>2013-03-10T14:04:45Z</time>
      </trkpt>
      <trkpt lat="48.5207" lon="-3.34068">
        <ele>185</ele>
        <time>2013-03-10T14:04:47Z</time>
      </trkpt>
      <trkpt lat="48.5207" lon="-3.34068">
        <ele>185</ele>
        <time>2013-03-10T14:04:49Z</time>
      </trkpt>
      <trkpt lat="48.52069" lon="-3.34068">
        <ele>185</ele>
        <time>2013-03-10T14:04:52Z</time>
      </trkpt>
      <trkpt lat="48.52068" lon="-3.34069">
        <ele>185</ele>
        <time>2013-03-10T14:04:55Z</time>
      </trkpt>
      <trkpt lat="48.52068" lon="-3.3407">
        <ele>185</ele>
        <time>2013-03-10T14:04:57Z</time>
      </trkpt>
      <trkpt lat="48.52067" lon="-3.34071">
        <ele>185</ele>
        <time>2013-03-10T14:04:59Z</time>
      </trkpt>
      <trkpt lat="48.52067" lon="-3.34072">
        <ele>185</ele>
        <time>2013-03-10T14:05:01Z</time>
      </trkpt>
      <trkpt lat="48.52066" lon="-3.34072">
        <ele>185</ele>
        <time>2013-03-10T14:05:04Z</time>
      </trkpt>
      <trkpt lat="48.52065" lon="-3.34073">
        <ele>185</ele>
        <time>2013-03-10T14:05:07Z</time>
      </trkpt>
      <trkpt lat="48.52065" lon="-3.34074">
        <ele>185</ele>
        <time>2013-03-10T14:05:10Z</time>
      </trkpt>
      <trkpt lat="48.52065" lon="-3.34074">
        <ele>185</ele>
        <time>2013-03-10T14:05:13Z</time>
      </trkpt>
      <trkpt lat="48.52064" lon="-3.34074">
        <ele>185</ele>
        <time>2013-03-10T14:05:16Z</time>
      </trkpt>
      <trkpt lat="48.52064" lon="-3.34074">
        <ele>185</ele>
        <time>2013-03-10T14:05:18Z</time>
      </trkpt>
      <trkpt lat="48.52064" lon="-3.34074">
        <ele>185</ele>
        <time>2013-03-10T14:05:21Z</time>
      </trkpt>
      <trkpt lat="48.52065" lon="-3.34074">
        <ele>185</ele>
        <time>2013-03-10T14:05:24Z</time>
      </trkpt>
      <trkpt lat="48.52065" lon="-3.34074">
        <ele>185</ele>
        <time>2013-03-10T14:05:26Z</time>
      </trkpt>
      <trkpt lat="48.52065" lon="-3.34074">
        <ele>185</ele>
        <time>2013-03-10T14:05:29Z</time>
      </trkpt>
      <trkpt lat="48.52066" lon="-3.34074">
        <ele>185</ele>
        <time>2013-03-10T14:05:31Z</time>
      </trkpt>
      <trkpt lat="48.52067" lon="-3.34074">
        <ele>185</ele>
        <time>2013-03-10T14:05:34Z</time>
      </trkpt>
      <trkpt lat="48.52069" lon="-3.34074">
        <ele>185</ele>
        <time>2013-03-10T14:05:37Z</time>
      </trkpt>
      <trkpt lat="48.5207" lon="-3.34074">
        <ele>185</ele>
        <time>2013-03-10T14:05:39Z</time>
      </trkpt>
      <trkpt lat="48.52071" lon="-3.34074">
        <ele>186</ele>
        <time>2013-03-10T14:05:41Z</time>
      </trkpt>
      <trkpt lat="48.52072" lon="-3.34075">
        <ele>186</ele>
        <time>2013-03-10T14:05:44Z</time>
      </trkpt>
      <trkpt lat="48.52073" lon="-3.34075">
        <ele>186</ele>
        <time>2013-03-10T14:05:46Z</time>
      </trkpt>
      <trkpt lat="48.52073" lon="-3.34075">
        <ele>186</ele>
        <time>2013-03-10T14:05:48Z</time>
      </trkpt>
      <trkpt lat="48.52073" lon="-3.34074">
        <ele>186</ele>
        <time>2013-03-10T14:05:51Z</time>
      </trkpt>
      <trkpt lat="48.52073" lon="-3.34075">
        <ele>185</ele>
        <time>2013-03-10T14:05:55Z</time>
      </trkpt>
      <trkpt lat="48.52073" lon="-3.34074">
        <ele>185</ele>
        <time>2013-03-10T14:05:58Z</time>
      </trkpt>
      <trkpt lat="48.52073" lon="-3.34074">
        <ele>185</ele>
        <time>2013-03-10T14:06:01Z</time>
      </trkpt>
      <trkpt lat="48.52073" lon="-3.34073">
        <ele>185</ele>
        <time>2013-03-10T14:06:04Z</time>
      </trkpt>
      <trkpt lat="48.52073" lon="-3.34072">
        <ele>185</ele>
        <time>2013-03-10T14:06:07Z</time>
      </trkpt>
      <trkpt lat="48.52073" lon="-3.3407">
        <ele>185</ele>
        <time>2013-03-10T14:06:09Z</time>
      </trkpt>
      <trkpt lat="48.52073" lon="-3.34069">
        <ele>185</ele>
        <time>2013-03-10T14:06:11Z</time>
      </trkpt>
      <trkpt lat="48.52073" lon="-3.34068">
        <ele>185</ele>
        <time>2013-03-10T14:06:13Z</time>
      </trkpt>
      <trkpt lat="48.52074" lon="-3.34066">
        <ele>185</ele>
        <time>2013-03-10T14:06:16Z</time>
      </trkpt>
      <trkpt lat="48.52074" lon="-3.34065">
        <ele>185</ele>
        <time>2013-03-10T14:06:18Z</time>
      </trkpt>
      <trkpt lat="48.52074" lon="-3.34063">
        <ele>185</ele>
        <time>2013-03-10T14:06:20Z</time>
      </trkpt>
      <trkpt lat="48.52074" lon="-3.34062">
        <ele>185</ele>
        <time>2013-03-10T14:06:23Z</time>
      </trkpt>
      <trkpt lat="48.52073" lon="-3.34062">
        <ele>185</ele>
        <time>2013-03-10T14:06:25Z</time>
      </trkpt>
      <trkpt lat="48.52073" lon="-3.34063">
        <ele>185</ele>
        <time>2013-03-10T14:06:27Z</time>
      </trkpt>
      <trkpt lat="48.52074" lon="-3.34063">
        <ele>185</ele>
        <time>2013-03-10T14:06:29Z</time>
      </trkpt>
      <trkpt lat="48.52074" lon="-3.34065">
        <ele>185</ele>
        <time>2013-03-10T14:06:32Z</time>
      </trkpt>
      <trkpt lat="48.52073" lon="-3.34065">
        <ele>185</ele>
        <time>2013-03-10T14:06:34Z</time>
      </trkpt>
      <trkpt lat="48.52072" lon="-3.34065">
        <ele>185</ele>
        <time>2013-03-10T14:06:36Z</time>
      </trkpt>
      <trkpt lat="48.52071" lon="-3.34065">
        <ele>185</ele>
        <time>2013-03-10T14:06:39Z</time>
      </trkpt>
      <trkpt lat="48.52071" lon="-3.34066">
        <ele>185</ele>
        <time>2013-03-10T14:06:42Z</time>
      </trkpt>
      <trkpt lat="48.5207" lon="-3.34067">
        <ele>185</ele>
        <time>2013-03-10T14:06:45Z</time>
      </trkpt>
      <trkpt lat="48.52069" lon="-3.34069">
        <ele>185</ele>
        <time>2013-03-10T14:06:48Z</time>
      </trkpt>
      <trkpt lat="48.52068" lon="-3.3407">
        <ele>185</ele>
        <time>2013-03-10T14:06:51Z</time>
      </trkpt>
      <trkpt lat="48.52067" lon="-3.34071">
        <ele>185</ele>
        <time>2013-03-10T14:06:54Z</time>
      </trkpt>
      <trkpt lat="48.52066" lon="-3.34072">
        <ele>185</ele>
        <time>2013-03-10T14:06:56Z</time>
      </trkpt>
      <trkpt lat="48.52066" lon="-3.34072">
        <ele>185</ele>
        <time>2013-03-10T14:06:58Z</time>
      </trkpt>
      <trkpt lat="48.52066" lon="-3.34073">
        <ele>185</ele>
        <time>2013-03-10T14:07:01Z</time>
      </trkpt>
      <trkpt lat="48.52067" lon="-3.34073">
        <ele>185</ele>
        <time>2013-03-10T14:07:03Z</time>
      </trkpt>
      <trkpt lat="48.52067" lon="-3.34074">
        <ele>185</ele>
        <time>2013-03-10T14:07:06Z</time>
      </trkpt>
      <trkpt lat="48.52068" lon="-3.34074">
        <ele>185</ele>
        <time>2013-03-10T14:07:08Z</time>
      </trkpt>
      <trkpt lat="48.52068" lon="-3.34073">
        <ele>185</ele>
        <time>2013-03-10T14:07:10Z</time>
      </trkpt>
      <trkpt lat="48.52068" lon="-3.34073">
        <ele>185</ele>
        <time>2013-03-10T14:07:12Z</time>
      </trkpt>
      <trkpt lat="48.52068" lon="-3.34074">
        <ele>185</ele>
        <time>2013-03-10T14:07:15Z</time>
      </trkpt>
      <trkpt lat="48.52068" lon="-3.34074">
        <ele>185</ele>
        <time>2013-03-10T14:07:18Z</time>
      </trkpt>
      <trkpt lat="48.52069" lon="-3.34075">
        <ele>185</ele>
        <time>2013-03-10T14:07:20Z</time>
      </trkpt>
      <trkpt lat="48.52069" lon="-3.34075">
        <ele>185</ele>
        <time>2013-03-10T14:07:22Z</time>
      </trkpt>
      <trkpt lat="48.5207" lon="-3.34075">
        <ele>185</ele>
        <time>2013-03-10T14:07:24Z</time>
      </trkpt>
      <trkpt lat="48.52071" lon="-3.34077">
        <ele>185</ele>
        <time>2013-03-10T14:07:27Z</time>
      </trkpt>
      <trkpt lat="48.52071" lon="-3.34077">
        <ele>185</ele>
        <time>2013-03-10T14:07:30Z</time>
      </trkpt>
      <trkpt lat="48.52072" lon="-3.34076">
        <ele>186</ele>
        <time>2013-03-10T14:07:33Z</time>
      </trkpt>
      <trkpt lat="48.52073" lon="-3.34076">
        <ele>186</ele>
        <time>2013-03-10T14:07:35Z</time>
      </trkpt>
      <trkpt lat="48.52073" lon="-3.34076">
        <ele>186</ele>
        <time>2013-03-10T14:07:37Z</time>
      </trkpt>
      <trkpt lat="48.52074" lon="-3.34075">
        <ele>186</ele>
        <time>2013-03-10T14:07:40Z</time>
      </trkpt>
      <trkpt lat="48.52074" lon="-3.34075">
        <ele>185</ele>
        <time>2013-03-10T14:07:43Z</time>
      </trkpt>
      <trkpt lat="48.52073" lon="-3.34075">
        <ele>185</ele>
        <time>2013-03-10T14:07:45Z</time>
      </trkpt>
      <trkpt lat="48.52072" lon="-3.34074">
        <ele>185</ele>
        <time>2013-03-10T14:07:48Z</time>
      </trkpt>
      <trkpt lat="48.52072" lon="-3.34074">
        <ele>185</ele>
        <time>2013-03-10T14:07:50Z</time>
      </trkpt>
      <trkpt lat="48.52072" lon="-3.34074">
        <ele>185</ele>
        <time>2013-03-10T14:07:53Z</time>
      </trkpt>
      <trkpt lat="48.52072" lon="-3.34073">
        <ele>185</ele>
        <time>2013-03-10T14:07:55Z</time>
      </trkpt>
      <trkpt lat="48.52072" lon="-3.34072">
        <ele>185</ele>
        <time>2013-03-10T14:07:58Z</time>
      </trkpt>
      <trkpt lat="48.52071" lon="-3.34072">
        <ele>185</ele>
        <time>2013-03-10T14:08:00Z</time>
      </trkpt>
      <trkpt lat="48.52071" lon="-3.34071">
        <ele>185</ele>
        <time>2013-03-10T14:08:02Z</time>
      </trkpt>
      <trkpt lat="48.52071" lon="-3.3407">
        <ele>185</ele>
        <time>2013-03-10T14:08:04Z</time>
      </trkpt>
      <trkpt lat="48.52072" lon="-3.34069">
        <ele>185</ele>
        <time>2013-03-10T14:08:07Z</time>
      </trkpt>
      <trkpt lat="48.52073" lon="-3.3407">
        <ele>185</ele>
        <time>2013-03-10T14:08:09Z</time>
      </trkpt>
      <trkpt lat="48.52073" lon="-3.34069">
        <ele>185</ele>
        <time>2013-03-10T14:08:12Z</time>
      </trkpt>
      <trkpt lat="48.52073" lon="-3.34068">
        <ele>185</ele>
        <time>2013-03-10T14:08:15Z</time>
      </trkpt>
      <trkpt lat="48.52073" lon="-3.34067">
        <ele>185</ele>
        <time>2013-03-10T14:08:17Z</time>
      </trkpt>
      <trkpt lat="48.52073" lon="-3.34066">
        <ele>185</ele>
        <time>2013-03-10T14:08:20Z</time>
      </trkpt>
      <trkpt lat="48.52073" lon="-3.34066">
        <ele>185</ele>
        <time>2013-03-10T14:08:22Z</time>
      </trkpt>
      <trkpt lat="48.52073" lon="-3.34065">
        <ele>185</ele>
        <time>2013-03-10T14:08:25Z</time>
      </trkpt>
      <trkpt lat="48.52073" lon="-3.34065">
        <ele>185</ele>
        <time>2013-03-10T14:08:28Z</time>
      </trkpt>
      <trkpt lat="48.52072" lon="-3.34065">
        <ele>185</ele>
        <time>2013-03-10T14:08:30Z</time>
      </trkpt>
      <trkpt lat="48.52072" lon="-3.34064">
        <ele>185</ele>
        <time>2013-03-10T14:08:33Z</time>
      </trkpt>
      <trkpt lat="48.52071" lon="-3.34064">
        <ele>185</ele>
        <time>2013-03-10T14:08:35Z</time>
      </trkpt>
      <trkpt lat="48.5207" lon="-3.34063">
        <ele>185</ele>
        <time>2013-03-10T14:08:37Z</time>
      </trkpt>
      <trkpt lat="48.52069" lon="-3.34063">
        <ele>185</ele>
        <time>2013-03-10T14:08:40Z</time>
      </trkpt>
      <trkpt lat="48.52069" lon="-3.34061">
        <ele>185</ele>
        <time>2013-03-10T14:08:42Z</time>
      </trkpt>
      <trkpt lat="48.52069" lon="-3.3406">
        <ele>185</ele>
        <time>2013-03-10T14:08:44Z</time>
      </trkpt>
      <trkpt lat="48.52069" lon="-3.3406">
        <ele>185</ele>
        <time>2013-03-10T14:08:47Z</time>
      </trkpt>
      <trkpt lat="48.52069" lon="-3.34061">
        <ele>185</ele>
        <time>2013-03-10T14:08:49Z</time>
      </trkpt>
      <trkpt lat="48.52069" lon="-3.34062">
        <ele>185</ele>
        <time>2013-03-10T14:08:51Z</time>
      </trkpt>
      <trkpt lat="48.52069" lon="-3.34065">
        <ele>185</ele>
        <time>2013-03-10T14:08:54Z</time>
      </trkpt>
      <trkpt lat="48.5207" lon="-3.34066">
        <ele>185</ele>
        <time>2013-03-10T14:08:57Z</time>
      </trkpt>
      <trkpt lat="48.5207" lon="-3.34064">
        <ele>185</ele>
        <time>2013-03-10T14:08:59Z</time>
      </trkpt>
      <trkpt lat="48.52071" lon="-3.34062">
        <ele>185</ele>
        <time>2013-03-10T14:09:02Z</time>
      </trkpt>
      <trkpt lat="48.52072" lon="-3.34061">
        <ele>185</ele>
        <time>2013-03-10T14:09:04Z</time>
      </trkpt>
      <trkpt lat="48.52073" lon="-3.34062">
        <ele>185</ele>
        <time>2013-03-10T14:09:07Z</time>
      </trkpt>
      <trkpt lat="48.52074" lon="-3.34061">
        <ele>185</ele>
        <time>2013-03-10T14:09:09Z</time>
      </trkpt>
      <trkpt lat="48.52076" lon="-3.34059">
        <ele>186</ele>
        <time>2013-03-10T14:09:12Z</time>
      </trkpt>
      <trkpt lat="48.52078" lon="-3.34058">
        <ele>186</ele>
        <time>2013-03-10T14:09:15Z</time>
      </trkpt>
      <trkpt lat="48.52079" lon="-3.34058">
        <ele>186</ele>
        <time>2013-03-10T14:09:17Z</time>
      </trkpt>
      <trkpt lat="48.52081" lon="-3.34058">
        <ele>186</ele>
        <time>2013-03-10T14:09:19Z</time>
      </trkpt>
      <trkpt lat="48.52081" lon="-3.34057">
        <ele>186</ele>
        <time>2013-03-10T14:09:22Z</time>
      </trkpt>
      <trkpt lat="48.52083" lon="-3.34058">
        <ele>186</ele>
        <time>2013-03-10T14:09:24Z</time>
      </trkpt>
      <trkpt lat="48.52084" lon="-3.34058">
        <ele>186</ele>
        <time>2013-03-10T14:09:26Z</time>
      </trkpt>
      <trkpt lat="48.52085" lon="-3.34058">
        <ele>186</ele>
        <time>2013-03-10T14:09:28Z</time>
      </trkpt>
      <trkpt lat="48.52087" lon="-3.34058">
        <ele>186</ele>
        <time>2013-03-10T14:09:31Z</time>
      </trkpt>
      <trkpt lat="48.52088" lon="-3.34058">
        <ele>186</ele>
        <time>2013-03-10T14:09:33Z</time>
      </trkpt>
      <trkpt lat="48.5209" lon="-3.34058">
        <ele>186</ele>
        <time>2013-03-10T14:09:35Z</time>
      </trkpt>
      <trkpt lat="48.52091" lon="-3.34058">
        <ele>186</ele>
        <time>2013-03-10T14:09:37Z</time>
      </trkpt>
      <trkpt lat="48.52091" lon="-3.34057">
        <ele>186</ele>
        <time>2013-03-10T14:09:40Z</time>
      </trkpt>
      <trkpt lat="48.52092" lon="-3.34057">
        <ele>186</ele>
        <time>2013-03-10T14:09:43Z</time>
      </trkpt>
      <trkpt lat="48.52094" lon="-3.34057">
        <ele>186</ele>
        <time>2013-03-10T14:09:46Z</time>
      </trkpt>
      <trkpt lat="48.52095" lon="-3.34057">
        <ele>186</ele>
        <time>2013-03-10T14:09:48Z</time>
      </trkpt>
      <trkpt lat="48.52095" lon="-3.34058">
        <ele>186</ele>
        <time>2013-03-10T14:09:50Z</time>
      </trkpt>
      <trkpt lat="48.52096" lon="-3.34059">
        <ele>186</ele>
        <time>2013-03-10T14:09:52Z</time>
      </trkpt>
      <trkpt lat="48.52096" lon="-3.34059">
        <ele>186</ele>
        <time>2013-03-10T14:09:55Z</time>
      </trkpt>
      <trkpt lat="48.52095" lon="-3.3406">
        <ele>186</ele>
        <time>2013-03-10T14:09:58Z</time>
      </trkpt>
      <trkpt lat="48.52095" lon="-3.3406">
        <ele>186</ele>
        <time>2013-03-10T14:10:00Z</time>
      </trkpt>
      <trkpt lat="48.52094" lon="-3.34061">
        <ele>186</ele>
        <time>2013-03-10T14:10:03Z</time>
      </trkpt>
      <trkpt lat="48.52094" lon="-3.34061">
        <ele>186</ele>
        <time>2013-03-10T14:10:05Z</time>
      </trkpt>
      <trkpt lat="48.52094" lon="-3.34062">
        <ele>186</ele>
        <time>2013-03-10T14:10:07Z</time>
      </trkpt>
      <trkpt lat="48.52094" lon="-3.34063">
        <ele>186</ele>
        <time>2013-03-10T14:10:10Z</time>
      </trkpt>
      <trkpt lat="48.52094" lon="-3.34063">
        <ele>186</ele>
        <time>2013-03-10T14:10:12Z</time>
      </trkpt>
      <trkpt lat="48.52094" lon="-3.34064">
        <ele>186</ele>
        <time>2013-03-10T14:10:16Z</time>
      </trkpt>
      <trkpt lat="48.52094" lon="-3.34063">
        <ele>186</ele>
        <time>2013-03-10T14:10:18Z</time>
      </trkpt>
      <trkpt lat="48.52094" lon="-3.34064">
        <ele>186</ele>
        <time>2013-03-10T14:10:21Z</time>
      </trkpt>
      <trkpt lat="48.52093" lon="-3.34064">
        <ele>186</ele>
        <time>2013-03-10T14:10:23Z</time>
      </trkpt>
      <trkpt lat="48.52093" lon="-3.34065">
        <ele>186</ele>
        <time>2013-03-10T14:10:26Z</time>
      </trkpt>
      <trkpt lat="48.52092" lon="-3.34065">
        <ele>186</ele>
        <time>2013-03-10T14:10:29Z</time>
      </trkpt>
      <trkpt lat="48.52092" lon="-3.34064">
        <ele>186</ele>
        <time>2013-03-10T14:10:31Z</time>
      </trkpt>
      <trkpt lat="48.52093" lon="-3.34064">
        <ele>186</ele>
        <time>2013-03-10T14:10:34Z</time>
      </trkpt>
      <trkpt lat="48.52093" lon="-3.34065">
        <ele>186</ele>
        <time>2013-03-10T14:10:36Z</time>
      </trkpt>
      <trkpt lat="48.52094" lon="-3.34065">
        <ele>186</ele>
        <time>2013-03-10T14:10:39Z</time>
      </trkpt>
      <trkpt lat="48.52094" lon="-3.34066">
        <ele>186</ele>
        <time>2013-03-10T14:10:41Z</time>
      </trkpt>
      <trkpt lat="48.52094" lon="-3.34068">
        <ele>186</ele>
        <time>2013-03-10T14:10:43Z</time>
      </trkpt>
      <trkpt lat="48.52095" lon="-3.34068">
        <ele>186</ele>
        <time>2013-03-10T14:10:45Z</time>
      </trkpt>
      <trkpt lat="48.52095" lon="-3.34069">
        <ele>186</ele>
        <time>2013-03-10T14:10:47Z</time>
      </trkpt>
      <trkpt lat="48.52096" lon="-3.34069">
        <ele>186</ele>
        <time>2013-03-10T14:10:50Z</time>
      </trkpt>
      <trkpt lat="48.52097" lon="-3.3407">
        <ele>186</ele>
        <time>2013-03-10T14:10:52Z</time>
      </trkpt>
      <trkpt lat="48.52097" lon="-3.34071">
        <ele>186</ele>
        <time>2013-03-10T14:10:54Z</time>
      </trkpt>
      <trkpt lat="48.52097" lon="-3.34072">
        <ele>186</ele>
        <time>2013-03-10T14:10:56Z</time>
      </trkpt>
      <trkpt lat="48.52097" lon="-3.34073">
        <ele>186</ele>
        <time>2013-03-10T14:10:58Z</time>
      </trkpt>
      <trkpt lat="48.52097" lon="-3.34073">
        <ele>186</ele>
        <time>2013-03-10T14:11:01Z</time>
      </trkpt>
      <trkpt lat="48.52098" lon="-3.34074">
        <ele>186</ele>
        <time>2013-03-10T14:11:05Z</time>
      </trkpt>
      <trkpt lat="48.52098" lon="-3.34075">
        <ele>186</ele>
        <time>2013-03-10T14:11:08Z</time>
      </trkpt>
      <trkpt lat="48.52098" lon="-3.34076">
        <ele>186</ele>
        <time>2013-03-10T14:11:11Z</time>
      </trkpt>
      <trkpt lat="48.52098" lon="-3.34076">
        <ele>186</ele>
        <time>2013-03-10T14:11:13Z</time>
      </trkpt>
      <trkpt lat="48.52097" lon="-3.34077">
        <ele>186</ele>
        <time>2013-03-10T14:11:16Z</time>
      </trkpt>
      <trkpt lat="48.52097" lon="-3.34077">
        <ele>186</ele>
        <time>2013-03-10T14:11:18Z</time>
      </trkpt>
      <trkpt lat="48.52097" lon="-3.34077">
        <ele>186</ele>
        <time>2013-03-10T14:11:22Z</time>
      </trkpt>
      <trkpt lat="48.52097" lon="-3.34077">
        <ele>186</ele>
        <time>2013-03-10T14:11:24Z</time>
      </trkpt>
      <trkpt lat="48.52097" lon="-3.34078">
        <ele>186</ele>
        <time>2013-03-10T14:11:27Z</time>
      </trkpt>
      <trkpt lat="48.52097" lon="-3.34077">
        <ele>186</ele>
        <time>2013-03-10T14:11:30Z</time>
      </trkpt>
      <trkpt lat="48.52097" lon="-3.34075">
        <ele>186</ele>
        <time>2013-03-10T14:11:33Z</time>
      </trkpt>
      <trkpt lat="48.52096" lon="-3.34074">
        <ele>186</ele>
        <time>2013-03-10T14:11:36Z</time>
      </trkpt>
      <trkpt lat="48.52096" lon="-3.34073">
        <ele>186</ele>
        <time>2013-03-10T14:11:38Z</time>
      </trkpt>
      <trkpt lat="48.52095" lon="-3.34072">
        <ele>186</ele>
        <time>2013-03-10T14:11:40Z</time>
      </trkpt>
      <trkpt lat="48.52095" lon="-3.3407">
        <ele>186</ele>
        <time>2013-03-10T14:11:42Z</time>
      </trkpt>
      <trkpt lat="48.52096" lon="-3.34069">
        <ele>186</ele>
        <time>2013-03-10T14:11:45Z</time>
      </trkpt>
      <trkpt lat="48.52096" lon="-3.34068">
        <ele>187</ele>
        <time>2013-03-10T14:11:47Z</time>
      </trkpt>
      <trkpt lat="48.52095" lon="-3.34068">
        <ele>187</ele>
        <time>2013-03-10T14:11:50Z</time>
      </trkpt>
      <trkpt lat="48.52096" lon="-3.34068">
        <ele>186</ele>
        <time>2013-03-10T14:11:54Z</time>
      </trkpt>
      <trkpt lat="48.52096" lon="-3.34069">
        <ele>186</ele>
        <time>2013-03-10T14:11:57Z</time>
      </trkpt>
      <trkpt lat="48.52097" lon="-3.3407">
        <ele>186</ele>
        <time>2013-03-10T14:11:59Z</time>
      </trkpt>
      <trkpt lat="48.52097" lon="-3.3407">
        <ele>186</ele>
        <time>2013-03-10T14:12:01Z</time>
      </trkpt>
      <trkpt lat="48.52096" lon="-3.34071">
        <ele>186</ele>
        <time>2013-03-10T14:12:04Z</time>
      </trkpt>
      <trkpt lat="48.52095" lon="-3.34071">
        <ele>186</ele>
        <time>2013-03-10T14:12:07Z</time>
      </trkpt>
      <trkpt lat="48.52094" lon="-3.34072">
        <ele>187</ele>
        <time>2013-03-10T14:12:09Z</time>
      </trkpt>
      <trkpt lat="48.52094" lon="-3.34071">
        <ele>187</ele>
        <time>2013-03-10T14:12:13Z</time>
      </trkpt>
      <trkpt lat="48.52094" lon="-3.3407">
        <ele>187</ele>
        <time>2013-03-10T14:12:15Z</time>
      </trkpt>
      <trkpt lat="48.52094" lon="-3.3407">
        <ele>186</ele>
        <time>2013-03-10T14:12:17Z</time>
      </trkpt>
      <trkpt lat="48.52095" lon="-3.34069">
        <ele>186</ele>
        <time>2013-03-10T14:12:19Z</time>
      </trkpt>
      <trkpt lat="48.52095" lon="-3.34068">
        <ele>186</ele>
        <time>2013-03-10T14:12:21Z</time>
      </trkpt>
      <trkpt lat="48.52095" lon="-3.34067">
        <ele>186</ele>
        <time>2013-03-10T14:12:23Z</time>
      </trkpt>
      <trkpt lat="48.52095" lon="-3.34065">
        <ele>186</ele>
        <time>2013-03-10T14:12:26Z</time>
      </trkpt>
      <trkpt lat="48.52095" lon="-3.34064">
        <ele>187</ele>
        <time>2013-03-10T14:12:28Z</time>
      </trkpt>
      <trkpt lat="48.52094" lon="-3.34063">
        <ele>186</ele>
        <time>2013-03-10T14:12:31Z</time>
      </trkpt>
      <trkpt lat="48.52095" lon="-3.34062">
        <ele>186</ele>
        <time>2013-03-10T14:12:33Z</time>
      </trkpt>
      <trkpt lat="48.52094" lon="-3.34061">
        <ele>187</ele>
        <time>2013-03-10T14:12:35Z</time>
      </trkpt>
      <trkpt lat="48.52094" lon="-3.34059">
        <ele>186</ele>
        <time>2013-03-10T14:12:38Z</time>
      </trkpt>
      <trkpt lat="48.52093" lon="-3.34059">
        <ele>186</ele>
        <time>2013-03-10T14:12:40Z</time>
      </trkpt>
      <trkpt lat="48.52093" lon="-3.34058">
        <ele>186</ele>
        <time>2013-03-10T14:12:43Z</time>
      </trkpt>
      <trkpt lat="48.52092" lon="-3.34058">
        <ele>186</ele>
        <time>2013-03-10T14:12:47Z</time>
      </trkpt>
      <trkpt lat="48.52092" lon="-3.34058">
        <ele>186</ele>
        <time>2013-03-10T14:12:49Z</time>
      </trkpt>
      <trkpt lat="48.52092" lon="-3.34059">
        <ele>186</ele>
        <time>2013-03-10T14:12:52Z</time>
      </trkpt>
      <trkpt lat="48.52092" lon="-3.34059">
        <ele>186</ele>
        <time>2013-03-10T14:12:55Z</time>
      </trkpt>
      <trkpt lat="48.52093" lon="-3.3406">
        <ele>186</ele>
        <time>2013-03-10T14:12:57Z</time>
      </trkpt>
      <trkpt lat="48.52094" lon="-3.3406">
        <ele>186</ele>
        <time>2013-03-10T14:12:59Z</time>
      </trkpt>
      <trkpt lat="48.52094" lon="-3.3406">
        <ele>186</ele>
        <time>2013-03-10T14:13:01Z</time>
      </trkpt>
      <trkpt lat="48.52095" lon="-3.3406">
        <ele>186</ele>
        <time>2013-03-10T14:13:04Z</time>
      </trkpt>
      <trkpt lat="48.52095" lon="-3.3406">
        <ele>186</ele>
        <time>2013-03-10T14:13:07Z</time>
      </trkpt>
      <trkpt lat="48.52095" lon="-3.3406">
        <ele>186</ele>
        <time>2013-03-10T14:13:09Z</time>
      </trkpt>
      <trkpt lat="48.52096" lon="-3.3406">
        <ele>186</ele>
        <time>2013-03-10T14:13:11Z</time>
      </trkpt>
      <trkpt lat="48.52096" lon="-3.34061">
        <ele>186</ele>
        <time>2013-03-10T14:13:13Z</time>
      </trkpt>
      <trkpt lat="48.52097" lon="-3.34061">
        <ele>186</ele>
        <time>2013-03-10T14:13:16Z</time>
      </trkpt>
      <trkpt lat="48.52098" lon="-3.34062">
        <ele>186</ele>
        <time>2013-03-10T14:13:18Z</time>
      </trkpt>
      <trkpt lat="48.52098" lon="-3.34064">
        <ele>186</ele>
        <time>2013-03-10T14:13:21Z</time>
      </trkpt>
      <trkpt lat="48.52099" lon="-3.34064">
        <ele>186</ele>
        <time>2013-03-10T14:13:24Z</time>
      </trkpt>
      <trkpt lat="48.52099" lon="-3.34064">
        <ele>186</ele>
        <time>2013-03-10T14:13:27Z</time>
      </trkpt>
      <trkpt lat="48.52099" lon="-3.34063">
        <ele>186</ele>
        <time>2013-03-10T14:13:30Z</time>
      </trkpt>
      <trkpt lat="48.52099" lon="-3.34063">
        <ele>187</ele>
        <time>2013-03-10T14:13:32Z</time>
      </trkpt>
      <trkpt lat="48.521" lon="-3.34062">
        <ele>187</ele>
        <time>2013-03-10T14:13:34Z</time>
      </trkpt>
      <trkpt lat="48.521" lon="-3.34062">
        <ele>187</ele>
        <time>2013-03-10T14:13:36Z</time>
      </trkpt>
      <trkpt lat="48.521" lon="-3.3406">
        <ele>187</ele>
        <time>2013-03-10T14:13:39Z</time>
      </trkpt>
      <trkpt lat="48.521" lon="-3.34059">
        <ele>187</ele>
        <time>2013-03-10T14:13:41Z</time>
      </trkpt>
      <trkpt lat="48.52101" lon="-3.34058">
        <ele>187</ele>
        <time>2013-03-10T14:13:44Z</time>
      </trkpt>
      <trkpt lat="48.52102" lon="-3.34058">
        <ele>187</ele>
        <time>2013-03-10T14:13:47Z</time>
      </trkpt>
      <trkpt lat="48.52102" lon="-3.34058">
        <ele>187</ele>
        <time>2013-03-10T14:13:49Z</time>
      </trkpt>
      <trkpt lat="48.52102" lon="-3.34057">
        <ele>187</ele>
        <time>2013-03-10T14:13:52Z</time>
      </trkpt>
      <trkpt lat="48.52103" lon="-3.34057">
        <ele>187</ele>
        <time>2013-03-10T14:13:54Z</time>
      </trkpt>
      <trkpt lat="48.52105" lon="-3.34056">
        <ele>187</ele>
        <time>2013-03-10T14:13:57Z</time>
      </trkpt>
      <trkpt lat="48.52105" lon="-3.34055">
        <ele>187</ele>
        <time>2013-03-10T14:13:59Z</time>
      </trkpt>
      <trkpt lat="48.52106" lon="-3.34053">
        <ele>186</ele>
        <time>2013-03-10T14:14:02Z</time>
      </trkpt>
      <trkpt lat="48.52106" lon="-3.3405">
        <ele>187</ele>
        <time>2013-03-10T14:14:04Z</time>
      </trkpt>
      <trkpt lat="48.52106" lon="-3.3405">
        <ele>187</ele>
        <time>2013-03-10T14:14:06Z</time>
      </trkpt>
      <trkpt lat="48.52107" lon="-3.3405">
        <ele>187</ele>
        <time>2013-03-10T14:14:09Z</time>
      </trkpt>
      <trkpt lat="48.5211" lon="-3.3405">
        <ele>188</ele>
        <time>2013-03-10T14:14:12Z</time>
      </trkpt>
      <trkpt lat="48.52111" lon="-3.34049">
        <ele>188</ele>
        <time>2013-03-10T14:14:14Z</time>
      </trkpt>
      <trkpt lat="48.52114" lon="-3.34048">
        <ele>188</ele>
        <time>2013-03-10T14:14:17Z</time>
      </trkpt>
      <trkpt lat="48.52116" lon="-3.34047">
        <ele>188</ele>
        <time>2013-03-10T14:14:19Z</time>
      </trkpt>
      <trkpt lat="48.52118" lon="-3.34047">
        <ele>188</ele>
        <time>2013-03-10T14:14:22Z</time>
      </trkpt>
      <trkpt lat="48.52121" lon="-3.34047">
        <ele>188</ele>
        <time>2013-03-10T14:14:25Z</time>
      </trkpt>
      <trkpt lat="48.52122" lon="-3.34047">
        <ele>188</ele>
        <time>2013-03-10T14:14:27Z</time>
      </trkpt>
      <trkpt lat="48.52125" lon="-3.34048">
        <ele>189</ele>
        <time>2013-03-10T14:14:30Z</time>
      </trkpt>
      <trkpt lat="48.52127" lon="-3.34049">
        <ele>189</ele>
        <time>2013-03-10T14:14:32Z</time>
      </trkpt>
      <trkpt lat="48.52128" lon="-3.34049">
        <ele>189</ele>
        <time>2013-03-10T14:14:34Z</time>
      </trkpt>
      <trkpt lat="48.52131" lon="-3.3405">
        <ele>189</ele>
        <time>2013-03-10T14:14:36Z</time>
      </trkpt>
      <trkpt lat="48.52132" lon="-3.34049">
        <ele>189</ele>
        <time>2013-03-10T14:14:39Z</time>
      </trkpt>
      <trkpt lat="48.52134" lon="-3.34049">
        <ele>189</ele>
        <time>2013-03-10T14:14:41Z</time>
      </trkpt>
      <trkpt lat="48.52135" lon="-3.34049">
        <ele>189</ele>
        <time>2013-03-10T14:14:45Z</time>
      </trkpt>
      <trkpt lat="48.52136" lon="-3.3405">
        <ele>189</ele>
        <time>2013-03-10T14:14:47Z</time>
      </trkpt>
      <trkpt lat="48.52137" lon="-3.34052">
        <ele>189</ele>
        <time>2013-03-10T14:14:49Z</time>
      </trkpt>
      <trkpt lat="48.52139" lon="-3.34053">
        <ele>189</ele>
        <time>2013-03-10T14:14:51Z</time>
      </trkpt>
      <trkpt lat="48.52141" lon="-3.34053">
        <ele>189</ele>
        <time>2013-03-10T14:14:54Z</time>
      </trkpt>
      <trkpt lat="48.52142" lon="-3.34054">
        <ele>189</ele>
        <time>2013-03-10T14:14:56Z</time>
      </trkpt>
      <trkpt lat="48.52143" lon="-3.34054">
        <ele>189</ele>
        <time>2013-03-10T14:14:58Z</time>
      </trkpt>
      <trkpt lat="48.52145" lon="-3.34055">
        <ele>189</ele>
        <time>2013-03-10T14:15:01Z</time>
      </trkpt>
      <trkpt lat="48.52147" lon="-3.34056">
        <ele>189</ele>
        <time>2013-03-10T14:15:04Z</time>
      </trkpt>
      <trkpt lat="48.5215" lon="-3.34055">
        <ele>189</ele>
        <time>2013-03-10T14:15:07Z</time>
      </trkpt>
      <trkpt lat="48.52153" lon="-3.34056">
        <ele>189</ele>
        <time>2013-03-10T14:15:09Z</time>
      </trkpt>
      <trkpt lat="48.52154" lon="-3.34056">
        <ele>189</ele>
        <time>2013-03-10T14:15:12Z</time>
      </trkpt>
      <trkpt lat="48.52155" lon="-3.34056">
        <ele>189</ele>
        <time>2013-03-10T14:15:14Z</time>
      </trkpt>
      <trkpt lat="48.52156" lon="-3.34058">
        <ele>189</ele>
        <time>2013-03-10T14:15:16Z</time>
      </trkpt>
      <trkpt lat="48.52158" lon="-3.34058">
        <ele>189</ele>
        <time>2013-03-10T14:15:18Z</time>
      </trkpt>
      <trkpt lat="48.5216" lon="-3.34059">
        <ele>189</ele>
        <time>2013-03-10T14:15:21Z</time>
      </trkpt>
      <trkpt lat="48.52163" lon="-3.3406">
        <ele>189</ele>
        <time>2013-03-10T14:15:23Z</time>
      </trkpt>
      <trkpt lat="48.52165" lon="-3.34061">
        <ele>189</ele>
        <time>2013-03-10T14:15:25Z</time>
      </trkpt>
      <trkpt lat="48.52167" lon="-3.34061">
        <ele>189</ele>
        <time>2013-03-10T14:15:28Z</time>
      </trkpt>
      <trkpt lat="48.5217" lon="-3.34062">
        <ele>189</ele>
        <time>2013-03-10T14:15:31Z</time>
      </trkpt>
      <trkpt lat="48.52174" lon="-3.34063">
        <ele>189</ele>
        <time>2013-03-10T14:15:34Z</time>
      </trkpt>
      <trkpt lat="48.52178" lon="-3.34063">
        <ele>189</ele>
        <time>2013-03-10T14:15:36Z</time>
      </trkpt>
      <trkpt lat="48.52181" lon="-3.34063">
        <ele>189</ele>
        <time>2013-03-10T14:15:39Z</time>
      </trkpt>
      <trkpt lat="48.52185" lon="-3.34064">
        <ele>189</ele>
        <time>2013-03-10T14:15:41Z</time>
      </trkpt>
      <trkpt lat="48.52187" lon="-3.34065">
        <ele>189</ele>
        <time>2013-03-10T14:15:43Z</time>
      </trkpt>
      <trkpt lat="48.52191" lon="-3.34066">
        <ele>189</ele>
        <time>2013-03-10T14:15:46Z</time>
      </trkpt>
      <trkpt lat="48.52193" lon="-3.34066">
        <ele>189</ele>
        <time>2013-03-10T14:15:49Z</time>
      </trkpt>
      <trkpt lat="48.52196" lon="-3.34067">
        <ele>189</ele>
        <time>2013-03-10T14:15:51Z</time>
      </trkpt>
      <trkpt lat="48.52199" lon="-3.34068">
        <ele>189</ele>
        <time>2013-03-10T14:15:53Z</time>
      </trkpt>
      <trkpt lat="48.52201" lon="-3.34068">
        <ele>189</ele>
        <time>2013-03-10T14:15:56Z</time>
      </trkpt>
      <trkpt lat="48.52205" lon="-3.34068">
        <ele>188</ele>
        <time>2013-03-10T14:15:58Z</time>
      </trkpt>
      <trkpt lat="48.52209" lon="-3.3407">
        <ele>188</ele>
        <time>2013-03-10T14:16:02Z</time>
      </trkpt>
      <trkpt lat="48.52212" lon="-3.3407">
        <ele>188</ele>
        <time>2013-03-10T14:16:04Z</time>
      </trkpt>
      <trkpt lat="48.52217" lon="-3.34071">
        <ele>188</ele>
        <time>2013-03-10T14:16:07Z</time>
      </trkpt>
      <trkpt lat="48.52219" lon="-3.34071">
        <ele>188</ele>
        <time>2013-03-10T14:16:10Z</time>
      </trkpt>
      <trkpt lat="48.52222" lon="-3.34072">
        <ele>188</ele>
        <time>2013-03-10T14:16:12Z</time>
      </trkpt>
      <trkpt lat="48.52224" lon="-3.34073">
        <ele>188</ele>
        <time>2013-03-10T14:16:15Z</time>
      </trkpt>
      <trkpt lat="48.52228" lon="-3.34074">
        <ele>188</ele>
        <time>2013-03-10T14:16:17Z</time>
      </trkpt>
      <trkpt lat="48.5223" lon="-3.34075">
        <ele>187</ele>
        <time>2013-03-10T14:16:20Z</time>
      </trkpt>
      <trkpt lat="48.52231" lon="-3.34075">
        <ele>187</ele>
        <time>2013-03-10T14:16:22Z</time>
      </trkpt>
      <trkpt lat="48.52233" lon="-3.34076">
        <ele>187</ele>
        <time>2013-03-10T14:16:25Z</time>
      </trkpt>
      <trkpt lat="48.52235" lon="-3.34076">
        <ele>187</ele>
        <time>2013-03-10T14:16:27Z</time>
      </trkpt>
      <trkpt lat="48.52239" lon="-3.34078">
        <ele>187</ele>
        <time>2013-03-10T14:16:29Z</time>
      </trkpt>
      <trkpt lat="48.52242" lon="-3.34079">
        <ele>187</ele>
        <time>2013-03-10T14:16:32Z</time>
      </trkpt>
      <trkpt lat="48.52245" lon="-3.34079">
        <ele>187</ele>
        <time>2013-03-10T14:16:34Z</time>
      </trkpt>
      <trkpt lat="48.52247" lon="-3.3408">
        <ele>187</ele>
        <time>2013-03-10T14:16:37Z</time>
      </trkpt>
      <trkpt lat="48.52251" lon="-3.34081">
        <ele>187</ele>
        <time>2013-03-10T14:16:39Z</time>
      </trkpt>
      <trkpt lat="48.52253" lon="-3.34081">
        <ele>187</ele>
        <time>2013-03-10T14:16:41Z</time>
      </trkpt>
      <trkpt lat="48.52256" lon="-3.34081">
        <ele>187</ele>
        <time>2013-03-10T14:16:44Z</time>
      </trkpt>
      <trkpt lat="48.52259" lon="-3.34082">
        <ele>187</ele>
        <time>2013-03-10T14:16:48Z</time>
      </trkpt>
      <trkpt lat="48.52262" lon="-3.34082">
        <ele>187</ele>
        <time>2013-03-10T14:16:51Z</time>
      </trkpt>
      <trkpt lat="48.52265" lon="-3.34083">
        <ele>187</ele>
        <time>2013-03-10T14:16:54Z</time>
      </trkpt>
      <trkpt lat="48.52269" lon="-3.34083">
        <ele>186</ele>
        <time>2013-03-10T14:16:56Z</time>
      </trkpt>
      <trkpt lat="48.52272" lon="-3.34084">
        <ele>186</ele>
        <time>2013-03-10T14:16:59Z</time>
      </trkpt>
      <trkpt lat="48.52276" lon="-3.34084">
        <ele>186</ele>
        <time>2013-03-10T14:17:02Z</time>
      </trkpt>
      <trkpt lat="48.52279" lon="-3.34084">
        <ele>186</ele>
        <time>2013-03-10T14:17:04Z</time>
      </trkpt>
      <trkpt lat="48.52282" lon="-3.34085">
        <ele>186</ele>
        <time>2013-03-10T14:17:06Z</time>
      </trkpt>
      <trkpt lat="48.52285" lon="-3.34086">
        <ele>186</ele>
        <time>2013-03-10T14:17:09Z</time>
      </trkpt>
      <trkpt lat="48.52288" lon="-3.34087">
        <ele>186</ele>
        <time>2013-03-10T14:17:11Z</time>
      </trkpt>
      <trkpt lat="48.52292" lon="-3.34088">
        <ele>186</ele>
        <time>2013-03-10T14:17:15Z</time>
      </trkpt>
      <trkpt lat="48.52295" lon="-3.34088">
        <ele>186</ele>
        <time>2013-03-10T14:17:17Z</time>
      </trkpt>
      <trkpt lat="48.52298" lon="-3.3409">
        <ele>187</ele>
        <time>2013-03-10T14:17:19Z</time>
      </trkpt>
      <trkpt lat="48.52302" lon="-3.34091">
        <ele>186</ele>
        <time>2013-03-10T14:17:22Z</time>
      </trkpt>
      <trkpt lat="48.52304" lon="-3.34091">
        <ele>186</ele>
        <time>2013-03-10T14:17:24Z</time>
      </trkpt>
      <trkpt lat="48.52306" lon="-3.34092">
        <ele>186</ele>
        <time>2013-03-10T14:17:27Z</time>
      </trkpt>
      <trkpt lat="48.52309" lon="-3.34094">
        <ele>186</ele>
        <time>2013-03-10T14:17:30Z</time>
      </trkpt>
      <trkpt lat="48.52311" lon="-3.34095">
        <ele>186</ele>
        <time>2013-03-10T14:17:32Z</time>
      </trkpt>
      <trkpt lat="48.52314" lon="-3.34095">
        <ele>186</ele>
        <time>2013-03-10T14:17:35Z</time>
      </trkpt>
      <trkpt lat="48.52316" lon="-3.34097">
        <ele>186</ele>
        <time>2013-03-10T14:17:38Z</time>
      </trkpt>
      <trkpt lat="48.52318" lon="-3.34098">
        <ele>186</ele>
        <time>2013-03-10T14:17:41Z</time>
      </trkpt>
      <trkpt lat="48.52322" lon="-3.34099">
        <ele>186</ele>
        <time>2013-03-10T14:17:43Z</time>
      </trkpt>
      <trkpt lat="48.52324" lon="-3.341">
        <ele>186</ele>
        <time>2013-03-10T14:17:46Z</time>
      </trkpt>
      <trkpt lat="48.52327" lon="-3.34101">
        <ele>186</ele>
        <time>2013-03-10T14:17:49Z</time>
      </trkpt>
      <trkpt lat="48.52331" lon="-3.34103">
        <ele>186</ele>
        <time>2013-03-10T14:17:51Z</time>
      </trkpt>
      <trkpt lat="48.52334" lon="-3.34104">
        <ele>186</ele>
        <time>2013-03-10T14:17:53Z</time>
      </trkpt>
      <trkpt lat="48.52335" lon="-3.34106">
        <ele>186</ele>
        <time>2013-03-10T14:17:55Z</time>
      </trkpt>
      <trkpt lat="48.52337" lon="-3.34107">
        <ele>186</ele>
        <time>2013-03-10T14:17:57Z</time>
      </trkpt>
      <trkpt lat="48.52339" lon="-3.34108">
        <ele>185</ele>
        <time>2013-03-10T14:17:59Z</time>
      </trkpt>
      <trkpt lat="48.52341" lon="-3.34109">
        <ele>186</ele>
        <time>2013-03-10T14:18:01Z</time>
      </trkpt>
      <trkpt lat="48.52343" lon="-3.3411">
        <ele>185</ele>
        <time>2013-03-10T14:18:04Z</time>
      </trkpt>
      <trkpt lat="48.52346" lon="-3.34109">
        <ele>186</ele>
        <time>2013-03-10T14:18:06Z</time>
      </trkpt>
      <trkpt lat="48.5235" lon="-3.3411">
        <ele>186</ele>
        <time>2013-03-10T14:18:09Z</time>
      </trkpt>
      <trkpt lat="48.52352" lon="-3.34111">
        <ele>186</ele>
        <time>2013-03-10T14:18:11Z</time>
      </trkpt>
      <trkpt lat="48.52355" lon="-3.34113">
        <ele>185</ele>
        <time>2013-03-10T14:18:14Z</time>
      </trkpt>
      <trkpt lat="48.52357" lon="-3.34114">
        <ele>185</ele>
        <time>2013-03-10T14:18:16Z</time>
      </trkpt>
      <trkpt lat="48.5236" lon="-3.34115">
        <ele>185</ele>
        <time>2013-03-10T14:18:19Z</time>
      </trkpt>
      <trkpt lat="48.52364" lon="-3.34115">
        <ele>185</ele>
        <time>2013-03-10T14:18:22Z</time>
      </trkpt>
      <trkpt lat="48.52368" lon="-3.34116">
        <ele>185</ele>
        <time>2013-03-10T14:18:24Z</time>
      </trkpt>
      <trkpt lat="48.52373" lon="-3.34117">
        <ele>185</ele>
        <time>2013-03-10T14:18:27Z</time>
      </trkpt>
      <trkpt lat="48.52376" lon="-3.34117">
        <ele>185</ele>
        <time>2013-03-10T14:18:30Z</time>
      </trkpt>
      <trkpt lat="48.5238" lon="-3.34119">
        <ele>184</ele>
        <time>2013-03-10T14:18:32Z</time>
      </trkpt>
      <trkpt lat="48.52383" lon="-3.34119">
        <ele>184</ele>
        <time>2013-03-10T14:18:34Z</time>
      </trkpt>
      <trkpt lat="48.52386" lon="-3.34119">
        <ele>184</ele>
        <time>2013-03-10T14:18:36Z</time>
      </trkpt>
      <trkpt lat="48.5239" lon="-3.3412">
        <ele>184</ele>
        <time>2013-03-10T14:18:40Z</time>
      </trkpt>
      <trkpt lat="48.52393" lon="-3.34121">
        <ele>184</ele>
        <time>2013-03-10T14:18:43Z</time>
      </trkpt>
      <trkpt lat="48.52396" lon="-3.34123">
        <ele>184</ele>
        <time>2013-03-10T14:18:45Z</time>
      </trkpt>
      <trkpt lat="48.52398" lon="-3.34124">
        <ele>184</ele>
        <time>2013-03-10T14:18:47Z</time>
      </trkpt>
      <trkpt lat="48.524" lon="-3.34125">
        <ele>184</ele>
        <time>2013-03-10T14:18:49Z</time>
      </trkpt>
      <trkpt lat="48.52403" lon="-3.34126">
        <ele>184</ele>
        <time>2013-03-10T14:18:52Z</time>
      </trkpt>
      <trkpt lat="48.52406" lon="-3.34128">
        <ele>184</ele>
        <time>2013-03-10T14:18:56Z</time>
      </trkpt>
      <trkpt lat="48.52409" lon="-3.34129">
        <ele>184</ele>
        <time>2013-03-10T14:18:58Z</time>
      </trkpt>
      <trkpt lat="48.52411" lon="-3.34129">
        <ele>184</ele>
        <time>2013-03-10T14:19:00Z</time>
      </trkpt>
      <trkpt lat="48.52412" lon="-3.34128">
        <ele>184</ele>
        <time>2013-03-10T14:19:03Z</time>
      </trkpt>
      <trkpt lat="48.52414" lon="-3.34129">
        <ele>184</ele>
        <time>2013-03-10T14:19:06Z</time>
      </trkpt>
      <trkpt lat="48.52416" lon="-3.34129">
        <ele>184</ele>
        <time>2013-03-10T14:19:09Z</time>
      </trkpt>
      <trkpt lat="48.52419" lon="-3.34131">
        <ele>183</ele>
        <time>2013-03-10T14:19:11Z</time>
      </trkpt>
      <trkpt lat="48.52422" lon="-3.34132">
        <ele>183</ele>
        <time>2013-03-10T14:19:14Z</time>
      </trkpt>
      <trkpt lat="48.52424" lon="-3.34133">
        <ele>183</ele>
        <time>2013-03-10T14:19:16Z</time>
      </trkpt>
      <trkpt lat="48.52427" lon="-3.34134">
        <ele>183</ele>
        <time>2013-03-10T14:19:19Z</time>
      </trkpt>
      <trkpt lat="48.52428" lon="-3.34134">
        <ele>183</ele>
        <time>2013-03-10T14:19:21Z</time>
      </trkpt>
      <trkpt lat="48.52432" lon="-3.34135">
        <ele>183</ele>
        <time>2013-03-10T14:19:23Z</time>
      </trkpt>
      <trkpt lat="48.52435" lon="-3.34135">
        <ele>183</ele>
        <time>2013-03-10T14:19:26Z</time>
      </trkpt>
      <trkpt lat="48.52435" lon="-3.34135">
        <ele>183</ele>
        <time>2013-03-10T14:19:28Z</time>
      </trkpt>
      <trkpt lat="48.52436" lon="-3.34135">
        <ele>183</ele>
        <time>2013-03-10T14:19:30Z</time>
      </trkpt>
      <trkpt lat="48.52438" lon="-3.34135">
        <ele>182</ele>
        <time>2013-03-10T14:19:33Z</time>
      </trkpt>
      <trkpt lat="48.52441" lon="-3.34137">
        <ele>183</ele>
        <time>2013-03-10T14:19:36Z</time>
      </trkpt>
      <trkpt lat="48.52443" lon="-3.34138">
        <ele>183</ele>
        <time>2013-03-10T14:19:38Z</time>
      </trkpt>
      <trkpt lat="48.52445" lon="-3.34139">
        <ele>183</ele>
        <time>2013-03-10T14:19:40Z</time>
      </trkpt>
      <trkpt lat="48.52449" lon="-3.3414">
        <ele>183</ele>
        <time>2013-03-10T14:19:43Z</time>
      </trkpt>
      <trkpt lat="48.52452" lon="-3.34141">
        <ele>183</ele>
        <time>2013-03-10T14:19:47Z</time>
      </trkpt>
      <trkpt lat="48.52456" lon="-3.34142">
        <ele>182</ele>
        <time>2013-03-10T14:19:50Z</time>
      </trkpt>
      <trkpt lat="48.52459" lon="-3.34143">
        <ele>182</ele>
        <time>2013-03-10T14:19:52Z</time>
      </trkpt>
      <trkpt lat="48.52462" lon="-3.34144">
        <ele>182</ele>
        <time>2013-03-10T14:19:55Z</time>
      </trkpt>
      <trkpt lat="48.52464" lon="-3.34145">
        <ele>182</ele>
        <time>2013-03-10T14:19:57Z</time>
      </trkpt>
      <trkpt lat="48.52466" lon="-3.34146">
        <ele>182</ele>
        <time>2013-03-10T14:20:00Z</time>
      </trkpt>
      <trkpt lat="48.5247" lon="-3.34147">
        <ele>182</ele>
        <time>2013-03-10T14:20:02Z</time>
      </trkpt>
      <trkpt lat="48.52472" lon="-3.34148">
        <ele>182</ele>
        <time>2013-03-10T14:20:04Z</time>
      </trkpt>
      <trkpt lat="48.52475" lon="-3.34149">
        <ele>182</ele>
        <time>2013-03-10T14:20:07Z</time>
      </trkpt>
      <trkpt lat="48.52478" lon="-3.34149">
        <ele>182</ele>
        <time>2013-03-10T14:20:09Z</time>
      </trkpt>
      <trkpt lat="48.5248" lon="-3.3415">
        <ele>182</ele>
        <time>2013-03-10T14:20:12Z</time>
      </trkpt>
      <trkpt lat="48.52484" lon="-3.34151">
        <ele>182</ele>
        <time>2013-03-10T14:20:14Z</time>
      </trkpt>
      <trkpt lat="48.52488" lon="-3.34152">
        <ele>182</ele>
        <time>2013-03-10T14:20:17Z</time>
      </trkpt>
      <trkpt lat="48.5249" lon="-3.34152">
        <ele>182</ele>
        <time>2013-03-10T14:20:19Z</time>
      </trkpt>
      <trkpt lat="48.52493" lon="-3.34153">
        <ele>182</ele>
        <time>2013-03-10T14:20:21Z</time>
      </trkpt>
      <trkpt lat="48.52495" lon="-3.34153">
        <ele>182</ele>
        <time>2013-03-10T14:20:23Z</time>
      </trkpt>
      <trkpt lat="48.52499" lon="-3.34154">
        <ele>182</ele>
        <time>2013-03-10T14:20:26Z</time>
      </trkpt>
      <trkpt lat="48.52502" lon="-3.34154">
        <ele>182</ele>
        <time>2013-03-10T14:20:29Z</time>
      </trkpt>
      <trkpt lat="48.52505" lon="-3.34155">
        <ele>181</ele>
        <time>2013-03-10T14:20:32Z</time>
      </trkpt>
      <trkpt lat="48.52507" lon="-3.34154">
        <ele>181</ele>
        <time>2013-03-10T14:20:34Z</time>
      </trkpt>
      <trkpt lat="48.5251" lon="-3.34154">
        <ele>180</ele>
        <time>2013-03-10T14:20:36Z</time>
      </trkpt>
      <trkpt lat="48.52512" lon="-3.34155">
        <ele>180</ele>
        <time>2013-03-10T14:20:39Z</time>
      </trkpt>
      <trkpt lat="48.52515" lon="-3.34156">
        <ele>180</ele>
        <time>2013-03-10T14:20:41Z</time>
      </trkpt>
      <trkpt lat="48.52518" lon="-3.34156">
        <ele>181</ele>
        <time>2013-03-10T14:20:43Z</time>
      </trkpt>
      <trkpt lat="48.52521" lon="-3.34157">
        <ele>181</ele>
        <time>2013-03-10T14:20:46Z</time>
      </trkpt>
      <trkpt lat="48.52523" lon="-3.34158">
        <ele>181</ele>
        <time>2013-03-10T14:20:48Z</time>
      </trkpt>
      <trkpt lat="48.52525" lon="-3.34159">
        <ele>181</ele>
        <time>2013-03-10T14:20:50Z</time>
      </trkpt>
      <trkpt lat="48.52528" lon="-3.3416">
        <ele>181</ele>
        <time>2013-03-10T14:20:53Z</time>
      </trkpt>
      <trkpt lat="48.52531" lon="-3.34161">
        <ele>180</ele>
        <time>2013-03-10T14:20:56Z</time>
      </trkpt>
      <trkpt lat="48.52534" lon="-3.34161">
        <ele>180</ele>
        <time>2013-03-10T14:20:58Z</time>
      </trkpt>
      <trkpt lat="48.52538" lon="-3.34162">
        <ele>180</ele>
        <time>2013-03-10T14:21:01Z</time>
      </trkpt>
      <trkpt lat="48.5254" lon="-3.34163">
        <ele>180</ele>
        <time>2013-03-10T14:21:04Z</time>
      </trkpt>
      <trkpt lat="48.52543" lon="-3.34163">
        <ele>180</ele>
        <time>2013-03-10T14:21:06Z</time>
      </trkpt>
      <trkpt lat="48.52546" lon="-3.34164">
        <ele>180</ele>
        <time>2013-03-10T14:21:08Z</time>
      </trkpt>
      <trkpt lat="48.52549" lon="-3.34165">
        <ele>180</ele>
        <time>2013-03-10T14:21:10Z</time>
      </trkpt>
      <trkpt lat="48.52552" lon="-3.34166">
        <ele>180</ele>
        <time>2013-03-10T14:21:13Z</time>
      </trkpt>
      <trkpt lat="48.52554" lon="-3.34167">
        <ele>180</ele>
        <time>2013-03-10T14:21:15Z</time>
      </trkpt>
      <trkpt lat="48.52557" lon="-3.34169">
        <ele>180</ele>
        <time>2013-03-10T14:21:18Z</time>
      </trkpt>
      <trkpt lat="48.5256" lon="-3.3417">
        <ele>179</ele>
        <time>2013-03-10T14:21:20Z</time>
      </trkpt>
      <trkpt lat="48.52563" lon="-3.34171">
        <ele>179</ele>
        <time>2013-03-10T14:21:23Z</time>
      </trkpt>
      <trkpt lat="48.52566" lon="-3.34172">
        <ele>179</ele>
        <time>2013-03-10T14:21:26Z</time>
      </trkpt>
      <trkpt lat="48.52568" lon="-3.34172">
        <ele>179</ele>
        <time>2013-03-10T14:21:28Z</time>
      </trkpt>
      <trkpt lat="48.52571" lon="-3.34173">
        <ele>179</ele>
        <time>2013-03-10T14:21:31Z</time>
      </trkpt>
      <trkpt lat="48.52573" lon="-3.34174">
        <ele>179</ele>
        <time>2013-03-10T14:21:33Z</time>
      </trkpt>
      <trkpt lat="48.52577" lon="-3.34175">
        <ele>179</ele>
        <time>2013-03-10T14:21:36Z</time>
      </trkpt>
      <trkpt lat="48.5258" lon="-3.34176">
        <ele>179</ele>
        <time>2013-03-10T14:21:38Z</time>
      </trkpt>
      <trkpt lat="48.52584" lon="-3.34176">
        <ele>179</ele>
        <time>2013-03-10T14:21:41Z</time>
      </trkpt>
      <trkpt lat="48.52588" lon="-3.34177">
        <ele>179</ele>
        <time>2013-03-10T14:21:44Z</time>
      </trkpt>
      <trkpt lat="48.52589" lon="-3.34178">
        <ele>179</ele>
        <time>2013-03-10T14:21:46Z</time>
      </trkpt>
      <trkpt lat="48.52593" lon="-3.34179">
        <ele>179</ele>
        <time>2013-03-10T14:21:49Z</time>
      </trkpt>
      <trkpt lat="48.52596" lon="-3.3418">
        <ele>178</ele>
        <time>2013-03-10T14:21:51Z</time>
      </trkpt>
      <trkpt lat="48.52599" lon="-3.34181">
        <ele>178</ele>
        <time>2013-03-10T14:21:55Z</time>
      </trkpt>
      <trkpt lat="48.52603" lon="-3.34181">
        <ele>178</ele>
        <time>2013-03-10T14:21:57Z</time>
      </trkpt>
      <trkpt lat="48.52606" lon="-3.34183">
        <ele>178</ele>
        <time>2013-03-10T14:22:00Z</time>
      </trkpt>
      <trkpt lat="48.52608" lon="-3.34183">
        <ele>178</ele>
        <time>2013-03-10T14:22:02Z</time>
      </trkpt>
      <trkpt lat="48.52611" lon="-3.34185">
        <ele>178</ele>
        <time>2013-03-10T14:22:06Z</time>
      </trkpt>
      <trkpt lat="48.52614" lon="-3.34186">
        <ele>178</ele>
        <time>2013-03-10T14:22:08Z</time>
      </trkpt>
      <trkpt lat="48.52617" lon="-3.34187">
        <ele>178</ele>
        <time>2013-03-10T14:22:11Z</time>
      </trkpt>
      <trkpt lat="48.52619" lon="-3.34188">
        <ele>178</ele>
        <time>2013-03-10T14:22:13Z</time>
      </trkpt>
      <trkpt lat="48.52622" lon="-3.34189">
        <ele>178</ele>
        <time>2013-03-10T14:22:16Z</time>
      </trkpt>
      <trkpt lat="48.52625" lon="-3.3419">
        <ele>178</ele>
        <time>2013-03-10T14:22:19Z</time>
      </trkpt>
      <trkpt lat="48.52628" lon="-3.3419">
        <ele>177</ele>
        <time>2013-03-10T14:22:22Z</time>
      </trkpt>
      <trkpt lat="48.52632" lon="-3.34191">
        <ele>177</ele>
        <time>2013-03-10T14:22:25Z</time>
      </trkpt>
      <trkpt lat="48.52636" lon="-3.34191">
        <ele>177</ele>
        <time>2013-03-10T14:22:28Z</time>
      </trkpt>
      <trkpt lat="48.5264" lon="-3.34192">
        <ele>177</ele>
        <time>2013-03-10T14:22:32Z</time>
      </trkpt>
      <trkpt lat="48.52643" lon="-3.34193">
        <ele>177</ele>
        <time>2013-03-10T14:22:34Z</time>
      </trkpt>
      <trkpt lat="48.52647" lon="-3.34195">
        <ele>177</ele>
        <time>2013-03-10T14:22:37Z</time>
      </trkpt>
      <trkpt lat="48.52649" lon="-3.34196">
        <ele>177</ele>
        <time>2013-03-10T14:22:39Z</time>
      </trkpt>
      <trkpt lat="48.52651" lon="-3.34197">
        <ele>177</ele>
        <time>2013-03-10T14:22:41Z</time>
      </trkpt>
      <trkpt lat="48.52654" lon="-3.34198">
        <ele>177</ele>
        <time>2013-03-10T14:22:43Z</time>
      </trkpt>
      <trkpt lat="48.52657" lon="-3.34198">
        <ele>177</ele>
        <time>2013-03-10T14:22:46Z</time>
      </trkpt>
      <trkpt lat="48.5266" lon="-3.34198">
        <ele>177</ele>
        <time>2013-03-10T14:22:48Z</time>
      </trkpt>
      <trkpt lat="48.52663" lon="-3.34199">
        <ele>177</ele>
        <time>2013-03-10T14:22:50Z</time>
      </trkpt>
      <trkpt lat="48.52666" lon="-3.34199">
        <ele>177</ele>
        <time>2013-03-10T14:22:53Z</time>
      </trkpt>
      <trkpt lat="48.52668" lon="-3.342">
        <ele>177</ele>
        <time>2013-03-10T14:22:55Z</time>
      </trkpt>
      <trkpt lat="48.5267" lon="-3.34201">
        <ele>177</ele>
        <time>2013-03-10T14:22:58Z</time>
      </trkpt>
      <trkpt lat="48.52673" lon="-3.34202">
        <ele>177</ele>
        <time>2013-03-10T14:23:00Z</time>
      </trkpt>
      <trkpt lat="48.52675" lon="-3.34202">
        <ele>177</ele>
        <time>2013-03-10T14:23:02Z</time>
      </trkpt>
      <trkpt lat="48.52676" lon="-3.34203">
        <ele>177</ele>
        <time>2013-03-10T14:23:04Z</time>
      </trkpt>
      <trkpt lat="48.52677" lon="-3.34206">
        <ele>177</ele>
        <time>2013-03-10T14:23:07Z</time>
      </trkpt>
      <trkpt lat="48.52677" lon="-3.34209">
        <ele>177</ele>
        <time>2013-03-10T14:23:09Z</time>
      </trkpt>
      <trkpt lat="48.52678" lon="-3.34212">
        <ele>177</ele>
        <time>2013-03-10T14:23:12Z</time>
      </trkpt>
      <trkpt lat="48.52678" lon="-3.34214">
        <ele>176</ele>
        <time>2013-03-10T14:23:14Z</time>
      </trkpt>
      <trkpt lat="48.52678" lon="-3.34216">
        <ele>176</ele>
        <time>2013-03-10T14:23:16Z</time>
      </trkpt>
      <trkpt lat="48.52679" lon="-3.34218">
        <ele>176</ele>
        <time>2013-03-10T14:23:18Z</time>
      </trkpt>
      <trkpt lat="48.52679" lon="-3.3422">
        <ele>176</ele>
        <time>2013-03-10T14:23:20Z</time>
      </trkpt>
      <trkpt lat="48.5268" lon="-3.34222">
        <ele>176</ele>
        <time>2013-03-10T14:23:22Z</time>
      </trkpt>
      <trkpt lat="48.5268" lon="-3.34226">
        <ele>176</ele>
        <time>2013-03-10T14:23:25Z</time>
      </trkpt>
      <trkpt lat="48.5268" lon="-3.34231">
        <ele>176</ele>
        <time>2013-03-10T14:23:28Z</time>
      </trkpt>
      <trkpt lat="48.5268" lon="-3.34233">
        <ele>176</ele>
        <time>2013-03-10T14:23:30Z</time>
      </trkpt>
      <trkpt lat="48.5268" lon="-3.34236">
        <ele>175</ele>
        <time>2013-03-10T14:23:32Z</time>
      </trkpt>
      <trkpt lat="48.52681" lon="-3.34239">
        <ele>175</ele>
        <time>2013-03-10T14:23:34Z</time>
      </trkpt>
      <trkpt lat="48.52681" lon="-3.34241">
        <ele>175</ele>
        <time>2013-03-10T14:23:37Z</time>
      </trkpt>
      <trkpt lat="48.52681" lon="-3.34245">
        <ele>175</ele>
        <time>2013-03-10T14:23:39Z</time>
      </trkpt>
      <trkpt lat="48.52681" lon="-3.34247">
        <ele>176</ele>
        <time>2013-03-10T14:23:41Z</time>
      </trkpt>
      <trkpt lat="48.52681" lon="-3.34251">
        <ele>176</ele>
        <time>2013-03-10T14:23:44Z</time>
      </trkpt>
      <trkpt lat="48.52681" lon="-3.34255">
        <ele>176</ele>
        <time>2013-03-10T14:23:47Z</time>
      </trkpt>
      <trkpt lat="48.5268" lon="-3.34258">
        <ele>176</ele>
        <time>2013-03-10T14:23:49Z</time>
      </trkpt>
      <trkpt lat="48.52679" lon="-3.34261">
        <ele>176</ele>
        <time>2013-03-10T14:23:52Z</time>
      </trkpt>
      <trkpt lat="48.52679" lon="-3.34266">
        <ele>176</ele>
        <time>2013-03-10T14:23:54Z</time>
      </trkpt>
      <trkpt lat="48.52679" lon="-3.34269">
        <ele>176</ele>
        <time>2013-03-10T14:23:57Z</time>
      </trkpt>
      <trkpt lat="48.52679" lon="-3.34271">
        <ele>176</ele>
        <time>2013-03-10T14:23:59Z</time>
      </trkpt>
      <trkpt lat="48.52679" lon="-3.34273">
        <ele>176</ele>
        <time>2013-03-10T14:24:01Z</time>
      </trkpt>
      <trkpt lat="48.52679" lon="-3.34276">
        <ele>176</ele>
        <time>2013-03-10T14:24:03Z</time>
      </trkpt>
      <trkpt lat="48.52679" lon="-3.34281">
        <ele>176</ele>
        <time>2013-03-10T14:24:06Z</time>
      </trkpt>
      <trkpt lat="48.52679" lon="-3.34286">
        <ele>176</ele>
        <time>2013-03-10T14:24:09Z</time>
      </trkpt>
      <trkpt lat="48.5268" lon="-3.3429">
        <ele>176</ele>
        <time>2013-03-10T14:24:11Z</time>
      </trkpt>
      <trkpt lat="48.52681" lon="-3.34293">
        <ele>176</ele>
        <time>2013-03-10T14:24:13Z</time>
      </trkpt>
      <trkpt lat="48.52681" lon="-3.34297">
        <ele>176</ele>
        <time>2013-03-10T14:24:15Z</time>
      </trkpt>
      <trkpt lat="48.52681" lon="-3.343">
        <ele>176</ele>
        <time>2013-03-10T14:24:17Z</time>
      </trkpt>
      <trkpt lat="48.52681" lon="-3.34305">
        <ele>176</ele>
        <time>2013-03-10T14:24:20Z</time>
      </trkpt>
      <trkpt lat="48.52681" lon="-3.34309">
        <ele>175</ele>
        <time>2013-03-10T14:24:23Z</time>
      </trkpt>
      <trkpt lat="48.52681" lon="-3.34314">
        <ele>175</ele>
        <time>2013-03-10T14:24:26Z</time>
      </trkpt>
      <trkpt lat="48.52682" lon="-3.34317">
        <ele>175</ele>
        <time>2013-03-10T14:24:28Z</time>
      </trkpt>
      <trkpt lat="48.52682" lon="-3.3432">
        <ele>175</ele>
        <time>2013-03-10T14:24:31Z</time>
      </trkpt>
      <trkpt lat="48.52684" lon="-3.34324">
        <ele>175</ele>
        <time>2013-03-10T14:24:33Z</time>
      </trkpt>
      <trkpt lat="48.52685" lon="-3.34329">
        <ele>175</ele>
        <time>2013-03-10T14:24:36Z</time>
      </trkpt>
      <trkpt lat="48.52687" lon="-3.34333">
        <ele>175</ele>
        <time>2013-03-10T14:24:39Z</time>
      </trkpt>
      <trkpt lat="48.52687" lon="-3.34336">
        <ele>175</ele>
        <time>2013-03-10T14:24:41Z</time>
      </trkpt>
      <trkpt lat="48.52688" lon="-3.34338">
        <ele>175</ele>
        <time>2013-03-10T14:24:44Z</time>
      </trkpt>
      <trkpt lat="48.52688" lon="-3.34343">
        <ele>175</ele>
        <time>2013-03-10T14:24:46Z</time>
      </trkpt>
      <trkpt lat="48.52689" lon="-3.34344">
        <ele>175</ele>
        <time>2013-03-10T14:24:48Z</time>
      </trkpt>
      <trkpt lat="48.5269" lon="-3.34347">
        <ele>174</ele>
        <time>2013-03-10T14:24:50Z</time>
      </trkpt>
      <trkpt lat="48.52691" lon="-3.3435">
        <ele>174</ele>
        <time>2013-03-10T14:24:53Z</time>
      </trkpt>
      <trkpt lat="48.52691" lon="-3.34351">
        <ele>174</ele>
        <time>2013-03-10T14:24:55Z</time>
      </trkpt>
      <trkpt lat="48.52692" lon="-3.34354">
        <ele>174</ele>
        <time>2013-03-10T14:24:58Z</time>
      </trkpt>
      <trkpt lat="48.52692" lon="-3.34357">
        <ele>174</ele>
        <time>2013-03-10T14:25:01Z</time>
      </trkpt>
      <trkpt lat="48.52694" lon="-3.3436">
        <ele>174</ele>
        <time>2013-03-10T14:25:04Z</time>
      </trkpt>
      <trkpt lat="48.52694" lon="-3.34361">
        <ele>174</ele>
        <time>2013-03-10T14:25:06Z</time>
      </trkpt>
      <trkpt lat="48.52695" lon="-3.34361">
        <ele>174</ele>
        <time>2013-03-10T14:25:09Z</time>
      </trkpt>
      <trkpt lat="48.52697" lon="-3.34361">
        <ele>174</ele>
        <time>2013-03-10T14:25:11Z</time>
      </trkpt>
      <trkpt lat="48.52699" lon="-3.34361">
        <ele>174</ele>
        <time>2013-03-10T14:25:13Z</time>
      </trkpt>
      <trkpt lat="48.527" lon="-3.34361">
        <ele>174</ele>
        <time>2013-03-10T14:25:15Z</time>
      </trkpt>
      <trkpt lat="48.52702" lon="-3.34362">
        <ele>174</ele>
        <time>2013-03-10T14:25:18Z</time>
      </trkpt>
      <trkpt lat="48.52703" lon="-3.34363">
        <ele>174</ele>
        <time>2013-03-10T14:25:20Z</time>
      </trkpt>
      <trkpt lat="48.52704" lon="-3.34364">
        <ele>174</ele>
        <time>2013-03-10T14:25:22Z</time>
      </trkpt>
      <trkpt lat="48.52705" lon="-3.34365">
        <ele>175</ele>
        <time>2013-03-10T14:25:25Z</time>
      </trkpt>
      <trkpt lat="48.52707" lon="-3.34364">
        <ele>174</ele>
        <time>2013-03-10T14:25:27Z</time>
      </trkpt>
      <trkpt lat="48.52708" lon="-3.34365">
        <ele>174</ele>
        <time>2013-03-10T14:25:29Z</time>
      </trkpt>
      <trkpt lat="48.52709" lon="-3.34366">
        <ele>174</ele>
        <time>2013-03-10T14:25:32Z</time>
      </trkpt>
      <trkpt lat="48.5271" lon="-3.34366">
        <ele>174</ele>
        <time>2013-03-10T14:25:34Z</time>
      </trkpt>
      <trkpt lat="48.52711" lon="-3.34366">
        <ele>174</ele>
        <time>2013-03-10T14:25:37Z</time>
      </trkpt>
      <trkpt lat="48.52712" lon="-3.34366">
        <ele>174</ele>
        <time>2013-03-10T14:25:39Z</time>
      </trkpt>
      <trkpt lat="48.52712" lon="-3.34366">
        <ele>174</ele>
        <time>2013-03-10T14:25:42Z</time>
      </trkpt>
      <trkpt lat="48.52712" lon="-3.34365">
        <ele>174</ele>
        <time>2013-03-10T14:25:44Z</time>
      </trkpt>
      <trkpt lat="48.52713" lon="-3.34365">
        <ele>174</ele>
        <time>2013-03-10T14:25:46Z</time>
      </trkpt>
      <trkpt lat="48.52712" lon="-3.34364">
        <ele>174</ele>
        <time>2013-03-10T14:25:48Z</time>
      </trkpt>
      <trkpt lat="48.52711" lon="-3.34364">
        <ele>174</ele>
        <time>2013-03-10T14:25:52Z</time>
      </trkpt>
      <trkpt lat="48.52711" lon="-3.34363">
        <ele>174</ele>
        <time>2013-03-10T14:25:54Z</time>
      </trkpt>
      <trkpt lat="48.52711" lon="-3.34362">
        <ele>174</ele>
        <time>2013-03-10T14:25:56Z</time>
      </trkpt>
      <trkpt lat="48.52711" lon="-3.34363">
        <ele>174</ele>
        <time>2013-03-10T14:25:58Z</time>
      </trkpt>
      <trkpt lat="48.52711" lon="-3.34363">
        <ele>174</ele>
        <time>2013-03-10T14:26:01Z</time>
      </trkpt>
      <trkpt lat="48.52711" lon="-3.34363">
        <ele>174</ele>
        <time>2013-03-10T14:26:05Z</time>
      </trkpt>
      <trkpt lat="48.52712" lon="-3.34362">
        <ele>174</ele>
        <time>2013-03-10T14:26:07Z</time>
      </trkpt>
      <trkpt lat="48.52711" lon="-3.34361">
        <ele>174</ele>
        <time>2013-03-10T14:26:11Z</time>
      </trkpt>
      <trkpt lat="48.52709" lon="-3.34362">
        <ele>174</ele>
        <time>2013-03-10T14:26:14Z</time>
      </trkpt>
      <trkpt lat="48.5271" lon="-3.34362">
        <ele>174</ele>
        <time>2013-03-10T14:26:17Z</time>
      </trkpt>
      <trkpt lat="48.5271" lon="-3.34361">
        <ele>174</ele>
        <time>2013-03-10T14:26:20Z</time>
      </trkpt>
      <trkpt lat="48.5271" lon="-3.34361">
        <ele>174</ele>
        <time>2013-03-10T14:26:22Z</time>
      </trkpt>
      <trkpt lat="48.52709" lon="-3.34362">
        <ele>174</ele>
        <time>2013-03-10T14:26:25Z</time>
      </trkpt>
      <trkpt lat="48.52708" lon="-3.34363">
        <ele>174</ele>
        <time>2013-03-10T14:26:28Z</time>
      </trkpt>
      <trkpt lat="48.52706" lon="-3.34362">
        <ele>174</ele>
        <time>2013-03-10T14:26:31Z</time>
      </trkpt>
      <trkpt lat="48.52705" lon="-3.34361">
        <ele>174</ele>
        <time>2013-03-10T14:26:33Z</time>
      </trkpt>
      <trkpt lat="48.52704" lon="-3.3436">
        <ele>174</ele>
        <time>2013-03-10T14:26:36Z</time>
      </trkpt>
      <trkpt lat="48.52703" lon="-3.34359">
        <ele>174</ele>
        <time>2013-03-10T14:26:38Z</time>
      </trkpt>
      <trkpt lat="48.52703" lon="-3.34358">
        <ele>175</ele>
        <time>2013-03-10T14:26:40Z</time>
      </trkpt>
      <trkpt lat="48.52702" lon="-3.34358">
        <ele>175</ele>
        <time>2013-03-10T14:26:43Z</time>
      </trkpt>
      <trkpt lat="48.52701" lon="-3.34358">
        <ele>175</ele>
        <time>2013-03-10T14:26:46Z</time>
      </trkpt>
      <trkpt lat="48.52702" lon="-3.34358">
        <ele>175</ele>
        <time>2013-03-10T14:26:48Z</time>
      </trkpt>
      <trkpt lat="48.52703" lon="-3.34358">
        <ele>174</ele>
        <time>2013-03-10T14:26:51Z</time>
      </trkpt>
      <trkpt lat="48.52703" lon="-3.34357">
        <ele>174</ele>
        <time>2013-03-10T14:26:53Z</time>
      </trkpt>
      <trkpt lat="48.52703" lon="-3.34357">
        <ele>174</ele>
        <time>2013-03-10T14:26:55Z</time>
      </trkpt>
      <trkpt lat="48.52702" lon="-3.34356">
        <ele>174</ele>
        <time>2013-03-10T14:26:57Z</time>
      </trkpt>
      <trkpt lat="48.52701" lon="-3.34354">
        <ele>174</ele>
        <time>2013-03-10T14:27:00Z</time>
      </trkpt>
      <trkpt lat="48.52701" lon="-3.3435">
        <ele>175</ele>
        <time>2013-03-10T14:27:02Z</time>
      </trkpt>
      <trkpt lat="48.52701" lon="-3.34351">
        <ele>175</ele>
        <time>2013-03-10T14:27:05Z</time>
      </trkpt>
      <trkpt lat="48.52701" lon="-3.34353">
        <ele>175</ele>
        <time>2013-03-10T14:27:08Z</time>
      </trkpt>
      <trkpt lat="48.52701" lon="-3.34354">
        <ele>174</ele>
        <time>2013-03-10T14:27:10Z</time>
      </trkpt>
      <trkpt lat="48.52702" lon="-3.34356">
        <ele>174</ele>
        <time>2013-03-10T14:27:13Z</time>
      </trkpt>
      <trkpt lat="48.52702" lon="-3.34358">
        <ele>174</ele>
        <time>2013-03-10T14:27:15Z</time>
      </trkpt>
      <trkpt lat="48.52702" lon="-3.34361">
        <ele>174</ele>
        <time>2013-03-10T14:27:18Z</time>
      </trkpt>
      <trkpt lat="48.52702" lon="-3.34364">
        <ele>174</ele>
        <time>2013-03-10T14:27:21Z</time>
      </trkpt>
      <trkpt lat="48.52702" lon="-3.34366">
        <ele>174</ele>
        <time>2013-03-10T14:27:23Z</time>
      </trkpt>
      <trkpt lat="48.52701" lon="-3.34369">
        <ele>174</ele>
        <time>2013-03-10T14:27:26Z</time>
      </trkpt>
      <trkpt lat="48.52701" lon="-3.34371">
        <ele>174</ele>
        <time>2013-03-10T14:27:29Z</time>
      </trkpt>
      <trkpt lat="48.52701" lon="-3.34373">
        <ele>174</ele>
        <time>2013-03-10T14:27:32Z</time>
      </trkpt>
      <trkpt lat="48.52701" lon="-3.34375">
        <ele>174</ele>
        <time>2013-03-10T14:27:34Z</time>
      </trkpt>
      <trkpt lat="48.52702" lon="-3.34377">
        <ele>174</ele>
        <time>2013-03-10T14:27:37Z</time>
      </trkpt>
      <trkpt lat="48.52702" lon="-3.3438">
        <ele>174</ele>
        <time>2013-03-10T14:27:40Z</time>
      </trkpt>
      <trkpt lat="48.52703" lon="-3.34382">
        <ele>174</ele>
        <time>2013-03-10T14:27:42Z</time>
      </trkpt>
      <trkpt lat="48.52704" lon="-3.34382">
        <ele>174</ele>
        <time>2013-03-10T14:27:45Z</time>
      </trkpt>
      <trkpt lat="48.52705" lon="-3.34384">
        <ele>174</ele>
        <time>2013-03-10T14:27:48Z</time>
      </trkpt>
      <trkpt lat="48.52706" lon="-3.34386">
        <ele>174</ele>
        <time>2013-03-10T14:27:51Z</time>
      </trkpt>
      <trkpt lat="48.52708" lon="-3.34388">
        <ele>174</ele>
        <time>2013-03-10T14:27:54Z</time>
      </trkpt>
      <trkpt lat="48.52708" lon="-3.34388">
        <ele>174</ele>
        <time>2013-03-10T14:27:57Z</time>
      </trkpt>
      <trkpt lat="48.52708" lon="-3.34387">
        <ele>174</ele>
        <time>2013-03-10T14:27:59Z</time>
      </trkpt>
      <trkpt lat="48.52707" lon="-3.34385">
        <ele>174</ele>
        <time>2013-03-10T14:28:01Z</time>
      </trkpt>
      <trkpt lat="48.52708" lon="-3.34383">
        <ele>174</ele>
        <time>2013-03-10T14:28:04Z</time>
      </trkpt>
      <trkpt lat="48.52708" lon="-3.34381">
        <ele>174</ele>
        <time>2013-03-10T14:28:06Z</time>
      </trkpt>
      <trkpt lat="48.5271" lon="-3.3438">
        <ele>174</ele>
        <time>2013-03-10T14:28:08Z</time>
      </trkpt>
      <trkpt lat="48.52712" lon="-3.34379">
        <ele>174</ele>
        <time>2013-03-10T14:28:11Z</time>
      </trkpt>
      <trkpt lat="48.52712" lon="-3.34377">
        <ele>174</ele>
        <time>2013-03-10T14:28:13Z</time>
      </trkpt>
      <trkpt lat="48.52713" lon="-3.34375">
        <ele>174</ele>
        <time>2013-03-10T14:28:16Z</time>
      </trkpt>
      <trkpt lat="48.52714" lon="-3.34373">
        <ele>174</ele>
        <time>2013-03-10T14:28:19Z</time>
      </trkpt>
      <trkpt lat="48.52715" lon="-3.34371">
        <ele>174</ele>
        <time>2013-03-10T14:28:22Z</time>
      </trkpt>
      <trkpt lat="48.52715" lon="-3.3437">
        <ele>174</ele>
        <time>2013-03-10T14:28:24Z</time>
      </trkpt>
      <trkpt lat="48.52715" lon="-3.34369">
        <ele>174</ele>
        <time>2013-03-10T14:28:27Z</time>
      </trkpt>
      <trkpt lat="48.52715" lon="-3.34367">
        <ele>174</ele>
        <time>2013-03-10T14:28:29Z</time>
      </trkpt>
      <trkpt lat="48.52715" lon="-3.34366">
        <ele>174</ele>
        <time>2013-03-10T14:28:32Z</time>
      </trkpt>
      <trkpt lat="48.52715" lon="-3.34365">
        <ele>174</ele>
        <time>2013-03-10T14:28:35Z</time>
      </trkpt>
      <trkpt lat="48.52715" lon="-3.34364">
        <ele>174</ele>
        <time>2013-03-10T14:28:37Z</time>
      </trkpt>
      <trkpt lat="48.52714" lon="-3.34363">
        <ele>174</ele>
        <time>2013-03-10T14:28:41Z</time>
      </trkpt>
      <trkpt lat="48.52714" lon="-3.34361">
        <ele>174</ele>
        <time>2013-03-10T14:28:43Z</time>
      </trkpt>
      <trkpt lat="48.52713" lon="-3.34359">
        <ele>174</ele>
        <time>2013-03-10T14:28:46Z</time>
      </trkpt>
      <trkpt lat="48.52713" lon="-3.34359">
        <ele>174</ele>
        <time>2013-03-10T14:28:48Z</time>
      </trkpt>
      <trkpt lat="48.52713" lon="-3.34358">
        <ele>174</ele>
        <time>2013-03-10T14:28:50Z</time>
      </trkpt>
      <trkpt lat="48.52713" lon="-3.34358">
        <ele>174</ele>
        <time>2013-03-10T14:28:53Z</time>
      </trkpt>
      <trkpt lat="48.52712" lon="-3.34358">
        <ele>174</ele>
        <time>2013-03-10T14:28:55Z</time>
      </trkpt>
      <trkpt lat="48.52712" lon="-3.34358">
        <ele>174</ele>
        <time>2013-03-10T14:28:58Z</time>
      </trkpt>
      <trkpt lat="48.52712" lon="-3.34359">
        <ele>174</ele>
        <time>2013-03-10T14:29:00Z</time>
      </trkpt>
      <trkpt lat="48.52713" lon="-3.3436">
        <ele>174</ele>
        <time>2013-03-10T14:29:03Z</time>
      </trkpt>
      <trkpt lat="48.52713" lon="-3.34362">
        <ele>174</ele>
        <time>2013-03-10T14:29:06Z</time>
      </trkpt>
      <trkpt lat="48.52713" lon="-3.34364">
        <ele>174</ele>
        <time>2013-03-10T14:29:08Z</time>
      </trkpt>
      <trkpt lat="48.52713" lon="-3.34365">
        <ele>174</ele>
        <time>2013-03-10T14:29:11Z</time>
      </trkpt>
      <trkpt lat="48.52711" lon="-3.34365">
        <ele>174</ele>
        <time>2013-03-10T14:29:15Z</time>
      </trkpt>
      <trkpt lat="48.52711" lon="-3.34365">
        <ele>174</ele>
        <time>2013-03-10T14:29:18Z</time>
      </trkpt>
      <trkpt lat="48.52711" lon="-3.34365">
        <ele>174</ele>
        <time>2013-03-10T14:29:20Z</time>
      </trkpt>
      <trkpt lat="48.52713" lon="-3.34365">
        <ele>174</ele>
        <time>2013-03-10T14:29:22Z</time>
      </trkpt>
      <trkpt lat="48.52714" lon="-3.34365">
        <ele>174</ele>
        <time>2013-03-10T14:29:25Z</time>
      </trkpt>
      <trkpt lat="48.52715" lon="-3.34363">
        <ele>175</ele>
        <time>2013-03-10T14:29:27Z</time>
      </trkpt>
      <trkpt lat="48.52715" lon="-3.34364">
        <ele>175</ele>
        <time>2013-03-10T14:29:30Z</time>
      </trkpt>
      <trkpt lat="48.52715" lon="-3.34363">
        <ele>175</ele>
        <time>2013-03-10T14:29:33Z</time>
      </trkpt>
      <trkpt lat="48.52715" lon="-3.34363">
        <ele>175</ele>
        <time>2013-03-10T14:29:35Z</time>
      </trkpt>
      <trkpt lat="48.52715" lon="-3.34362">
        <ele>174</ele>
        <time>2013-03-10T14:29:38Z</time>
      </trkpt>
      <trkpt lat="48.52714" lon="-3.34362">
        <ele>174</ele>
        <time>2013-03-10T14:29:41Z</time>
      </trkpt>
      <trkpt lat="48.52714" lon="-3.34362">
        <ele>174</ele>
        <time>2013-03-10T14:29:43Z</time>
      </trkpt>
      <trkpt lat="48.52714" lon="-3.34359">
        <ele>174</ele>
        <time>2013-03-10T14:29:45Z</time>
      </trkpt>
      <trkpt lat="48.52715" lon="-3.34358">
        <ele>174</ele>
        <time>2013-03-10T14:29:47Z</time>
      </trkpt>
      <trkpt lat="48.52715" lon="-3.34356">
        <ele>174</ele>
        <time>2013-03-10T14:29:49Z</time>
      </trkpt>
      <trkpt lat="48.52714" lon="-3.34355">
        <ele>174</ele>
        <time>2013-03-10T14:29:51Z</time>
      </trkpt>
      <trkpt lat="48.52714" lon="-3.34355">
        <ele>174</ele>
        <time>2013-03-10T14:29:53Z</time>
      </trkpt>
      <trkpt lat="48.52714" lon="-3.34354">
        <ele>174</ele>
        <time>2013-03-10T14:29:56Z</time>
      </trkpt>
      <trkpt lat="48.52714" lon="-3.34353">
        <ele>174</ele>
        <time>2013-03-10T14:29:58Z</time>
      </trkpt>
      <trkpt lat="48.52714" lon="-3.34352">
        <ele>174</ele>
        <time>2013-03-10T14:30:01Z</time>
      </trkpt>
      <trkpt lat="48.52714" lon="-3.34351">
        <ele>174</ele>
        <time>2013-03-10T14:30:03Z</time>
      </trkpt>
      <trkpt lat="48.52714" lon="-3.34352">
        <ele>174</ele>
        <time>2013-03-10T14:30:06Z</time>
      </trkpt>
      <trkpt lat="48.52714" lon="-3.34352">
        <ele>174</ele>
        <time>2013-03-10T14:30:09Z</time>
      </trkpt>
      <trkpt lat="48.52714" lon="-3.34353">
        <ele>174</ele>
        <time>2013-03-10T14:30:11Z</time>
      </trkpt>
      <trkpt lat="48.52714" lon="-3.34353">
        <ele>175</ele>
        <time>2013-03-10T14:30:14Z</time>
      </trkpt>
      <trkpt lat="48.52713" lon="-3.34353">
        <ele>175</ele>
        <time>2013-03-10T14:30:16Z</time>
      </trkpt>
      <trkpt lat="48.52713" lon="-3.34353">
        <ele>175</ele>
        <time>2013-03-10T14:30:18Z</time>
      </trkpt>
      <trkpt lat="48.52713" lon="-3.34352">
        <ele>175</ele>
        <time>2013-03-10T14:30:22Z</time>
      </trkpt>
      <trkpt lat="48.52713" lon="-3.34352">
        <ele>175</ele>
        <time>2013-03-10T14:30:24Z</time>
      </trkpt>
      <trkpt lat="48.52712" lon="-3.34352">
        <ele>175</ele>
        <time>2013-03-10T14:30:26Z</time>
      </trkpt>
      <trkpt lat="48.52713" lon="-3.34352">
        <ele>175</ele>
        <time>2013-03-10T14:30:29Z</time>
      </trkpt>
      <trkpt lat="48.52713" lon="-3.34353">
        <ele>174</ele>
        <time>2013-03-10T14:30:31Z</time>
      </trkpt>
      <trkpt lat="48.52713" lon="-3.34354">
        <ele>175</ele>
        <time>2013-03-10T14:30:34Z</time>
      </trkpt>
      <trkpt lat="48.52714" lon="-3.34356">
        <ele>175</ele>
        <time>2013-03-10T14:30:37Z</time>
      </trkpt>
      <trkpt lat="48.52715" lon="-3.34357">
        <ele>175</ele>
        <time>2013-03-10T14:30:39Z</time>
      </trkpt>
      <trkpt lat="48.52715" lon="-3.34358">
        <ele>175</ele>
        <time>2013-03-10T14:30:42Z</time>
      </trkpt>
      <trkpt lat="48.52715" lon="-3.3436">
        <ele>175</ele>
        <time>2013-03-10T14:30:44Z</time>
      </trkpt>
      <trkpt lat="48.52715" lon="-3.34361">
        <ele>175</ele>
        <time>2013-03-10T14:30:47Z</time>
      </trkpt>
      <trkpt lat="48.52715" lon="-3.34362">
        <ele>174</ele>
        <time>2013-03-10T14:30:50Z</time>
      </trkpt>
      <trkpt lat="48.52714" lon="-3.34363">
        <ele>174</ele>
        <time>2013-03-10T14:30:52Z</time>
      </trkpt>
      <trkpt lat="48.52714" lon="-3.34364">
        <ele>174</ele>
        <time>2013-03-10T14:30:55Z</time>
      </trkpt>
      <trkpt lat="48.52713" lon="-3.34364">
        <ele>174</ele>
        <time>2013-03-10T14:30:58Z</time>
      </trkpt>
      <trkpt lat="48.52713" lon="-3.34365">
        <ele>174</ele>
        <time>2013-03-10T14:31:01Z</time>
      </trkpt>
      <trkpt lat="48.52713" lon="-3.34365">
        <ele>174</ele>
        <time>2013-03-10T14:31:04Z</time>
      </trkpt>
      <trkpt lat="48.52712" lon="-3.34365">
        <ele>174</ele>
        <time>2013-03-10T14:31:06Z</time>
      </trkpt>
      <trkpt lat="48.52712" lon="-3.34365">
        <ele>174</ele>
        <time>2013-03-10T14:31:09Z</time>
      </trkpt>
      <trkpt lat="48.52711" lon="-3.34365">
        <ele>174</ele>
        <time>2013-03-10T14:31:12Z</time>
      </trkpt>
      <trkpt lat="48.52711" lon="-3.34365">
        <ele>174</ele>
        <time>2013-03-10T14:31:14Z</time>
      </trkpt>
      <trkpt lat="48.52711" lon="-3.34365">
        <ele>174</ele>
        <time>2013-03-10T14:31:17Z</time>
      </trkpt>
      <trkpt lat="48.52711" lon="-3.34364">
        <ele>174</ele>
        <time>2013-03-10T14:31:19Z</time>
      </trkpt>
      <trkpt lat="48.52711" lon="-3.34364">
        <ele>174</ele>
        <time>2013-03-10T14:31:21Z</time>
      </trkpt>
      <trkpt lat="48.5271" lon="-3.34364">
        <ele>174</ele>
        <time>2013-03-10T14:31:23Z</time>
      </trkpt>
      <trkpt lat="48.5271" lon="-3.34364">
        <ele>174</ele>
        <time>2013-03-10T14:31:26Z</time>
      </trkpt>
      <trkpt lat="48.52711" lon="-3.34364">
        <ele>174</ele>
        <time>2013-03-10T14:31:29Z</time>
      </trkpt>
      <trkpt lat="48.5271" lon="-3.34363">
        <ele>174</ele>
        <time>2013-03-10T14:31:32Z</time>
      </trkpt>
      <trkpt lat="48.52711" lon="-3.34364">
        <ele>174</ele>
        <time>2013-03-10T14:31:34Z</time>
      </trkpt>
      <trkpt lat="48.52711" lon="-3.34364">
        <ele>174</ele>
        <time>2013-03-10T14:31:38Z</time>
      </trkpt>
      <trkpt lat="48.52711" lon="-3.34364">
        <ele>175</ele>
        <time>2013-03-10T14:31:41Z</time>
      </trkpt>
      <trkpt lat="48.52711" lon="-3.34365">
        <ele>174</ele>
        <time>2013-03-10T14:31:44Z</time>
      </trkpt>
      <trkpt lat="48.5271" lon="-3.34365">
        <ele>174</ele>
        <time>2013-03-10T14:31:47Z</time>
      </trkpt>
      <trkpt lat="48.5271" lon="-3.34365">
        <ele>174</ele>
        <time>2013-03-10T14:31:49Z</time>
      </trkpt>
      <trkpt lat="48.5271" lon="-3.34364">
        <ele>174</ele>
        <time>2013-03-10T14:31:51Z</time>
      </trkpt>
      <trkpt lat="48.5271" lon="-3.34364">
        <ele>174</ele>
        <time>2013-03-10T14:31:54Z</time>
      </trkpt>
      <trkpt lat="48.52711" lon="-3.34365">
        <ele>174</ele>
        <time>2013-03-10T14:31:57Z</time>
      </trkpt>
      <trkpt lat="48.52711" lon="-3.34366">
        <ele>174</ele>
        <time>2013-03-10T14:31:59Z</time>
      </trkpt>
      <trkpt lat="48.52711" lon="-3.34366">
        <ele>174</ele>
        <time>2013-03-10T14:32:04Z</time>
      </trkpt>
      <trkpt lat="48.5271" lon="-3.34366">
        <ele>174</ele>
        <time>2013-03-10T14:32:06Z</time>
      </trkpt>
      <trkpt lat="48.5271" lon="-3.34366">
        <ele>174</ele>
        <time>2013-03-10T14:32:08Z</time>
      </trkpt>
      <trkpt lat="48.5271" lon="-3.34367">
        <ele>174</ele>
        <time>2013-03-10T14:32:11Z</time>
      </trkpt>
      <trkpt lat="48.52709" lon="-3.34367">
        <ele>174</ele>
        <time>2013-03-10T14:32:14Z</time>
      </trkpt>
      <trkpt lat="48.52709" lon="-3.34368">
        <ele>174</ele>
        <time>2013-03-10T14:32:16Z</time>
      </trkpt>
      <trkpt lat="48.52709" lon="-3.34368">
        <ele>174</ele>
        <time>2013-03-10T14:32:19Z</time>
      </trkpt>
      <trkpt lat="48.52708" lon="-3.34368">
        <ele>175</ele>
        <time>2013-03-10T14:32:21Z</time>
      </trkpt>
      <trkpt lat="48.52708" lon="-3.34368">
        <ele>174</ele>
        <time>2013-03-10T14:32:23Z</time>
      </trkpt>
      <trkpt lat="48.52708" lon="-3.34368">
        <ele>174</ele>
        <time>2013-03-10T14:32:26Z</time>
      </trkpt>
      <trkpt lat="48.52706" lon="-3.34369">
        <ele>174</ele>
        <time>2013-03-10T14:32:28Z</time>
      </trkpt>
      <trkpt lat="48.52706" lon="-3.34369">
        <ele>174</ele>
        <time>2013-03-10T14:32:31Z</time>
      </trkpt>
      <trkpt lat="48.52705" lon="-3.3437">
        <ele>174</ele>
        <time>2013-03-10T14:32:33Z</time>
      </trkpt>
      <trkpt lat="48.52705" lon="-3.3437">
        <ele>174</ele>
        <time>2013-03-10T14:32:35Z</time>
      </trkpt>
      <trkpt lat="48.52704" lon="-3.3437">
        <ele>174</ele>
        <time>2013-03-10T14:32:37Z</time>
      </trkpt>
      <trkpt lat="48.52704" lon="-3.3437">
        <ele>174</ele>
        <time>2013-03-10T14:32:40Z</time>
      </trkpt>
      <trkpt lat="48.52703" lon="-3.34371">
        <ele>174</ele>
        <time>2013-03-10T14:32:43Z</time>
      </trkpt>
      <trkpt lat="48.52703" lon="-3.34371">
        <ele>174</ele>
        <time>2013-03-10T14:32:45Z</time>
      </trkpt>
      <trkpt lat="48.52703" lon="-3.34372">
        <ele>174</ele>
        <time>2013-03-10T14:32:47Z</time>
      </trkpt>
      <trkpt lat="48.52704" lon="-3.34372">
        <ele>174</ele>
        <time>2013-03-10T14:32:49Z</time>
      </trkpt>
      <trkpt lat="48.52704" lon="-3.34372">
        <ele>174</ele>
        <time>2013-03-10T14:32:53Z</time>
      </trkpt>
      <trkpt lat="48.52704" lon="-3.34372">
        <ele>174</ele>
        <time>2013-03-10T14:32:55Z</time>
      </trkpt>
      <trkpt lat="48.52705" lon="-3.34372">
        <ele>174</ele>
        <time>2013-03-10T14:32:57Z</time>
      </trkpt>
      <trkpt lat="48.52705" lon="-3.34372">
        <ele>174</ele>
        <time>2013-03-10T14:33:00Z</time>
      </trkpt>
      <trkpt lat="48.52705" lon="-3.34372">
        <ele>174</ele>
        <time>2013-03-10T14:33:05Z</time>
      </trkpt>
      <trkpt lat="48.52705" lon="-3.34372">
        <ele>174</ele>
        <time>2013-03-10T14:33:10Z</time>
      </trkpt>
      <trkpt lat="48.52705" lon="-3.34372">
        <ele>174</ele>
        <time>2013-03-10T14:33:13Z</time>
      </trkpt>
      <trkpt lat="48.52706" lon="-3.34372">
        <ele>174</ele>
        <time>2013-03-10T14:33:16Z</time>
      </trkpt>
      <trkpt lat="48.52706" lon="-3.34372">
        <ele>174</ele>
        <time>2013-03-10T14:33:18Z</time>
      </trkpt>
      <trkpt lat="48.52707" lon="-3.34373">
        <ele>174</ele>
        <time>2013-03-10T14:33:21Z</time>
      </trkpt>
      <trkpt lat="48.52707" lon="-3.34373">
        <ele>174</ele>
        <time>2013-03-10T14:33:23Z</time>
      </trkpt>
      <trkpt lat="48.52708" lon="-3.34372">
        <ele>174</ele>
        <time>2013-03-10T14:33:25Z</time>
      </trkpt>
      <trkpt lat="48.52708" lon="-3.34372">
        <ele>174</ele>
        <time>2013-03-10T14:33:27Z</time>
      </trkpt>
      <trkpt lat="48.52709" lon="-3.34371">
        <ele>174</ele>
        <time>2013-03-10T14:33:30Z</time>
      </trkpt>
      <trkpt lat="48.52708" lon="-3.34371">
        <ele>174</ele>
        <time>2013-03-10T14:33:33Z</time>
      </trkpt>
      <trkpt lat="48.52708" lon="-3.34371">
        <ele>174</ele>
        <time>2013-03-10T14:33:35Z</time>
      </trkpt>
      <trkpt lat="48.52709" lon="-3.34371">
        <ele>174</ele>
        <time>2013-03-10T14:33:38Z</time>
      </trkpt>
      <trkpt lat="48.52709" lon="-3.34371">
        <ele>174</ele>
        <time>2013-03-10T14:33:40Z</time>
      </trkpt>
      <trkpt lat="48.52709" lon="-3.34371">
        <ele>174</ele>
        <time>2013-03-10T14:33:42Z</time>
      </trkpt>
      <trkpt lat="48.52708" lon="-3.34371">
        <ele>174</ele>
        <time>2013-03-10T14:33:44Z</time>
      </trkpt>
      <trkpt lat="48.52708" lon="-3.34371">
        <ele>174</ele>
        <time>2013-03-10T14:33:48Z</time>
      </trkpt>
      <trkpt lat="48.52709" lon="-3.34371">
        <ele>174</ele>
        <time>2013-03-10T14:33:51Z</time>
      </trkpt>
      <trkpt lat="48.5271" lon="-3.3437">
        <ele>174</ele>
        <time>2013-03-10T14:33:54Z</time>
      </trkpt>
      <trkpt lat="48.5271" lon="-3.3437">
        <ele>174</ele>
        <time>2013-03-10T14:33:56Z</time>
      </trkpt>
      <trkpt lat="48.5271" lon="-3.3437">
        <ele>174</ele>
        <time>2013-03-10T14:33:59Z</time>
      </trkpt>
      <trkpt lat="48.52711" lon="-3.3437">
        <ele>174</ele>
        <time>2013-03-10T14:34:02Z</time>
      </trkpt>
      <trkpt lat="48.52711" lon="-3.3437">
        <ele>174</ele>
        <time>2013-03-10T14:34:05Z</time>
      </trkpt>
      <trkpt lat="48.52712" lon="-3.3437">
        <ele>174</ele>
        <time>2013-03-10T14:34:07Z</time>
      </trkpt>
      <trkpt lat="48.52712" lon="-3.3437">
        <ele>174</ele>
        <time>2013-03-10T14:34:10Z</time>
      </trkpt>
      <trkpt lat="48.52712" lon="-3.34369">
        <ele>174</ele>
        <time>2013-03-10T14:34:12Z</time>
      </trkpt>
      <trkpt lat="48.52712" lon="-3.34368">
        <ele>174</ele>
        <time>2013-03-10T14:34:15Z</time>
      </trkpt>
      <trkpt lat="48.52712" lon="-3.34367">
        <ele>174</ele>
        <time>2013-03-10T14:34:17Z</time>
      </trkpt>
      <trkpt lat="48.52712" lon="-3.34366">
        <ele>174</ele>
        <time>2013-03-10T14:34:20Z</time>
      </trkpt>
      <trkpt lat="48.52711" lon="-3.34365">
        <ele>174</ele>
        <time>2013-03-10T14:34:23Z</time>
      </trkpt>
      <trkpt lat="48.52711" lon="-3.34364">
        <ele>174</ele>
        <time>2013-03-10T14:34:26Z</time>
      </trkpt>
      <trkpt lat="48.52711" lon="-3.34364">
        <ele>174</ele>
        <time>2013-03-10T14:34:28Z</time>
      </trkpt>
      <trkpt lat="48.52711" lon="-3.34363">
        <ele>173</ele>
        <time>2013-03-10T14:34:31Z</time>
      </trkpt>
      <trkpt lat="48.5271" lon="-3.34362">
        <ele>174</ele>
        <time>2013-03-10T14:34:33Z</time>
      </trkpt>
      <trkpt lat="48.52708" lon="-3.34362">
        <ele>174</ele>
        <time>2013-03-10T14:34:35Z</time>
      </trkpt>
      <trkpt lat="48.52707" lon="-3.34362">
        <ele>174</ele>
        <time>2013-03-10T14:34:37Z</time>
      </trkpt>
      <trkpt lat="48.52705" lon="-3.34363">
        <ele>174</ele>
        <time>2013-03-10T14:34:40Z</time>
      </trkpt>
      <trkpt lat="48.52705" lon="-3.34361">
        <ele>174</ele>
        <time>2013-03-10T14:34:43Z</time>
      </trkpt>
      <trkpt lat="48.52703" lon="-3.34359">
        <ele>174</ele>
        <time>2013-03-10T14:34:46Z</time>
      </trkpt>
      <trkpt lat="48.52702" lon="-3.34355">
        <ele>174</ele>
        <time>2013-03-10T14:34:49Z</time>
      </trkpt>
      <trkpt lat="48.52701" lon="-3.34353">
        <ele>174</ele>
        <time>2013-03-10T14:34:51Z</time>
      </trkpt>
      <trkpt lat="48.527" lon="-3.34351">
        <ele>174</ele>
        <time>2013-03-10T14:34:54Z</time>
      </trkpt>
      <trkpt lat="48.527" lon="-3.34348">
        <ele>175</ele>
        <time>2013-03-10T14:34:56Z</time>
      </trkpt>
      <trkpt lat="48.527" lon="-3.34346">
        <ele>175</ele>
        <time>2013-03-10T14:34:59Z</time>
      </trkpt>
      <trkpt lat="48.52699" lon="-3.34343">
        <ele>175</ele>
        <time>2013-03-10T14:35:02Z</time>
      </trkpt>
      <trkpt lat="48.52698" lon="-3.34341">
        <ele>175</ele>
        <time>2013-03-10T14:35:05Z</time>
      </trkpt>
      <trkpt lat="48.52697" lon="-3.34339">
        <ele>175</ele>
        <time>2013-03-10T14:35:08Z</time>
      </trkpt>
      <trkpt lat="48.52696" lon="-3.34338">
        <ele>175</ele>
        <time>2013-03-10T14:35:10Z</time>
      </trkpt>
      <trkpt lat="48.52695" lon="-3.34337">
        <ele>175</ele>
        <time>2013-03-10T14:35:13Z</time>
      </trkpt>
      <trkpt lat="48.52695" lon="-3.34336">
        <ele>175</ele>
        <time>2013-03-10T14:35:15Z</time>
      </trkpt>
      <trkpt lat="48.52694" lon="-3.34335">
        <ele>175</ele>
        <time>2013-03-10T14:35:17Z</time>
      </trkpt>
      <trkpt lat="48.52694" lon="-3.34334">
        <ele>175</ele>
        <time>2013-03-10T14:35:19Z</time>
      </trkpt>
      <trkpt lat="48.52693" lon="-3.34334">
        <ele>175</ele>
        <time>2013-03-10T14:35:22Z</time>
      </trkpt>
      <trkpt lat="48.52693" lon="-3.34333">
        <ele>175</ele>
        <time>2013-03-10T14:35:24Z</time>
      </trkpt>
      <trkpt lat="48.52692" lon="-3.34332">
        <ele>175</ele>
        <time>2013-03-10T14:35:27Z</time>
      </trkpt>
      <trkpt lat="48.52692" lon="-3.34332">
        <ele>175</ele>
        <time>2013-03-10T14:35:30Z</time>
      </trkpt>
      <trkpt lat="48.52691" lon="-3.34331">
        <ele>175</ele>
        <time>2013-03-10T14:35:33Z</time>
      </trkpt>
      <trkpt lat="48.52691" lon="-3.34331">
        <ele>175</ele>
        <time>2013-03-10T14:35:36Z</time>
      </trkpt>
      <trkpt lat="48.52691" lon="-3.34331">
        <ele>175</ele>
        <time>2013-03-10T14:35:38Z</time>
      </trkpt>
      <trkpt lat="48.5269" lon="-3.34333">
        <ele>175</ele>
        <time>2013-03-10T14:35:40Z</time>
      </trkpt>
      <trkpt lat="48.5269" lon="-3.34336">
        <ele>175</ele>
        <time>2013-03-10T14:35:42Z</time>
      </trkpt>
      <trkpt lat="48.5269" lon="-3.34339">
        <ele>175</ele>
        <time>2013-03-10T14:35:45Z</time>
      </trkpt>
      <trkpt lat="48.52689" lon="-3.34341">
        <ele>175</ele>
        <time>2013-03-10T14:35:47Z</time>
      </trkpt>
      <trkpt lat="48.52688" lon="-3.34343">
        <ele>175</ele>
        <time>2013-03-10T14:35:49Z</time>
      </trkpt>
      <trkpt lat="48.52687" lon="-3.34344">
        <ele>175</ele>
        <time>2013-03-10T14:35:51Z</time>
      </trkpt>
      <trkpt lat="48.52686" lon="-3.34345">
        <ele>175</ele>
        <time>2013-03-10T14:35:53Z</time>
      </trkpt>
      <trkpt lat="48.52685" lon="-3.34346">
        <ele>175</ele>
        <time>2013-03-10T14:35:55Z</time>
      </trkpt>
      <trkpt lat="48.52685" lon="-3.34347">
        <ele>175</ele>
        <time>2013-03-10T14:35:57Z</time>
      </trkpt>
      <trkpt lat="48.52684" lon="-3.34349">
        <ele>175</ele>
        <time>2013-03-10T14:36:00Z</time>
      </trkpt>
      <trkpt lat="48.52684" lon="-3.34351">
        <ele>175</ele>
        <time>2013-03-10T14:36:03Z</time>
      </trkpt>
      <trkpt lat="48.52683" lon="-3.3435">
        <ele>175</ele>
        <time>2013-03-10T14:36:05Z</time>
      </trkpt>
      <trkpt lat="48.52681" lon="-3.34352">
        <ele>175</ele>
        <time>2013-03-10T14:36:08Z</time>
      </trkpt>
      <trkpt lat="48.5268" lon="-3.34355">
        <ele>175</ele>
        <time>2013-03-10T14:36:11Z</time>
      </trkpt>
      <trkpt lat="48.5268" lon="-3.34357">
        <ele>175</ele>
        <time>2013-03-10T14:36:13Z</time>
      </trkpt>
      <trkpt lat="48.5268" lon="-3.34358">
        <ele>175</ele>
        <time>2013-03-10T14:36:15Z</time>
      </trkpt>
      <trkpt lat="48.52679" lon="-3.34359">
        <ele>175</ele>
        <time>2013-03-10T14:36:17Z</time>
      </trkpt>
      <trkpt lat="48.52677" lon="-3.34361">
        <ele>175</ele>
        <time>2013-03-10T14:36:20Z</time>
      </trkpt>
      <trkpt lat="48.52677" lon="-3.34363">
        <ele>175</ele>
        <time>2013-03-10T14:36:22Z</time>
      </trkpt>
      <trkpt lat="48.52676" lon="-3.34366">
        <ele>175</ele>
        <time>2013-03-10T14:36:24Z</time>
      </trkpt>
      <trkpt lat="48.52674" lon="-3.34368">
        <ele>175</ele>
        <time>2013-03-10T14:36:27Z</time>
      </trkpt>
      <trkpt lat="48.52673" lon="-3.3437">
        <ele>175</ele>
        <time>2013-03-10T14:36:29Z</time>
      </trkpt>
      <trkpt lat="48.52671" lon="-3.34373">
        <ele>175</ele>
        <time>2013-03-10T14:36:32Z</time>
      </trkpt>
      <trkpt lat="48.52669" lon="-3.34375">
        <ele>175</ele>
        <time>2013-03-10T14:36:35Z</time>
      </trkpt>
      <trkpt lat="48.52668" lon="-3.34376">
        <ele>175</ele>
        <time>2013-03-10T14:36:37Z</time>
      </trkpt>
      <trkpt lat="48.52666" lon="-3.34377">
        <ele>175</ele>
        <time>2013-03-10T14:36:39Z</time>
      </trkpt>
      <trkpt lat="48.52664" lon="-3.34379">
        <ele>175</ele>
        <time>2013-03-10T14:36:42Z</time>
      </trkpt>
      <trkpt lat="48.52662" lon="-3.3438">
        <ele>175</ele>
        <time>2013-03-10T14:36:45Z</time>
      </trkpt>
      <trkpt lat="48.5266" lon="-3.34381">
        <ele>175</ele>
        <time>2013-03-10T14:36:47Z</time>
      </trkpt>
      <trkpt lat="48.52659" lon="-3.34382">
        <ele>175</ele>
        <time>2013-03-10T14:36:49Z</time>
      </trkpt>
      <trkpt lat="48.52657" lon="-3.34383">
        <ele>175</ele>
        <time>2013-03-10T14:36:52Z</time>
      </trkpt>
      <trkpt lat="48.52657" lon="-3.34383">
        <ele>175</ele>
        <time>2013-03-10T14:36:54Z</time>
      </trkpt>
      <trkpt lat="48.52656" lon="-3.34383">
        <ele>175</ele>
        <time>2013-03-10T14:36:56Z</time>
      </trkpt>
      <trkpt lat="48.52655" lon="-3.34384">
        <ele>175</ele>
        <time>2013-03-10T14:36:58Z</time>
      </trkpt>
      <trkpt lat="48.52654" lon="-3.34385">
        <ele>176</ele>
        <time>2013-03-10T14:37:01Z</time>
      </trkpt>
      <trkpt lat="48.52652" lon="-3.34387">
        <ele>176</ele>
        <time>2013-03-10T14:37:04Z</time>
      </trkpt>
      <trkpt lat="48.5265" lon="-3.34387">
        <ele>176</ele>
        <time>2013-03-10T14:37:06Z</time>
      </trkpt>
      <trkpt lat="48.52649" lon="-3.34387">
        <ele>176</ele>
        <time>2013-03-10T14:37:08Z</time>
      </trkpt>
      <trkpt lat="48.52649" lon="-3.34388">
        <ele>176</ele>
        <time>2013-03-10T14:37:10Z</time>
      </trkpt>
      <trkpt lat="48.52648" lon="-3.34389">
        <ele>176</ele>
        <time>2013-03-10T14:37:12Z</time>
      </trkpt>
      <trkpt lat="48.52647" lon="-3.34393">
        <ele>176</ele>
        <time>2013-03-10T14:37:15Z</time>
      </trkpt>
      <trkpt lat="48.52647" lon="-3.34395">
        <ele>176</ele>
        <time>2013-03-10T14:37:17Z</time>
      </trkpt>
      <trkpt lat="48.52646" lon="-3.34398">
        <ele>175</ele>
        <time>2013-03-10T14:37:20Z</time>
      </trkpt>
      <trkpt lat="48.52646" lon="-3.34402">
        <ele>176</ele>
        <time>2013-03-10T14:37:23Z</time>
      </trkpt>
      <trkpt lat="48.52645" lon="-3.34404">
        <ele>176</ele>
        <time>2013-03-10T14:37:26Z</time>
      </trkpt>
      <trkpt lat="48.52645" lon="-3.34406">
        <ele>176</ele>
        <time>2013-03-10T14:37:28Z</time>
      </trkpt>
      <trkpt lat="48.52644" lon="-3.34408">
        <ele>176</ele>
        <time>2013-03-10T14:37:31Z</time>
      </trkpt>
      <trkpt lat="48.52644" lon="-3.34408">
        <ele>176</ele>
        <time>2013-03-10T14:37:33Z</time>
      </trkpt>
      <trkpt lat="48.52643" lon="-3.34409">
        <ele>176</ele>
        <time>2013-03-10T14:37:36Z</time>
      </trkpt>
      <trkpt lat="48.52643" lon="-3.34411">
        <ele>176</ele>
        <time>2013-03-10T14:37:38Z</time>
      </trkpt>
      <trkpt lat="48.52642" lon="-3.34415">
        <ele>176</ele>
        <time>2013-03-10T14:37:41Z</time>
      </trkpt>
      <trkpt lat="48.52642" lon="-3.34418">
        <ele>175</ele>
        <time>2013-03-10T14:37:44Z</time>
      </trkpt>
      <trkpt lat="48.52642" lon="-3.3442">
        <ele>175</ele>
        <time>2013-03-10T14:37:46Z</time>
      </trkpt>
      <trkpt lat="48.52642" lon="-3.34422">
        <ele>175</ele>
        <time>2013-03-10T14:37:49Z</time>
      </trkpt>
      <trkpt lat="48.52641" lon="-3.34423">
        <ele>174</ele>
        <time>2013-03-10T14:37:51Z</time>
      </trkpt>
      <trkpt lat="48.52639" lon="-3.34425">
        <ele>174</ele>
        <time>2013-03-10T14:37:53Z</time>
      </trkpt>
      <trkpt lat="48.52638" lon="-3.34427">
        <ele>174</ele>
        <time>2013-03-10T14:37:56Z</time>
      </trkpt>
      <trkpt lat="48.52637" lon="-3.34428">
        <ele>174</ele>
        <time>2013-03-10T14:37:59Z</time>
      </trkpt>
      <trkpt lat="48.52638" lon="-3.34429">
        <ele>174</ele>
        <time>2013-03-10T14:38:02Z</time>
      </trkpt>
      <trkpt lat="48.52639" lon="-3.3443">
        <ele>174</ele>
        <time>2013-03-10T14:38:05Z</time>
      </trkpt>
      <trkpt lat="48.52639" lon="-3.34432">
        <ele>174</ele>
        <time>2013-03-10T14:38:07Z</time>
      </trkpt>
      <trkpt lat="48.52638" lon="-3.34433">
        <ele>175</ele>
        <time>2013-03-10T14:38:10Z</time>
      </trkpt>
      <trkpt lat="48.52637" lon="-3.34435">
        <ele>175</ele>
        <time>2013-03-10T14:38:13Z</time>
      </trkpt>
      <trkpt lat="48.52638" lon="-3.34436">
        <ele>175</ele>
        <time>2013-03-10T14:38:15Z</time>
      </trkpt>
      <trkpt lat="48.52638" lon="-3.34436">
        <ele>175</ele>
        <time>2013-03-10T14:38:18Z</time>
      </trkpt>
      <trkpt lat="48.52638" lon="-3.34437">
        <ele>175</ele>
        <time>2013-03-10T14:38:20Z</time>
      </trkpt>
      <trkpt lat="48.52639" lon="-3.34437">
        <ele>175</ele>
        <time>2013-03-10T14:38:22Z</time>
      </trkpt>
      <trkpt lat="48.5264" lon="-3.34437">
        <ele>175</ele>
        <time>2013-03-10T14:38:25Z</time>
      </trkpt>
      <trkpt lat="48.52639" lon="-3.34439">
        <ele>175</ele>
        <time>2013-03-10T14:38:27Z</time>
      </trkpt>
      <trkpt lat="48.5264" lon="-3.3444">
        <ele>175</ele>
        <time>2013-03-10T14:38:30Z</time>
      </trkpt>
      <trkpt lat="48.5264" lon="-3.34441">
        <ele>175</ele>
        <time>2013-03-10T14:38:32Z</time>
      </trkpt>
      <trkpt lat="48.5264" lon="-3.34441">
        <ele>175</ele>
        <time>2013-03-10T14:38:35Z</time>
      </trkpt>
      <trkpt lat="48.5264" lon="-3.34442">
        <ele>175</ele>
        <time>2013-03-10T14:38:38Z</time>
      </trkpt>
      <trkpt lat="48.5264" lon="-3.34442">
        <ele>175</ele>
        <time>2013-03-10T14:38:40Z</time>
      </trkpt>
      <trkpt lat="48.5264" lon="-3.34443">
        <ele>175</ele>
        <time>2013-03-10T14:38:43Z</time>
      </trkpt>
      <trkpt lat="48.5264" lon="-3.34444">
        <ele>175</ele>
        <time>2013-03-10T14:38:46Z</time>
      </trkpt>
      <trkpt lat="48.52639" lon="-3.34445">
        <ele>175</ele>
        <time>2013-03-10T14:38:49Z</time>
      </trkpt>
      <trkpt lat="48.52639" lon="-3.34446">
        <ele>175</ele>
        <time>2013-03-10T14:38:51Z</time>
      </trkpt>
      <trkpt lat="48.52639" lon="-3.34447">
        <ele>175</ele>
        <time>2013-03-10T14:38:54Z</time>
      </trkpt>
      <trkpt lat="48.52639" lon="-3.34448">
        <ele>175</ele>
        <time>2013-03-10T14:38:56Z</time>
      </trkpt>
      <trkpt lat="48.52639" lon="-3.34448">
        <ele>175</ele>
        <time>2013-03-10T14:38:58Z</time>
      </trkpt>
      <trkpt lat="48.52639" lon="-3.34448">
        <ele>175</ele>
        <time>2013-03-10T14:39:00Z</time>
      </trkpt>
      <trkpt lat="48.52639" lon="-3.34447">
        <ele>175</ele>
        <time>2013-03-10T14:39:03Z</time>
      </trkpt>
      <trkpt lat="48.52641" lon="-3.34443">
        <ele>175</ele>
        <time>2013-03-10T14:39:06Z</time>
      </trkpt>
      <trkpt lat="48.52642" lon="-3.34441">
        <ele>175</ele>
        <time>2013-03-10T14:39:09Z</time>
      </trkpt>
      <trkpt lat="48.52642" lon="-3.34439">
        <ele>175</ele>
        <time>2013-03-10T14:39:11Z</time>
      </trkpt>
      <trkpt lat="48.52642" lon="-3.34436">
        <ele>175</ele>
        <time>2013-03-10T14:39:14Z</time>
      </trkpt>
      <trkpt lat="48.52642" lon="-3.34433">
        <ele>175</ele>
        <time>2013-03-10T14:39:17Z</time>
      </trkpt>
      <trkpt lat="48.52642" lon="-3.34431">
        <ele>175</ele>
        <time>2013-03-10T14:39:20Z</time>
      </trkpt>
      <trkpt lat="48.52641" lon="-3.34428">
        <ele>175</ele>
        <time>2013-03-10T14:39:22Z</time>
      </trkpt>
      <trkpt lat="48.5264" lon="-3.34425">
        <ele>175</ele>
        <time>2013-03-10T14:39:25Z</time>
      </trkpt>
      <trkpt lat="48.5264" lon="-3.34422">
        <ele>175</ele>
        <time>2013-03-10T14:39:27Z</time>
      </trkpt>
      <trkpt lat="48.52639" lon="-3.34419">
        <ele>175</ele>
        <time>2013-03-10T14:39:30Z</time>
      </trkpt>
      <trkpt lat="48.52638" lon="-3.34416">
        <ele>175</ele>
        <time>2013-03-10T14:39:32Z</time>
      </trkpt>
      <trkpt lat="48.52637" lon="-3.34413">
        <ele>175</ele>
        <time>2013-03-10T14:39:35Z</time>
      </trkpt>
      <trkpt lat="48.52636" lon="-3.3441">
        <ele>175</ele>
        <time>2013-03-10T14:39:37Z</time>
      </trkpt>
      <trkpt lat="48.52636" lon="-3.34408">
        <ele>176</ele>
        <time>2013-03-10T14:39:39Z</time>
      </trkpt>
      <trkpt lat="48.52635" lon="-3.34405">
        <ele>176</ele>
        <time>2013-03-10T14:39:42Z</time>
      </trkpt>
      <trkpt lat="48.52634" lon="-3.34402">
        <ele>176</ele>
        <time>2013-03-10T14:39:44Z</time>
      </trkpt>
      <trkpt lat="48.52633" lon="-3.34399">
        <ele>176</ele>
        <time>2013-03-10T14:39:47Z</time>
      </trkpt>
      <trkpt lat="48.52632" lon="-3.34395">
        <ele>176</ele>
        <time>2013-03-10T14:39:50Z</time>
      </trkpt>
      <trkpt lat="48.52631" lon="-3.34392">
        <ele>176</ele>
        <time>2013-03-10T14:39:53Z</time>
      </trkpt>
      <trkpt lat="48.5263" lon="-3.34388">
        <ele>176</ele>
        <time>2013-03-10T14:39:56Z</time>
      </trkpt>
      <trkpt lat="48.52629" lon="-3.34387">
        <ele>176</ele>
        <time>2013-03-10T14:39:58Z</time>
      </trkpt>
      <trkpt lat="48.52628" lon="-3.34383">
        <ele>176</ele>
        <time>2013-03-10T14:40:01Z</time>
      </trkpt>
      <trkpt lat="48.52627" lon="-3.34381">
        <ele>176</ele>
        <time>2013-03-10T14:40:04Z</time>
      </trkpt>
      <trkpt lat="48.52626" lon="-3.34378">
        <ele>176</ele>
        <time>2013-03-10T14:40:06Z</time>
      </trkpt>
      <trkpt lat="48.52625" lon="-3.34375">
        <ele>176</ele>
        <time>2013-03-10T14:40:08Z</time>
      </trkpt>
      <trkpt lat="48.52624" lon="-3.34371">
        <ele>176</ele>
        <time>2013-03-10T14:40:11Z</time>
      </trkpt>
      <trkpt lat="48.52623" lon="-3.34369">
        <ele>176</ele>
        <time>2013-03-10T14:40:14Z</time>
      </trkpt>
      <trkpt lat="48.52621" lon="-3.34367">
        <ele>177</ele>
        <time>2013-03-10T14:40:17Z</time>
      </trkpt>
      <trkpt lat="48.5262" lon="-3.34364">
        <ele>177</ele>
        <time>2013-03-10T14:40:20Z</time>
      </trkpt>
      <trkpt lat="48.5262" lon="-3.34361">
        <ele>177</ele>
        <time>2013-03-10T14:40:22Z</time>
      </trkpt>
      <trkpt lat="48.5262" lon="-3.34358">
        <ele>177</ele>
        <time>2013-03-10T14:40:25Z</time>
      </trkpt>
      <trkpt lat="48.5262" lon="-3.34356">
        <ele>177</ele>
        <time>2013-03-10T14:40:27Z</time>
      </trkpt>
      <trkpt lat="48.52619" lon="-3.34355">
        <ele>177</ele>
        <time>2013-03-10T14:40:30Z</time>
      </trkpt>
      <trkpt lat="48.52618" lon="-3.34354">
        <ele>177</ele>
        <time>2013-03-10T14:40:33Z</time>
      </trkpt>
      <trkpt lat="48.52617" lon="-3.34352">
        <ele>177</ele>
        <time>2013-03-10T14:40:35Z</time>
      </trkpt>
      <trkpt lat="48.52616" lon="-3.34351">
        <ele>177</ele>
        <time>2013-03-10T14:40:37Z</time>
      </trkpt>
      <trkpt lat="48.52614" lon="-3.34349">
        <ele>177</ele>
        <time>2013-03-10T14:40:40Z</time>
      </trkpt>
      <trkpt lat="48.52612" lon="-3.34348">
        <ele>177</ele>
        <time>2013-03-10T14:40:43Z</time>
      </trkpt>
      <trkpt lat="48.52612" lon="-3.34346">
        <ele>177</ele>
        <time>2013-03-10T14:40:46Z</time>
      </trkpt>
      <trkpt lat="48.52611" lon="-3.34343">
        <ele>177</ele>
        <time>2013-03-10T14:40:49Z</time>
      </trkpt>
      <trkpt lat="48.52611" lon="-3.34342">
        <ele>177</ele>
        <time>2013-03-10T14:40:51Z</time>
      </trkpt>
      <trkpt lat="48.5261" lon="-3.34339">
        <ele>177</ele>
        <time>2013-03-10T14:40:54Z</time>
      </trkpt>
      <trkpt lat="48.5261" lon="-3.34336">
        <ele>177</ele>
        <time>2013-03-10T14:40:57Z</time>
      </trkpt>
      <trkpt lat="48.5261" lon="-3.34334">
        <ele>177</ele>
        <time>2013-03-10T14:40:59Z</time>
      </trkpt>
      <trkpt lat="48.52611" lon="-3.34331">
        <ele>177</ele>
        <time>2013-03-10T14:41:02Z</time>
      </trkpt>
      <trkpt lat="48.5261" lon="-3.34328">
        <ele>177</ele>
        <time>2013-03-10T14:41:05Z</time>
      </trkpt>
      <trkpt lat="48.5261" lon="-3.34326">
        <ele>177</ele>
        <time>2013-03-10T14:41:07Z</time>
      </trkpt>
      <trkpt lat="48.5261" lon="-3.34323">
        <ele>177</ele>
        <time>2013-03-10T14:41:10Z</time>
      </trkpt>
      <trkpt lat="48.52609" lon="-3.3432">
        <ele>177</ele>
        <time>2013-03-10T14:41:12Z</time>
      </trkpt>
      <trkpt lat="48.52609" lon="-3.34317">
        <ele>177</ele>
        <time>2013-03-10T14:41:15Z</time>
      </trkpt>
      <trkpt lat="48.52608" lon="-3.34316">
        <ele>177</ele>
        <time>2013-03-10T14:41:17Z</time>
      </trkpt>
      <trkpt lat="48.52607" lon="-3.34314">
        <ele>177</ele>
        <time>2013-03-10T14:41:20Z</time>
      </trkpt>
      <trkpt lat="48.52607" lon="-3.34312">
        <ele>177</ele>
        <time>2013-03-10T14:41:22Z</time>
      </trkpt>
      <trkpt lat="48.52605" lon="-3.34309">
        <ele>177</ele>
        <time>2013-03-10T14:41:25Z</time>
      </trkpt>
      <trkpt lat="48.52605" lon="-3.34307">
        <ele>178</ele>
        <time>2013-03-10T14:41:27Z</time>
      </trkpt>
      <trkpt lat="48.52604" lon="-3.34306">
        <ele>178</ele>
        <time>2013-03-10T14:41:29Z</time>
      </trkpt>
      <trkpt lat="48.52603" lon="-3.34304">
        <ele>178</ele>
        <time>2013-03-10T14:41:31Z</time>
      </trkpt>
      <trkpt lat="48.52603" lon="-3.34302">
        <ele>178</ele>
        <time>2013-03-10T14:41:34Z</time>
      </trkpt>
      <trkpt lat="48.52602" lon="-3.34301">
        <ele>178</ele>
        <time>2013-03-10T14:41:37Z</time>
      </trkpt>
      <trkpt lat="48.52601" lon="-3.34299">
        <ele>178</ele>
        <time>2013-03-10T14:41:39Z</time>
      </trkpt>
      <trkpt lat="48.52601" lon="-3.34299">
        <ele>178</ele>
        <time>2013-03-10T14:41:41Z</time>
      </trkpt>
      <trkpt lat="48.526" lon="-3.34297">
        <ele>178</ele>
        <time>2013-03-10T14:41:44Z</time>
      </trkpt>
      <trkpt lat="48.526" lon="-3.34296">
        <ele>178</ele>
        <time>2013-03-10T14:41:46Z</time>
      </trkpt>
      <trkpt lat="48.52599" lon="-3.34293">
        <ele>179</ele>
        <time>2013-03-10T14:41:49Z</time>
      </trkpt>
      <trkpt lat="48.52597" lon="-3.34291">
        <ele>178</ele>
        <time>2013-03-10T14:41:52Z</time>
      </trkpt>
      <trkpt lat="48.52595" lon="-3.34289">
        <ele>178</ele>
        <time>2013-03-10T14:41:55Z</time>
      </trkpt>
      <trkpt lat="48.52594" lon="-3.34286">
        <ele>178</ele>
        <time>2013-03-10T14:41:58Z</time>
      </trkpt>
      <trkpt lat="48.52594" lon="-3.34284">
        <ele>179</ele>
        <time>2013-03-10T14:42:00Z</time>
      </trkpt>
      <trkpt lat="48.52594" lon="-3.34282">
        <ele>178</ele>
        <time>2013-03-10T14:42:03Z</time>
      </trkpt>
      <trkpt lat="48.52593" lon="-3.3428">
        <ele>179</ele>
        <time>2013-03-10T14:42:05Z</time>
      </trkpt>
      <trkpt lat="48.52593" lon="-3.34278">
        <ele>178</ele>
        <time>2013-03-10T14:42:07Z</time>
      </trkpt>
      <trkpt lat="48.52594" lon="-3.34277">
        <ele>178</ele>
        <time>2013-03-10T14:42:10Z</time>
      </trkpt>
      <trkpt lat="48.52595" lon="-3.34276">
        <ele>178</ele>
        <time>2013-03-10T14:42:12Z</time>
      </trkpt>
      <trkpt lat="48.52595" lon="-3.34275">
        <ele>178</ele>
        <time>2013-03-10T14:42:14Z</time>
      </trkpt>
      <trkpt lat="48.52597" lon="-3.34274">
        <ele>178</ele>
        <time>2013-03-10T14:42:16Z</time>
      </trkpt>
      <trkpt lat="48.52598" lon="-3.34273">
        <ele>178</ele>
        <time>2013-03-10T14:42:18Z</time>
      </trkpt>
      <trkpt lat="48.52598" lon="-3.34271">
        <ele>178</ele>
        <time>2013-03-10T14:42:20Z</time>
      </trkpt>
      <trkpt lat="48.52599" lon="-3.34269">
        <ele>178</ele>
        <time>2013-03-10T14:42:23Z</time>
      </trkpt>
      <trkpt lat="48.52599" lon="-3.34268">
        <ele>178</ele>
        <time>2013-03-10T14:42:25Z</time>
      </trkpt>
      <trkpt lat="48.52599" lon="-3.34267">
        <ele>178</ele>
        <time>2013-03-10T14:42:28Z</time>
      </trkpt>
      <trkpt lat="48.52599" lon="-3.34267">
        <ele>178</ele>
        <time>2013-03-10T14:42:30Z</time>
      </trkpt>
      <trkpt lat="48.52599" lon="-3.34266">
        <ele>178</ele>
        <time>2013-03-10T14:42:32Z</time>
      </trkpt>
      <trkpt lat="48.52599" lon="-3.34266">
        <ele>179</ele>
        <time>2013-03-10T14:42:34Z</time>
      </trkpt>
      <trkpt lat="48.52599" lon="-3.34265">
        <ele>179</ele>
        <time>2013-03-10T14:42:37Z</time>
      </trkpt>
      <trkpt lat="48.52599" lon="-3.34265">
        <ele>178</ele>
        <time>2013-03-10T14:42:39Z</time>
      </trkpt>
      <trkpt lat="48.52598" lon="-3.34263">
        <ele>179</ele>
        <time>2013-03-10T14:42:41Z</time>
      </trkpt>
      <trkpt lat="48.52597" lon="-3.34261">
        <ele>179</ele>
        <time>2013-03-10T14:42:44Z</time>
      </trkpt>
      <trkpt lat="48.52597" lon="-3.3426">
        <ele>179</ele>
        <time>2013-03-10T14:42:46Z</time>
      </trkpt>
      <trkpt lat="48.52595" lon="-3.34256">
        <ele>179</ele>
        <time>2013-03-10T14:42:49Z</time>
      </trkpt>
      <trkpt lat="48.52594" lon="-3.34253">
        <ele>179</ele>
        <time>2013-03-10T14:42:52Z</time>
      </trkpt>
      <trkpt lat="48.52594" lon="-3.34251">
        <ele>179</ele>
        <time>2013-03-10T14:42:54Z</time>
      </trkpt>
      <trkpt lat="48.52593" lon="-3.34249">
        <ele>179</ele>
        <time>2013-03-10T14:42:56Z</time>
      </trkpt>
      <trkpt lat="48.52592" lon="-3.34246">
        <ele>179</ele>
        <time>2013-03-10T14:42:59Z</time>
      </trkpt>
      <trkpt lat="48.52591" lon="-3.34244">
        <ele>179</ele>
        <time>2013-03-10T14:43:01Z</time>
      </trkpt>
      <trkpt lat="48.5259" lon="-3.34241">
        <ele>179</ele>
        <time>2013-03-10T14:43:04Z</time>
      </trkpt>
      <trkpt lat="48.52591" lon="-3.34238">
        <ele>179</ele>
        <time>2013-03-10T14:43:06Z</time>
      </trkpt>
      <trkpt lat="48.5259" lon="-3.34236">
        <ele>178</ele>
        <time>2013-03-10T14:43:08Z</time>
      </trkpt>
      <trkpt lat="48.52589" lon="-3.34232">
        <ele>178</ele>
        <time>2013-03-10T14:43:11Z</time>
      </trkpt>
      <trkpt lat="48.52589" lon="-3.34229">
        <ele>179</ele>
        <time>2013-03-10T14:43:14Z</time>
      </trkpt>
      <trkpt lat="48.52589" lon="-3.34226">
        <ele>179</ele>
        <time>2013-03-10T14:43:17Z</time>
      </trkpt>
      <trkpt lat="48.52589" lon="-3.34224">
        <ele>179</ele>
        <time>2013-03-10T14:43:20Z</time>
      </trkpt>
      <trkpt lat="48.5259" lon="-3.34223">
        <ele>179</ele>
        <time>2013-03-10T14:43:22Z</time>
      </trkpt>
      <trkpt lat="48.5259" lon="-3.3422">
        <ele>179</ele>
        <time>2013-03-10T14:43:25Z</time>
      </trkpt>
      <trkpt lat="48.52591" lon="-3.34218">
        <ele>179</ele>
        <time>2013-03-10T14:43:27Z</time>
      </trkpt>
      <trkpt lat="48.52592" lon="-3.34216">
        <ele>179</ele>
        <time>2013-03-10T14:43:29Z</time>
      </trkpt>
      <trkpt lat="48.52591" lon="-3.34213">
        <ele>179</ele>
        <time>2013-03-10T14:43:32Z</time>
      </trkpt>
      <trkpt lat="48.52591" lon="-3.34209">
        <ele>179</ele>
        <time>2013-03-10T14:43:35Z</time>
      </trkpt>
      <trkpt lat="48.5259" lon="-3.34206">
        <ele>179</ele>
        <time>2013-03-10T14:43:37Z</time>
      </trkpt>
      <trkpt lat="48.52589" lon="-3.34203">
        <ele>179</ele>
        <time>2013-03-10T14:43:40Z</time>
      </trkpt>
      <trkpt lat="48.52588" lon="-3.34201">
        <ele>179</ele>
        <time>2013-03-10T14:43:42Z</time>
      </trkpt>
      <trkpt lat="48.52588" lon="-3.342">
        <ele>179</ele>
        <time>2013-03-10T14:43:44Z</time>
      </trkpt>
      <trkpt lat="48.52586" lon="-3.34199">
        <ele>179</ele>
        <time>2013-03-10T14:43:46Z</time>
      </trkpt>
      <trkpt lat="48.52585" lon="-3.34198">
        <ele>179</ele>
        <time>2013-03-10T14:43:48Z</time>
      </trkpt>
      <trkpt lat="48.52583" lon="-3.34197">
        <ele>179</ele>
        <time>2013-03-10T14:43:51Z</time>
      </trkpt>
      <trkpt lat="48.52581" lon="-3.34195">
        <ele>179</ele>
        <time>2013-03-10T14:43:54Z</time>
      </trkpt>
      <trkpt lat="48.52578" lon="-3.34194">
        <ele>179</ele>
        <time>2013-03-10T14:43:57Z</time>
      </trkpt>
      <trkpt lat="48.52576" lon="-3.34191">
        <ele>180</ele>
        <time>2013-03-10T14:44:00Z</time>
      </trkpt>
      <trkpt lat="48.52574" lon="-3.3419">
        <ele>180</ele>
        <time>2013-03-10T14:44:02Z</time>
      </trkpt>
      <trkpt lat="48.52572" lon="-3.34188">
        <ele>180</ele>
        <time>2013-03-10T14:44:04Z</time>
      </trkpt>
      <trkpt lat="48.5257" lon="-3.34186">
        <ele>180</ele>
        <time>2013-03-10T14:44:07Z</time>
      </trkpt>
      <trkpt lat="48.52569" lon="-3.34184">
        <ele>180</ele>
        <time>2013-03-10T14:44:09Z</time>
      </trkpt>
      <trkpt lat="48.52568" lon="-3.34182">
        <ele>180</ele>
        <time>2013-03-10T14:44:11Z</time>
      </trkpt>
      <trkpt lat="48.52568" lon="-3.34179">
        <ele>180</ele>
        <time>2013-03-10T14:44:13Z</time>
      </trkpt>
      <trkpt lat="48.52567" lon="-3.34177">
        <ele>180</ele>
        <time>2013-03-10T14:44:15Z</time>
      </trkpt>
      <trkpt lat="48.52565" lon="-3.34175">
        <ele>180</ele>
        <time>2013-03-10T14:44:17Z</time>
      </trkpt>
      <trkpt lat="48.52563" lon="-3.34172">
        <ele>180</ele>
        <time>2013-03-10T14:44:20Z</time>
      </trkpt>
      <trkpt lat="48.52563" lon="-3.34168">
        <ele>181</ele>
        <time>2013-03-10T14:44:23Z</time>
      </trkpt>
      <trkpt lat="48.52563" lon="-3.34163">
        <ele>181</ele>
        <time>2013-03-10T14:44:26Z</time>
      </trkpt>
      <trkpt lat="48.52563" lon="-3.34162">
        <ele>181</ele>
        <time>2013-03-10T14:44:28Z</time>
      </trkpt>
      <trkpt lat="48.52563" lon="-3.34162">
        <ele>180</ele>
        <time>2013-03-10T14:44:31Z</time>
      </trkpt>
      <trkpt lat="48.52563" lon="-3.34164">
        <ele>180</ele>
        <time>2013-03-10T14:44:33Z</time>
      </trkpt>
      <trkpt lat="48.52563" lon="-3.34163">
        <ele>180</ele>
        <time>2013-03-10T14:44:36Z</time>
      </trkpt>
      <trkpt lat="48.52563" lon="-3.34162">
        <ele>180</ele>
        <time>2013-03-10T14:44:38Z</time>
      </trkpt>
      <trkpt lat="48.52562" lon="-3.34162">
        <ele>180</ele>
        <time>2013-03-10T14:44:40Z</time>
      </trkpt>
      <trkpt lat="48.52559" lon="-3.3416">
        <ele>180</ele>
        <time>2013-03-10T14:44:43Z</time>
      </trkpt>
      <trkpt lat="48.52557" lon="-3.34159">
        <ele>180</ele>
        <time>2013-03-10T14:44:46Z</time>
      </trkpt>
      <trkpt lat="48.52554" lon="-3.34158">
        <ele>181</ele>
        <time>2013-03-10T14:44:49Z</time>
      </trkpt>
      <trkpt lat="48.52551" lon="-3.34157">
        <ele>181</ele>
        <time>2013-03-10T14:44:52Z</time>
      </trkpt>
      <trkpt lat="48.5255" lon="-3.34156">
        <ele>181</ele>
        <time>2013-03-10T14:44:55Z</time>
      </trkpt>
      <trkpt lat="48.52549" lon="-3.34155">
        <ele>180</ele>
        <time>2013-03-10T14:44:57Z</time>
      </trkpt>
      <trkpt lat="48.52547" lon="-3.34153">
        <ele>181</ele>
        <time>2013-03-10T14:45:00Z</time>
      </trkpt>
      <trkpt lat="48.52544" lon="-3.34152">
        <ele>181</ele>
        <time>2013-03-10T14:45:03Z</time>
      </trkpt>
      <trkpt lat="48.52542" lon="-3.34151">
        <ele>181</ele>
        <time>2013-03-10T14:45:05Z</time>
      </trkpt>
      <trkpt lat="48.52539" lon="-3.34151">
        <ele>181</ele>
        <time>2013-03-10T14:45:08Z</time>
      </trkpt>
      <trkpt lat="48.52536" lon="-3.3415">
        <ele>181</ele>
        <time>2013-03-10T14:45:11Z</time>
      </trkpt>
      <trkpt lat="48.52534" lon="-3.3415">
        <ele>181</ele>
        <time>2013-03-10T14:45:14Z</time>
      </trkpt>
      <trkpt lat="48.52534" lon="-3.34149">
        <ele>181</ele>
        <time>2013-03-10T14:45:17Z</time>
      </trkpt>
      <trkpt lat="48.52531" lon="-3.34148">
        <ele>181</ele>
        <time>2013-03-10T14:45:20Z</time>
      </trkpt>
      <trkpt lat="48.5253" lon="-3.34147">
        <ele>181</ele>
        <time>2013-03-10T14:45:22Z</time>
      </trkpt>
      <trkpt lat="48.52528" lon="-3.34147">
        <ele>181</ele>
        <time>2013-03-10T14:45:24Z</time>
      </trkpt>
      <trkpt lat="48.52527" lon="-3.34147">
        <ele>181</ele>
        <time>2013-03-10T14:45:27Z</time>
      </trkpt>
      <trkpt lat="48.52527" lon="-3.34147">
        <ele>181</ele>
        <time>2013-03-10T14:45:29Z</time>
      </trkpt>
      <trkpt lat="48.52526" lon="-3.34146">
        <ele>182</ele>
        <time>2013-03-10T14:45:32Z</time>
      </trkpt>
      <trkpt lat="48.52527" lon="-3.34146">
        <ele>182</ele>
        <time>2013-03-10T14:45:34Z</time>
      </trkpt>
      <trkpt lat="48.52526" lon="-3.34145">
        <ele>182</ele>
        <time>2013-03-10T14:45:37Z</time>
      </trkpt>
      <trkpt lat="48.52526" lon="-3.34144">
        <ele>182</ele>
        <time>2013-03-10T14:45:39Z</time>
      </trkpt>
      <trkpt lat="48.52526" lon="-3.34143">
        <ele>182</ele>
        <time>2013-03-10T14:45:42Z</time>
      </trkpt>
      <trkpt lat="48.52525" lon="-3.34142">
        <ele>182</ele>
        <time>2013-03-10T14:45:44Z</time>
      </trkpt>
      <trkpt lat="48.52524" lon="-3.34142">
        <ele>182</ele>
        <time>2013-03-10T14:45:47Z</time>
      </trkpt>
      <trkpt lat="48.52522" lon="-3.34141">
        <ele>182</ele>
        <time>2013-03-10T14:45:50Z</time>
      </trkpt>
      <trkpt lat="48.52518" lon="-3.3414">
        <ele>182</ele>
        <time>2013-03-10T14:45:53Z</time>
      </trkpt>
      <trkpt lat="48.52517" lon="-3.3414">
        <ele>182</ele>
        <time>2013-03-10T14:45:55Z</time>
      </trkpt>
      <trkpt lat="48.52513" lon="-3.3414">
        <ele>181</ele>
        <time>2013-03-10T14:45:58Z</time>
      </trkpt>
      <trkpt lat="48.52511" lon="-3.34139">
        <ele>182</ele>
        <time>2013-03-10T14:46:01Z</time>
      </trkpt>
      <trkpt lat="48.52508" lon="-3.34139">
        <ele>182</ele>
        <time>2013-03-10T14:46:04Z</time>
      </trkpt>
      <trkpt lat="48.52506" lon="-3.34139">
        <ele>182</ele>
        <time>2013-03-10T14:46:07Z</time>
      </trkpt>
      <trkpt lat="48.52504" lon="-3.34138">
        <ele>182</ele>
        <time>2013-03-10T14:46:09Z</time>
      </trkpt>
      <trkpt lat="48.52502" lon="-3.34138">
        <ele>182</ele>
        <time>2013-03-10T14:46:12Z</time>
      </trkpt>
      <trkpt lat="48.52499" lon="-3.34137">
        <ele>182</ele>
        <time>2013-03-10T14:46:15Z</time>
      </trkpt>
      <trkpt lat="48.52497" lon="-3.34136">
        <ele>182</ele>
        <time>2013-03-10T14:46:17Z</time>
      </trkpt>
      <trkpt lat="48.52495" lon="-3.34136">
        <ele>182</ele>
        <time>2013-03-10T14:46:20Z</time>
      </trkpt>
      <trkpt lat="48.52494" lon="-3.34136">
        <ele>182</ele>
        <time>2013-03-10T14:46:23Z</time>
      </trkpt>
      <trkpt lat="48.52494" lon="-3.34136">
        <ele>182</ele>
        <time>2013-03-10T14:46:25Z</time>
      </trkpt>
      <trkpt lat="48.52494" lon="-3.34136">
        <ele>183</ele>
        <time>2013-03-10T14:46:27Z</time>
      </trkpt>
      <trkpt lat="48.52494" lon="-3.34136">
        <ele>183</ele>
        <time>2013-03-10T14:46:30Z</time>
      </trkpt>
      <trkpt lat="48.52493" lon="-3.34136">
        <ele>183</ele>
        <time>2013-03-10T14:46:32Z</time>
      </trkpt>
      <trkpt lat="48.5249" lon="-3.34136">
        <ele>183</ele>
        <time>2013-03-10T14:46:35Z</time>
      </trkpt>
      <trkpt lat="48.52488" lon="-3.34136">
        <ele>183</ele>
        <time>2013-03-10T14:46:38Z</time>
      </trkpt>
      <trkpt lat="48.52486" lon="-3.34136">
        <ele>183</ele>
        <time>2013-03-10T14:46:40Z</time>
      </trkpt>
      <trkpt lat="48.52482" lon="-3.34135">
        <ele>183</ele>
        <time>2013-03-10T14:46:43Z</time>
      </trkpt>
      <trkpt lat="48.5248" lon="-3.34134">
        <ele>183</ele>
        <time>2013-03-10T14:46:45Z</time>
      </trkpt>
      <trkpt lat="48.52477" lon="-3.34133">
        <ele>183</ele>
        <time>2013-03-10T14:46:48Z</time>
      </trkpt>
      <trkpt lat="48.52474" lon="-3.34132">
        <ele>183</ele>
        <time>2013-03-10T14:46:51Z</time>
      </trkpt>
      <trkpt lat="48.52471" lon="-3.34131">
        <ele>183</ele>
        <time>2013-03-10T14:46:54Z</time>
      </trkpt>
      <trkpt lat="48.52468" lon="-3.3413">
        <ele>183</ele>
        <time>2013-03-10T14:46:57Z</time>
      </trkpt>
      <trkpt lat="48.52466" lon="-3.3413">
        <ele>183</ele>
        <time>2013-03-10T14:47:00Z</time>
      </trkpt>
      <trkpt lat="48.52465" lon="-3.3413">
        <ele>183</ele>
        <time>2013-03-10T14:47:02Z</time>
      </trkpt>
      <trkpt lat="48.52464" lon="-3.34129">
        <ele>184</ele>
        <time>2013-03-10T14:47:05Z</time>
      </trkpt>
      <trkpt lat="48.52464" lon="-3.34129">
        <ele>183</ele>
        <time>2013-03-10T14:47:07Z</time>
      </trkpt>
      <trkpt lat="48.52463" lon="-3.34128">
        <ele>183</ele>
        <time>2013-03-10T14:47:09Z</time>
      </trkpt>
      <trkpt lat="48.52463" lon="-3.34128">
        <ele>183</ele>
        <time>2013-03-10T14:47:12Z</time>
      </trkpt>
      <trkpt lat="48.52462" lon="-3.34127">
        <ele>183</ele>
        <time>2013-03-10T14:47:14Z</time>
      </trkpt>
      <trkpt lat="48.5246" lon="-3.34126">
        <ele>184</ele>
        <time>2013-03-10T14:47:17Z</time>
      </trkpt>
      <trkpt lat="48.52458" lon="-3.34125">
        <ele>184</ele>
        <time>2013-03-10T14:47:20Z</time>
      </trkpt>
      <trkpt lat="48.52456" lon="-3.34124">
        <ele>184</ele>
        <time>2013-03-10T14:47:22Z</time>
      </trkpt>
      <trkpt lat="48.52454" lon="-3.34123">
        <ele>184</ele>
        <time>2013-03-10T14:47:24Z</time>
      </trkpt>
      <trkpt lat="48.52451" lon="-3.34122">
        <ele>184</ele>
        <time>2013-03-10T14:47:27Z</time>
      </trkpt>
      <trkpt lat="48.52449" lon="-3.34122">
        <ele>184</ele>
        <time>2013-03-10T14:47:29Z</time>
      </trkpt>
      <trkpt lat="48.52446" lon="-3.34121">
        <ele>184</ele>
        <time>2013-03-10T14:47:32Z</time>
      </trkpt>
      <trkpt lat="48.52443" lon="-3.34121">
        <ele>184</ele>
        <time>2013-03-10T14:47:35Z</time>
      </trkpt>
      <trkpt lat="48.5244" lon="-3.3412">
        <ele>184</ele>
        <time>2013-03-10T14:47:38Z</time>
      </trkpt>
      <trkpt lat="48.52437" lon="-3.3412">
        <ele>184</ele>
        <time>2013-03-10T14:47:41Z</time>
      </trkpt>
      <trkpt lat="48.52436" lon="-3.34119">
        <ele>184</ele>
        <time>2013-03-10T14:47:43Z</time>
      </trkpt>
      <trkpt lat="48.52435" lon="-3.34118">
        <ele>184</ele>
        <time>2013-03-10T14:47:46Z</time>
      </trkpt>
      <trkpt lat="48.52435" lon="-3.34118">
        <ele>184</ele>
        <time>2013-03-10T14:47:48Z</time>
      </trkpt>
      <trkpt lat="48.52432" lon="-3.34117">
        <ele>184</ele>
        <time>2013-03-10T14:47:50Z</time>
      </trkpt>
      <trkpt lat="48.5243" lon="-3.34116">
        <ele>184</ele>
        <time>2013-03-10T14:47:53Z</time>
      </trkpt>
      <trkpt lat="48.52426" lon="-3.34116">
        <ele>185</ele>
        <time>2013-03-10T14:47:56Z</time>
      </trkpt>
      <trkpt lat="48.52424" lon="-3.34115">
        <ele>185</ele>
        <time>2013-03-10T14:47:58Z</time>
      </trkpt>
      <trkpt lat="48.52421" lon="-3.34114">
        <ele>185</ele>
        <time>2013-03-10T14:48:01Z</time>
      </trkpt>
      <trkpt lat="48.52418" lon="-3.34114">
        <ele>185</ele>
        <time>2013-03-10T14:48:04Z</time>
      </trkpt>
      <trkpt lat="48.52416" lon="-3.34112">
        <ele>185</ele>
        <time>2013-03-10T14:48:07Z</time>
      </trkpt>
      <trkpt lat="48.52413" lon="-3.34111">
        <ele>185</ele>
        <time>2013-03-10T14:48:10Z</time>
      </trkpt>
      <trkpt lat="48.52411" lon="-3.34111">
        <ele>185</ele>
        <time>2013-03-10T14:48:12Z</time>
      </trkpt>
      <trkpt lat="48.52409" lon="-3.34111">
        <ele>185</ele>
        <time>2013-03-10T14:48:15Z</time>
      </trkpt>
      <trkpt lat="48.52406" lon="-3.3411">
        <ele>185</ele>
        <time>2013-03-10T14:48:18Z</time>
      </trkpt>
      <trkpt lat="48.52404" lon="-3.3411">
        <ele>185</ele>
        <time>2013-03-10T14:48:20Z</time>
      </trkpt>
      <trkpt lat="48.52401" lon="-3.34108">
        <ele>185</ele>
        <time>2013-03-10T14:48:23Z</time>
      </trkpt>
      <trkpt lat="48.52399" lon="-3.34107">
        <ele>185</ele>
        <time>2013-03-10T14:48:26Z</time>
      </trkpt>
      <trkpt lat="48.52398" lon="-3.34107">
        <ele>185</ele>
        <time>2013-03-10T14:48:28Z</time>
      </trkpt>
      <trkpt lat="48.52395" lon="-3.34106">
        <ele>185</ele>
        <time>2013-03-10T14:48:31Z</time>
      </trkpt>
      <trkpt lat="48.52393" lon="-3.34106">
        <ele>186</ele>
        <time>2013-03-10T14:48:33Z</time>
      </trkpt>
      <trkpt lat="48.52391" lon="-3.34105">
        <ele>186</ele>
        <time>2013-03-10T14:48:35Z</time>
      </trkpt>
      <trkpt lat="48.52388" lon="-3.34103">
        <ele>186</ele>
        <time>2013-03-10T14:48:38Z</time>
      </trkpt>
      <trkpt lat="48.52386" lon="-3.34102">
        <ele>186</ele>
        <time>2013-03-10T14:48:40Z</time>
      </trkpt>
      <trkpt lat="48.52383" lon="-3.34102">
        <ele>186</ele>
        <time>2013-03-10T14:48:43Z</time>
      </trkpt>
      <trkpt lat="48.52381" lon="-3.34101">
        <ele>186</ele>
        <time>2013-03-10T14:48:46Z</time>
      </trkpt>
      <trkpt lat="48.52379" lon="-3.34101">
        <ele>186</ele>
        <time>2013-03-10T14:48:48Z</time>
      </trkpt>
      <trkpt lat="48.52376" lon="-3.34101">
        <ele>186</ele>
        <time>2013-03-10T14:48:51Z</time>
      </trkpt>
      <trkpt lat="48.52374" lon="-3.34101">
        <ele>186</ele>
        <time>2013-03-10T14:48:54Z</time>
      </trkpt>
      <trkpt lat="48.52372" lon="-3.34101">
        <ele>186</ele>
        <time>2013-03-10T14:48:56Z</time>
      </trkpt>
      <trkpt lat="48.5237" lon="-3.341">
        <ele>187</ele>
        <time>2013-03-10T14:48:59Z</time>
      </trkpt>
      <trkpt lat="48.52367" lon="-3.34101">
        <ele>187</ele>
        <time>2013-03-10T14:49:02Z</time>
      </trkpt>
      <trkpt lat="48.52365" lon="-3.341">
        <ele>187</ele>
        <time>2013-03-10T14:49:04Z</time>
      </trkpt>
      <trkpt lat="48.52362" lon="-3.34099">
        <ele>187</ele>
        <time>2013-03-10T14:49:07Z</time>
      </trkpt>
      <trkpt lat="48.52359" lon="-3.34098">
        <ele>187</ele>
        <time>2013-03-10T14:49:10Z</time>
      </trkpt>
      <trkpt lat="48.52355" lon="-3.34097">
        <ele>187</ele>
        <time>2013-03-10T14:49:13Z</time>
      </trkpt>
      <trkpt lat="48.52353" lon="-3.34096">
        <ele>187</ele>
        <time>2013-03-10T14:49:15Z</time>
      </trkpt>
      <trkpt lat="48.52351" lon="-3.34094">
        <ele>187</ele>
        <time>2013-03-10T14:49:18Z</time>
      </trkpt>
      <trkpt lat="48.52349" lon="-3.34094">
        <ele>187</ele>
        <time>2013-03-10T14:49:20Z</time>
      </trkpt>
      <trkpt lat="48.52347" lon="-3.34094">
        <ele>187</ele>
        <time>2013-03-10T14:49:22Z</time>
      </trkpt>
      <trkpt lat="48.52346" lon="-3.34093">
        <ele>188</ele>
        <time>2013-03-10T14:49:24Z</time>
      </trkpt>
      <trkpt lat="48.52343" lon="-3.34092">
        <ele>187</ele>
        <time>2013-03-10T14:49:27Z</time>
      </trkpt>
      <trkpt lat="48.52341" lon="-3.34092">
        <ele>187</ele>
        <time>2013-03-10T14:49:29Z</time>
      </trkpt>
      <trkpt lat="48.52338" lon="-3.3409">
        <ele>187</ele>
        <time>2013-03-10T14:49:32Z</time>
      </trkpt>
      <trkpt lat="48.52336" lon="-3.34089">
        <ele>187</ele>
        <time>2013-03-10T14:49:34Z</time>
      </trkpt>
      <trkpt lat="48.52334" lon="-3.34088">
        <ele>188</ele>
        <time>2013-03-10T14:49:36Z</time>
      </trkpt>
      <trkpt lat="48.52331" lon="-3.34088">
        <ele>188</ele>
        <time>2013-03-10T14:49:39Z</time>
      </trkpt>
      <trkpt lat="48.52328" lon="-3.34087">
        <ele>188</ele>
        <time>2013-03-10T14:49:42Z</time>
      </trkpt>
      <trkpt lat="48.52326" lon="-3.34086">
        <ele>188</ele>
        <time>2013-03-10T14:49:45Z</time>
      </trkpt>
      <trkpt lat="48.52323" lon="-3.34085">
        <ele>187</ele>
        <time>2013-03-10T14:49:48Z</time>
      </trkpt>
      <trkpt lat="48.5232" lon="-3.34084">
        <ele>188</ele>
        <time>2013-03-10T14:49:51Z</time>
      </trkpt>
      <trkpt lat="48.52318" lon="-3.34084">
        <ele>188</ele>
        <time>2013-03-10T14:49:53Z</time>
      </trkpt>
      <trkpt lat="48.52316" lon="-3.34083">
        <ele>188</ele>
        <time>2013-03-10T14:49:56Z</time>
      </trkpt>
      <trkpt lat="48.52314" lon="-3.34082">
        <ele>188</ele>
        <time>2013-03-10T14:49:58Z</time>
      </trkpt>
      <trkpt lat="48.52312" lon="-3.34082">
        <ele>188</ele>
        <time>2013-03-10T14:50:00Z</time>
      </trkpt>
      <trkpt lat="48.52309" lon="-3.34081">
        <ele>188</ele>
        <time>2013-03-10T14:50:03Z</time>
      </trkpt>
      <trkpt lat="48.52307" lon="-3.3408">
        <ele>188</ele>
        <time>2013-03-10T14:50:06Z</time>
      </trkpt>
      <trkpt lat="48.52305" lon="-3.34079">
        <ele>188</ele>
        <time>2013-03-10T14:50:08Z</time>
      </trkpt>
      <trkpt lat="48.52303" lon="-3.34079">
        <ele>188</ele>
        <time>2013-03-10T14:50:10Z</time>
      </trkpt>
      <trkpt lat="48.52301" lon="-3.34078">
        <ele>188</ele>
        <time>2013-03-10T14:50:13Z</time>
      </trkpt>
      <trkpt lat="48.52298" lon="-3.34078">
        <ele>188</ele>
        <time>2013-03-10T14:50:16Z</time>
      </trkpt>
      <trkpt lat="48.52295" lon="-3.34077">
        <ele>188</ele>
        <time>2013-03-10T14:50:19Z</time>
      </trkpt>
      <trkpt lat="48.52292" lon="-3.34076">
        <ele>188</ele>
        <time>2013-03-10T14:50:22Z</time>
      </trkpt>
      <trkpt lat="48.5229" lon="-3.34075">
        <ele>188</ele>
        <time>2013-03-10T14:50:24Z</time>
      </trkpt>
      <trkpt lat="48.52287" lon="-3.34074">
        <ele>188</ele>
        <time>2013-03-10T14:50:27Z</time>
      </trkpt>
      <trkpt lat="48.52284" lon="-3.34074">
        <ele>187</ele>
        <time>2013-03-10T14:50:30Z</time>
      </trkpt>
      <trkpt lat="48.52281" lon="-3.34073">
        <ele>188</ele>
        <time>2013-03-10T14:50:33Z</time>
      </trkpt>
      <trkpt lat="48.52279" lon="-3.34072">
        <ele>188</ele>
        <time>2013-03-10T14:50:35Z</time>
      </trkpt>
      <trkpt lat="48.52277" lon="-3.34072">
        <ele>188</ele>
        <time>2013-03-10T14:50:37Z</time>
      </trkpt>
      <trkpt lat="48.52274" lon="-3.34071">
        <ele>188</ele>
        <time>2013-03-10T14:50:40Z</time>
      </trkpt>
      <trkpt lat="48.52271" lon="-3.34071">
        <ele>188</ele>
        <time>2013-03-10T14:50:43Z</time>
      </trkpt>
      <trkpt lat="48.52269" lon="-3.3407">
        <ele>188</ele>
        <time>2013-03-10T14:50:45Z</time>
      </trkpt>
      <trkpt lat="48.52267" lon="-3.3407">
        <ele>188</ele>
        <time>2013-03-10T14:50:47Z</time>
      </trkpt>
      <trkpt lat="48.52264" lon="-3.34069">
        <ele>188</ele>
        <time>2013-03-10T14:50:50Z</time>
      </trkpt>
      <trkpt lat="48.52261" lon="-3.34068">
        <ele>188</ele>
        <time>2013-03-10T14:50:53Z</time>
      </trkpt>
      <trkpt lat="48.52258" lon="-3.34067">
        <ele>188</ele>
        <time>2013-03-10T14:50:56Z</time>
      </trkpt>
      <trkpt lat="48.52255" lon="-3.34067">
        <ele>188</ele>
        <time>2013-03-10T14:50:59Z</time>
      </trkpt>
      <trkpt lat="48.52253" lon="-3.34067">
        <ele>188</ele>
        <time>2013-03-10T14:51:01Z</time>
      </trkpt>
      <trkpt lat="48.5225" lon="-3.34067">
        <ele>188</ele>
        <time>2013-03-10T14:51:04Z</time>
      </trkpt>
      <trkpt lat="48.52248" lon="-3.34066">
        <ele>188</ele>
        <time>2013-03-10T14:51:06Z</time>
      </trkpt>
      <trkpt lat="48.52245" lon="-3.34065">
        <ele>188</ele>
        <time>2013-03-10T14:51:09Z</time>
      </trkpt>
      <trkpt lat="48.52242" lon="-3.34064">
        <ele>189</ele>
        <time>2013-03-10T14:51:12Z</time>
      </trkpt>
      <trkpt lat="48.5224" lon="-3.34063">
        <ele>189</ele>
        <time>2013-03-10T14:51:14Z</time>
      </trkpt>
      <trkpt lat="48.52237" lon="-3.34062">
        <ele>189</ele>
        <time>2013-03-10T14:51:17Z</time>
      </trkpt>
      <trkpt lat="48.52235" lon="-3.34062">
        <ele>189</ele>
        <time>2013-03-10T14:51:19Z</time>
      </trkpt>
      <trkpt lat="48.52232" lon="-3.34061">
        <ele>189</ele>
        <time>2013-03-10T14:51:22Z</time>
      </trkpt>
      <trkpt lat="48.5223" lon="-3.34061">
        <ele>189</ele>
        <time>2013-03-10T14:51:24Z</time>
      </trkpt>
      <trkpt lat="48.52229" lon="-3.3406">
        <ele>189</ele>
        <time>2013-03-10T14:51:26Z</time>
      </trkpt>
      <trkpt lat="48.52227" lon="-3.3406">
        <ele>189</ele>
        <time>2013-03-10T14:51:29Z</time>
      </trkpt>
      <trkpt lat="48.52225" lon="-3.3406">
        <ele>189</ele>
        <time>2013-03-10T14:51:31Z</time>
      </trkpt>
      <trkpt lat="48.52222" lon="-3.34058">
        <ele>189</ele>
        <time>2013-03-10T14:51:34Z</time>
      </trkpt>
      <trkpt lat="48.5222" lon="-3.34057">
        <ele>189</ele>
        <time>2013-03-10T14:51:36Z</time>
      </trkpt>
      <trkpt lat="48.52217" lon="-3.34056">
        <ele>189</ele>
        <time>2013-03-10T14:51:39Z</time>
      </trkpt>
      <trkpt lat="48.52215" lon="-3.34056">
        <ele>189</ele>
        <time>2013-03-10T14:51:42Z</time>
      </trkpt>
      <trkpt lat="48.52212" lon="-3.34055">
        <ele>189</ele>
        <time>2013-03-10T14:51:45Z</time>
      </trkpt>
      <trkpt lat="48.52211" lon="-3.34055">
        <ele>189</ele>
        <time>2013-03-10T14:51:47Z</time>
      </trkpt>
      <trkpt lat="48.52209" lon="-3.34055">
        <ele>189</ele>
        <time>2013-03-10T14:51:49Z</time>
      </trkpt>
      <trkpt lat="48.52207" lon="-3.34055">
        <ele>189</ele>
        <time>2013-03-10T14:51:52Z</time>
      </trkpt>
      <trkpt lat="48.52204" lon="-3.34053">
        <ele>189</ele>
        <time>2013-03-10T14:51:55Z</time>
      </trkpt>
      <trkpt lat="48.52201" lon="-3.34051">
        <ele>189</ele>
        <time>2013-03-10T14:51:58Z</time>
      </trkpt>
      <trkpt lat="48.52199" lon="-3.3405">
        <ele>189</ele>
        <time>2013-03-10T14:52:00Z</time>
      </trkpt>
      <trkpt lat="48.52196" lon="-3.34049">
        <ele>189</ele>
        <time>2013-03-10T14:52:03Z</time>
      </trkpt>
      <trkpt lat="48.52193" lon="-3.34048">
        <ele>190</ele>
        <time>2013-03-10T14:52:06Z</time>
      </trkpt>
      <trkpt lat="48.5219" lon="-3.34047">
        <ele>190</ele>
        <time>2013-03-10T14:52:09Z</time>
      </trkpt>
      <trkpt lat="48.52188" lon="-3.34047">
        <ele>189</ele>
        <time>2013-03-10T14:52:11Z</time>
      </trkpt>
      <trkpt lat="48.52185" lon="-3.34047">
        <ele>189</ele>
        <time>2013-03-10T14:52:14Z</time>
      </trkpt>
      <trkpt lat="48.52183" lon="-3.34047">
        <ele>189</ele>
        <time>2013-03-10T14:52:16Z</time>
      </trkpt>
      <trkpt lat="48.52181" lon="-3.34047">
        <ele>189</ele>
        <time>2013-03-10T14:52:18Z</time>
      </trkpt>
      <trkpt lat="48.52179" lon="-3.34046">
        <ele>189</ele>
        <time>2013-03-10T14:52:21Z</time>
      </trkpt>
      <trkpt lat="48.52177" lon="-3.34046">
        <ele>189</ele>
        <time>2013-03-10T14:52:23Z</time>
      </trkpt>
      <trkpt lat="48.52176" lon="-3.34045">
        <ele>189</ele>
        <time>2013-03-10T14:52:25Z</time>
      </trkpt>
      <trkpt lat="48.52173" lon="-3.34044">
        <ele>189</ele>
        <time>2013-03-10T14:52:28Z</time>
      </trkpt>
      <trkpt lat="48.52171" lon="-3.34043">
        <ele>189</ele>
        <time>2013-03-10T14:52:30Z</time>
      </trkpt>
      <trkpt lat="48.52168" lon="-3.34043">
        <ele>189</ele>
        <time>2013-03-10T14:52:33Z</time>
      </trkpt>
      <trkpt lat="48.52166" lon="-3.34042">
        <ele>189</ele>
        <time>2013-03-10T14:52:35Z</time>
      </trkpt>
      <trkpt lat="48.52163" lon="-3.3404">
        <ele>189</ele>
        <time>2013-03-10T14:52:38Z</time>
      </trkpt>
      <trkpt lat="48.52162" lon="-3.34039">
        <ele>189</ele>
        <time>2013-03-10T14:52:40Z</time>
      </trkpt>
      <trkpt lat="48.5216" lon="-3.34038">
        <ele>189</ele>
        <time>2013-03-10T14:52:42Z</time>
      </trkpt>
      <trkpt lat="48.52157" lon="-3.34038">
        <ele>189</ele>
        <time>2013-03-10T14:52:45Z</time>
      </trkpt>
      <trkpt lat="48.52154" lon="-3.34037">
        <ele>189</ele>
        <time>2013-03-10T14:52:48Z</time>
      </trkpt>
      <trkpt lat="48.52151" lon="-3.34036">
        <ele>189</ele>
        <time>2013-03-10T14:52:51Z</time>
      </trkpt>
      <trkpt lat="48.52149" lon="-3.34035">
        <ele>189</ele>
        <time>2013-03-10T14:52:54Z</time>
      </trkpt>
      <trkpt lat="48.52146" lon="-3.34034">
        <ele>190</ele>
        <time>2013-03-10T14:52:57Z</time>
      </trkpt>
      <trkpt lat="48.52144" lon="-3.34034">
        <ele>190</ele>
        <time>2013-03-10T14:52:59Z</time>
      </trkpt>
      <trkpt lat="48.52142" lon="-3.34034">
        <ele>190</ele>
        <time>2013-03-10T14:53:01Z</time>
      </trkpt>
      <trkpt lat="48.52139" lon="-3.34033">
        <ele>190</ele>
        <time>2013-03-10T14:53:04Z</time>
      </trkpt>
      <trkpt lat="48.52138" lon="-3.34033">
        <ele>190</ele>
        <time>2013-03-10T14:53:06Z</time>
      </trkpt>
      <trkpt lat="48.52135" lon="-3.34033">
        <ele>190</ele>
        <time>2013-03-10T14:53:09Z</time>
      </trkpt>
      <trkpt lat="48.52133" lon="-3.34032">
        <ele>190</ele>
        <time>2013-03-10T14:53:11Z</time>
      </trkpt>
      <trkpt lat="48.52131" lon="-3.34032">
        <ele>190</ele>
        <time>2013-03-10T14:53:13Z</time>
      </trkpt>
      <trkpt lat="48.52129" lon="-3.34032">
        <ele>190</ele>
        <time>2013-03-10T14:53:15Z</time>
      </trkpt>
      <trkpt lat="48.52127" lon="-3.34031">
        <ele>190</ele>
        <time>2013-03-10T14:53:17Z</time>
      </trkpt>
      <trkpt lat="48.52124" lon="-3.3403">
        <ele>190</ele>
        <time>2013-03-10T14:53:20Z</time>
      </trkpt>
      <trkpt lat="48.52122" lon="-3.34029">
        <ele>190</ele>
        <time>2013-03-10T14:53:22Z</time>
      </trkpt>
      <trkpt lat="48.52119" lon="-3.3403">
        <ele>190</ele>
        <time>2013-03-10T14:53:25Z</time>
      </trkpt>
      <trkpt lat="48.52115" lon="-3.34032">
        <ele>189</ele>
        <time>2013-03-10T14:53:28Z</time>
      </trkpt>
      <trkpt lat="48.52113" lon="-3.34034">
        <ele>189</ele>
        <time>2013-03-10T14:53:30Z</time>
      </trkpt>
      <trkpt lat="48.52112" lon="-3.34037">
        <ele>189</ele>
        <time>2013-03-10T14:53:32Z</time>
      </trkpt>
      <trkpt lat="48.52111" lon="-3.34042">
        <ele>189</ele>
        <time>2013-03-10T14:53:35Z</time>
      </trkpt>
      <trkpt lat="48.5211" lon="-3.34045">
        <ele>189</ele>
        <time>2013-03-10T14:53:37Z</time>
      </trkpt>
      <trkpt lat="48.52109" lon="-3.3405">
        <ele>189</ele>
        <time>2013-03-10T14:53:40Z</time>
      </trkpt>
      <trkpt lat="48.52109" lon="-3.34055">
        <ele>189</ele>
        <time>2013-03-10T14:53:43Z</time>
      </trkpt>
      <trkpt lat="48.52108" lon="-3.34059">
        <ele>189</ele>
        <time>2013-03-10T14:53:45Z</time>
      </trkpt>
      <trkpt lat="48.52106" lon="-3.34063">
        <ele>189</ele>
        <time>2013-03-10T14:53:48Z</time>
      </trkpt>
      <trkpt lat="48.52106" lon="-3.34065">
        <ele>189</ele>
        <time>2013-03-10T14:53:50Z</time>
      </trkpt>
      <trkpt lat="48.52105" lon="-3.34067">
        <ele>189</ele>
        <time>2013-03-10T14:53:52Z</time>
      </trkpt>
      <trkpt lat="48.52105" lon="-3.34072">
        <ele>189</ele>
        <time>2013-03-10T14:53:55Z</time>
      </trkpt>
      <trkpt lat="48.52104" lon="-3.34076">
        <ele>188</ele>
        <time>2013-03-10T14:53:57Z</time>
      </trkpt>
      <trkpt lat="48.52103" lon="-3.3408">
        <ele>188</ele>
        <time>2013-03-10T14:53:59Z</time>
      </trkpt>
      <trkpt lat="48.52103" lon="-3.34086">
        <ele>188</ele>
        <time>2013-03-10T14:54:02Z</time>
      </trkpt>
      <trkpt lat="48.52102" lon="-3.3409">
        <ele>188</ele>
        <time>2013-03-10T14:54:04Z</time>
      </trkpt>
      <trkpt lat="48.52101" lon="-3.34095">
        <ele>188</ele>
        <time>2013-03-10T14:54:07Z</time>
      </trkpt>
      <trkpt lat="48.52101" lon="-3.34101">
        <ele>188</ele>
        <time>2013-03-10T14:54:10Z</time>
      </trkpt>
      <trkpt lat="48.521" lon="-3.34105">
        <ele>188</ele>
        <time>2013-03-10T14:54:12Z</time>
      </trkpt>
      <trkpt lat="48.521" lon="-3.34109">
        <ele>188</ele>
        <time>2013-03-10T14:54:14Z</time>
      </trkpt>
      <trkpt lat="48.521" lon="-3.34115">
        <ele>188</ele>
        <time>2013-03-10T14:54:17Z</time>
      </trkpt>
      <trkpt lat="48.52099" lon="-3.34119">
        <ele>188</ele>
        <time>2013-03-10T14:54:19Z</time>
      </trkpt>
      <trkpt lat="48.52098" lon="-3.34123">
        <ele>187</ele>
        <time>2013-03-10T14:54:21Z</time>
      </trkpt>
      <trkpt lat="48.52098" lon="-3.34127">
        <ele>187</ele>
        <time>2013-03-10T14:54:23Z</time>
      </trkpt>
      <trkpt lat="48.52097" lon="-3.34131">
        <ele>187</ele>
        <time>2013-03-10T14:54:25Z</time>
      </trkpt>
      <trkpt lat="48.52097" lon="-3.34135">
        <ele>187</ele>
        <time>2013-03-10T14:54:27Z</time>
      </trkpt>
      <trkpt lat="48.52096" lon="-3.34141">
        <ele>187</ele>
        <time>2013-03-10T14:54:30Z</time>
      </trkpt>
      <trkpt lat="48.52096" lon="-3.34144">
        <ele>187</ele>
        <time>2013-03-10T14:54:32Z</time>
      </trkpt>
      <trkpt lat="48.52095" lon="-3.3415">
        <ele>186</ele>
        <time>2013-03-10T14:54:35Z</time>
      </trkpt>
      <trkpt lat="48.52094" lon="-3.34153">
        <ele>186</ele>
        <time>2013-03-10T14:54:37Z</time>
      </trkpt>
      <trkpt lat="48.52093" lon="-3.34159">
        <ele>186</ele>
        <time>2013-03-10T14:54:40Z</time>
      </trkpt>
      <trkpt lat="48.52092" lon="-3.34162">
        <ele>186</ele>
        <time>2013-03-10T14:54:42Z</time>
      </trkpt>
      <trkpt lat="48.52092" lon="-3.34167">
        <ele>186</ele>
        <time>2013-03-10T14:54:45Z</time>
      </trkpt>
      <trkpt lat="48.52091" lon="-3.3417">
        <ele>186</ele>
        <time>2013-03-10T14:54:47Z</time>
      </trkpt>
      <trkpt lat="48.5209" lon="-3.34175">
        <ele>186</ele>
        <time>2013-03-10T14:54:50Z</time>
      </trkpt>
      <trkpt lat="48.5209" lon="-3.3418">
        <ele>185</ele>
        <time>2013-03-10T14:54:53Z</time>
      </trkpt>
      <trkpt lat="48.5209" lon="-3.34183">
        <ele>185</ele>
        <time>2013-03-10T14:54:55Z</time>
      </trkpt>
      <trkpt lat="48.52089" lon="-3.34189">
        <ele>185</ele>
        <time>2013-03-10T14:54:58Z</time>
      </trkpt>
      <trkpt lat="48.52089" lon="-3.34193">
        <ele>185</ele>
        <time>2013-03-10T14:55:00Z</time>
      </trkpt>
      <trkpt lat="48.52089" lon="-3.34196">
        <ele>185</ele>
        <time>2013-03-10T14:55:02Z</time>
      </trkpt>
      <trkpt lat="48.52089" lon="-3.34202">
        <ele>185</ele>
        <time>2013-03-10T14:55:05Z</time>
      </trkpt>
      <trkpt lat="48.52088" lon="-3.34206">
        <ele>186</ele>
        <time>2013-03-10T14:55:07Z</time>
      </trkpt>
      <trkpt lat="48.52087" lon="-3.34212">
        <ele>186</ele>
        <time>2013-03-10T14:55:10Z</time>
      </trkpt>
      <trkpt lat="48.52087" lon="-3.34218">
        <ele>185</ele>
        <time>2013-03-10T14:55:13Z</time>
      </trkpt>
      <trkpt lat="48.52087" lon="-3.34223">
        <ele>185</ele>
        <time>2013-03-10T14:55:16Z</time>
      </trkpt>
      <trkpt lat="48.52086" lon="-3.34229">
        <ele>185</ele>
        <time>2013-03-10T14:55:19Z</time>
      </trkpt>
      <trkpt lat="48.52085" lon="-3.34234">
        <ele>185</ele>
        <time>2013-03-10T14:55:22Z</time>
      </trkpt>
      <trkpt lat="48.52085" lon="-3.34238">
        <ele>185</ele>
        <time>2013-03-10T14:55:24Z</time>
      </trkpt>
      <trkpt lat="48.52085" lon="-3.34242">
        <ele>185</ele>
        <time>2013-03-10T14:55:26Z</time>
      </trkpt>
      <trkpt lat="48.52085" lon="-3.34246">
        <ele>184</ele>
        <time>2013-03-10T14:55:28Z</time>
      </trkpt>
      <trkpt lat="48.52084" lon="-3.34252">
        <ele>184</ele>
        <time>2013-03-10T14:55:31Z</time>
      </trkpt>
      <trkpt lat="48.52083" lon="-3.34257">
        <ele>184</ele>
        <time>2013-03-10T14:55:34Z</time>
      </trkpt>
      <trkpt lat="48.52082" lon="-3.34262">
        <ele>184</ele>
        <time>2013-03-10T14:55:37Z</time>
      </trkpt>
      <trkpt lat="48.52082" lon="-3.34267">
        <ele>183</ele>
        <time>2013-03-10T14:55:40Z</time>
      </trkpt>
      <trkpt lat="48.52082" lon="-3.34271">
        <ele>183</ele>
        <time>2013-03-10T14:55:42Z</time>
      </trkpt>
      <trkpt lat="48.52081" lon="-3.34276">
        <ele>183</ele>
        <time>2013-03-10T14:55:45Z</time>
      </trkpt>
      <trkpt lat="48.52081" lon="-3.34279">
        <ele>183</ele>
        <time>2013-03-10T14:55:47Z</time>
      </trkpt>
      <trkpt lat="48.5208" lon="-3.34284">
        <ele>183</ele>
        <time>2013-03-10T14:55:50Z</time>
      </trkpt>
      <trkpt lat="48.52079" lon="-3.34288">
        <ele>182</ele>
        <time>2013-03-10T14:55:52Z</time>
      </trkpt>
      <trkpt lat="48.52078" lon="-3.34293">
        <ele>182</ele>
        <time>2013-03-10T14:55:55Z</time>
      </trkpt>
      <trkpt lat="48.52078" lon="-3.34298">
        <ele>183</ele>
        <time>2013-03-10T14:55:58Z</time>
      </trkpt>
      <trkpt lat="48.52078" lon="-3.34301">
        <ele>183</ele>
        <time>2013-03-10T14:56:00Z</time>
      </trkpt>
      <trkpt lat="48.52077" lon="-3.34307">
        <ele>182</ele>
        <time>2013-03-10T14:56:03Z</time>
      </trkpt>
      <trkpt lat="48.52077" lon="-3.3431">
        <ele>182</ele>
        <time>2013-03-10T14:56:05Z</time>
      </trkpt>
      <trkpt lat="48.52076" lon="-3.34315">
        <ele>182</ele>
        <time>2013-03-10T14:56:08Z</time>
      </trkpt>
      <trkpt lat="48.52076" lon="-3.3432">
        <ele>182</ele>
        <time>2013-03-10T14:56:11Z</time>
      </trkpt>
      <trkpt lat="48.52075" lon="-3.34324">
        <ele>182</ele>
        <time>2013-03-10T14:56:13Z</time>
      </trkpt>
      <trkpt lat="48.52074" lon="-3.34328">
        <ele>182</ele>
        <time>2013-03-10T14:56:16Z</time>
      </trkpt>
      <trkpt lat="48.52074" lon="-3.34334">
        <ele>181</ele>
        <time>2013-03-10T14:56:19Z</time>
      </trkpt>
      <trkpt lat="48.52074" lon="-3.34339">
        <ele>181</ele>
        <time>2013-03-10T14:56:22Z</time>
      </trkpt>
      <trkpt lat="48.52073" lon="-3.34343">
        <ele>181</ele>
        <time>2013-03-10T14:56:24Z</time>
      </trkpt>
      <trkpt lat="48.52072" lon="-3.34349">
        <ele>181</ele>
        <time>2013-03-10T14:56:27Z</time>
      </trkpt>
      <trkpt lat="48.52072" lon="-3.34351">
        <ele>181</ele>
        <time>2013-03-10T14:56:29Z</time>
      </trkpt>
      <trkpt lat="48.52071" lon="-3.34357">
        <ele>181</ele>
        <time>2013-03-10T14:56:32Z</time>
      </trkpt>
      <trkpt lat="48.5207" lon="-3.3436">
        <ele>181</ele>
        <time>2013-03-10T14:56:34Z</time>
      </trkpt>
      <trkpt lat="48.52069" lon="-3.34365">
        <ele>180</ele>
        <time>2013-03-10T14:56:37Z</time>
      </trkpt>
      <trkpt lat="48.52069" lon="-3.34369">
        <ele>180</ele>
        <time>2013-03-10T14:56:39Z</time>
      </trkpt>
      <trkpt lat="48.52068" lon="-3.34374">
        <ele>181</ele>
        <time>2013-03-10T14:56:42Z</time>
      </trkpt>
      <trkpt lat="48.52067" lon="-3.3438">
        <ele>181</ele>
        <time>2013-03-10T14:56:45Z</time>
      </trkpt>
      <trkpt lat="48.52067" lon="-3.34383">
        <ele>180</ele>
        <time>2013-03-10T14:56:47Z</time>
      </trkpt>
      <trkpt lat="48.52066" lon="-3.34388">
        <ele>180</ele>
        <time>2013-03-10T14:56:50Z</time>
      </trkpt>
      <trkpt lat="48.52066" lon="-3.34392">
        <ele>180</ele>
        <time>2013-03-10T14:56:52Z</time>
      </trkpt>
      <trkpt lat="48.52066" lon="-3.34396">
        <ele>180</ele>
        <time>2013-03-10T14:56:55Z</time>
      </trkpt>
      <trkpt lat="48.52065" lon="-3.344">
        <ele>179</ele>
        <time>2013-03-10T14:56:57Z</time>
      </trkpt>
      <trkpt lat="48.52065" lon="-3.34403">
        <ele>179</ele>
        <time>2013-03-10T14:56:59Z</time>
      </trkpt>
      <trkpt lat="48.52064" lon="-3.34409">
        <ele>179</ele>
        <time>2013-03-10T14:57:02Z</time>
      </trkpt>
      <trkpt lat="48.52063" lon="-3.34414">
        <ele>179</ele>
        <time>2013-03-10T14:57:05Z</time>
      </trkpt>
      <trkpt lat="48.52063" lon="-3.34419">
        <ele>178</ele>
        <time>2013-03-10T14:57:08Z</time>
      </trkpt>
      <trkpt lat="48.52062" lon="-3.34422">
        <ele>178</ele>
        <time>2013-03-10T14:57:10Z</time>
      </trkpt>
      <trkpt lat="48.52061" lon="-3.34425">
        <ele>178</ele>
        <time>2013-03-10T14:57:12Z</time>
      </trkpt>
      <trkpt lat="48.5206" lon="-3.3443">
        <ele>178</ele>
        <time>2013-03-10T14:57:15Z</time>
      </trkpt>
      <trkpt lat="48.52059" lon="-3.34434">
        <ele>177</ele>
        <time>2013-03-10T14:57:17Z</time>
      </trkpt>
      <trkpt lat="48.52058" lon="-3.34438">
        <ele>178</ele>
        <time>2013-03-10T14:57:20Z</time>
      </trkpt>
      <trkpt lat="48.52058" lon="-3.34442">
        <ele>177</ele>
        <time>2013-03-10T14:57:22Z</time>
      </trkpt>
      <trkpt lat="48.52058" lon="-3.34448">
        <ele>177</ele>
        <time>2013-03-10T14:57:25Z</time>
      </trkpt>
      <trkpt lat="48.52057" lon="-3.34452">
        <ele>177</ele>
        <time>2013-03-10T14:57:27Z</time>
      </trkpt>
      <trkpt lat="48.52057" lon="-3.34457">
        <ele>177</ele>
        <time>2013-03-10T14:57:30Z</time>
      </trkpt>
      <trkpt lat="48.52056" lon="-3.34461">
        <ele>176</ele>
        <time>2013-03-10T14:57:32Z</time>
      </trkpt>
      <trkpt lat="48.52055" lon="-3.34467">
        <ele>177</ele>
        <time>2013-03-10T14:57:35Z</time>
      </trkpt>
      <trkpt lat="48.52055" lon="-3.34471">
        <ele>177</ele>
        <time>2013-03-10T14:57:37Z</time>
      </trkpt>
      <trkpt lat="48.52054" lon="-3.34474">
        <ele>177</ele>
        <time>2013-03-10T14:57:39Z</time>
      </trkpt>
      <trkpt lat="48.52054" lon="-3.34477">
        <ele>176</ele>
        <time>2013-03-10T14:57:41Z</time>
      </trkpt>
      <trkpt lat="48.52053" lon="-3.34482">
        <ele>176</ele>
        <time>2013-03-10T14:57:44Z</time>
      </trkpt>
      <trkpt lat="48.52053" lon="-3.34485">
        <ele>176</ele>
        <time>2013-03-10T14:57:46Z</time>
      </trkpt>
      <trkpt lat="48.52053" lon="-3.3449">
        <ele>175</ele>
        <time>2013-03-10T14:57:49Z</time>
      </trkpt>
      <trkpt lat="48.52052" lon="-3.34494">
        <ele>175</ele>
        <time>2013-03-10T14:57:51Z</time>
      </trkpt>
      <trkpt lat="48.52052" lon="-3.34498">
        <ele>175</ele>
        <time>2013-03-10T14:57:53Z</time>
      </trkpt>
      <trkpt lat="48.52052" lon="-3.34504">
        <ele>175</ele>
        <time>2013-03-10T14:57:56Z</time>
      </trkpt>
      <trkpt lat="48.52051" lon="-3.34509">
        <ele>175</ele>
        <time>2013-03-10T14:57:59Z</time>
      </trkpt>
      <trkpt lat="48.5205" lon="-3.34515">
        <ele>175</ele>
        <time>2013-03-10T14:58:02Z</time>
      </trkpt>
      <trkpt lat="48.52049" lon="-3.34519">
        <ele>175</ele>
        <time>2013-03-10T14:58:04Z</time>
      </trkpt>
      <trkpt lat="48.52049" lon="-3.34523">
        <ele>175</ele>
        <time>2013-03-10T14:58:06Z</time>
      </trkpt>
      <trkpt lat="48.52049" lon="-3.34528">
        <ele>175</ele>
        <time>2013-03-10T14:58:09Z</time>
      </trkpt>
      <trkpt lat="48.52049" lon="-3.34532">
        <ele>174</ele>
        <time>2013-03-10T14:58:11Z</time>
      </trkpt>
      <trkpt lat="48.52048" lon="-3.34539">
        <ele>174</ele>
        <time>2013-03-10T14:58:14Z</time>
      </trkpt>
      <trkpt lat="48.52048" lon="-3.34543">
        <ele>174</ele>
        <time>2013-03-10T14:58:16Z</time>
      </trkpt>
      <trkpt lat="48.52047" lon="-3.34547">
        <ele>174</ele>
        <time>2013-03-10T14:58:18Z</time>
      </trkpt>
      <trkpt lat="48.52046" lon="-3.34554">
        <ele>174</ele>
        <time>2013-03-10T14:58:21Z</time>
      </trkpt>
      <trkpt lat="48.52045" lon="-3.3456">
        <ele>173</ele>
        <time>2013-03-10T14:58:24Z</time>
      </trkpt>
      <trkpt lat="48.52045" lon="-3.34566">
        <ele>173</ele>
        <time>2013-03-10T14:58:27Z</time>
      </trkpt>
      <trkpt lat="48.52044" lon="-3.3457">
        <ele>173</ele>
        <time>2013-03-10T14:58:29Z</time>
      </trkpt>
      <trkpt lat="48.52043" lon="-3.34576">
        <ele>172</ele>
        <time>2013-03-10T14:58:32Z</time>
      </trkpt>
      <trkpt lat="48.52043" lon="-3.34582">
        <ele>172</ele>
        <time>2013-03-10T14:58:35Z</time>
      </trkpt>
      <trkpt lat="48.52042" lon="-3.34585">
        <ele>172</ele>
        <time>2013-03-10T14:58:37Z</time>
      </trkpt>
      <trkpt lat="48.52042" lon="-3.34591">
        <ele>172</ele>
        <time>2013-03-10T14:58:40Z</time>
      </trkpt>
      <trkpt lat="48.52042" lon="-3.34594">
        <ele>172</ele>
        <time>2013-03-10T14:58:42Z</time>
      </trkpt>
      <trkpt lat="48.52041" lon="-3.34598">
        <ele>172</ele>
        <time>2013-03-10T14:58:45Z</time>
      </trkpt>
      <trkpt lat="48.5204" lon="-3.34602">
        <ele>172</ele>
        <time>2013-03-10T14:58:47Z</time>
      </trkpt>
      <trkpt lat="48.52039" lon="-3.34607">
        <ele>171</ele>
        <time>2013-03-10T14:58:50Z</time>
      </trkpt>
      <trkpt lat="48.52039" lon="-3.34612">
        <ele>171</ele>
        <time>2013-03-10T14:58:53Z</time>
      </trkpt>
      <trkpt lat="48.52038" lon="-3.34615">
        <ele>171</ele>
        <time>2013-03-10T14:58:55Z</time>
      </trkpt>
      <trkpt lat="48.52037" lon="-3.34621">
        <ele>170</ele>
        <time>2013-03-10T14:58:58Z</time>
      </trkpt>
      <trkpt lat="48.52036" lon="-3.34625">
        <ele>170</ele>
        <time>2013-03-10T14:59:00Z</time>
      </trkpt>
      <trkpt lat="48.52036" lon="-3.34631">
        <ele>170</ele>
        <time>2013-03-10T14:59:03Z</time>
      </trkpt>
      <trkpt lat="48.52035" lon="-3.34634">
        <ele>170</ele>
        <time>2013-03-10T14:59:05Z</time>
      </trkpt>
      <trkpt lat="48.52035" lon="-3.34638">
        <ele>169</ele>
        <time>2013-03-10T14:59:07Z</time>
      </trkpt>
      <trkpt lat="48.52035" lon="-3.34642">
        <ele>169</ele>
        <time>2013-03-10T14:59:09Z</time>
      </trkpt>
      <trkpt lat="48.52034" lon="-3.34648">
        <ele>169</ele>
        <time>2013-03-10T14:59:12Z</time>
      </trkpt>
      <trkpt lat="48.52034" lon="-3.34654">
        <ele>169</ele>
        <time>2013-03-10T14:59:15Z</time>
      </trkpt>
      <trkpt lat="48.52033" lon="-3.34658">
        <ele>169</ele>
        <time>2013-03-10T14:59:17Z</time>
      </trkpt>
      <trkpt lat="48.52033" lon="-3.34664">
        <ele>168</ele>
        <time>2013-03-10T14:59:20Z</time>
      </trkpt>
      <trkpt lat="48.52032" lon="-3.34668">
        <ele>168</ele>
        <time>2013-03-10T14:59:22Z</time>
      </trkpt>
      <trkpt lat="48.52032" lon="-3.34674">
        <ele>167</ele>
        <time>2013-03-10T14:59:25Z</time>
      </trkpt>
      <trkpt lat="48.52031" lon="-3.3468">
        <ele>166</ele>
        <time>2013-03-10T14:59:28Z</time>
      </trkpt>
      <trkpt lat="48.52031" lon="-3.34685">
        <ele>166</ele>
        <time>2013-03-10T14:59:31Z</time>
      </trkpt>
      <trkpt lat="48.5203" lon="-3.34692">
        <ele>165</ele>
        <time>2013-03-10T14:59:34Z</time>
      </trkpt>
      <trkpt lat="48.52029" lon="-3.34697">
        <ele>165</ele>
        <time>2013-03-10T14:59:37Z</time>
      </trkpt>
      <trkpt lat="48.52029" lon="-3.34701">
        <ele>165</ele>
        <time>2013-03-10T14:59:39Z</time>
      </trkpt>
      <trkpt lat="48.52029" lon="-3.34707">
        <ele>165</ele>
        <time>2013-03-10T14:59:42Z</time>
      </trkpt>
      <trkpt lat="48.52028" lon="-3.34711">
        <ele>165</ele>
        <time>2013-03-10T14:59:44Z</time>
      </trkpt>
      <trkpt lat="48.52027" lon="-3.34716">
        <ele>165</ele>
        <time>2013-03-10T14:59:47Z</time>
      </trkpt>
      <trkpt lat="48.52026" lon="-3.34722">
        <ele>165</ele>
        <time>2013-03-10T14:59:50Z</time>
      </trkpt>
      <trkpt lat="48.52026" lon="-3.34725">
        <ele>164</ele>
        <time>2013-03-10T14:59:52Z</time>
      </trkpt>
      <trkpt lat="48.52025" lon="-3.34731">
        <ele>163</ele>
        <time>2013-03-10T14:59:55Z</time>
      </trkpt>
      <trkpt lat="48.52024" lon="-3.34736">
        <ele>163</ele>
        <time>2013-03-10T14:59:58Z</time>
      </trkpt>
      <trkpt lat="48.52023" lon="-3.3474">
        <ele>162</ele>
        <time>2013-03-10T15:00:00Z</time>
      </trkpt>
      <trkpt lat="48.52022" lon="-3.34746">
        <ele>162</ele>
        <time>2013-03-10T15:00:03Z</time>
      </trkpt>
      <trkpt lat="48.52021" lon="-3.34749">
        <ele>161</ele>
        <time>2013-03-10T15:00:05Z</time>
      </trkpt>
      <trkpt lat="48.52021" lon="-3.34754">
        <ele>161</ele>
        <time>2013-03-10T15:00:08Z</time>
      </trkpt>
      <trkpt lat="48.5202" lon="-3.34759">
        <ele>160</ele>
        <time>2013-03-10T15:00:11Z</time>
      </trkpt>
      <trkpt lat="48.52019" lon="-3.34763">
        <ele>160</ele>
        <time>2013-03-10T15:00:13Z</time>
      </trkpt>
      <trkpt lat="48.52018" lon="-3.34767">
        <ele>159</ele>
        <time>2013-03-10T15:00:16Z</time>
      </trkpt>
      <trkpt lat="48.52018" lon="-3.34771">
        <ele>159</ele>
        <time>2013-03-10T15:00:19Z</time>
      </trkpt>
      <trkpt lat="48.52017" lon="-3.34774">
        <ele>158</ele>
        <time>2013-03-10T15:00:21Z</time>
      </trkpt>
      <trkpt lat="48.52017" lon="-3.34778">
        <ele>157</ele>
        <time>2013-03-10T15:00:24Z</time>
      </trkpt>
      <trkpt lat="48.52018" lon="-3.34781">
        <ele>157</ele>
        <time>2013-03-10T15:00:26Z</time>
      </trkpt>
      <trkpt lat="48.52018" lon="-3.34783">
        <ele>157</ele>
        <time>2013-03-10T15:00:28Z</time>
      </trkpt>
      <trkpt lat="48.52017" lon="-3.34787">
        <ele>156</ele>
        <time>2013-03-10T15:00:31Z</time>
      </trkpt>
      <trkpt lat="48.52016" lon="-3.34792">
        <ele>156</ele>
        <time>2013-03-10T15:00:34Z</time>
      </trkpt>
      <trkpt lat="48.52016" lon="-3.34796">
        <ele>155</ele>
        <time>2013-03-10T15:00:37Z</time>
      </trkpt>
      <trkpt lat="48.52016" lon="-3.348">
        <ele>155</ele>
        <time>2013-03-10T15:00:39Z</time>
      </trkpt>
      <trkpt lat="48.52015" lon="-3.34806">
        <ele>154</ele>
        <time>2013-03-10T15:00:42Z</time>
      </trkpt>
      <trkpt lat="48.52014" lon="-3.34813">
        <ele>153</ele>
        <time>2013-03-10T15:00:45Z</time>
      </trkpt>
      <trkpt lat="48.52013" lon="-3.34819">
        <ele>153</ele>
        <time>2013-03-10T15:00:48Z</time>
      </trkpt>
      <trkpt lat="48.52012" lon="-3.34822">
        <ele>152</ele>
        <time>2013-03-10T15:00:50Z</time>
      </trkpt>
      <trkpt lat="48.52011" lon="-3.34825">
        <ele>152</ele>
        <time>2013-03-10T15:00:52Z</time>
      </trkpt>
      <trkpt lat="48.5201" lon="-3.3483">
        <ele>152</ele>
        <time>2013-03-10T15:00:55Z</time>
      </trkpt>
      <trkpt lat="48.5201" lon="-3.34834">
        <ele>152</ele>
        <time>2013-03-10T15:00:57Z</time>
      </trkpt>
      <trkpt lat="48.52009" lon="-3.34839">
        <ele>151</ele>
        <time>2013-03-10T15:01:00Z</time>
      </trkpt>
      <trkpt lat="48.52008" lon="-3.34843">
        <ele>151</ele>
        <time>2013-03-10T15:01:03Z</time>
      </trkpt>
      <trkpt lat="48.52007" lon="-3.34846">
        <ele>151</ele>
        <time>2013-03-10T15:01:05Z</time>
      </trkpt>
      <trkpt lat="48.52006" lon="-3.34851">
        <ele>150</ele>
        <time>2013-03-10T15:01:08Z</time>
      </trkpt>
      <trkpt lat="48.52006" lon="-3.34856">
        <ele>150</ele>
        <time>2013-03-10T15:01:11Z</time>
      </trkpt>
      <trkpt lat="48.52005" lon="-3.3486">
        <ele>149</ele>
        <time>2013-03-10T15:01:14Z</time>
      </trkpt>
      <trkpt lat="48.52005" lon="-3.34863">
        <ele>149</ele>
        <time>2013-03-10T15:01:16Z</time>
      </trkpt>
      <trkpt lat="48.52003" lon="-3.34869">
        <ele>148</ele>
        <time>2013-03-10T15:01:19Z</time>
      </trkpt>
      <trkpt lat="48.52003" lon="-3.34872">
        <ele>148</ele>
        <time>2013-03-10T15:01:21Z</time>
      </trkpt>
      <trkpt lat="48.52002" lon="-3.34875">
        <ele>148</ele>
        <time>2013-03-10T15:01:23Z</time>
      </trkpt>
      <trkpt lat="48.52002" lon="-3.34878">
        <ele>148</ele>
        <time>2013-03-10T15:01:25Z</time>
      </trkpt>
      <trkpt lat="48.52001" lon="-3.34883">
        <ele>147</ele>
        <time>2013-03-10T15:01:28Z</time>
      </trkpt>
      <trkpt lat="48.52" lon="-3.34887">
        <ele>147</ele>
        <time>2013-03-10T15:01:31Z</time>
      </trkpt>
      <trkpt lat="48.52" lon="-3.3489">
        <ele>146</ele>
        <time>2013-03-10T15:01:34Z</time>
      </trkpt>
      <trkpt lat="48.52" lon="-3.34895">
        <ele>146</ele>
        <time>2013-03-10T15:01:37Z</time>
      </trkpt>
      <trkpt lat="48.52" lon="-3.34898">
        <ele>146</ele>
        <time>2013-03-10T15:01:39Z</time>
      </trkpt>
      <trkpt lat="48.51999" lon="-3.34901">
        <ele>145</ele>
        <time>2013-03-10T15:01:41Z</time>
      </trkpt>
      <trkpt lat="48.51999" lon="-3.34906">
        <ele>145</ele>
        <time>2013-03-10T15:01:44Z</time>
      </trkpt>
      <trkpt lat="48.51998" lon="-3.34911">
        <ele>144</ele>
        <time>2013-03-10T15:01:47Z</time>
      </trkpt>
      <trkpt lat="48.51998" lon="-3.34916">
        <ele>144</ele>
        <time>2013-03-10T15:01:49Z</time>
      </trkpt>
      <trkpt lat="48.51998" lon="-3.34922">
        <ele>144</ele>
        <time>2013-03-10T15:01:52Z</time>
      </trkpt>
      <trkpt lat="48.51997" lon="-3.34926">
        <ele>144</ele>
        <time>2013-03-10T15:01:54Z</time>
      </trkpt>
      <trkpt lat="48.51997" lon="-3.34931">
        <ele>143</ele>
        <time>2013-03-10T15:01:57Z</time>
      </trkpt>
      <trkpt lat="48.51996" lon="-3.34938">
        <ele>143</ele>
        <time>2013-03-10T15:02:00Z</time>
      </trkpt>
      <trkpt lat="48.51995" lon="-3.34942">
        <ele>143</ele>
        <time>2013-03-10T15:02:02Z</time>
      </trkpt>
      <trkpt lat="48.51994" lon="-3.34947">
        <ele>142</ele>
        <time>2013-03-10T15:02:05Z</time>
      </trkpt>
      <trkpt lat="48.51994" lon="-3.34951">
        <ele>142</ele>
        <time>2013-03-10T15:02:07Z</time>
      </trkpt>
      <trkpt lat="48.51993" lon="-3.34956">
        <ele>142</ele>
        <time>2013-03-10T15:02:10Z</time>
      </trkpt>
      <trkpt lat="48.51993" lon="-3.34961">
        <ele>142</ele>
        <time>2013-03-10T15:02:13Z</time>
      </trkpt>
      <trkpt lat="48.51993" lon="-3.34966">
        <ele>142</ele>
        <time>2013-03-10T15:02:16Z</time>
      </trkpt>
      <trkpt lat="48.51993" lon="-3.34971">
        <ele>141</ele>
        <time>2013-03-10T15:02:19Z</time>
      </trkpt>
      <trkpt lat="48.51992" lon="-3.34976">
        <ele>141</ele>
        <time>2013-03-10T15:02:22Z</time>
      </trkpt>
      <trkpt lat="48.51992" lon="-3.34981">
        <ele>141</ele>
        <time>2013-03-10T15:02:25Z</time>
      </trkpt>
      <trkpt lat="48.51991" lon="-3.34986">
        <ele>141</ele>
        <time>2013-03-10T15:02:28Z</time>
      </trkpt>
      <trkpt lat="48.51991" lon="-3.34989">
        <ele>140</ele>
        <time>2013-03-10T15:02:30Z</time>
      </trkpt>
      <trkpt lat="48.5199" lon="-3.34994">
        <ele>140</ele>
        <time>2013-03-10T15:02:33Z</time>
      </trkpt>
      <trkpt lat="48.5199" lon="-3.34997">
        <ele>140</ele>
        <time>2013-03-10T15:02:35Z</time>
      </trkpt>
      <trkpt lat="48.51989" lon="-3.35003">
        <ele>140</ele>
        <time>2013-03-10T15:02:38Z</time>
      </trkpt>
      <trkpt lat="48.51988" lon="-3.35007">
        <ele>140</ele>
        <time>2013-03-10T15:02:40Z</time>
      </trkpt>
      <trkpt lat="48.51987" lon="-3.35012">
        <ele>139</ele>
        <time>2013-03-10T15:02:43Z</time>
      </trkpt>
      <trkpt lat="48.51987" lon="-3.35017">
        <ele>139</ele>
        <time>2013-03-10T15:02:46Z</time>
      </trkpt>
      <trkpt lat="48.51986" lon="-3.35022">
        <ele>139</ele>
        <time>2013-03-10T15:02:49Z</time>
      </trkpt>
      <trkpt lat="48.51984" lon="-3.35029">
        <ele>139</ele>
        <time>2013-03-10T15:02:52Z</time>
      </trkpt>
      <trkpt lat="48.51983" lon="-3.35034">
        <ele>139</ele>
        <time>2013-03-10T15:02:55Z</time>
      </trkpt>
      <trkpt lat="48.51983" lon="-3.35038">
        <ele>138</ele>
        <time>2013-03-10T15:02:57Z</time>
      </trkpt>
      <trkpt lat="48.51982" lon="-3.35044">
        <ele>138</ele>
        <time>2013-03-10T15:03:00Z</time>
      </trkpt>
      <trkpt lat="48.51981" lon="-3.35049">
        <ele>138</ele>
        <time>2013-03-10T15:03:03Z</time>
      </trkpt>
      <trkpt lat="48.51981" lon="-3.35052">
        <ele>138</ele>
        <time>2013-03-10T15:03:05Z</time>
      </trkpt>
      <trkpt lat="48.5198" lon="-3.35058">
        <ele>138</ele>
        <time>2013-03-10T15:03:08Z</time>
      </trkpt>
      <trkpt lat="48.51979" lon="-3.35064">
        <ele>138</ele>
        <time>2013-03-10T15:03:11Z</time>
      </trkpt>
      <trkpt lat="48.51979" lon="-3.35068">
        <ele>137</ele>
        <time>2013-03-10T15:03:13Z</time>
      </trkpt>
      <trkpt lat="48.51978" lon="-3.35074">
        <ele>137</ele>
        <time>2013-03-10T15:03:16Z</time>
      </trkpt>
      <trkpt lat="48.51978" lon="-3.35079">
        <ele>137</ele>
        <time>2013-03-10T15:03:18Z</time>
      </trkpt>
      <trkpt lat="48.51978" lon="-3.35083">
        <ele>137</ele>
        <time>2013-03-10T15:03:20Z</time>
      </trkpt>
      <trkpt lat="48.51977" lon="-3.35087">
        <ele>137</ele>
        <time>2013-03-10T15:03:22Z</time>
      </trkpt>
      <trkpt lat="48.51977" lon="-3.35092">
        <ele>137</ele>
        <time>2013-03-10T15:03:25Z</time>
      </trkpt>
      <trkpt lat="48.51976" lon="-3.35097">
        <ele>137</ele>
        <time>2013-03-10T15:03:28Z</time>
      </trkpt>
      <trkpt lat="48.51976" lon="-3.35103">
        <ele>136</ele>
        <time>2013-03-10T15:03:31Z</time>
      </trkpt>
      <trkpt lat="48.51976" lon="-3.35107">
        <ele>136</ele>
        <time>2013-03-10T15:03:33Z</time>
      </trkpt>
      <trkpt lat="48.51976" lon="-3.35113">
        <ele>136</ele>
        <time>2013-03-10T15:03:36Z</time>
      </trkpt>
      <trkpt lat="48.51975" lon="-3.35116">
        <ele>136</ele>
        <time>2013-03-10T15:03:38Z</time>
      </trkpt>
      <trkpt lat="48.51975" lon="-3.35121">
        <ele>136</ele>
        <time>2013-03-10T15:03:41Z</time>
      </trkpt>
      <trkpt lat="48.51975" lon="-3.35124">
        <ele>136</ele>
        <time>2013-03-10T15:03:43Z</time>
      </trkpt>
      <trkpt lat="48.51975" lon="-3.35128">
        <ele>136</ele>
        <time>2013-03-10T15:03:45Z</time>
      </trkpt>
      <trkpt lat="48.51975" lon="-3.35134">
        <ele>136</ele>
        <time>2013-03-10T15:03:48Z</time>
      </trkpt>
      <trkpt lat="48.51975" lon="-3.35137">
        <ele>136</ele>
        <time>2013-03-10T15:03:50Z</time>
      </trkpt>
      <trkpt lat="48.51974" lon="-3.35142">
        <ele>136</ele>
        <time>2013-03-10T15:03:53Z</time>
      </trkpt>
      <trkpt lat="48.51974" lon="-3.35146">
        <ele>135</ele>
        <time>2013-03-10T15:03:55Z</time>
      </trkpt>
      <trkpt lat="48.51974" lon="-3.35151">
        <ele>135</ele>
        <time>2013-03-10T15:03:58Z</time>
      </trkpt>
      <trkpt lat="48.51973" lon="-3.35157">
        <ele>135</ele>
        <time>2013-03-10T15:04:01Z</time>
      </trkpt>
      <trkpt lat="48.51973" lon="-3.3516">
        <ele>135</ele>
        <time>2013-03-10T15:04:03Z</time>
      </trkpt>
      <trkpt lat="48.51972" lon="-3.35164">
        <ele>135</ele>
        <time>2013-03-10T15:04:05Z</time>
      </trkpt>
      <trkpt lat="48.51971" lon="-3.35168">
        <ele>135</ele>
        <time>2013-03-10T15:04:07Z</time>
      </trkpt>
      <trkpt lat="48.5197" lon="-3.35173">
        <ele>135</ele>
        <time>2013-03-10T15:04:10Z</time>
      </trkpt>
      <trkpt lat="48.51969" lon="-3.35176">
        <ele>135</ele>
        <time>2013-03-10T15:04:12Z</time>
      </trkpt>
      <trkpt lat="48.51968" lon="-3.35181">
        <ele>135</ele>
        <time>2013-03-10T15:04:15Z</time>
      </trkpt>
      <trkpt lat="48.51968" lon="-3.35185">
        <ele>135</ele>
        <time>2013-03-10T15:04:17Z</time>
      </trkpt>
      <trkpt lat="48.51966" lon="-3.35191">
        <ele>135</ele>
        <time>2013-03-10T15:04:20Z</time>
      </trkpt>
      <trkpt lat="48.51965" lon="-3.35195">
        <ele>135</ele>
        <time>2013-03-10T15:04:23Z</time>
      </trkpt>
      <trkpt lat="48.51964" lon="-3.35201">
        <ele>135</ele>
        <time>2013-03-10T15:04:26Z</time>
      </trkpt>
      <trkpt lat="48.51964" lon="-3.35205">
        <ele>135</ele>
        <time>2013-03-10T15:04:28Z</time>
      </trkpt>
      <trkpt lat="48.51963" lon="-3.35209">
        <ele>135</ele>
        <time>2013-03-10T15:04:31Z</time>
      </trkpt>
      <trkpt lat="48.51963" lon="-3.35212">
        <ele>135</ele>
        <time>2013-03-10T15:04:33Z</time>
      </trkpt>
      <trkpt lat="48.51962" lon="-3.35218">
        <ele>135</ele>
        <time>2013-03-10T15:04:36Z</time>
      </trkpt>
      <trkpt lat="48.51962" lon="-3.3522">
        <ele>135</ele>
        <time>2013-03-10T15:04:38Z</time>
      </trkpt>
      <trkpt lat="48.51963" lon="-3.35223">
        <ele>135</ele>
        <time>2013-03-10T15:04:40Z</time>
      </trkpt>
      <trkpt lat="48.51962" lon="-3.35228">
        <ele>135</ele>
        <time>2013-03-10T15:04:43Z</time>
      </trkpt>
      <trkpt lat="48.51962" lon="-3.35229">
        <ele>135</ele>
        <time>2013-03-10T15:04:45Z</time>
      </trkpt>
      <trkpt lat="48.51961" lon="-3.35232">
        <ele>135</ele>
        <time>2013-03-10T15:04:48Z</time>
      </trkpt>
      <trkpt lat="48.5196" lon="-3.35235">
        <ele>135</ele>
        <time>2013-03-10T15:04:50Z</time>
      </trkpt>
      <trkpt lat="48.5196" lon="-3.35238">
        <ele>135</ele>
        <time>2013-03-10T15:04:52Z</time>
      </trkpt>
      <trkpt lat="48.51959" lon="-3.35242">
        <ele>135</ele>
        <time>2013-03-10T15:04:55Z</time>
      </trkpt>
      <trkpt lat="48.51958" lon="-3.35245">
        <ele>135</ele>
        <time>2013-03-10T15:04:57Z</time>
      </trkpt>
      <trkpt lat="48.51958" lon="-3.3525">
        <ele>135</ele>
        <time>2013-03-10T15:05:00Z</time>
      </trkpt>
      <trkpt lat="48.51957" lon="-3.35255">
        <ele>134</ele>
        <time>2013-03-10T15:05:03Z</time>
      </trkpt>
      <trkpt lat="48.51957" lon="-3.3526">
        <ele>134</ele>
        <time>2013-03-10T15:05:06Z</time>
      </trkpt>
      <trkpt lat="48.51957" lon="-3.35263">
        <ele>135</ele>
        <time>2013-03-10T15:05:08Z</time>
      </trkpt>
      <trkpt lat="48.51956" lon="-3.35266">
        <ele>135</ele>
        <time>2013-03-10T15:05:10Z</time>
      </trkpt>
      <trkpt lat="48.51956" lon="-3.35271">
        <ele>134</ele>
        <time>2013-03-10T15:05:13Z</time>
      </trkpt>
      <trkpt lat="48.51956" lon="-3.35276">
        <ele>134</ele>
        <time>2013-03-10T15:05:16Z</time>
      </trkpt>
      <trkpt lat="48.51955" lon="-3.35279">
        <ele>134</ele>
        <time>2013-03-10T15:05:18Z</time>
      </trkpt>
      <trkpt lat="48.51955" lon="-3.35284">
        <ele>134</ele>
        <time>2013-03-10T15:05:21Z</time>
      </trkpt>
      <trkpt lat="48.51954" lon="-3.35289">
        <ele>134</ele>
        <time>2013-03-10T15:05:24Z</time>
      </trkpt>
      <trkpt lat="48.51954" lon="-3.35293">
        <ele>134</ele>
        <time>2013-03-10T15:05:26Z</time>
      </trkpt>
      <trkpt lat="48.51954" lon="-3.35296">
        <ele>134</ele>
        <time>2013-03-10T15:05:28Z</time>
      </trkpt>
      <trkpt lat="48.51953" lon="-3.353">
        <ele>134</ele>
        <time>2013-03-10T15:05:31Z</time>
      </trkpt>
      <trkpt lat="48.51952" lon="-3.35303">
        <ele>134</ele>
        <time>2013-03-10T15:05:33Z</time>
      </trkpt>
      <trkpt lat="48.51952" lon="-3.35306">
        <ele>134</ele>
        <time>2013-03-10T15:05:35Z</time>
      </trkpt>
      <trkpt lat="48.5195" lon="-3.35311">
        <ele>134</ele>
        <time>2013-03-10T15:05:38Z</time>
      </trkpt>
      <trkpt lat="48.51949" lon="-3.35314">
        <ele>133</ele>
        <time>2013-03-10T15:05:40Z</time>
      </trkpt>
      <trkpt lat="48.51949" lon="-3.35319">
        <ele>133</ele>
        <time>2013-03-10T15:05:43Z</time>
      </trkpt>
      <trkpt lat="48.51949" lon="-3.35324">
        <ele>133</ele>
        <time>2013-03-10T15:05:46Z</time>
      </trkpt>
      <trkpt lat="48.51948" lon="-3.35327">
        <ele>133</ele>
        <time>2013-03-10T15:05:48Z</time>
      </trkpt>
      <trkpt lat="48.51947" lon="-3.35329">
        <ele>133</ele>
        <time>2013-03-10T15:05:51Z</time>
      </trkpt>
      <trkpt lat="48.51947" lon="-3.3533">
        <ele>133</ele>
        <time>2013-03-10T15:05:53Z</time>
      </trkpt>
      <trkpt lat="48.51947" lon="-3.35332">
        <ele>133</ele>
        <time>2013-03-10T15:05:55Z</time>
      </trkpt>
      <trkpt lat="48.51947" lon="-3.35336">
        <ele>133</ele>
        <time>2013-03-10T15:05:57Z</time>
      </trkpt>
      <trkpt lat="48.51945" lon="-3.35341">
        <ele>133</ele>
        <time>2013-03-10T15:06:00Z</time>
      </trkpt>
      <trkpt lat="48.51944" lon="-3.35344">
        <ele>133</ele>
        <time>2013-03-10T15:06:02Z</time>
      </trkpt>
      <trkpt lat="48.51944" lon="-3.35349">
        <ele>133</ele>
        <time>2013-03-10T15:06:05Z</time>
      </trkpt>
      <trkpt lat="48.51943" lon="-3.35355">
        <ele>133</ele>
        <time>2013-03-10T15:06:08Z</time>
      </trkpt>
      <trkpt lat="48.51943" lon="-3.35358">
        <ele>133</ele>
        <time>2013-03-10T15:06:10Z</time>
      </trkpt>
      <trkpt lat="48.51942" lon="-3.35364">
        <ele>133</ele>
        <time>2013-03-10T15:06:13Z</time>
      </trkpt>
      <trkpt lat="48.51942" lon="-3.35369">
        <ele>132</ele>
        <time>2013-03-10T15:06:16Z</time>
      </trkpt>
      <trkpt lat="48.51941" lon="-3.35372">
        <ele>132</ele>
        <time>2013-03-10T15:06:18Z</time>
      </trkpt>
      <trkpt lat="48.51941" lon="-3.35376">
        <ele>133</ele>
        <time>2013-03-10T15:06:20Z</time>
      </trkpt>
      <trkpt lat="48.51941" lon="-3.35381">
        <ele>133</ele>
        <time>2013-03-10T15:06:23Z</time>
      </trkpt>
      <trkpt lat="48.5194" lon="-3.35386">
        <ele>133</ele>
        <time>2013-03-10T15:06:26Z</time>
      </trkpt>
      <trkpt lat="48.51939" lon="-3.35391">
        <ele>133</ele>
        <time>2013-03-10T15:06:29Z</time>
      </trkpt>
      <trkpt lat="48.51938" lon="-3.35396">
        <ele>132</ele>
        <time>2013-03-10T15:06:32Z</time>
      </trkpt>
      <trkpt lat="48.51938" lon="-3.35401">
        <ele>132</ele>
        <time>2013-03-10T15:06:35Z</time>
      </trkpt>
      <trkpt lat="48.51937" lon="-3.35404">
        <ele>132</ele>
        <time>2013-03-10T15:06:37Z</time>
      </trkpt>
      <trkpt lat="48.51936" lon="-3.35409">
        <ele>132</ele>
        <time>2013-03-10T15:06:40Z</time>
      </trkpt>
      <trkpt lat="48.51937" lon="-3.35413">
        <ele>132</ele>
        <time>2013-03-10T15:06:42Z</time>
      </trkpt>
      <trkpt lat="48.51936" lon="-3.35417">
        <ele>132</ele>
        <time>2013-03-10T15:06:45Z</time>
      </trkpt>
      <trkpt lat="48.51936" lon="-3.35422">
        <ele>132</ele>
        <time>2013-03-10T15:06:48Z</time>
      </trkpt>
      <trkpt lat="48.51936" lon="-3.35427">
        <ele>132</ele>
        <time>2013-03-10T15:06:51Z</time>
      </trkpt>
      <trkpt lat="48.51936" lon="-3.35432">
        <ele>132</ele>
        <time>2013-03-10T15:06:54Z</time>
      </trkpt>
      <trkpt lat="48.51934" lon="-3.35436">
        <ele>132</ele>
        <time>2013-03-10T15:06:57Z</time>
      </trkpt>
      <trkpt lat="48.51934" lon="-3.3544">
        <ele>132</ele>
        <time>2013-03-10T15:06:59Z</time>
      </trkpt>
      <trkpt lat="48.51934" lon="-3.35444">
        <ele>132</ele>
        <time>2013-03-10T15:07:02Z</time>
      </trkpt>
      <trkpt lat="48.51932" lon="-3.35449">
        <ele>132</ele>
        <time>2013-03-10T15:07:05Z</time>
      </trkpt>
      <trkpt lat="48.51932" lon="-3.35453">
        <ele>132</ele>
        <time>2013-03-10T15:07:08Z</time>
      </trkpt>
      <trkpt lat="48.51932" lon="-3.35454">
        <ele>132</ele>
        <time>2013-03-10T15:07:10Z</time>
      </trkpt>
      <trkpt lat="48.51932" lon="-3.35454">
        <ele>132</ele>
        <time>2013-03-10T15:07:12Z</time>
      </trkpt>
      <trkpt lat="48.51932" lon="-3.35456">
        <ele>132</ele>
        <time>2013-03-10T15:07:15Z</time>
      </trkpt>
      <trkpt lat="48.51931" lon="-3.35461">
        <ele>132</ele>
        <time>2013-03-10T15:07:18Z</time>
      </trkpt>
      <trkpt lat="48.51931" lon="-3.35465">
        <ele>132</ele>
        <time>2013-03-10T15:07:21Z</time>
      </trkpt>
      <trkpt lat="48.5193" lon="-3.35471">
        <ele>132</ele>
        <time>2013-03-10T15:07:24Z</time>
      </trkpt>
      <trkpt lat="48.5193" lon="-3.35474">
        <ele>132</ele>
        <time>2013-03-10T15:07:26Z</time>
      </trkpt>
      <trkpt lat="48.51929" lon="-3.35477">
        <ele>132</ele>
        <time>2013-03-10T15:07:29Z</time>
      </trkpt>
      <trkpt lat="48.51928" lon="-3.3548">
        <ele>132</ele>
        <time>2013-03-10T15:07:31Z</time>
      </trkpt>
      <trkpt lat="48.51928" lon="-3.35483">
        <ele>132</ele>
        <time>2013-03-10T15:07:33Z</time>
      </trkpt>
      <trkpt lat="48.51928" lon="-3.35487">
        <ele>132</ele>
        <time>2013-03-10T15:07:36Z</time>
      </trkpt>
      <trkpt lat="48.51928" lon="-3.3549">
        <ele>132</ele>
        <time>2013-03-10T15:07:38Z</time>
      </trkpt>
      <trkpt lat="48.51928" lon="-3.35495">
        <ele>131</ele>
        <time>2013-03-10T15:07:41Z</time>
      </trkpt>
      <trkpt lat="48.51928" lon="-3.35498">
        <ele>132</ele>
        <time>2013-03-10T15:07:43Z</time>
      </trkpt>
      <trkpt lat="48.51927" lon="-3.35502">
        <ele>132</ele>
        <time>2013-03-10T15:07:46Z</time>
      </trkpt>
      <trkpt lat="48.51926" lon="-3.35506">
        <ele>132</ele>
        <time>2013-03-10T15:07:49Z</time>
      </trkpt>
      <trkpt lat="48.51925" lon="-3.35509">
        <ele>132</ele>
        <time>2013-03-10T15:07:51Z</time>
      </trkpt>
      <trkpt lat="48.51925" lon="-3.35511">
        <ele>132</ele>
        <time>2013-03-10T15:07:53Z</time>
      </trkpt>
      <trkpt lat="48.51925" lon="-3.35515">
        <ele>132</ele>
        <time>2013-03-10T15:07:56Z</time>
      </trkpt>
      <trkpt lat="48.51924" lon="-3.35517">
        <ele>132</ele>
        <time>2013-03-10T15:07:59Z</time>
      </trkpt>
      <trkpt lat="48.51924" lon="-3.35517">
        <ele>132</ele>
        <time>2013-03-10T15:08:02Z</time>
      </trkpt>
      <trkpt lat="48.51923" lon="-3.35517">
        <ele>132</ele>
        <time>2013-03-10T15:08:05Z</time>
      </trkpt>
      <trkpt lat="48.51923" lon="-3.35517">
        <ele>132</ele>
        <time>2013-03-10T15:08:08Z</time>
      </trkpt>
      <trkpt lat="48.51922" lon="-3.35519">
        <ele>132</ele>
        <time>2013-03-10T15:08:10Z</time>
      </trkpt>
      <trkpt lat="48.51922" lon="-3.35518">
        <ele>132</ele>
        <time>2013-03-10T15:08:13Z</time>
      </trkpt>
      <trkpt lat="48.51922" lon="-3.35517">
        <ele>131</ele>
        <time>2013-03-10T15:08:16Z</time>
      </trkpt>
      <trkpt lat="48.51922" lon="-3.35516">
        <ele>131</ele>
        <time>2013-03-10T15:08:19Z</time>
      </trkpt>
      <trkpt lat="48.51922" lon="-3.35516">
        <ele>132</ele>
        <time>2013-03-10T15:08:21Z</time>
      </trkpt>
      <trkpt lat="48.51923" lon="-3.35515">
        <ele>132</ele>
        <time>2013-03-10T15:08:23Z</time>
      </trkpt>
      <trkpt lat="48.51923" lon="-3.35514">
        <ele>132</ele>
        <time>2013-03-10T15:08:26Z</time>
      </trkpt>
      <trkpt lat="48.51923" lon="-3.35513">
        <ele>132</ele>
        <time>2013-03-10T15:08:28Z</time>
      </trkpt>
      <trkpt lat="48.51924" lon="-3.35511">
        <ele>132</ele>
        <time>2013-03-10T15:08:31Z</time>
      </trkpt>
      <trkpt lat="48.51925" lon="-3.3551">
        <ele>132</ele>
        <time>2013-03-10T15:08:33Z</time>
      </trkpt>
      <trkpt lat="48.51926" lon="-3.35509">
        <ele>132</ele>
        <time>2013-03-10T15:08:35Z</time>
      </trkpt>
      <trkpt lat="48.51927" lon="-3.35506">
        <ele>132</ele>
        <time>2013-03-10T15:08:38Z</time>
      </trkpt>
      <trkpt lat="48.51929" lon="-3.35506">
        <ele>132</ele>
        <time>2013-03-10T15:08:41Z</time>
      </trkpt>
      <trkpt lat="48.5193" lon="-3.35507">
        <ele>132</ele>
        <time>2013-03-10T15:08:43Z</time>
      </trkpt>
      <trkpt lat="48.51931" lon="-3.35509">
        <ele>132</ele>
        <time>2013-03-10T15:08:46Z</time>
      </trkpt>
      <trkpt lat="48.51932" lon="-3.35511">
        <ele>132</ele>
        <time>2013-03-10T15:08:48Z</time>
      </trkpt>
      <trkpt lat="48.51932" lon="-3.35512">
        <ele>132</ele>
        <time>2013-03-10T15:08:50Z</time>
      </trkpt>
      <trkpt lat="48.51932" lon="-3.35513">
        <ele>132</ele>
        <time>2013-03-10T15:08:52Z</time>
      </trkpt>
      <trkpt lat="48.51932" lon="-3.35513">
        <ele>132</ele>
        <time>2013-03-10T15:08:55Z</time>
      </trkpt>
      <trkpt lat="48.51931" lon="-3.35511">
        <ele>132</ele>
        <time>2013-03-10T15:08:57Z</time>
      </trkpt>
      <trkpt lat="48.51932" lon="-3.35508">
        <ele>132</ele>
        <time>2013-03-10T15:08:59Z</time>
      </trkpt>
      <trkpt lat="48.51932" lon="-3.35506">
        <ele>132</ele>
        <time>2013-03-10T15:09:02Z</time>
      </trkpt>
      <trkpt lat="48.51933" lon="-3.35503">
        <ele>132</ele>
        <time>2013-03-10T15:09:05Z</time>
      </trkpt>
      <trkpt lat="48.51934" lon="-3.355">
        <ele>132</ele>
        <time>2013-03-10T15:09:08Z</time>
      </trkpt>
      <trkpt lat="48.51934" lon="-3.35498">
        <ele>132</ele>
        <time>2013-03-10T15:09:10Z</time>
      </trkpt>
      <trkpt lat="48.51935" lon="-3.35498">
        <ele>132</ele>
        <time>2013-03-10T15:09:12Z</time>
      </trkpt>
      <trkpt lat="48.51936" lon="-3.35496">
        <ele>132</ele>
        <time>2013-03-10T15:09:14Z</time>
      </trkpt>
      <trkpt lat="48.51936" lon="-3.35496">
        <ele>132</ele>
        <time>2013-03-10T15:09:16Z</time>
      </trkpt>
      <trkpt lat="48.51937" lon="-3.35494">
        <ele>132</ele>
        <time>2013-03-10T15:09:19Z</time>
      </trkpt>
      <trkpt lat="48.51938" lon="-3.35491">
        <ele>132</ele>
        <time>2013-03-10T15:09:21Z</time>
      </trkpt>
      <trkpt lat="48.51939" lon="-3.35488">
        <ele>132</ele>
        <time>2013-03-10T15:09:24Z</time>
      </trkpt>
      <trkpt lat="48.51939" lon="-3.35482">
        <ele>132</ele>
        <time>2013-03-10T15:09:27Z</time>
      </trkpt>
      <trkpt lat="48.5194" lon="-3.35478">
        <ele>132</ele>
        <time>2013-03-10T15:09:30Z</time>
      </trkpt>
      <trkpt lat="48.51941" lon="-3.35475">
        <ele>132</ele>
        <time>2013-03-10T15:09:32Z</time>
      </trkpt>
      <trkpt lat="48.51942" lon="-3.3547">
        <ele>132</ele>
        <time>2013-03-10T15:09:35Z</time>
      </trkpt>
      <trkpt lat="48.51941" lon="-3.35465">
        <ele>132</ele>
        <time>2013-03-10T15:09:38Z</time>
      </trkpt>
      <trkpt lat="48.5194" lon="-3.35461">
        <ele>132</ele>
        <time>2013-03-10T15:09:41Z</time>
      </trkpt>
      <trkpt lat="48.51939" lon="-3.35459">
        <ele>132</ele>
        <time>2013-03-10T15:09:43Z</time>
      </trkpt>
      <trkpt lat="48.51937" lon="-3.35458">
        <ele>132</ele>
        <time>2013-03-10T15:09:45Z</time>
      </trkpt>
      <trkpt lat="48.51936" lon="-3.35457">
        <ele>132</ele>
        <time>2013-03-10T15:09:48Z</time>
      </trkpt>
      <trkpt lat="48.51934" lon="-3.35457">
        <ele>132</ele>
        <time>2013-03-10T15:09:50Z</time>
      </trkpt>
      <trkpt lat="48.51932" lon="-3.35456">
        <ele>132</ele>
        <time>2013-03-10T15:09:52Z</time>
      </trkpt>
      <trkpt lat="48.5193" lon="-3.35456">
        <ele>132</ele>
        <time>2013-03-10T15:09:55Z</time>
      </trkpt>
      <trkpt lat="48.51929" lon="-3.35457">
        <ele>132</ele>
        <time>2013-03-10T15:09:57Z</time>
      </trkpt>
      <trkpt lat="48.51927" lon="-3.35459">
        <ele>132</ele>
        <time>2013-03-10T15:10:00Z</time>
      </trkpt>
      <trkpt lat="48.51926" lon="-3.3546">
        <ele>132</ele>
        <time>2013-03-10T15:10:02Z</time>
      </trkpt>
      <trkpt lat="48.51924" lon="-3.35461">
        <ele>132</ele>
        <time>2013-03-10T15:10:05Z</time>
      </trkpt>
      <trkpt lat="48.51923" lon="-3.35463">
        <ele>132</ele>
        <time>2013-03-10T15:10:07Z</time>
      </trkpt>
      <trkpt lat="48.51923" lon="-3.35466">
        <ele>132</ele>
        <time>2013-03-10T15:10:10Z</time>
      </trkpt>
      <trkpt lat="48.51923" lon="-3.35469">
        <ele>132</ele>
        <time>2013-03-10T15:10:13Z</time>
      </trkpt>
      <trkpt lat="48.51921" lon="-3.35472">
        <ele>132</ele>
        <time>2013-03-10T15:10:15Z</time>
      </trkpt>
      <trkpt lat="48.5192" lon="-3.35473">
        <ele>132</ele>
        <time>2013-03-10T15:10:18Z</time>
      </trkpt>
      <trkpt lat="48.51918" lon="-3.35473">
        <ele>132</ele>
        <time>2013-03-10T15:10:21Z</time>
      </trkpt>
      <trkpt lat="48.51917" lon="-3.35474">
        <ele>132</ele>
        <time>2013-03-10T15:10:23Z</time>
      </trkpt>
      <trkpt lat="48.51915" lon="-3.35474">
        <ele>132</ele>
        <time>2013-03-10T15:10:25Z</time>
      </trkpt>
      <trkpt lat="48.51913" lon="-3.35476">
        <ele>132</ele>
        <time>2013-03-10T15:10:28Z</time>
      </trkpt>
      <trkpt lat="48.51913" lon="-3.35477">
        <ele>132</ele>
        <time>2013-03-10T15:10:31Z</time>
      </trkpt>
      <trkpt lat="48.51912" lon="-3.35477">
        <ele>132</ele>
        <time>2013-03-10T15:10:34Z</time>
      </trkpt>
      <trkpt lat="48.51911" lon="-3.3548">
        <ele>132</ele>
        <time>2013-03-10T15:10:37Z</time>
      </trkpt>
      <trkpt lat="48.5191" lon="-3.35482">
        <ele>132</ele>
        <time>2013-03-10T15:10:39Z</time>
      </trkpt>
      <trkpt lat="48.5191" lon="-3.35485">
        <ele>132</ele>
        <time>2013-03-10T15:10:42Z</time>
      </trkpt>
      <trkpt lat="48.51909" lon="-3.35486">
        <ele>132</ele>
        <time>2013-03-10T15:10:44Z</time>
      </trkpt>
      <trkpt lat="48.51908" lon="-3.35487">
        <ele>132</ele>
        <time>2013-03-10T15:10:46Z</time>
      </trkpt>
      <trkpt lat="48.51908" lon="-3.35488">
        <ele>132</ele>
        <time>2013-03-10T15:10:49Z</time>
      </trkpt>
      <trkpt lat="48.51908" lon="-3.35488">
        <ele>132</ele>
        <time>2013-03-10T15:10:52Z</time>
      </trkpt>
      <trkpt lat="48.51907" lon="-3.35487">
        <ele>132</ele>
        <time>2013-03-10T15:10:54Z</time>
      </trkpt>
      <trkpt lat="48.51907" lon="-3.35486">
        <ele>132</ele>
        <time>2013-03-10T15:10:57Z</time>
      </trkpt>
      <trkpt lat="48.51907" lon="-3.35486">
        <ele>132</ele>
        <time>2013-03-10T15:10:59Z</time>
      </trkpt>
      <trkpt lat="48.51908" lon="-3.35487">
        <ele>132</ele>
        <time>2013-03-10T15:11:02Z</time>
      </trkpt>
      <trkpt lat="48.51908" lon="-3.35487">
        <ele>132</ele>
        <time>2013-03-10T15:11:04Z</time>
      </trkpt>
      <trkpt lat="48.51908" lon="-3.35488">
        <ele>132</ele>
        <time>2013-03-10T15:11:06Z</time>
      </trkpt>
      <trkpt lat="48.51909" lon="-3.35486">
        <ele>132</ele>
        <time>2013-03-10T15:11:09Z</time>
      </trkpt>
      <trkpt lat="48.51909" lon="-3.35484">
        <ele>132</ele>
        <time>2013-03-10T15:11:11Z</time>
      </trkpt>
      <trkpt lat="48.5191" lon="-3.35482">
        <ele>132</ele>
        <time>2013-03-10T15:11:13Z</time>
      </trkpt>
      <trkpt lat="48.51912" lon="-3.35481">
        <ele>132</ele>
        <time>2013-03-10T15:11:16Z</time>
      </trkpt>
      <trkpt lat="48.51913" lon="-3.3548">
        <ele>132</ele>
        <time>2013-03-10T15:11:18Z</time>
      </trkpt>
      <trkpt lat="48.51914" lon="-3.35479">
        <ele>132</ele>
        <time>2013-03-10T15:11:21Z</time>
      </trkpt>
      <trkpt lat="48.51914" lon="-3.35477">
        <ele>132</ele>
        <time>2013-03-10T15:11:24Z</time>
      </trkpt>
      <trkpt lat="48.51914" lon="-3.35477">
        <ele>132</ele>
        <time>2013-03-10T15:11:26Z</time>
      </trkpt>
      <trkpt lat="48.51915" lon="-3.35476">
        <ele>131</ele>
        <time>2013-03-10T15:11:29Z</time>
      </trkpt>
      <trkpt lat="48.51915" lon="-3.35475">
        <ele>132</ele>
        <time>2013-03-10T15:11:32Z</time>
      </trkpt>
      <trkpt lat="48.51915" lon="-3.35474">
        <ele>131</ele>
        <time>2013-03-10T15:11:34Z</time>
      </trkpt>
      <trkpt lat="48.51914" lon="-3.35474">
        <ele>132</ele>
        <time>2013-03-10T15:11:36Z</time>
      </trkpt>
      <trkpt lat="48.51914" lon="-3.35473">
        <ele>132</ele>
        <time>2013-03-10T15:11:39Z</time>
      </trkpt>
      <trkpt lat="48.51914" lon="-3.35473">
        <ele>131</ele>
        <time>2013-03-10T15:11:41Z</time>
      </trkpt>
      <trkpt lat="48.51914" lon="-3.35472">
        <ele>131</ele>
        <time>2013-03-10T15:11:44Z</time>
      </trkpt>
      <trkpt lat="48.51913" lon="-3.35472">
        <ele>131</ele>
        <time>2013-03-10T15:11:46Z</time>
      </trkpt>
      <trkpt lat="48.51913" lon="-3.35471">
        <ele>131</ele>
        <time>2013-03-10T15:11:49Z</time>
      </trkpt>
      <trkpt lat="48.51913" lon="-3.35471">
        <ele>130</ele>
        <time>2013-03-10T15:11:53Z</time>
      </trkpt>
      <trkpt lat="48.51913" lon="-3.35471">
        <ele>131</ele>
        <time>2013-03-10T15:11:56Z</time>
      </trkpt>
      <trkpt lat="48.51914" lon="-3.35472">
        <ele>131</ele>
        <time>2013-03-10T15:11:59Z</time>
      </trkpt>
      <trkpt lat="48.51915" lon="-3.35472">
        <ele>131</ele>
        <time>2013-03-10T15:12:02Z</time>
      </trkpt>
      <trkpt lat="48.51915" lon="-3.35472">
        <ele>131</ele>
        <time>2013-03-10T15:12:05Z</time>
      </trkpt>
      <trkpt lat="48.51915" lon="-3.35472">
        <ele>131</ele>
        <time>2013-03-10T15:12:08Z</time>
      </trkpt>
      <trkpt lat="48.51916" lon="-3.35472">
        <ele>131</ele>
        <time>2013-03-10T15:12:10Z</time>
      </trkpt>
      <trkpt lat="48.51916" lon="-3.35472">
        <ele>131</ele>
        <time>2013-03-10T15:12:13Z</time>
      </trkpt>
      <trkpt lat="48.51916" lon="-3.35472">
        <ele>131</ele>
        <time>2013-03-10T15:12:15Z</time>
      </trkpt>
      <trkpt lat="48.51915" lon="-3.35471">
        <ele>131</ele>
        <time>2013-03-10T15:12:18Z</time>
      </trkpt>
      <trkpt lat="48.51915" lon="-3.35471">
        <ele>131</ele>
        <time>2013-03-10T15:12:20Z</time>
      </trkpt>
      <trkpt lat="48.51915" lon="-3.35471">
        <ele>131</ele>
        <time>2013-03-10T15:12:25Z</time>
      </trkpt>
      <trkpt lat="48.51915" lon="-3.35472">
        <ele>131</ele>
        <time>2013-03-10T15:12:27Z</time>
      </trkpt>
      <trkpt lat="48.51915" lon="-3.35473">
        <ele>131</ele>
        <time>2013-03-10T15:12:29Z</time>
      </trkpt>
      <trkpt lat="48.51915" lon="-3.35474">
        <ele>131</ele>
        <time>2013-03-10T15:12:33Z</time>
      </trkpt>
      <trkpt lat="48.51915" lon="-3.35474">
        <ele>131</ele>
        <time>2013-03-10T15:12:36Z</time>
      </trkpt>
      <trkpt lat="48.51914" lon="-3.35474">
        <ele>131</ele>
        <time>2013-03-10T15:12:39Z</time>
      </trkpt>
      <trkpt lat="48.51914" lon="-3.35474">
        <ele>131</ele>
        <time>2013-03-10T15:12:41Z</time>
      </trkpt>
      <trkpt lat="48.51915" lon="-3.35473">
        <ele>132</ele>
        <time>2013-03-10T15:12:44Z</time>
      </trkpt>
      <trkpt lat="48.51915" lon="-3.35472">
        <ele>132</ele>
        <time>2013-03-10T15:12:47Z</time>
      </trkpt>
      <trkpt lat="48.51916" lon="-3.35471">
        <ele>131</ele>
        <time>2013-03-10T15:12:49Z</time>
      </trkpt>
      <trkpt lat="48.51916" lon="-3.35471">
        <ele>131</ele>
        <time>2013-03-10T15:12:53Z</time>
      </trkpt>
      <trkpt lat="48.51916" lon="-3.35471">
        <ele>131</ele>
        <time>2013-03-10T15:12:56Z</time>
      </trkpt>
      <trkpt lat="48.51916" lon="-3.35471">
        <ele>131</ele>
        <time>2013-03-10T15:13:00Z</time>
      </trkpt>
      <trkpt lat="48.51916" lon="-3.35471">
        <ele>131</ele>
        <time>2013-03-10T15:13:02Z</time>
      </trkpt>
      <trkpt lat="48.51916" lon="-3.3547">
        <ele>131</ele>
        <time>2013-03-10T15:13:05Z</time>
      </trkpt>
      <trkpt lat="48.51915" lon="-3.3547">
        <ele>131</ele>
        <time>2013-03-10T15:13:08Z</time>
      </trkpt>
      <trkpt lat="48.51914" lon="-3.3547">
        <ele>131</ele>
        <time>2013-03-10T15:13:10Z</time>
      </trkpt>
      <trkpt lat="48.51914" lon="-3.35471">
        <ele>131</ele>
        <time>2013-03-10T15:13:14Z</time>
      </trkpt>
      <trkpt lat="48.51913" lon="-3.35471">
        <ele>131</ele>
        <time>2013-03-10T15:13:17Z</time>
      </trkpt>
      <trkpt lat="48.51913" lon="-3.35471">
        <ele>131</ele>
        <time>2013-03-10T15:13:20Z</time>
      </trkpt>
      <trkpt lat="48.51912" lon="-3.35471">
        <ele>131</ele>
        <time>2013-03-10T15:13:23Z</time>
      </trkpt>
      <trkpt lat="48.51912" lon="-3.35471">
        <ele>131</ele>
        <time>2013-03-10T15:13:25Z</time>
      </trkpt>
      <trkpt lat="48.51912" lon="-3.35471">
        <ele>131</ele>
        <time>2013-03-10T15:13:28Z</time>
      </trkpt>
      <trkpt lat="48.51913" lon="-3.35471">
        <ele>131</ele>
        <time>2013-03-10T15:13:31Z</time>
      </trkpt>
      <trkpt lat="48.51913" lon="-3.3547">
        <ele>131</ele>
        <time>2013-03-10T15:13:34Z</time>
      </trkpt>
      <trkpt lat="48.51913" lon="-3.3547">
        <ele>131</ele>
        <time>2013-03-10T15:13:36Z</time>
      </trkpt>
      <trkpt lat="48.51914" lon="-3.3547">
        <ele>131</ele>
        <time>2013-03-10T15:13:39Z</time>
      </trkpt>
      <trkpt lat="48.51915" lon="-3.3547">
        <ele>131</ele>
        <time>2013-03-10T15:13:41Z</time>
      </trkpt>
      <trkpt lat="48.51915" lon="-3.3547">
        <ele>131</ele>
        <time>2013-03-10T15:13:44Z</time>
      </trkpt>
      <trkpt lat="48.51915" lon="-3.3547">
        <ele>131</ele>
        <time>2013-03-10T15:13:46Z</time>
      </trkpt>
      <trkpt lat="48.51915" lon="-3.35469">
        <ele>131</ele>
        <time>2013-03-10T15:13:49Z</time>
      </trkpt>
      <trkpt lat="48.51914" lon="-3.35469">
        <ele>131</ele>
        <time>2013-03-10T15:13:52Z</time>
      </trkpt>
      <trkpt lat="48.51914" lon="-3.35469">
        <ele>131</ele>
        <time>2013-03-10T15:13:55Z</time>
      </trkpt>
      <trkpt lat="48.51915" lon="-3.3547">
        <ele>131</ele>
        <time>2013-03-10T15:13:58Z</time>
      </trkpt>
      <trkpt lat="48.51915" lon="-3.35469">
        <ele>131</ele>
        <time>2013-03-10T15:14:01Z</time>
      </trkpt>
      <trkpt lat="48.51914" lon="-3.3547">
        <ele>132</ele>
        <time>2013-03-10T15:14:04Z</time>
      </trkpt>
      <trkpt lat="48.51914" lon="-3.3547">
        <ele>132</ele>
        <time>2013-03-10T15:14:07Z</time>
      </trkpt>
      <trkpt lat="48.51914" lon="-3.3547">
        <ele>132</ele>
        <time>2013-03-10T15:14:09Z</time>
      </trkpt>
      <trkpt lat="48.51914" lon="-3.3547">
        <ele>131</ele>
        <time>2013-03-10T15:14:12Z</time>
      </trkpt>
      <trkpt lat="48.51914" lon="-3.35471">
        <ele>131</ele>
        <time>2013-03-10T15:14:14Z</time>
      </trkpt>
      <trkpt lat="48.51914" lon="-3.35471">
        <ele>131</ele>
        <time>2013-03-10T15:14:17Z</time>
      </trkpt>
      <trkpt lat="48.51914" lon="-3.35471">
        <ele>131</ele>
        <time>2013-03-10T15:14:19Z</time>
      </trkpt>
      <trkpt lat="48.51913" lon="-3.35471">
        <ele>131</ele>
        <time>2013-03-10T15:14:23Z</time>
      </trkpt>
      <trkpt lat="48.51912" lon="-3.35471">
        <ele>131</ele>
        <time>2013-03-10T15:14:25Z</time>
      </trkpt>
      <trkpt lat="48.51912" lon="-3.35471">
        <ele>131</ele>
        <time>2013-03-10T15:14:29Z</time>
      </trkpt>
      <trkpt lat="48.51912" lon="-3.35471">
        <ele>131</ele>
        <time>2013-03-10T15:14:31Z</time>
      </trkpt>
      <trkpt lat="48.51912" lon="-3.35471">
        <ele>131</ele>
        <time>2013-03-10T15:14:33Z</time>
      </trkpt>
      <trkpt lat="48.51911" lon="-3.3547">
        <ele>131</ele>
        <time>2013-03-10T15:14:35Z</time>
      </trkpt>
      <trkpt lat="48.51911" lon="-3.3547">
        <ele>131</ele>
        <time>2013-03-10T15:14:38Z</time>
      </trkpt>
      <trkpt lat="48.51911" lon="-3.3547">
        <ele>131</ele>
        <time>2013-03-10T15:14:41Z</time>
      </trkpt>
      <trkpt lat="48.51911" lon="-3.35471">
        <ele>132</ele>
        <time>2013-03-10T15:14:48Z</time>
      </trkpt>
      <trkpt lat="48.5191" lon="-3.35472">
        <ele>132</ele>
        <time>2013-03-10T15:14:50Z</time>
      </trkpt>
      <trkpt lat="48.51909" lon="-3.35474">
        <ele>132</ele>
        <time>2013-03-10T15:14:52Z</time>
      </trkpt>
      <trkpt lat="48.51908" lon="-3.35477">
        <ele>132</ele>
        <time>2013-03-10T15:14:55Z</time>
      </trkpt>
      <trkpt lat="48.51908" lon="-3.35479">
        <ele>132</ele>
        <time>2013-03-10T15:14:57Z</time>
      </trkpt>
      <trkpt lat="48.51909" lon="-3.35479">
        <ele>132</ele>
        <time>2013-03-10T15:14:59Z</time>
      </trkpt>
      <trkpt lat="48.5191" lon="-3.35479">
        <ele>131</ele>
        <time>2013-03-10T15:15:01Z</time>
      </trkpt>
      <trkpt lat="48.5191" lon="-3.3548">
        <ele>131</ele>
        <time>2013-03-10T15:15:04Z</time>
      </trkpt>
      <trkpt lat="48.5191" lon="-3.35481">
        <ele>131</ele>
        <time>2013-03-10T15:15:06Z</time>
      </trkpt>
      <trkpt lat="48.51911" lon="-3.35482">
        <ele>131</ele>
        <time>2013-03-10T15:15:09Z</time>
      </trkpt>
      <trkpt lat="48.51911" lon="-3.35482">
        <ele>131</ele>
        <time>2013-03-10T15:15:11Z</time>
      </trkpt>
      <trkpt lat="48.51911" lon="-3.35482">
        <ele>131</ele>
        <time>2013-03-10T15:15:13Z</time>
      </trkpt>
      <trkpt lat="48.5191" lon="-3.35483">
        <ele>131</ele>
        <time>2013-03-10T15:15:15Z</time>
      </trkpt>
      <trkpt lat="48.51912" lon="-3.35483">
        <ele>131</ele>
        <time>2013-03-10T15:15:18Z</time>
      </trkpt>
      <trkpt lat="48.51911" lon="-3.35484">
        <ele>131</ele>
        <time>2013-03-10T15:15:20Z</time>
      </trkpt>
      <trkpt lat="48.5191" lon="-3.35483">
        <ele>131</ele>
        <time>2013-03-10T15:15:22Z</time>
      </trkpt>
      <trkpt lat="48.5191" lon="-3.35482">
        <ele>130</ele>
        <time>2013-03-10T15:15:25Z</time>
      </trkpt>
      <trkpt lat="48.51909" lon="-3.35481">
        <ele>130</ele>
        <time>2013-03-10T15:15:27Z</time>
      </trkpt>
      <trkpt lat="48.51908" lon="-3.3548">
        <ele>130</ele>
        <time>2013-03-10T15:15:30Z</time>
      </trkpt>
      <trkpt lat="48.51909" lon="-3.3548">
        <ele>131</ele>
        <time>2013-03-10T15:15:33Z</time>
      </trkpt>
      <trkpt lat="48.51909" lon="-3.35479">
        <ele>131</ele>
        <time>2013-03-10T15:15:36Z</time>
      </trkpt>
      <trkpt lat="48.5191" lon="-3.35477">
        <ele>131</ele>
        <time>2013-03-10T15:15:38Z</time>
      </trkpt>
      <trkpt lat="48.5191" lon="-3.35475">
        <ele>131</ele>
        <time>2013-03-10T15:15:40Z</time>
      </trkpt>
      <trkpt lat="48.5191" lon="-3.35473">
        <ele>131</ele>
        <time>2013-03-10T15:15:43Z</time>
      </trkpt>
      <trkpt lat="48.51911" lon="-3.35472">
        <ele>132</ele>
        <time>2013-03-10T15:15:45Z</time>
      </trkpt>
      <trkpt lat="48.51911" lon="-3.35471">
        <ele>132</ele>
        <time>2013-03-10T15:15:47Z</time>
      </trkpt>
      <trkpt lat="48.51912" lon="-3.35471">
        <ele>132</ele>
        <time>2013-03-10T15:15:49Z</time>
      </trkpt>
      <trkpt lat="48.51911" lon="-3.35471">
        <ele>132</ele>
        <time>2013-03-10T15:15:53Z</time>
      </trkpt>
      <trkpt lat="48.51911" lon="-3.35471">
        <ele>132</ele>
        <time>2013-03-10T15:15:55Z</time>
      </trkpt>
      <trkpt lat="48.51911" lon="-3.3547">
        <ele>132</ele>
        <time>2013-03-10T15:15:58Z</time>
      </trkpt>
      <trkpt lat="48.5191" lon="-3.35469">
        <ele>132</ele>
        <time>2013-03-10T15:16:01Z</time>
      </trkpt>
      <trkpt lat="48.51911" lon="-3.35468">
        <ele>132</ele>
        <time>2013-03-10T15:16:04Z</time>
      </trkpt>
      <trkpt lat="48.51911" lon="-3.35467">
        <ele>132</ele>
        <time>2013-03-10T15:16:06Z</time>
      </trkpt>
      <trkpt lat="48.51911" lon="-3.35466">
        <ele>132</ele>
        <time>2013-03-10T15:16:09Z</time>
      </trkpt>
      <trkpt lat="48.51911" lon="-3.35465">
        <ele>132</ele>
        <time>2013-03-10T15:16:12Z</time>
      </trkpt>
      <trkpt lat="48.5191" lon="-3.35465">
        <ele>132</ele>
        <time>2013-03-10T15:16:14Z</time>
      </trkpt>
      <trkpt lat="48.5191" lon="-3.35463">
        <ele>132</ele>
        <time>2013-03-10T15:16:17Z</time>
      </trkpt>
      <trkpt lat="48.51909" lon="-3.35462">
        <ele>132</ele>
        <time>2013-03-10T15:16:19Z</time>
      </trkpt>
      <trkpt lat="48.51908" lon="-3.3546">
        <ele>132</ele>
        <time>2013-03-10T15:16:22Z</time>
      </trkpt>
      <trkpt lat="48.51908" lon="-3.35459">
        <ele>132</ele>
        <time>2013-03-10T15:16:24Z</time>
      </trkpt>
      <trkpt lat="48.51907" lon="-3.35457">
        <ele>132</ele>
        <time>2013-03-10T15:16:27Z</time>
      </trkpt>
      <trkpt lat="48.51907" lon="-3.35456">
        <ele>132</ele>
        <time>2013-03-10T15:16:29Z</time>
      </trkpt>
      <trkpt lat="48.51906" lon="-3.35455">
        <ele>132</ele>
        <time>2013-03-10T15:16:32Z</time>
      </trkpt>
      <trkpt lat="48.51905" lon="-3.35454">
        <ele>132</ele>
        <time>2013-03-10T15:16:35Z</time>
      </trkpt>
      <trkpt lat="48.51904" lon="-3.35453">
        <ele>132</ele>
        <time>2013-03-10T15:16:37Z</time>
      </trkpt>
      <trkpt lat="48.51903" lon="-3.35451">
        <ele>132</ele>
        <time>2013-03-10T15:16:40Z</time>
      </trkpt>
      <trkpt lat="48.51903" lon="-3.3545">
        <ele>132</ele>
        <time>2013-03-10T15:16:42Z</time>
      </trkpt>
      <trkpt lat="48.51903" lon="-3.3545">
        <ele>132</ele>
        <time>2013-03-10T15:16:44Z</time>
      </trkpt>
      <trkpt lat="48.51902" lon="-3.3545">
        <ele>132</ele>
        <time>2013-03-10T15:16:47Z</time>
      </trkpt>
      <trkpt lat="48.51902" lon="-3.35449">
        <ele>132</ele>
        <time>2013-03-10T15:16:50Z</time>
      </trkpt>
      <trkpt lat="48.51902" lon="-3.35449">
        <ele>132</ele>
        <time>2013-03-10T15:16:52Z</time>
      </trkpt>
      <trkpt lat="48.51903" lon="-3.3545">
        <ele>132</ele>
        <time>2013-03-10T15:16:55Z</time>
      </trkpt>
      <trkpt lat="48.51903" lon="-3.35451">
        <ele>132</ele>
        <time>2013-03-10T15:16:58Z</time>
      </trkpt>
      <trkpt lat="48.51904" lon="-3.35452">
        <ele>132</ele>
        <time>2013-03-10T15:17:01Z</time>
      </trkpt>
      <trkpt lat="48.51905" lon="-3.35453">
        <ele>132</ele>
        <time>2013-03-10T15:17:03Z</time>
      </trkpt>
      <trkpt lat="48.51905" lon="-3.35454">
        <ele>132</ele>
        <time>2013-03-10T15:17:05Z</time>
      </trkpt>
      <trkpt lat="48.51906" lon="-3.35455">
        <ele>132</ele>
        <time>2013-03-10T15:17:07Z</time>
      </trkpt>
      <trkpt lat="48.51907" lon="-3.35456">
        <ele>132</ele>
        <time>2013-03-10T15:17:10Z</time>
      </trkpt>
      <trkpt lat="48.51908" lon="-3.35456">
        <ele>132</ele>
        <time>2013-03-10T15:17:12Z</time>
      </trkpt>
      <trkpt lat="48.51908" lon="-3.35457">
        <ele>132</ele>
        <time>2013-03-10T15:17:15Z</time>
      </trkpt>
      <trkpt lat="48.51908" lon="-3.35458">
        <ele>132</ele>
        <time>2013-03-10T15:17:17Z</time>
      </trkpt>
      <trkpt lat="48.51908" lon="-3.35459">
        <ele>132</ele>
        <time>2013-03-10T15:17:19Z</time>
      </trkpt>
      <trkpt lat="48.51908" lon="-3.3546">
        <ele>132</ele>
        <time>2013-03-10T15:17:21Z</time>
      </trkpt>
      <trkpt lat="48.51909" lon="-3.3546">
        <ele>132</ele>
        <time>2013-03-10T15:17:24Z</time>
      </trkpt>
      <trkpt lat="48.51909" lon="-3.3546">
        <ele>132</ele>
        <time>2013-03-10T15:17:26Z</time>
      </trkpt>
      <trkpt lat="48.51909" lon="-3.35461">
        <ele>132</ele>
        <time>2013-03-10T15:17:28Z</time>
      </trkpt>
      <trkpt lat="48.51908" lon="-3.35461">
        <ele>132</ele>
        <time>2013-03-10T15:17:31Z</time>
      </trkpt>
      <trkpt lat="48.51908" lon="-3.35461">
        <ele>132</ele>
        <time>2013-03-10T15:17:33Z</time>
      </trkpt>
      <trkpt lat="48.51907" lon="-3.35461">
        <ele>132</ele>
        <time>2013-03-10T15:17:35Z</time>
      </trkpt>
      <trkpt lat="48.51906" lon="-3.35461">
        <ele>132</ele>
        <time>2013-03-10T15:17:37Z</time>
      </trkpt>
      <trkpt lat="48.51905" lon="-3.35461">
        <ele>132</ele>
        <time>2013-03-10T15:17:39Z</time>
      </trkpt>
      <trkpt lat="48.51905" lon="-3.3546">
        <ele>132</ele>
        <time>2013-03-10T15:17:42Z</time>
      </trkpt>
      <trkpt lat="48.51904" lon="-3.3546">
        <ele>132</ele>
        <time>2013-03-10T15:17:44Z</time>
      </trkpt>
      <trkpt lat="48.51903" lon="-3.3546">
        <ele>132</ele>
        <time>2013-03-10T15:17:47Z</time>
      </trkpt>
      <trkpt lat="48.51902" lon="-3.3546">
        <ele>133</ele>
        <time>2013-03-10T15:17:50Z</time>
      </trkpt>
      <trkpt lat="48.51902" lon="-3.35459">
        <ele>133</ele>
        <time>2013-03-10T15:17:52Z</time>
      </trkpt>
      <trkpt lat="48.51902" lon="-3.35459">
        <ele>133</ele>
        <time>2013-03-10T15:17:55Z</time>
      </trkpt>
      <trkpt lat="48.51903" lon="-3.35458">
        <ele>133</ele>
        <time>2013-03-10T15:17:58Z</time>
      </trkpt>
      <trkpt lat="48.51904" lon="-3.35459">
        <ele>133</ele>
        <time>2013-03-10T15:18:01Z</time>
      </trkpt>
      <trkpt lat="48.51904" lon="-3.35458">
        <ele>133</ele>
        <time>2013-03-10T15:18:03Z</time>
      </trkpt>
      <trkpt lat="48.51905" lon="-3.35458">
        <ele>132</ele>
        <time>2013-03-10T15:18:05Z</time>
      </trkpt>
      <trkpt lat="48.51905" lon="-3.35458">
        <ele>133</ele>
        <time>2013-03-10T15:18:07Z</time>
      </trkpt>
      <trkpt lat="48.51907" lon="-3.35458">
        <ele>133</ele>
        <time>2013-03-10T15:18:10Z</time>
      </trkpt>
      <trkpt lat="48.51909" lon="-3.35459">
        <ele>133</ele>
        <time>2013-03-10T15:18:13Z</time>
      </trkpt>
      <trkpt lat="48.51911" lon="-3.35461">
        <ele>133</ele>
        <time>2013-03-10T15:18:16Z</time>
      </trkpt>
      <trkpt lat="48.51912" lon="-3.35461">
        <ele>133</ele>
        <time>2013-03-10T15:18:18Z</time>
      </trkpt>
      <trkpt lat="48.51913" lon="-3.35461">
        <ele>133</ele>
        <time>2013-03-10T15:18:21Z</time>
      </trkpt>
      <trkpt lat="48.51913" lon="-3.3546">
        <ele>133</ele>
        <time>2013-03-10T15:18:23Z</time>
      </trkpt>
      <trkpt lat="48.51913" lon="-3.35458">
        <ele>133</ele>
        <time>2013-03-10T15:18:25Z</time>
      </trkpt>
      <trkpt lat="48.51915" lon="-3.35457">
        <ele>133</ele>
        <time>2013-03-10T15:18:28Z</time>
      </trkpt>
      <trkpt lat="48.51916" lon="-3.35456">
        <ele>133</ele>
        <time>2013-03-10T15:18:30Z</time>
      </trkpt>
      <trkpt lat="48.51917" lon="-3.35455">
        <ele>133</ele>
        <time>2013-03-10T15:18:32Z</time>
      </trkpt>
      <trkpt lat="48.51918" lon="-3.35455">
        <ele>133</ele>
        <time>2013-03-10T15:18:34Z</time>
      </trkpt>
      <trkpt lat="48.51918" lon="-3.35455">
        <ele>132</ele>
        <time>2013-03-10T15:18:36Z</time>
      </trkpt>
      <trkpt lat="48.51918" lon="-3.35455">
        <ele>132</ele>
        <time>2013-03-10T15:18:39Z</time>
      </trkpt>
      <trkpt lat="48.51917" lon="-3.35455">
        <ele>132</ele>
        <time>2013-03-10T15:18:42Z</time>
      </trkpt>
      <trkpt lat="48.51917" lon="-3.35456">
        <ele>131</ele>
        <time>2013-03-10T15:18:44Z</time>
      </trkpt>
      <trkpt lat="48.51916" lon="-3.35457">
        <ele>131</ele>
        <time>2013-03-10T15:18:47Z</time>
      </trkpt>
      <trkpt lat="48.51916" lon="-3.35458">
        <ele>132</ele>
        <time>2013-03-10T15:18:50Z</time>
      </trkpt>
      <trkpt lat="48.51916" lon="-3.35459">
        <ele>131</ele>
        <time>2013-03-10T15:18:53Z</time>
      </trkpt>
      <trkpt lat="48.51915" lon="-3.3546">
        <ele>131</ele>
        <time>2013-03-10T15:18:56Z</time>
      </trkpt>
      <trkpt lat="48.51915" lon="-3.35461">
        <ele>131</ele>
        <time>2013-03-10T15:18:59Z</time>
      </trkpt>
      <trkpt lat="48.51914" lon="-3.35462">
        <ele>131</ele>
        <time>2013-03-10T15:19:01Z</time>
      </trkpt>
      <trkpt lat="48.51914" lon="-3.35463">
        <ele>131</ele>
        <time>2013-03-10T15:19:03Z</time>
      </trkpt>
      <trkpt lat="48.51914" lon="-3.35464">
        <ele>131</ele>
        <time>2013-03-10T15:19:06Z</time>
      </trkpt>
      <trkpt lat="48.51914" lon="-3.35465">
        <ele>131</ele>
        <time>2013-03-10T15:19:08Z</time>
      </trkpt>
      <trkpt lat="48.51914" lon="-3.35465">
        <ele>131</ele>
        <time>2013-03-10T15:19:11Z</time>
      </trkpt>
      <trkpt lat="48.51914" lon="-3.35466">
        <ele>131</ele>
        <time>2013-03-10T15:19:14Z</time>
      </trkpt>
      <trkpt lat="48.51914" lon="-3.35467">
        <ele>131</ele>
        <time>2013-03-10T15:19:16Z</time>
      </trkpt>
      <trkpt lat="48.51914" lon="-3.35467">
        <ele>131</ele>
        <time>2013-03-10T15:19:19Z</time>
      </trkpt>
      <trkpt lat="48.51915" lon="-3.35468">
        <ele>131</ele>
        <time>2013-03-10T15:19:21Z</time>
      </trkpt>
      <trkpt lat="48.51915" lon="-3.35468">
        <ele>131</ele>
        <time>2013-03-10T15:19:23Z</time>
      </trkpt>
      <trkpt lat="48.51915" lon="-3.35468">
        <ele>131</ele>
        <time>2013-03-10T15:19:26Z</time>
      </trkpt>
      <trkpt lat="48.51915" lon="-3.35469">
        <ele>131</ele>
        <time>2013-03-10T15:19:28Z</time>
      </trkpt>
      <trkpt lat="48.51916" lon="-3.35469">
        <ele>132</ele>
        <time>2013-03-10T15:19:31Z</time>
      </trkpt>
      <trkpt lat="48.51917" lon="-3.35469">
        <ele>132</ele>
        <time>2013-03-10T15:19:33Z</time>
      </trkpt>
      <trkpt lat="48.51917" lon="-3.35469">
        <ele>132</ele>
        <time>2013-03-10T15:19:35Z</time>
      </trkpt>
      <trkpt lat="48.51916" lon="-3.35468">
        <ele>132</ele>
        <time>2013-03-10T15:19:38Z</time>
      </trkpt>
      <trkpt lat="48.51916" lon="-3.35468">
        <ele>132</ele>
        <time>2013-03-10T15:19:41Z</time>
      </trkpt>
      <trkpt lat="48.51916" lon="-3.35468">
        <ele>132</ele>
        <time>2013-03-10T15:19:43Z</time>
      </trkpt>
      <trkpt lat="48.51916" lon="-3.35469">
        <ele>132</ele>
        <time>2013-03-10T15:19:46Z</time>
      </trkpt>
      <trkpt lat="48.51916" lon="-3.35468">
        <ele>132</ele>
        <time>2013-03-10T15:19:48Z</time>
      </trkpt>
      <trkpt lat="48.51917" lon="-3.35467">
        <ele>132</ele>
        <time>2013-03-10T15:19:51Z</time>
      </trkpt>
      <trkpt lat="48.51917" lon="-3.35467">
        <ele>132</ele>
        <time>2013-03-10T15:19:54Z</time>
      </trkpt>
      <trkpt lat="48.51917" lon="-3.35467">
        <ele>132</ele>
        <time>2013-03-10T15:19:56Z</time>
      </trkpt>
      <trkpt lat="48.51917" lon="-3.35468">
        <ele>132</ele>
        <time>2013-03-10T15:19:59Z</time>
      </trkpt>
      <trkpt lat="48.51918" lon="-3.35468">
        <ele>132</ele>
        <time>2013-03-10T15:20:01Z</time>
      </trkpt>
      <trkpt lat="48.5192" lon="-3.35467">
        <ele>132</ele>
        <time>2013-03-10T15:20:04Z</time>
      </trkpt>
      <trkpt lat="48.51921" lon="-3.35466">
        <ele>132</ele>
        <time>2013-03-10T15:20:06Z</time>
      </trkpt>
      <trkpt lat="48.51923" lon="-3.35465">
        <ele>132</ele>
        <time>2013-03-10T15:20:08Z</time>
      </trkpt>
      <trkpt lat="48.51924" lon="-3.35464">
        <ele>132</ele>
        <time>2013-03-10T15:20:10Z</time>
      </trkpt>
      <trkpt lat="48.51926" lon="-3.35464">
        <ele>132</ele>
        <time>2013-03-10T15:20:12Z</time>
      </trkpt>
      <trkpt lat="48.51928" lon="-3.35464">
        <ele>132</ele>
        <time>2013-03-10T15:20:15Z</time>
      </trkpt>
      <trkpt lat="48.51931" lon="-3.35465">
        <ele>132</ele>
        <time>2013-03-10T15:20:18Z</time>
      </trkpt>
      <trkpt lat="48.51932" lon="-3.35464">
        <ele>132</ele>
        <time>2013-03-10T15:20:20Z</time>
      </trkpt>
      <trkpt lat="48.51935" lon="-3.3546">
        <ele>132</ele>
        <time>2013-03-10T15:20:23Z</time>
      </trkpt>
      <trkpt lat="48.51936" lon="-3.35458">
        <ele>132</ele>
        <time>2013-03-10T15:20:25Z</time>
      </trkpt>
      <trkpt lat="48.51937" lon="-3.35455">
        <ele>132</ele>
        <time>2013-03-10T15:20:27Z</time>
      </trkpt>
      <trkpt lat="48.51939" lon="-3.3545">
        <ele>132</ele>
        <time>2013-03-10T15:20:30Z</time>
      </trkpt>
      <trkpt lat="48.5194" lon="-3.35447">
        <ele>132</ele>
        <time>2013-03-10T15:20:32Z</time>
      </trkpt>
      <trkpt lat="48.51942" lon="-3.35442">
        <ele>132</ele>
        <time>2013-03-10T15:20:35Z</time>
      </trkpt>
      <trkpt lat="48.51944" lon="-3.35438">
        <ele>132</ele>
        <time>2013-03-10T15:20:38Z</time>
      </trkpt>
      <trkpt lat="48.51945" lon="-3.35434">
        <ele>132</ele>
        <time>2013-03-10T15:20:41Z</time>
      </trkpt>
      <trkpt lat="48.51947" lon="-3.35429">
        <ele>132</ele>
        <time>2013-03-10T15:20:44Z</time>
      </trkpt>
      <trkpt lat="48.51948" lon="-3.35426">
        <ele>132</ele>
        <time>2013-03-10T15:20:46Z</time>
      </trkpt>
      <trkpt lat="48.51949" lon="-3.35423">
        <ele>132</ele>
        <time>2013-03-10T15:20:48Z</time>
      </trkpt>
      <trkpt lat="48.5195" lon="-3.3542">
        <ele>132</ele>
        <time>2013-03-10T15:20:50Z</time>
      </trkpt>
      <trkpt lat="48.51951" lon="-3.35416">
        <ele>132</ele>
        <time>2013-03-10T15:20:53Z</time>
      </trkpt>
      <trkpt lat="48.51952" lon="-3.35412">
        <ele>132</ele>
        <time>2013-03-10T15:20:55Z</time>
      </trkpt>
      <trkpt lat="48.51952" lon="-3.35408">
        <ele>132</ele>
        <time>2013-03-10T15:20:58Z</time>
      </trkpt>
      <trkpt lat="48.51952" lon="-3.35403">
        <ele>133</ele>
        <time>2013-03-10T15:21:01Z</time>
      </trkpt>
      <trkpt lat="48.51952" lon="-3.35397">
        <ele>133</ele>
        <time>2013-03-10T15:21:04Z</time>
      </trkpt>
      <trkpt lat="48.51953" lon="-3.35392">
        <ele>133</ele>
        <time>2013-03-10T15:21:07Z</time>
      </trkpt>
      <trkpt lat="48.51954" lon="-3.35389">
        <ele>132</ele>
        <time>2013-03-10T15:21:09Z</time>
      </trkpt>
      <trkpt lat="48.51954" lon="-3.35385">
        <ele>132</ele>
        <time>2013-03-10T15:21:11Z</time>
      </trkpt>
      <trkpt lat="48.51955" lon="-3.3538">
        <ele>133</ele>
        <time>2013-03-10T15:21:14Z</time>
      </trkpt>
      <trkpt lat="48.51955" lon="-3.35375">
        <ele>133</ele>
        <time>2013-03-10T15:21:17Z</time>
      </trkpt>
      <trkpt lat="48.51955" lon="-3.3537">
        <ele>132</ele>
        <time>2013-03-10T15:21:20Z</time>
      </trkpt>
      <trkpt lat="48.51955" lon="-3.35367">
        <ele>132</ele>
        <time>2013-03-10T15:21:22Z</time>
      </trkpt>
      <trkpt lat="48.51955" lon="-3.35363">
        <ele>133</ele>
        <time>2013-03-10T15:21:25Z</time>
      </trkpt>
      <trkpt lat="48.51955" lon="-3.3536">
        <ele>133</ele>
        <time>2013-03-10T15:21:27Z</time>
      </trkpt>
      <trkpt lat="48.51956" lon="-3.35356">
        <ele>133</ele>
        <time>2013-03-10T15:21:30Z</time>
      </trkpt>
      <trkpt lat="48.51956" lon="-3.35351">
        <ele>133</ele>
        <time>2013-03-10T15:21:33Z</time>
      </trkpt>
      <trkpt lat="48.51956" lon="-3.35349">
        <ele>133</ele>
        <time>2013-03-10T15:21:35Z</time>
      </trkpt>
      <trkpt lat="48.51956" lon="-3.35346">
        <ele>133</ele>
        <time>2013-03-10T15:21:37Z</time>
      </trkpt>
      <trkpt lat="48.51956" lon="-3.35342">
        <ele>133</ele>
        <time>2013-03-10T15:21:40Z</time>
      </trkpt>
      <trkpt lat="48.51957" lon="-3.35338">
        <ele>133</ele>
        <time>2013-03-10T15:21:42Z</time>
      </trkpt>
      <trkpt lat="48.51958" lon="-3.35335">
        <ele>133</ele>
        <time>2013-03-10T15:21:44Z</time>
      </trkpt>
      <trkpt lat="48.51959" lon="-3.35332">
        <ele>133</ele>
        <time>2013-03-10T15:21:46Z</time>
      </trkpt>
      <trkpt lat="48.5196" lon="-3.35328">
        <ele>133</ele>
        <time>2013-03-10T15:21:48Z</time>
      </trkpt>
      <trkpt lat="48.51961" lon="-3.35324">
        <ele>133</ele>
        <time>2013-03-10T15:21:50Z</time>
      </trkpt>
      <trkpt lat="48.51962" lon="-3.35319">
        <ele>134</ele>
        <time>2013-03-10T15:21:53Z</time>
      </trkpt>
      <trkpt lat="48.51962" lon="-3.35314">
        <ele>134</ele>
        <time>2013-03-10T15:21:56Z</time>
      </trkpt>
      <trkpt lat="48.51963" lon="-3.35311">
        <ele>134</ele>
        <time>2013-03-10T15:21:58Z</time>
      </trkpt>
      <trkpt lat="48.51963" lon="-3.35306">
        <ele>134</ele>
        <time>2013-03-10T15:22:01Z</time>
      </trkpt>
      <trkpt lat="48.51963" lon="-3.35301">
        <ele>134</ele>
        <time>2013-03-10T15:22:04Z</time>
      </trkpt>
      <trkpt lat="48.51964" lon="-3.35298">
        <ele>134</ele>
        <time>2013-03-10T15:22:06Z</time>
      </trkpt>
      <trkpt lat="48.51964" lon="-3.35296">
        <ele>134</ele>
        <time>2013-03-10T15:22:08Z</time>
      </trkpt>
      <trkpt lat="48.51963" lon="-3.35289">
        <ele>134</ele>
        <time>2013-03-10T15:22:11Z</time>
      </trkpt>
      <trkpt lat="48.51963" lon="-3.35284">
        <ele>134</ele>
        <time>2013-03-10T15:22:14Z</time>
      </trkpt>
      <trkpt lat="48.51964" lon="-3.35279">
        <ele>134</ele>
        <time>2013-03-10T15:22:17Z</time>
      </trkpt>
      <trkpt lat="48.51964" lon="-3.35275">
        <ele>134</ele>
        <time>2013-03-10T15:22:19Z</time>
      </trkpt>
      <trkpt lat="48.51965" lon="-3.3527">
        <ele>134</ele>
        <time>2013-03-10T15:22:22Z</time>
      </trkpt>
      <trkpt lat="48.51965" lon="-3.35266">
        <ele>134</ele>
        <time>2013-03-10T15:22:24Z</time>
      </trkpt>
      <trkpt lat="48.51966" lon="-3.35262">
        <ele>134</ele>
        <time>2013-03-10T15:22:27Z</time>
      </trkpt>
      <trkpt lat="48.51967" lon="-3.35256">
        <ele>134</ele>
        <time>2013-03-10T15:22:30Z</time>
      </trkpt>
      <trkpt lat="48.51968" lon="-3.35251">
        <ele>134</ele>
        <time>2013-03-10T15:22:33Z</time>
      </trkpt>
      <trkpt lat="48.51969" lon="-3.35248">
        <ele>134</ele>
        <time>2013-03-10T15:22:35Z</time>
      </trkpt>
      <trkpt lat="48.51969" lon="-3.35244">
        <ele>134</ele>
        <time>2013-03-10T15:22:37Z</time>
      </trkpt>
      <trkpt lat="48.5197" lon="-3.35239">
        <ele>134</ele>
        <time>2013-03-10T15:22:40Z</time>
      </trkpt>
      <trkpt lat="48.5197" lon="-3.35234">
        <ele>135</ele>
        <time>2013-03-10T15:22:43Z</time>
      </trkpt>
      <trkpt lat="48.51971" lon="-3.35231">
        <ele>135</ele>
        <time>2013-03-10T15:22:45Z</time>
      </trkpt>
      <trkpt lat="48.51971" lon="-3.35228">
        <ele>135</ele>
        <time>2013-03-10T15:22:47Z</time>
      </trkpt>
      <trkpt lat="48.51973" lon="-3.35223">
        <ele>135</ele>
        <time>2013-03-10T15:22:50Z</time>
      </trkpt>
      <trkpt lat="48.51973" lon="-3.3522">
        <ele>135</ele>
        <time>2013-03-10T15:22:52Z</time>
      </trkpt>
      <trkpt lat="48.51974" lon="-3.35216">
        <ele>135</ele>
        <time>2013-03-10T15:22:54Z</time>
      </trkpt>
      <trkpt lat="48.51975" lon="-3.35211">
        <ele>135</ele>
        <time>2013-03-10T15:22:57Z</time>
      </trkpt>
      <trkpt lat="48.51976" lon="-3.35206">
        <ele>135</ele>
        <time>2013-03-10T15:23:00Z</time>
      </trkpt>
      <trkpt lat="48.51977" lon="-3.35201">
        <ele>135</ele>
        <time>2013-03-10T15:23:03Z</time>
      </trkpt>
      <trkpt lat="48.51977" lon="-3.35197">
        <ele>135</ele>
        <time>2013-03-10T15:23:05Z</time>
      </trkpt>
      <trkpt lat="48.51977" lon="-3.35194">
        <ele>135</ele>
        <time>2013-03-10T15:23:07Z</time>
      </trkpt>
      <trkpt lat="48.51978" lon="-3.35189">
        <ele>135</ele>
        <time>2013-03-10T15:23:10Z</time>
      </trkpt>
      <trkpt lat="48.51978" lon="-3.35186">
        <ele>135</ele>
        <time>2013-03-10T15:23:12Z</time>
      </trkpt>
      <trkpt lat="48.51979" lon="-3.35181">
        <ele>135</ele>
        <time>2013-03-10T15:23:15Z</time>
      </trkpt>
      <trkpt lat="48.51979" lon="-3.35177">
        <ele>135</ele>
        <time>2013-03-10T15:23:17Z</time>
      </trkpt>
      <trkpt lat="48.51979" lon="-3.35172">
        <ele>135</ele>
        <time>2013-03-10T15:23:20Z</time>
      </trkpt>
      <trkpt lat="48.5198" lon="-3.35169">
        <ele>135</ele>
        <time>2013-03-10T15:23:22Z</time>
      </trkpt>
      <trkpt lat="48.51981" lon="-3.35164">
        <ele>136</ele>
        <time>2013-03-10T15:23:25Z</time>
      </trkpt>
      <trkpt lat="48.51982" lon="-3.35161">
        <ele>135</ele>
        <time>2013-03-10T15:23:27Z</time>
      </trkpt>
      <trkpt lat="48.51983" lon="-3.35157">
        <ele>136</ele>
        <time>2013-03-10T15:23:29Z</time>
      </trkpt>
      <trkpt lat="48.51984" lon="-3.35154">
        <ele>136</ele>
        <time>2013-03-10T15:23:31Z</time>
      </trkpt>
      <trkpt lat="48.51984" lon="-3.35149">
        <ele>136</ele>
        <time>2013-03-10T15:23:34Z</time>
      </trkpt>
      <trkpt lat="48.51984" lon="-3.35144">
        <ele>136</ele>
        <time>2013-03-10T15:23:37Z</time>
      </trkpt>
      <trkpt lat="48.51984" lon="-3.35141">
        <ele>136</ele>
        <time>2013-03-10T15:23:39Z</time>
      </trkpt>
      <trkpt lat="48.51984" lon="-3.35137">
        <ele>136</ele>
        <time>2013-03-10T15:23:42Z</time>
      </trkpt>
      <trkpt lat="48.51984" lon="-3.35134">
        <ele>136</ele>
        <time>2013-03-10T15:23:44Z</time>
      </trkpt>
      <trkpt lat="48.51985" lon="-3.3513">
        <ele>136</ele>
        <time>2013-03-10T15:23:47Z</time>
      </trkpt>
      <trkpt lat="48.51986" lon="-3.35127">
        <ele>136</ele>
        <time>2013-03-10T15:23:49Z</time>
      </trkpt>
      <trkpt lat="48.51986" lon="-3.35123">
        <ele>136</ele>
        <time>2013-03-10T15:23:52Z</time>
      </trkpt>
      <trkpt lat="48.51986" lon="-3.35121">
        <ele>137</ele>
        <time>2013-03-10T15:23:54Z</time>
      </trkpt>
      <trkpt lat="48.51986" lon="-3.35121">
        <ele>137</ele>
        <time>2013-03-10T15:23:56Z</time>
      </trkpt>
      <trkpt lat="48.51986" lon="-3.35118">
        <ele>137</ele>
        <time>2013-03-10T15:23:59Z</time>
      </trkpt>
      <trkpt lat="48.51986" lon="-3.35114">
        <ele>137</ele>
        <time>2013-03-10T15:24:02Z</time>
      </trkpt>
      <trkpt lat="48.51986" lon="-3.35109">
        <ele>137</ele>
        <time>2013-03-10T15:24:05Z</time>
      </trkpt>
      <trkpt lat="48.51986" lon="-3.35106">
        <ele>137</ele>
        <time>2013-03-10T15:24:07Z</time>
      </trkpt>
      <trkpt lat="48.51987" lon="-3.35103">
        <ele>137</ele>
        <time>2013-03-10T15:24:09Z</time>
      </trkpt>
      <trkpt lat="48.51988" lon="-3.35099">
        <ele>137</ele>
        <time>2013-03-10T15:24:12Z</time>
      </trkpt>
      <trkpt lat="48.51989" lon="-3.35093">
        <ele>137</ele>
        <time>2013-03-10T15:24:15Z</time>
      </trkpt>
      <trkpt lat="48.51989" lon="-3.3509">
        <ele>137</ele>
        <time>2013-03-10T15:24:17Z</time>
      </trkpt>
      <trkpt lat="48.5199" lon="-3.35085">
        <ele>137</ele>
        <time>2013-03-10T15:24:20Z</time>
      </trkpt>
      <trkpt lat="48.51991" lon="-3.3508">
        <ele>137</ele>
        <time>2013-03-10T15:24:23Z</time>
      </trkpt>
      <trkpt lat="48.51991" lon="-3.35075">
        <ele>137</ele>
        <time>2013-03-10T15:24:26Z</time>
      </trkpt>
      <trkpt lat="48.51991" lon="-3.3507">
        <ele>138</ele>
        <time>2013-03-10T15:24:29Z</time>
      </trkpt>
      <trkpt lat="48.51992" lon="-3.35067">
        <ele>138</ele>
        <time>2013-03-10T15:24:31Z</time>
      </trkpt>
      <trkpt lat="48.51992" lon="-3.35064">
        <ele>138</ele>
        <time>2013-03-10T15:24:33Z</time>
      </trkpt>
      <trkpt lat="48.51993" lon="-3.35059">
        <ele>138</ele>
        <time>2013-03-10T15:24:36Z</time>
      </trkpt>
      <trkpt lat="48.51993" lon="-3.35055">
        <ele>138</ele>
        <time>2013-03-10T15:24:38Z</time>
      </trkpt>
      <trkpt lat="48.51994" lon="-3.35051">
        <ele>138</ele>
        <time>2013-03-10T15:24:41Z</time>
      </trkpt>
      <trkpt lat="48.51994" lon="-3.35047">
        <ele>138</ele>
        <time>2013-03-10T15:24:43Z</time>
      </trkpt>
      <trkpt lat="48.51995" lon="-3.35042">
        <ele>138</ele>
        <time>2013-03-10T15:24:46Z</time>
      </trkpt>
      <trkpt lat="48.51995" lon="-3.35039">
        <ele>139</ele>
        <time>2013-03-10T15:24:48Z</time>
      </trkpt>
      <trkpt lat="48.51995" lon="-3.35035">
        <ele>139</ele>
        <time>2013-03-10T15:24:51Z</time>
      </trkpt>
      <trkpt lat="48.51996" lon="-3.3503">
        <ele>139</ele>
        <time>2013-03-10T15:24:54Z</time>
      </trkpt>
      <trkpt lat="48.51996" lon="-3.35028">
        <ele>139</ele>
        <time>2013-03-10T15:24:56Z</time>
      </trkpt>
      <trkpt lat="48.51996" lon="-3.35025">
        <ele>139</ele>
        <time>2013-03-10T15:24:58Z</time>
      </trkpt>
      <trkpt lat="48.51997" lon="-3.3502">
        <ele>139</ele>
        <time>2013-03-10T15:25:01Z</time>
      </trkpt>
      <trkpt lat="48.51997" lon="-3.35018">
        <ele>140</ele>
        <time>2013-03-10T15:25:03Z</time>
      </trkpt>
      <trkpt lat="48.51997" lon="-3.35014">
        <ele>140</ele>
        <time>2013-03-10T15:25:06Z</time>
      </trkpt>
      <trkpt lat="48.51997" lon="-3.35011">
        <ele>140</ele>
        <time>2013-03-10T15:25:08Z</time>
      </trkpt>
      <trkpt lat="48.51997" lon="-3.35008">
        <ele>140</ele>
        <time>2013-03-10T15:25:10Z</time>
      </trkpt>
      <trkpt lat="48.51997" lon="-3.35002">
        <ele>140</ele>
        <time>2013-03-10T15:25:13Z</time>
      </trkpt>
      <trkpt lat="48.51998" lon="-3.34998">
        <ele>140</ele>
        <time>2013-03-10T15:25:16Z</time>
      </trkpt>
      <trkpt lat="48.51999" lon="-3.34995">
        <ele>141</ele>
        <time>2013-03-10T15:25:18Z</time>
      </trkpt>
      <trkpt lat="48.52001" lon="-3.3499">
        <ele>141</ele>
        <time>2013-03-10T15:25:21Z</time>
      </trkpt>
      <trkpt lat="48.52002" lon="-3.34986">
        <ele>141</ele>
        <time>2013-03-10T15:25:23Z</time>
      </trkpt>
      <trkpt lat="48.52002" lon="-3.34983">
        <ele>141</ele>
        <time>2013-03-10T15:25:25Z</time>
      </trkpt>
      <trkpt lat="48.52004" lon="-3.34978">
        <ele>141</ele>
        <time>2013-03-10T15:25:28Z</time>
      </trkpt>
      <trkpt lat="48.52005" lon="-3.34975">
        <ele>141</ele>
        <time>2013-03-10T15:25:31Z</time>
      </trkpt>
      <trkpt lat="48.52005" lon="-3.34971">
        <ele>142</ele>
        <time>2013-03-10T15:25:33Z</time>
      </trkpt>
      <trkpt lat="48.52006" lon="-3.34967">
        <ele>142</ele>
        <time>2013-03-10T15:25:36Z</time>
      </trkpt>
      <trkpt lat="48.52006" lon="-3.34962">
        <ele>142</ele>
        <time>2013-03-10T15:25:39Z</time>
      </trkpt>
      <trkpt lat="48.52006" lon="-3.34957">
        <ele>143</ele>
        <time>2013-03-10T15:25:42Z</time>
      </trkpt>
      <trkpt lat="48.52006" lon="-3.34954">
        <ele>143</ele>
        <time>2013-03-10T15:25:44Z</time>
      </trkpt>
      <trkpt lat="48.52007" lon="-3.34949">
        <ele>143</ele>
        <time>2013-03-10T15:25:47Z</time>
      </trkpt>
      <trkpt lat="48.52007" lon="-3.34946">
        <ele>143</ele>
        <time>2013-03-10T15:25:49Z</time>
      </trkpt>
      <trkpt lat="48.52008" lon="-3.34941">
        <ele>143</ele>
        <time>2013-03-10T15:25:52Z</time>
      </trkpt>
      <trkpt lat="48.52009" lon="-3.34936">
        <ele>144</ele>
        <time>2013-03-10T15:25:55Z</time>
      </trkpt>
      <trkpt lat="48.5201" lon="-3.34934">
        <ele>144</ele>
        <time>2013-03-10T15:25:57Z</time>
      </trkpt>
      <trkpt lat="48.5201" lon="-3.34929">
        <ele>144</ele>
        <time>2013-03-10T15:26:00Z</time>
      </trkpt>
      <trkpt lat="48.5201" lon="-3.34925">
        <ele>144</ele>
        <time>2013-03-10T15:26:03Z</time>
      </trkpt>
      <trkpt lat="48.52011" lon="-3.34921">
        <ele>144</ele>
        <time>2013-03-10T15:26:06Z</time>
      </trkpt>
      <trkpt lat="48.52012" lon="-3.34916">
        <ele>144</ele>
        <time>2013-03-10T15:26:09Z</time>
      </trkpt>
      <trkpt lat="48.52013" lon="-3.34912">
        <ele>145</ele>
        <time>2013-03-10T15:26:12Z</time>
      </trkpt>
      <trkpt lat="48.52014" lon="-3.3491">
        <ele>145</ele>
        <time>2013-03-10T15:26:14Z</time>
      </trkpt>
      <trkpt lat="48.52015" lon="-3.34906">
        <ele>145</ele>
        <time>2013-03-10T15:26:17Z</time>
      </trkpt>
      <trkpt lat="48.52015" lon="-3.34904">
        <ele>145</ele>
        <time>2013-03-10T15:26:19Z</time>
      </trkpt>
      <trkpt lat="48.52015" lon="-3.34901">
        <ele>146</ele>
        <time>2013-03-10T15:26:21Z</time>
      </trkpt>
      <trkpt lat="48.52016" lon="-3.34898">
        <ele>146</ele>
        <time>2013-03-10T15:26:23Z</time>
      </trkpt>
      <trkpt lat="48.52016" lon="-3.34894">
        <ele>146</ele>
        <time>2013-03-10T15:26:26Z</time>
      </trkpt>
      <trkpt lat="48.52016" lon="-3.34891">
        <ele>146</ele>
        <time>2013-03-10T15:26:29Z</time>
      </trkpt>
      <trkpt lat="48.52016" lon="-3.34889">
        <ele>147</ele>
        <time>2013-03-10T15:26:31Z</time>
      </trkpt>
      <trkpt lat="48.52016" lon="-3.34886">
        <ele>147</ele>
        <time>2013-03-10T15:26:33Z</time>
      </trkpt>
      <trkpt lat="48.52016" lon="-3.34883">
        <ele>147</ele>
        <time>2013-03-10T15:26:36Z</time>
      </trkpt>
      <trkpt lat="48.52017" lon="-3.3488">
        <ele>147</ele>
        <time>2013-03-10T15:26:38Z</time>
      </trkpt>
      <trkpt lat="48.52018" lon="-3.34877">
        <ele>147</ele>
        <time>2013-03-10T15:26:41Z</time>
      </trkpt>
      <trkpt lat="48.52019" lon="-3.34873">
        <ele>148</ele>
        <time>2013-03-10T15:26:44Z</time>
      </trkpt>
      <trkpt lat="48.5202" lon="-3.34871">
        <ele>148</ele>
        <time>2013-03-10T15:26:46Z</time>
      </trkpt>
      <trkpt lat="48.52021" lon="-3.34868">
        <ele>149</ele>
        <time>2013-03-10T15:26:48Z</time>
      </trkpt>
      <trkpt lat="48.52021" lon="-3.34865">
        <ele>149</ele>
        <time>2013-03-10T15:26:50Z</time>
      </trkpt>
      <trkpt lat="48.52022" lon="-3.34862">
        <ele>149</ele>
        <time>2013-03-10T15:26:53Z</time>
      </trkpt>
      <trkpt lat="48.52023" lon="-3.34858">
        <ele>149</ele>
        <time>2013-03-10T15:26:56Z</time>
      </trkpt>
      <trkpt lat="48.52024" lon="-3.34854">
        <ele>150</ele>
        <time>2013-03-10T15:26:59Z</time>
      </trkpt>
      <trkpt lat="48.52025" lon="-3.3485">
        <ele>150</ele>
        <time>2013-03-10T15:27:02Z</time>
      </trkpt>
      <trkpt lat="48.52025" lon="-3.34848">
        <ele>150</ele>
        <time>2013-03-10T15:27:04Z</time>
      </trkpt>
      <trkpt lat="48.52026" lon="-3.34844">
        <ele>150</ele>
        <time>2013-03-10T15:27:07Z</time>
      </trkpt>
      <trkpt lat="48.52026" lon="-3.34843">
        <ele>151</ele>
        <time>2013-03-10T15:27:09Z</time>
      </trkpt>
      <trkpt lat="48.52026" lon="-3.3484">
        <ele>151</ele>
        <time>2013-03-10T15:27:12Z</time>
      </trkpt>
      <trkpt lat="48.52025" lon="-3.34838">
        <ele>151</ele>
        <time>2013-03-10T15:27:14Z</time>
      </trkpt>
      <trkpt lat="48.52025" lon="-3.34835">
        <ele>152</ele>
        <time>2013-03-10T15:27:17Z</time>
      </trkpt>
      <trkpt lat="48.52025" lon="-3.34832">
        <ele>152</ele>
        <time>2013-03-10T15:27:20Z</time>
      </trkpt>
      <trkpt lat="48.52025" lon="-3.34829">
        <ele>152</ele>
        <time>2013-03-10T15:27:23Z</time>
      </trkpt>
      <trkpt lat="48.52025" lon="-3.34825">
        <ele>153</ele>
        <time>2013-03-10T15:27:26Z</time>
      </trkpt>
      <trkpt lat="48.52025" lon="-3.34823">
        <ele>153</ele>
        <time>2013-03-10T15:27:28Z</time>
      </trkpt>
      <trkpt lat="48.52025" lon="-3.34822">
        <ele>153</ele>
        <time>2013-03-10T15:27:30Z</time>
      </trkpt>
      <trkpt lat="48.52026" lon="-3.34819">
        <ele>153</ele>
        <time>2013-03-10T15:27:33Z</time>
      </trkpt>
      <trkpt lat="48.52026" lon="-3.34817">
        <ele>154</ele>
        <time>2013-03-10T15:27:35Z</time>
      </trkpt>
      <trkpt lat="48.52026" lon="-3.34813">
        <ele>154</ele>
        <time>2013-03-10T15:27:38Z</time>
      </trkpt>
      <trkpt lat="48.52026" lon="-3.34811">
        <ele>154</ele>
        <time>2013-03-10T15:27:40Z</time>
      </trkpt>
      <trkpt lat="48.52026" lon="-3.34809">
        <ele>154</ele>
        <time>2013-03-10T15:27:42Z</time>
      </trkpt>
      <trkpt lat="48.52026" lon="-3.34806">
        <ele>155</ele>
        <time>2013-03-10T15:27:45Z</time>
      </trkpt>
      <trkpt lat="48.52025" lon="-3.34804">
        <ele>155</ele>
        <time>2013-03-10T15:27:47Z</time>
      </trkpt>
      <trkpt lat="48.52025" lon="-3.34801">
        <ele>155</ele>
        <time>2013-03-10T15:27:50Z</time>
      </trkpt>
      <trkpt lat="48.52025" lon="-3.34799">
        <ele>156</ele>
        <time>2013-03-10T15:27:52Z</time>
      </trkpt>
      <trkpt lat="48.52026" lon="-3.34796">
        <ele>156</ele>
        <time>2013-03-10T15:27:54Z</time>
      </trkpt>
      <trkpt lat="48.52026" lon="-3.34793">
        <ele>156</ele>
        <time>2013-03-10T15:27:57Z</time>
      </trkpt>
      <trkpt lat="48.52026" lon="-3.34791">
        <ele>156</ele>
        <time>2013-03-10T15:27:59Z</time>
      </trkpt>
      <trkpt lat="48.52026" lon="-3.34789">
        <ele>156</ele>
        <time>2013-03-10T15:28:01Z</time>
      </trkpt>
      <trkpt lat="48.52026" lon="-3.34787">
        <ele>157</ele>
        <time>2013-03-10T15:28:04Z</time>
      </trkpt>
      <trkpt lat="48.52026" lon="-3.34785">
        <ele>157</ele>
        <time>2013-03-10T15:28:06Z</time>
      </trkpt>
      <trkpt lat="48.52027" lon="-3.34782">
        <ele>157</ele>
        <time>2013-03-10T15:28:08Z</time>
      </trkpt>
      <trkpt lat="48.52026" lon="-3.3478">
        <ele>157</ele>
        <time>2013-03-10T15:28:11Z</time>
      </trkpt>
      <trkpt lat="48.52026" lon="-3.34777">
        <ele>158</ele>
        <time>2013-03-10T15:28:14Z</time>
      </trkpt>
      <trkpt lat="48.52026" lon="-3.34775">
        <ele>158</ele>
        <time>2013-03-10T15:28:16Z</time>
      </trkpt>
      <trkpt lat="48.52026" lon="-3.34773">
        <ele>158</ele>
        <time>2013-03-10T15:28:18Z</time>
      </trkpt>
      <trkpt lat="48.52026" lon="-3.34772">
        <ele>158</ele>
        <time>2013-03-10T15:28:20Z</time>
      </trkpt>
      <trkpt lat="48.52026" lon="-3.34769">
        <ele>158</ele>
        <time>2013-03-10T15:28:23Z</time>
      </trkpt>
      <trkpt lat="48.52026" lon="-3.34766">
        <ele>159</ele>
        <time>2013-03-10T15:28:26Z</time>
      </trkpt>
      <trkpt lat="48.52027" lon="-3.34763">
        <ele>159</ele>
        <time>2013-03-10T15:28:29Z</time>
      </trkpt>
      <trkpt lat="48.52028" lon="-3.34758">
        <ele>159</ele>
        <time>2013-03-10T15:28:32Z</time>
      </trkpt>
      <trkpt lat="48.52029" lon="-3.34755">
        <ele>159</ele>
        <time>2013-03-10T15:28:35Z</time>
      </trkpt>
      <trkpt lat="48.52029" lon="-3.34753">
        <ele>159</ele>
        <time>2013-03-10T15:28:37Z</time>
      </trkpt>
      <trkpt lat="48.52029" lon="-3.3475">
        <ele>160</ele>
        <time>2013-03-10T15:28:40Z</time>
      </trkpt>
      <trkpt lat="48.52029" lon="-3.34746">
        <ele>160</ele>
        <time>2013-03-10T15:28:43Z</time>
      </trkpt>
      <trkpt lat="48.5203" lon="-3.34743">
        <ele>161</ele>
        <time>2013-03-10T15:28:46Z</time>
      </trkpt>
      <trkpt lat="48.5203" lon="-3.34739">
        <ele>161</ele>
        <time>2013-03-10T15:28:49Z</time>
      </trkpt>
      <trkpt lat="48.5203" lon="-3.34735">
        <ele>161</ele>
        <time>2013-03-10T15:28:52Z</time>
      </trkpt>
      <trkpt lat="48.52031" lon="-3.34732">
        <ele>162</ele>
        <time>2013-03-10T15:28:55Z</time>
      </trkpt>
      <trkpt lat="48.52031" lon="-3.34729">
        <ele>162</ele>
        <time>2013-03-10T15:28:58Z</time>
      </trkpt>
      <trkpt lat="48.52031" lon="-3.34726">
        <ele>162</ele>
        <time>2013-03-10T15:29:01Z</time>
      </trkpt>
      <trkpt lat="48.52032" lon="-3.34722">
        <ele>163</ele>
        <time>2013-03-10T15:29:04Z</time>
      </trkpt>
      <trkpt lat="48.52032" lon="-3.34719">
        <ele>163</ele>
        <time>2013-03-10T15:29:07Z</time>
      </trkpt>
      <trkpt lat="48.52032" lon="-3.34717">
        <ele>163</ele>
        <time>2013-03-10T15:29:09Z</time>
      </trkpt>
      <trkpt lat="48.52033" lon="-3.34715">
        <ele>163</ele>
        <time>2013-03-10T15:29:11Z</time>
      </trkpt>
      <trkpt lat="48.52033" lon="-3.34712">
        <ele>163</ele>
        <time>2013-03-10T15:29:14Z</time>
      </trkpt>
      <trkpt lat="48.52033" lon="-3.3471">
        <ele>163</ele>
        <time>2013-03-10T15:29:16Z</time>
      </trkpt>
      <trkpt lat="48.52033" lon="-3.34707">
        <ele>164</ele>
        <time>2013-03-10T15:29:18Z</time>
      </trkpt>
      <trkpt lat="48.52033" lon="-3.34705">
        <ele>164</ele>
        <time>2013-03-10T15:29:21Z</time>
      </trkpt>
      <trkpt lat="48.52033" lon="-3.34703">
        <ele>164</ele>
        <time>2013-03-10T15:29:23Z</time>
      </trkpt>
      <trkpt lat="48.52034" lon="-3.347">
        <ele>164</ele>
        <time>2013-03-10T15:29:26Z</time>
      </trkpt>
      <trkpt lat="48.52034" lon="-3.34698">
        <ele>165</ele>
        <time>2013-03-10T15:29:28Z</time>
      </trkpt>
      <trkpt lat="48.52034" lon="-3.34694">
        <ele>165</ele>
        <time>2013-03-10T15:29:31Z</time>
      </trkpt>
      <trkpt lat="48.52035" lon="-3.34692">
        <ele>165</ele>
        <time>2013-03-10T15:29:33Z</time>
      </trkpt>
      <trkpt lat="48.52035" lon="-3.3469">
        <ele>165</ele>
        <time>2013-03-10T15:29:35Z</time>
      </trkpt>
      <trkpt lat="48.52036" lon="-3.34686">
        <ele>166</ele>
        <time>2013-03-10T15:29:38Z</time>
      </trkpt>
      <trkpt lat="48.52036" lon="-3.34684">
        <ele>166</ele>
        <time>2013-03-10T15:29:40Z</time>
      </trkpt>
      <trkpt lat="48.52036" lon="-3.34681">
        <ele>166</ele>
        <time>2013-03-10T15:29:43Z</time>
      </trkpt>
      <trkpt lat="48.52036" lon="-3.34679">
        <ele>167</ele>
        <time>2013-03-10T15:29:45Z</time>
      </trkpt>
      <trkpt lat="48.52037" lon="-3.34675">
        <ele>167</ele>
        <time>2013-03-10T15:29:48Z</time>
      </trkpt>
      <trkpt lat="48.52037" lon="-3.34672">
        <ele>167</ele>
        <time>2013-03-10T15:29:51Z</time>
      </trkpt>
      <trkpt lat="48.52037" lon="-3.3467">
        <ele>167</ele>
        <time>2013-03-10T15:29:53Z</time>
      </trkpt>
      <trkpt lat="48.52038" lon="-3.34667">
        <ele>167</ele>
        <time>2013-03-10T15:29:56Z</time>
      </trkpt>
      <trkpt lat="48.52038" lon="-3.34664">
        <ele>167</ele>
        <time>2013-03-10T15:29:58Z</time>
      </trkpt>
      <trkpt lat="48.52039" lon="-3.34661">
        <ele>168</ele>
        <time>2013-03-10T15:30:01Z</time>
      </trkpt>
      <trkpt lat="48.5204" lon="-3.34659">
        <ele>168</ele>
        <time>2013-03-10T15:30:03Z</time>
      </trkpt>
      <trkpt lat="48.52041" lon="-3.34657">
        <ele>168</ele>
        <time>2013-03-10T15:30:05Z</time>
      </trkpt>
      <trkpt lat="48.52041" lon="-3.34654">
        <ele>168</ele>
        <time>2013-03-10T15:30:07Z</time>
      </trkpt>
      <trkpt lat="48.52042" lon="-3.3465">
        <ele>168</ele>
        <time>2013-03-10T15:30:10Z</time>
      </trkpt>
      <trkpt lat="48.52042" lon="-3.34647">
        <ele>168</ele>
        <time>2013-03-10T15:30:13Z</time>
      </trkpt>
      <trkpt lat="48.52043" lon="-3.34644">
        <ele>169</ele>
        <time>2013-03-10T15:30:16Z</time>
      </trkpt>
      <trkpt lat="48.52043" lon="-3.34641">
        <ele>169</ele>
        <time>2013-03-10T15:30:19Z</time>
      </trkpt>
      <trkpt lat="48.52043" lon="-3.34639">
        <ele>169</ele>
        <time>2013-03-10T15:30:21Z</time>
      </trkpt>
      <trkpt lat="48.52043" lon="-3.34635">
        <ele>169</ele>
        <time>2013-03-10T15:30:24Z</time>
      </trkpt>
      <trkpt lat="48.52044" lon="-3.34631">
        <ele>170</ele>
        <time>2013-03-10T15:30:27Z</time>
      </trkpt>
      <trkpt lat="48.52044" lon="-3.34628">
        <ele>170</ele>
        <time>2013-03-10T15:30:30Z</time>
      </trkpt>
      <trkpt lat="48.52044" lon="-3.34625">
        <ele>170</ele>
        <time>2013-03-10T15:30:32Z</time>
      </trkpt>
      <trkpt lat="48.52044" lon="-3.34622">
        <ele>170</ele>
        <time>2013-03-10T15:30:35Z</time>
      </trkpt>
      <trkpt lat="48.52044" lon="-3.34619">
        <ele>170</ele>
        <time>2013-03-10T15:30:37Z</time>
      </trkpt>
      <trkpt lat="48.52044" lon="-3.34616">
        <ele>170</ele>
        <time>2013-03-10T15:30:40Z</time>
      </trkpt>
      <trkpt lat="48.52045" lon="-3.34612">
        <ele>170</ele>
        <time>2013-03-10T15:30:43Z</time>
      </trkpt>
      <trkpt lat="48.52045" lon="-3.34609">
        <ele>170</ele>
        <time>2013-03-10T15:30:46Z</time>
      </trkpt>
      <trkpt lat="48.52045" lon="-3.34606">
        <ele>170</ele>
        <time>2013-03-10T15:30:48Z</time>
      </trkpt>
      <trkpt lat="48.52045" lon="-3.34602">
        <ele>170</ele>
        <time>2013-03-10T15:30:51Z</time>
      </trkpt>
      <trkpt lat="48.52045" lon="-3.346">
        <ele>170</ele>
        <time>2013-03-10T15:30:53Z</time>
      </trkpt>
      <trkpt lat="48.52045" lon="-3.34598">
        <ele>170</ele>
        <time>2013-03-10T15:30:55Z</time>
      </trkpt>
      <trkpt lat="48.52044" lon="-3.34596">
        <ele>171</ele>
        <time>2013-03-10T15:30:57Z</time>
      </trkpt>
      <trkpt lat="48.52044" lon="-3.34593">
        <ele>171</ele>
        <time>2013-03-10T15:31:00Z</time>
      </trkpt>
      <trkpt lat="48.52045" lon="-3.34591">
        <ele>172</ele>
        <time>2013-03-10T15:31:02Z</time>
      </trkpt>
      <trkpt lat="48.52045" lon="-3.34587">
        <ele>172</ele>
        <time>2013-03-10T15:31:05Z</time>
      </trkpt>
      <trkpt lat="48.52046" lon="-3.34585">
        <ele>172</ele>
        <time>2013-03-10T15:31:07Z</time>
      </trkpt>
      <trkpt lat="48.52048" lon="-3.34581">
        <ele>172</ele>
        <time>2013-03-10T15:31:10Z</time>
      </trkpt>
      <trkpt lat="48.52049" lon="-3.34578">
        <ele>172</ele>
        <time>2013-03-10T15:31:13Z</time>
      </trkpt>
      <trkpt lat="48.52049" lon="-3.34575">
        <ele>172</ele>
        <time>2013-03-10T15:31:15Z</time>
      </trkpt>
      <trkpt lat="48.5205" lon="-3.34572">
        <ele>172</ele>
        <time>2013-03-10T15:31:18Z</time>
      </trkpt>
      <trkpt lat="48.5205" lon="-3.34569">
        <ele>172</ele>
        <time>2013-03-10T15:31:20Z</time>
      </trkpt>
      <trkpt lat="48.5205" lon="-3.34566">
        <ele>173</ele>
        <time>2013-03-10T15:31:23Z</time>
      </trkpt>
      <trkpt lat="48.5205" lon="-3.34563">
        <ele>173</ele>
        <time>2013-03-10T15:31:25Z</time>
      </trkpt>
      <trkpt lat="48.5205" lon="-3.34559">
        <ele>173</ele>
        <time>2013-03-10T15:31:28Z</time>
      </trkpt>
      <trkpt lat="48.5205" lon="-3.34557">
        <ele>173</ele>
        <time>2013-03-10T15:31:30Z</time>
      </trkpt>
      <trkpt lat="48.52049" lon="-3.34554">
        <ele>173</ele>
        <time>2013-03-10T15:31:33Z</time>
      </trkpt>
      <trkpt lat="48.5205" lon="-3.3455">
        <ele>173</ele>
        <time>2013-03-10T15:31:36Z</time>
      </trkpt>
      <trkpt lat="48.52049" lon="-3.34548">
        <ele>173</ele>
        <time>2013-03-10T15:31:38Z</time>
      </trkpt>
      <trkpt lat="48.5205" lon="-3.34545">
        <ele>174</ele>
        <time>2013-03-10T15:31:41Z</time>
      </trkpt>
      <trkpt lat="48.5205" lon="-3.34543">
        <ele>174</ele>
        <time>2013-03-10T15:31:43Z</time>
      </trkpt>
      <trkpt lat="48.52051" lon="-3.3454">
        <ele>174</ele>
        <time>2013-03-10T15:31:45Z</time>
      </trkpt>
      <trkpt lat="48.52052" lon="-3.34537">
        <ele>174</ele>
        <time>2013-03-10T15:31:48Z</time>
      </trkpt>
      <trkpt lat="48.52053" lon="-3.34533">
        <ele>174</ele>
        <time>2013-03-10T15:31:51Z</time>
      </trkpt>
      <trkpt lat="48.52053" lon="-3.3453">
        <ele>174</ele>
        <time>2013-03-10T15:31:53Z</time>
      </trkpt>
      <trkpt lat="48.52054" lon="-3.34526">
        <ele>174</ele>
        <time>2013-03-10T15:31:56Z</time>
      </trkpt>
      <trkpt lat="48.52055" lon="-3.34524">
        <ele>174</ele>
        <time>2013-03-10T15:31:58Z</time>
      </trkpt>
      <trkpt lat="48.52055" lon="-3.34522">
        <ele>174</ele>
        <time>2013-03-10T15:32:00Z</time>
      </trkpt>
      <trkpt lat="48.52056" lon="-3.34518">
        <ele>174</ele>
        <time>2013-03-10T15:32:03Z</time>
      </trkpt>
      <trkpt lat="48.52057" lon="-3.34516">
        <ele>174</ele>
        <time>2013-03-10T15:32:05Z</time>
      </trkpt>
      <trkpt lat="48.52058" lon="-3.34512">
        <ele>175</ele>
        <time>2013-03-10T15:32:08Z</time>
      </trkpt>
      <trkpt lat="48.52058" lon="-3.34509">
        <ele>175</ele>
        <time>2013-03-10T15:32:10Z</time>
      </trkpt>
      <trkpt lat="48.52059" lon="-3.34506">
        <ele>175</ele>
        <time>2013-03-10T15:32:13Z</time>
      </trkpt>
      <trkpt lat="48.52059" lon="-3.34503">
        <ele>175</ele>
        <time>2013-03-10T15:32:15Z</time>
      </trkpt>
      <trkpt lat="48.52059" lon="-3.34499">
        <ele>175</ele>
        <time>2013-03-10T15:32:18Z</time>
      </trkpt>
      <trkpt lat="48.52059" lon="-3.34496">
        <ele>175</ele>
        <time>2013-03-10T15:32:20Z</time>
      </trkpt>
      <trkpt lat="48.52059" lon="-3.34494">
        <ele>175</ele>
        <time>2013-03-10T15:32:22Z</time>
      </trkpt>
      <trkpt lat="48.52059" lon="-3.34491">
        <ele>176</ele>
        <time>2013-03-10T15:32:24Z</time>
      </trkpt>
      <trkpt lat="48.52059" lon="-3.34488">
        <ele>176</ele>
        <time>2013-03-10T15:32:27Z</time>
      </trkpt>
      <trkpt lat="48.52059" lon="-3.34485">
        <ele>176</ele>
        <time>2013-03-10T15:32:29Z</time>
      </trkpt>
      <trkpt lat="48.5206" lon="-3.34483">
        <ele>176</ele>
        <time>2013-03-10T15:32:31Z</time>
      </trkpt>
      <trkpt lat="48.5206" lon="-3.34481">
        <ele>177</ele>
        <time>2013-03-10T15:32:33Z</time>
      </trkpt>
      <trkpt lat="48.52061" lon="-3.34477">
        <ele>177</ele>
        <time>2013-03-10T15:32:36Z</time>
      </trkpt>
      <trkpt lat="48.52061" lon="-3.34475">
        <ele>177</ele>
        <time>2013-03-10T15:32:38Z</time>
      </trkpt>
      <trkpt lat="48.52061" lon="-3.34471">
        <ele>177</ele>
        <time>2013-03-10T15:32:41Z</time>
      </trkpt>
      <trkpt lat="48.52061" lon="-3.34468">
        <ele>177</ele>
        <time>2013-03-10T15:32:44Z</time>
      </trkpt>
      <trkpt lat="48.52062" lon="-3.34465">
        <ele>177</ele>
        <time>2013-03-10T15:32:46Z</time>
      </trkpt>
      <trkpt lat="48.52062" lon="-3.34462">
        <ele>177</ele>
        <time>2013-03-10T15:32:48Z</time>
      </trkpt>
      <trkpt lat="48.52062" lon="-3.34459">
        <ele>177</ele>
        <time>2013-03-10T15:32:50Z</time>
      </trkpt>
      <trkpt lat="48.52063" lon="-3.34456">
        <ele>177</ele>
        <time>2013-03-10T15:32:53Z</time>
      </trkpt>
      <trkpt lat="48.52063" lon="-3.34453">
        <ele>177</ele>
        <time>2013-03-10T15:32:55Z</time>
      </trkpt>
      <trkpt lat="48.52063" lon="-3.3445">
        <ele>178</ele>
        <time>2013-03-10T15:32:57Z</time>
      </trkpt>
      <trkpt lat="48.52064" lon="-3.34448">
        <ele>178</ele>
        <time>2013-03-10T15:32:59Z</time>
      </trkpt>
      <trkpt lat="48.52065" lon="-3.34443">
        <ele>178</ele>
        <time>2013-03-10T15:33:02Z</time>
      </trkpt>
      <trkpt lat="48.52065" lon="-3.34441">
        <ele>178</ele>
        <time>2013-03-10T15:33:04Z</time>
      </trkpt>
      <trkpt lat="48.52065" lon="-3.34438">
        <ele>178</ele>
        <time>2013-03-10T15:33:06Z</time>
      </trkpt>
      <trkpt lat="48.52065" lon="-3.34436">
        <ele>178</ele>
        <time>2013-03-10T15:33:08Z</time>
      </trkpt>
      <trkpt lat="48.52065" lon="-3.34433">
        <ele>178</ele>
        <time>2013-03-10T15:33:11Z</time>
      </trkpt>
      <trkpt lat="48.52066" lon="-3.3443">
        <ele>178</ele>
        <time>2013-03-10T15:33:13Z</time>
      </trkpt>
      <trkpt lat="48.52066" lon="-3.34427">
        <ele>179</ele>
        <time>2013-03-10T15:33:15Z</time>
      </trkpt>
      <trkpt lat="48.52066" lon="-3.34423">
        <ele>179</ele>
        <time>2013-03-10T15:33:18Z</time>
      </trkpt>
      <trkpt lat="48.52066" lon="-3.3442">
        <ele>179</ele>
        <time>2013-03-10T15:33:20Z</time>
      </trkpt>
      <trkpt lat="48.52067" lon="-3.34418">
        <ele>179</ele>
        <time>2013-03-10T15:33:22Z</time>
      </trkpt>
      <trkpt lat="48.52067" lon="-3.34415">
        <ele>179</ele>
        <time>2013-03-10T15:33:24Z</time>
      </trkpt>
      <trkpt lat="48.52067" lon="-3.34412">
        <ele>179</ele>
        <time>2013-03-10T15:33:26Z</time>
      </trkpt>
      <trkpt lat="48.52069" lon="-3.34407">
        <ele>179</ele>
        <time>2013-03-10T15:33:29Z</time>
      </trkpt>
      <trkpt lat="48.5207" lon="-3.34405">
        <ele>179</ele>
        <time>2013-03-10T15:33:31Z</time>
      </trkpt>
      <trkpt lat="48.52071" lon="-3.34401">
        <ele>179</ele>
        <time>2013-03-10T15:33:34Z</time>
      </trkpt>
      <trkpt lat="48.52071" lon="-3.34397">
        <ele>179</ele>
        <time>2013-03-10T15:33:37Z</time>
      </trkpt>
      <trkpt lat="48.52071" lon="-3.34394">
        <ele>180</ele>
        <time>2013-03-10T15:33:39Z</time>
      </trkpt>
      <trkpt lat="48.52071" lon="-3.34391">
        <ele>180</ele>
        <time>2013-03-10T15:33:41Z</time>
      </trkpt>
      <trkpt lat="48.52071" lon="-3.34387">
        <ele>180</ele>
        <time>2013-03-10T15:33:44Z</time>
      </trkpt>
      <trkpt lat="48.52072" lon="-3.34384">
        <ele>180</ele>
        <time>2013-03-10T15:33:46Z</time>
      </trkpt>
      <trkpt lat="48.52073" lon="-3.34381">
        <ele>180</ele>
        <time>2013-03-10T15:33:48Z</time>
      </trkpt>
      <trkpt lat="48.52073" lon="-3.34377">
        <ele>180</ele>
        <time>2013-03-10T15:33:51Z</time>
      </trkpt>
      <trkpt lat="48.52074" lon="-3.34374">
        <ele>180</ele>
        <time>2013-03-10T15:33:53Z</time>
      </trkpt>
      <trkpt lat="48.52074" lon="-3.34371">
        <ele>180</ele>
        <time>2013-03-10T15:33:55Z</time>
      </trkpt>
      <trkpt lat="48.52075" lon="-3.34369">
        <ele>181</ele>
        <time>2013-03-10T15:33:57Z</time>
      </trkpt>
      <trkpt lat="48.52076" lon="-3.34365">
        <ele>181</ele>
        <time>2013-03-10T15:34:00Z</time>
      </trkpt>
      <trkpt lat="48.52076" lon="-3.34363">
        <ele>181</ele>
        <time>2013-03-10T15:34:02Z</time>
      </trkpt>
      <trkpt lat="48.52076" lon="-3.3436">
        <ele>181</ele>
        <time>2013-03-10T15:34:04Z</time>
      </trkpt>
      <trkpt lat="48.52077" lon="-3.34356">
        <ele>182</ele>
        <time>2013-03-10T15:34:07Z</time>
      </trkpt>
      <trkpt lat="48.52078" lon="-3.34354">
        <ele>182</ele>
        <time>2013-03-10T15:34:09Z</time>
      </trkpt>
      <trkpt lat="48.52078" lon="-3.34351">
        <ele>182</ele>
        <time>2013-03-10T15:34:11Z</time>
      </trkpt>
      <trkpt lat="48.52078" lon="-3.34347">
        <ele>182</ele>
        <time>2013-03-10T15:34:14Z</time>
      </trkpt>
      <trkpt lat="48.52078" lon="-3.34344">
        <ele>182</ele>
        <time>2013-03-10T15:34:16Z</time>
      </trkpt>
      <trkpt lat="48.52079" lon="-3.34341">
        <ele>182</ele>
        <time>2013-03-10T15:34:18Z</time>
      </trkpt>
      <trkpt lat="48.52079" lon="-3.34337">
        <ele>182</ele>
        <time>2013-03-10T15:34:21Z</time>
      </trkpt>
      <trkpt lat="48.5208" lon="-3.34334">
        <ele>182</ele>
        <time>2013-03-10T15:34:23Z</time>
      </trkpt>
      <trkpt lat="48.5208" lon="-3.34331">
        <ele>182</ele>
        <time>2013-03-10T15:34:26Z</time>
      </trkpt>
      <trkpt lat="48.5208" lon="-3.34328">
        <ele>182</ele>
        <time>2013-03-10T15:34:28Z</time>
      </trkpt>
      <trkpt lat="48.5208" lon="-3.34325">
        <ele>182</ele>
        <time>2013-03-10T15:34:30Z</time>
      </trkpt>
      <trkpt lat="48.52081" lon="-3.34321">
        <ele>182</ele>
        <time>2013-03-10T15:34:33Z</time>
      </trkpt>
      <trkpt lat="48.52081" lon="-3.34319">
        <ele>182</ele>
        <time>2013-03-10T15:34:35Z</time>
      </trkpt>
      <trkpt lat="48.52081" lon="-3.34315">
        <ele>182</ele>
        <time>2013-03-10T15:34:38Z</time>
      </trkpt>
      <trkpt lat="48.52081" lon="-3.34312">
        <ele>182</ele>
        <time>2013-03-10T15:34:40Z</time>
      </trkpt>
      <trkpt lat="48.52081" lon="-3.3431">
        <ele>182</ele>
        <time>2013-03-10T15:34:42Z</time>
      </trkpt>
      <trkpt lat="48.52082" lon="-3.34306">
        <ele>182</ele>
        <time>2013-03-10T15:34:45Z</time>
      </trkpt>
      <trkpt lat="48.52082" lon="-3.34303">
        <ele>182</ele>
        <time>2013-03-10T15:34:47Z</time>
      </trkpt>
      <trkpt lat="48.52082" lon="-3.34299">
        <ele>183</ele>
        <time>2013-03-10T15:34:50Z</time>
      </trkpt>
      <trkpt lat="48.52082" lon="-3.34297">
        <ele>183</ele>
        <time>2013-03-10T15:34:52Z</time>
      </trkpt>
      <trkpt lat="48.52083" lon="-3.34295">
        <ele>183</ele>
        <time>2013-03-10T15:34:54Z</time>
      </trkpt>
      <trkpt lat="48.52083" lon="-3.34293">
        <ele>183</ele>
        <time>2013-03-10T15:34:56Z</time>
      </trkpt>
      <trkpt lat="48.52083" lon="-3.34288">
        <ele>183</ele>
        <time>2013-03-10T15:34:59Z</time>
      </trkpt>
      <trkpt lat="48.52083" lon="-3.34286">
        <ele>183</ele>
        <time>2013-03-10T15:35:01Z</time>
      </trkpt>
      <trkpt lat="48.52083" lon="-3.34283">
        <ele>183</ele>
        <time>2013-03-10T15:35:03Z</time>
      </trkpt>
      <trkpt lat="48.52084" lon="-3.34278">
        <ele>183</ele>
        <time>2013-03-10T15:35:06Z</time>
      </trkpt>
      <trkpt lat="48.52084" lon="-3.34276">
        <ele>183</ele>
        <time>2013-03-10T15:35:08Z</time>
      </trkpt>
      <trkpt lat="48.52084" lon="-3.34271">
        <ele>184</ele>
        <time>2013-03-10T15:35:11Z</time>
      </trkpt>
      <trkpt lat="48.52084" lon="-3.34268">
        <ele>184</ele>
        <time>2013-03-10T15:35:13Z</time>
      </trkpt>
      <trkpt lat="48.52084" lon="-3.34265">
        <ele>184</ele>
        <time>2013-03-10T15:35:15Z</time>
      </trkpt>
      <trkpt lat="48.52085" lon="-3.34262">
        <ele>184</ele>
        <time>2013-03-10T15:35:17Z</time>
      </trkpt>
      <trkpt lat="48.52086" lon="-3.3426">
        <ele>184</ele>
        <time>2013-03-10T15:35:19Z</time>
      </trkpt>
      <trkpt lat="48.52087" lon="-3.34256">
        <ele>184</ele>
        <time>2013-03-10T15:35:22Z</time>
      </trkpt>
      <trkpt lat="48.52087" lon="-3.34251">
        <ele>184</ele>
        <time>2013-03-10T15:35:25Z</time>
      </trkpt>
      <trkpt lat="48.52088" lon="-3.34248">
        <ele>185</ele>
        <time>2013-03-10T15:35:27Z</time>
      </trkpt>
      <trkpt lat="48.52089" lon="-3.34243">
        <ele>185</ele>
        <time>2013-03-10T15:35:30Z</time>
      </trkpt>
      <trkpt lat="48.52089" lon="-3.34239">
        <ele>185</ele>
        <time>2013-03-10T15:35:33Z</time>
      </trkpt>
      <trkpt lat="48.5209" lon="-3.34235">
        <ele>185</ele>
        <time>2013-03-10T15:35:36Z</time>
      </trkpt>
      <trkpt lat="48.5209" lon="-3.34232">
        <ele>185</ele>
        <time>2013-03-10T15:35:38Z</time>
      </trkpt>
      <trkpt lat="48.52091" lon="-3.34228">
        <ele>185</ele>
        <time>2013-03-10T15:35:41Z</time>
      </trkpt>
      <trkpt lat="48.52091" lon="-3.34225">
        <ele>185</ele>
        <time>2013-03-10T15:35:43Z</time>
      </trkpt>
      <trkpt lat="48.52092" lon="-3.34222">
        <ele>185</ele>
        <time>2013-03-10T15:35:45Z</time>
      </trkpt>
      <trkpt lat="48.52093" lon="-3.34217">
        <ele>185</ele>
        <time>2013-03-10T15:35:48Z</time>
      </trkpt>
      <trkpt lat="48.52094" lon="-3.34215">
        <ele>185</ele>
        <time>2013-03-10T15:35:50Z</time>
      </trkpt>
      <trkpt lat="48.52094" lon="-3.34211">
        <ele>185</ele>
        <time>2013-03-10T15:35:53Z</time>
      </trkpt>
      <trkpt lat="48.52094" lon="-3.34207">
        <ele>185</ele>
        <time>2013-03-10T15:35:56Z</time>
      </trkpt>
      <trkpt lat="48.52094" lon="-3.34204">
        <ele>185</ele>
        <time>2013-03-10T15:35:58Z</time>
      </trkpt>
      <trkpt lat="48.52094" lon="-3.34201">
        <ele>185</ele>
        <time>2013-03-10T15:36:00Z</time>
      </trkpt>
      <trkpt lat="48.52093" lon="-3.34198">
        <ele>186</ele>
        <time>2013-03-10T15:36:02Z</time>
      </trkpt>
      <trkpt lat="48.52093" lon="-3.34195">
        <ele>186</ele>
        <time>2013-03-10T15:36:04Z</time>
      </trkpt>
      <trkpt lat="48.52094" lon="-3.3419">
        <ele>186</ele>
        <time>2013-03-10T15:36:07Z</time>
      </trkpt>
      <trkpt lat="48.52095" lon="-3.34188">
        <ele>186</ele>
        <time>2013-03-10T15:36:09Z</time>
      </trkpt>
      <trkpt lat="48.52095" lon="-3.34184">
        <ele>186</ele>
        <time>2013-03-10T15:36:12Z</time>
      </trkpt>
      <trkpt lat="48.52095" lon="-3.34181">
        <ele>186</ele>
        <time>2013-03-10T15:36:14Z</time>
      </trkpt>
      <trkpt lat="48.52096" lon="-3.34178">
        <ele>187</ele>
        <time>2013-03-10T15:36:16Z</time>
      </trkpt>
      <trkpt lat="48.52096" lon="-3.34173">
        <ele>187</ele>
        <time>2013-03-10T15:36:19Z</time>
      </trkpt>
      <trkpt lat="48.52097" lon="-3.34169">
        <ele>187</ele>
        <time>2013-03-10T15:36:22Z</time>
      </trkpt>
      <trkpt lat="48.52098" lon="-3.34166">
        <ele>186</ele>
        <time>2013-03-10T15:36:24Z</time>
      </trkpt>
      <trkpt lat="48.52099" lon="-3.34163">
        <ele>187</ele>
        <time>2013-03-10T15:36:26Z</time>
      </trkpt>
      <trkpt lat="48.521" lon="-3.34158">
        <ele>187</ele>
        <time>2013-03-10T15:36:29Z</time>
      </trkpt>
      <trkpt lat="48.521" lon="-3.34156">
        <ele>187</ele>
        <time>2013-03-10T15:36:31Z</time>
      </trkpt>
      <trkpt lat="48.52102" lon="-3.34151">
        <ele>187</ele>
        <time>2013-03-10T15:36:34Z</time>
      </trkpt>
      <trkpt lat="48.52102" lon="-3.34146">
        <ele>187</ele>
        <time>2013-03-10T15:36:37Z</time>
      </trkpt>
      <trkpt lat="48.52102" lon="-3.34142">
        <ele>188</ele>
        <time>2013-03-10T15:36:40Z</time>
      </trkpt>
      <trkpt lat="48.52102" lon="-3.34139">
        <ele>188</ele>
        <time>2013-03-10T15:36:42Z</time>
      </trkpt>
      <trkpt lat="48.52102" lon="-3.34135">
        <ele>188</ele>
        <time>2013-03-10T15:36:44Z</time>
      </trkpt>
      <trkpt lat="48.52102" lon="-3.34131">
        <ele>187</ele>
        <time>2013-03-10T15:36:47Z</time>
      </trkpt>
      <trkpt lat="48.52103" lon="-3.34126">
        <ele>187</ele>
        <time>2013-03-10T15:36:50Z</time>
      </trkpt>
      <trkpt lat="48.52103" lon="-3.34123">
        <ele>187</ele>
        <time>2013-03-10T15:36:52Z</time>
      </trkpt>
      <trkpt lat="48.52103" lon="-3.34119">
        <ele>188</ele>
        <time>2013-03-10T15:36:55Z</time>
      </trkpt>
      <trkpt lat="48.52104" lon="-3.34116">
        <ele>188</ele>
        <time>2013-03-10T15:36:57Z</time>
      </trkpt>
      <trkpt lat="48.52105" lon="-3.34111">
        <ele>188</ele>
        <time>2013-03-10T15:37:00Z</time>
      </trkpt>
      <trkpt lat="48.52105" lon="-3.34108">
        <ele>188</ele>
        <time>2013-03-10T15:37:02Z</time>
      </trkpt>
      <trkpt lat="48.52106" lon="-3.34104">
        <ele>188</ele>
        <time>2013-03-10T15:37:05Z</time>
      </trkpt>
      <trkpt lat="48.52106" lon="-3.34101">
        <ele>188</ele>
        <time>2013-03-10T15:37:07Z</time>
      </trkpt>
      <trkpt lat="48.52107" lon="-3.34097">
        <ele>188</ele>
        <time>2013-03-10T15:37:10Z</time>
      </trkpt>
      <trkpt lat="48.52108" lon="-3.34092">
        <ele>188</ele>
        <time>2013-03-10T15:37:13Z</time>
      </trkpt>
      <trkpt lat="48.52108" lon="-3.34089">
        <ele>188</ele>
        <time>2013-03-10T15:37:15Z</time>
      </trkpt>
      <trkpt lat="48.52108" lon="-3.34086">
        <ele>188</ele>
        <time>2013-03-10T15:37:17Z</time>
      </trkpt>
      <trkpt lat="48.52109" lon="-3.34081">
        <ele>188</ele>
        <time>2013-03-10T15:37:20Z</time>
      </trkpt>
      <trkpt lat="48.5211" lon="-3.34076">
        <ele>188</ele>
        <time>2013-03-10T15:37:23Z</time>
      </trkpt>
      <trkpt lat="48.52111" lon="-3.34074">
        <ele>188</ele>
        <time>2013-03-10T15:37:25Z</time>
      </trkpt>
      <trkpt lat="48.52111" lon="-3.34071">
        <ele>188</ele>
        <time>2013-03-10T15:37:27Z</time>
      </trkpt>
      <trkpt lat="48.52112" lon="-3.34068">
        <ele>189</ele>
        <time>2013-03-10T15:37:29Z</time>
      </trkpt>
      <trkpt lat="48.52113" lon="-3.34063">
        <ele>189</ele>
        <time>2013-03-10T15:37:32Z</time>
      </trkpt>
      <trkpt lat="48.52113" lon="-3.3406">
        <ele>189</ele>
        <time>2013-03-10T15:37:34Z</time>
      </trkpt>
      <trkpt lat="48.52114" lon="-3.34056">
        <ele>189</ele>
        <time>2013-03-10T15:37:37Z</time>
      </trkpt>
      <trkpt lat="48.52115" lon="-3.34053">
        <ele>189</ele>
        <time>2013-03-10T15:37:39Z</time>
      </trkpt>
      <trkpt lat="48.52116" lon="-3.34049">
        <ele>189</ele>
        <time>2013-03-10T15:37:42Z</time>
      </trkpt>
      <trkpt lat="48.52116" lon="-3.34047">
        <ele>189</ele>
        <time>2013-03-10T15:37:44Z</time>
      </trkpt>
      <trkpt lat="48.52116" lon="-3.34044">
        <ele>189</ele>
        <time>2013-03-10T15:37:46Z</time>
      </trkpt>
      <trkpt lat="48.52117" lon="-3.3404">
        <ele>190</ele>
        <time>2013-03-10T15:37:49Z</time>
      </trkpt>
      <trkpt lat="48.52117" lon="-3.34037">
        <ele>190</ele>
        <time>2013-03-10T15:37:51Z</time>
      </trkpt>
      <trkpt lat="48.52117" lon="-3.34035">
        <ele>190</ele>
        <time>2013-03-10T15:37:53Z</time>
      </trkpt>
      <trkpt lat="48.52118" lon="-3.3403">
        <ele>190</ele>
        <time>2013-03-10T15:37:56Z</time>
      </trkpt>
      <trkpt lat="48.52118" lon="-3.34027">
        <ele>190</ele>
        <time>2013-03-10T15:37:58Z</time>
      </trkpt>
      <trkpt lat="48.52119" lon="-3.34023">
        <ele>190</ele>
        <time>2013-03-10T15:38:01Z</time>
      </trkpt>
      <trkpt lat="48.5212" lon="-3.34018">
        <ele>190</ele>
        <time>2013-03-10T15:38:04Z</time>
      </trkpt>
      <trkpt lat="48.52121" lon="-3.34015">
        <ele>190</ele>
        <time>2013-03-10T15:38:06Z</time>
      </trkpt>
      <trkpt lat="48.52121" lon="-3.34012">
        <ele>190</ele>
        <time>2013-03-10T15:38:08Z</time>
      </trkpt>
      <trkpt lat="48.52122" lon="-3.34009">
        <ele>190</ele>
        <time>2013-03-10T15:38:10Z</time>
      </trkpt>
      <trkpt lat="48.52123" lon="-3.34004">
        <ele>190</ele>
        <time>2013-03-10T15:38:13Z</time>
      </trkpt>
      <trkpt lat="48.52123" lon="-3.34">
        <ele>190</ele>
        <time>2013-03-10T15:38:16Z</time>
      </trkpt>
      <trkpt lat="48.52124" lon="-3.33997">
        <ele>190</ele>
        <time>2013-03-10T15:38:18Z</time>
      </trkpt>
      <trkpt lat="48.52125" lon="-3.33994">
        <ele>190</ele>
        <time>2013-03-10T15:38:20Z</time>
      </trkpt>
      <trkpt lat="48.52125" lon="-3.33991">
        <ele>190</ele>
        <time>2013-03-10T15:38:22Z</time>
      </trkpt>
      <trkpt lat="48.52126" lon="-3.33986">
        <ele>190</ele>
        <time>2013-03-10T15:38:25Z</time>
      </trkpt>
      <trkpt lat="48.52127" lon="-3.33983">
        <ele>190</ele>
        <time>2013-03-10T15:38:27Z</time>
      </trkpt>
      <trkpt lat="48.52128" lon="-3.33979">
        <ele>190</ele>
        <time>2013-03-10T15:38:30Z</time>
      </trkpt>
      <trkpt lat="48.52129" lon="-3.33976">
        <ele>190</ele>
        <time>2013-03-10T15:38:32Z</time>
      </trkpt>
      <trkpt lat="48.52129" lon="-3.33973">
        <ele>190</ele>
        <time>2013-03-10T15:38:34Z</time>
      </trkpt>
      <trkpt lat="48.5213" lon="-3.33969">
        <ele>191</ele>
        <time>2013-03-10T15:38:37Z</time>
      </trkpt>
      <trkpt lat="48.5213" lon="-3.33966">
        <ele>191</ele>
        <time>2013-03-10T15:38:39Z</time>
      </trkpt>
      <trkpt lat="48.52131" lon="-3.33961">
        <ele>191</ele>
        <time>2013-03-10T15:38:42Z</time>
      </trkpt>
      <trkpt lat="48.5213" lon="-3.33958">
        <ele>191</ele>
        <time>2013-03-10T15:38:44Z</time>
      </trkpt>
      <trkpt lat="48.5213" lon="-3.33955">
        <ele>191</ele>
        <time>2013-03-10T15:38:46Z</time>
      </trkpt>
      <trkpt lat="48.52131" lon="-3.3395">
        <ele>191</ele>
        <time>2013-03-10T15:38:49Z</time>
      </trkpt>
      <trkpt lat="48.52131" lon="-3.33947">
        <ele>191</ele>
        <time>2013-03-10T15:38:51Z</time>
      </trkpt>
      <trkpt lat="48.52132" lon="-3.33943">
        <ele>191</ele>
        <time>2013-03-10T15:38:54Z</time>
      </trkpt>
      <trkpt lat="48.52133" lon="-3.3394">
        <ele>191</ele>
        <time>2013-03-10T15:38:56Z</time>
      </trkpt>
      <trkpt lat="48.52133" lon="-3.33936">
        <ele>192</ele>
        <time>2013-03-10T15:38:59Z</time>
      </trkpt>
      <trkpt lat="48.52134" lon="-3.33931">
        <ele>192</ele>
        <time>2013-03-10T15:39:02Z</time>
      </trkpt>
      <trkpt lat="48.52134" lon="-3.33927">
        <ele>192</ele>
        <time>2013-03-10T15:39:05Z</time>
      </trkpt>
      <trkpt lat="48.52135" lon="-3.33924">
        <ele>192</ele>
        <time>2013-03-10T15:39:07Z</time>
      </trkpt>
      <trkpt lat="48.52136" lon="-3.33921">
        <ele>192</ele>
        <time>2013-03-10T15:39:09Z</time>
      </trkpt>
      <trkpt lat="48.52136" lon="-3.33916">
        <ele>192</ele>
        <time>2013-03-10T15:39:12Z</time>
      </trkpt>
      <trkpt lat="48.52136" lon="-3.33912">
        <ele>192</ele>
        <time>2013-03-10T15:39:15Z</time>
      </trkpt>
      <trkpt lat="48.52137" lon="-3.33909">
        <ele>192</ele>
        <time>2013-03-10T15:39:17Z</time>
      </trkpt>
      <trkpt lat="48.52138" lon="-3.33906">
        <ele>192</ele>
        <time>2013-03-10T15:39:20Z</time>
      </trkpt>
      <trkpt lat="48.52138" lon="-3.33901">
        <ele>192</ele>
        <time>2013-03-10T15:39:23Z</time>
      </trkpt>
      <trkpt lat="48.52138" lon="-3.33898">
        <ele>192</ele>
        <time>2013-03-10T15:39:25Z</time>
      </trkpt>
      <trkpt lat="48.52139" lon="-3.33894">
        <ele>192</ele>
        <time>2013-03-10T15:39:28Z</time>
      </trkpt>
      <trkpt lat="48.52139" lon="-3.3389">
        <ele>193</ele>
        <time>2013-03-10T15:39:31Z</time>
      </trkpt>
      <trkpt lat="48.5214" lon="-3.33887">
        <ele>193</ele>
        <time>2013-03-10T15:39:33Z</time>
      </trkpt>
      <trkpt lat="48.52141" lon="-3.33882">
        <ele>193</ele>
        <time>2013-03-10T15:39:36Z</time>
      </trkpt>
      <trkpt lat="48.52142" lon="-3.33878">
        <ele>193</ele>
        <time>2013-03-10T15:39:39Z</time>
      </trkpt>
      <trkpt lat="48.52142" lon="-3.33875">
        <ele>193</ele>
        <time>2013-03-10T15:39:41Z</time>
      </trkpt>
      <trkpt lat="48.52143" lon="-3.3387">
        <ele>193</ele>
        <time>2013-03-10T15:39:44Z</time>
      </trkpt>
      <trkpt lat="48.52143" lon="-3.33867">
        <ele>193</ele>
        <time>2013-03-10T15:39:46Z</time>
      </trkpt>
      <trkpt lat="48.52144" lon="-3.33864">
        <ele>193</ele>
        <time>2013-03-10T15:39:48Z</time>
      </trkpt>
      <trkpt lat="48.52144" lon="-3.33861">
        <ele>193</ele>
        <time>2013-03-10T15:39:50Z</time>
      </trkpt>
      <trkpt lat="48.52145" lon="-3.33857">
        <ele>193</ele>
        <time>2013-03-10T15:39:53Z</time>
      </trkpt>
      <trkpt lat="48.52147" lon="-3.33853">
        <ele>193</ele>
        <time>2013-03-10T15:39:56Z</time>
      </trkpt>
      <trkpt lat="48.52148" lon="-3.3385">
        <ele>193</ele>
        <time>2013-03-10T15:39:58Z</time>
      </trkpt>
      <trkpt lat="48.52148" lon="-3.33848">
        <ele>193</ele>
        <time>2013-03-10T15:40:00Z</time>
      </trkpt>
      <trkpt lat="48.52149" lon="-3.33844">
        <ele>193</ele>
        <time>2013-03-10T15:40:02Z</time>
      </trkpt>
      <trkpt lat="48.5215" lon="-3.3384">
        <ele>193</ele>
        <time>2013-03-10T15:40:05Z</time>
      </trkpt>
      <trkpt lat="48.5215" lon="-3.33837">
        <ele>194</ele>
        <time>2013-03-10T15:40:07Z</time>
      </trkpt>
      <trkpt lat="48.52151" lon="-3.33833">
        <ele>194</ele>
        <time>2013-03-10T15:40:10Z</time>
      </trkpt>
      <trkpt lat="48.52152" lon="-3.33829">
        <ele>194</ele>
        <time>2013-03-10T15:40:12Z</time>
      </trkpt>
      <trkpt lat="48.52153" lon="-3.33826">
        <ele>193</ele>
        <time>2013-03-10T15:40:14Z</time>
      </trkpt>
      <trkpt lat="48.52153" lon="-3.33822">
        <ele>194</ele>
        <time>2013-03-10T15:40:17Z</time>
      </trkpt>
      <trkpt lat="48.52153" lon="-3.33817">
        <ele>194</ele>
        <time>2013-03-10T15:40:20Z</time>
      </trkpt>
      <trkpt lat="48.52154" lon="-3.33813">
        <ele>194</ele>
        <time>2013-03-10T15:40:23Z</time>
      </trkpt>
      <trkpt lat="48.52155" lon="-3.3381">
        <ele>194</ele>
        <time>2013-03-10T15:40:25Z</time>
      </trkpt>
      <trkpt lat="48.52155" lon="-3.33806">
        <ele>193</ele>
        <time>2013-03-10T15:40:27Z</time>
      </trkpt>
      <trkpt lat="48.52155" lon="-3.33802">
        <ele>194</ele>
        <time>2013-03-10T15:40:30Z</time>
      </trkpt>
      <trkpt lat="48.52155" lon="-3.33799">
        <ele>194</ele>
        <time>2013-03-10T15:40:32Z</time>
      </trkpt>
      <trkpt lat="48.52155" lon="-3.33795">
        <ele>194</ele>
        <time>2013-03-10T15:40:35Z</time>
      </trkpt>
      <trkpt lat="48.52156" lon="-3.33791">
        <ele>194</ele>
        <time>2013-03-10T15:40:38Z</time>
      </trkpt>
      <trkpt lat="48.52156" lon="-3.33787">
        <ele>194</ele>
        <time>2013-03-10T15:40:40Z</time>
      </trkpt>
      <trkpt lat="48.52156" lon="-3.33783">
        <ele>194</ele>
        <time>2013-03-10T15:40:43Z</time>
      </trkpt>
      <trkpt lat="48.52156" lon="-3.33781">
        <ele>194</ele>
        <time>2013-03-10T15:40:45Z</time>
      </trkpt>
      <trkpt lat="48.52156" lon="-3.33777">
        <ele>194</ele>
        <time>2013-03-10T15:40:47Z</time>
      </trkpt>
      <trkpt lat="48.52157" lon="-3.33774">
        <ele>194</ele>
        <time>2013-03-10T15:40:50Z</time>
      </trkpt>
      <trkpt lat="48.52157" lon="-3.3377">
        <ele>194</ele>
        <time>2013-03-10T15:40:52Z</time>
      </trkpt>
      <trkpt lat="48.52158" lon="-3.33768">
        <ele>194</ele>
        <time>2013-03-10T15:40:54Z</time>
      </trkpt>
      <trkpt lat="48.52158" lon="-3.33764">
        <ele>194</ele>
        <time>2013-03-10T15:40:57Z</time>
      </trkpt>
      <trkpt lat="48.52158" lon="-3.33759">
        <ele>194</ele>
        <time>2013-03-10T15:41:00Z</time>
      </trkpt>
      <trkpt lat="48.52159" lon="-3.33756">
        <ele>194</ele>
        <time>2013-03-10T15:41:02Z</time>
      </trkpt>
      <trkpt lat="48.5216" lon="-3.33752">
        <ele>194</ele>
        <time>2013-03-10T15:41:05Z</time>
      </trkpt>
      <trkpt lat="48.52161" lon="-3.33748">
        <ele>194</ele>
        <time>2013-03-10T15:41:08Z</time>
      </trkpt>
      <trkpt lat="48.52162" lon="-3.33743">
        <ele>194</ele>
        <time>2013-03-10T15:41:11Z</time>
      </trkpt>
      <trkpt lat="48.52162" lon="-3.3374">
        <ele>194</ele>
        <time>2013-03-10T15:41:13Z</time>
      </trkpt>
      <trkpt lat="48.52163" lon="-3.33737">
        <ele>194</ele>
        <time>2013-03-10T15:41:15Z</time>
      </trkpt>
      <trkpt lat="48.52163" lon="-3.33734">
        <ele>195</ele>
        <time>2013-03-10T15:41:17Z</time>
      </trkpt>
      <trkpt lat="48.52165" lon="-3.3373">
        <ele>195</ele>
        <time>2013-03-10T15:41:20Z</time>
      </trkpt>
      <trkpt lat="48.52166" lon="-3.33725">
        <ele>195</ele>
        <time>2013-03-10T15:41:23Z</time>
      </trkpt>
      <trkpt lat="48.52166" lon="-3.33721">
        <ele>195</ele>
        <time>2013-03-10T15:41:26Z</time>
      </trkpt>
      <trkpt lat="48.52167" lon="-3.33717">
        <ele>195</ele>
        <time>2013-03-10T15:41:28Z</time>
      </trkpt>
      <trkpt lat="48.52168" lon="-3.33713">
        <ele>194</ele>
        <time>2013-03-10T15:41:31Z</time>
      </trkpt>
      <trkpt lat="48.52168" lon="-3.33711">
        <ele>194</ele>
        <time>2013-03-10T15:41:33Z</time>
      </trkpt>
      <trkpt lat="48.52169" lon="-3.33706">
        <ele>194</ele>
        <time>2013-03-10T15:41:36Z</time>
      </trkpt>
      <trkpt lat="48.5217" lon="-3.33702">
        <ele>194</ele>
        <time>2013-03-10T15:41:39Z</time>
      </trkpt>
      <trkpt lat="48.5217" lon="-3.33699">
        <ele>194</ele>
        <time>2013-03-10T15:41:41Z</time>
      </trkpt>
      <trkpt lat="48.52171" lon="-3.33696">
        <ele>194</ele>
        <time>2013-03-10T15:41:43Z</time>
      </trkpt>
      <trkpt lat="48.52171" lon="-3.33692">
        <ele>194</ele>
        <time>2013-03-10T15:41:46Z</time>
      </trkpt>
      <trkpt lat="48.52172" lon="-3.33688">
        <ele>194</ele>
        <time>2013-03-10T15:41:49Z</time>
      </trkpt>
      <trkpt lat="48.52172" lon="-3.33684">
        <ele>194</ele>
        <time>2013-03-10T15:41:52Z</time>
      </trkpt>
      <trkpt lat="48.52172" lon="-3.3368">
        <ele>194</ele>
        <time>2013-03-10T15:41:54Z</time>
      </trkpt>
      <trkpt lat="48.52173" lon="-3.33675">
        <ele>194</ele>
        <time>2013-03-10T15:41:57Z</time>
      </trkpt>
      <trkpt lat="48.52173" lon="-3.33672">
        <ele>194</ele>
        <time>2013-03-10T15:41:59Z</time>
      </trkpt>
      <trkpt lat="48.52173" lon="-3.33668">
        <ele>194</ele>
        <time>2013-03-10T15:42:02Z</time>
      </trkpt>
      <trkpt lat="48.52173" lon="-3.33664">
        <ele>195</ele>
        <time>2013-03-10T15:42:05Z</time>
      </trkpt>
      <trkpt lat="48.52174" lon="-3.33661">
        <ele>195</ele>
        <time>2013-03-10T15:42:07Z</time>
      </trkpt>
      <trkpt lat="48.52174" lon="-3.33656">
        <ele>195</ele>
        <time>2013-03-10T15:42:10Z</time>
      </trkpt>
      <trkpt lat="48.52174" lon="-3.33653">
        <ele>195</ele>
        <time>2013-03-10T15:42:12Z</time>
      </trkpt>
      <trkpt lat="48.52174" lon="-3.3365">
        <ele>195</ele>
        <time>2013-03-10T15:42:14Z</time>
      </trkpt>
      <trkpt lat="48.52174" lon="-3.33647">
        <ele>195</ele>
        <time>2013-03-10T15:42:16Z</time>
      </trkpt>
      <trkpt lat="48.52174" lon="-3.33644">
        <ele>195</ele>
        <time>2013-03-10T15:42:18Z</time>
      </trkpt>
      <trkpt lat="48.52174" lon="-3.33639">
        <ele>195</ele>
        <time>2013-03-10T15:42:21Z</time>
      </trkpt>
      <trkpt lat="48.52175" lon="-3.33634">
        <ele>195</ele>
        <time>2013-03-10T15:42:24Z</time>
      </trkpt>
      <trkpt lat="48.52176" lon="-3.3363">
        <ele>195</ele>
        <time>2013-03-10T15:42:27Z</time>
      </trkpt>
      <trkpt lat="48.52176" lon="-3.33627">
        <ele>195</ele>
        <time>2013-03-10T15:42:29Z</time>
      </trkpt>
      <trkpt lat="48.52177" lon="-3.33623">
        <ele>195</ele>
        <time>2013-03-10T15:42:32Z</time>
      </trkpt>
      <trkpt lat="48.52177" lon="-3.33619">
        <ele>195</ele>
        <time>2013-03-10T15:42:34Z</time>
      </trkpt>
      <trkpt lat="48.52177" lon="-3.33615">
        <ele>195</ele>
        <time>2013-03-10T15:42:37Z</time>
      </trkpt>
      <trkpt lat="48.52178" lon="-3.3361">
        <ele>195</ele>
        <time>2013-03-10T15:42:40Z</time>
      </trkpt>
      <trkpt lat="48.52178" lon="-3.33606">
        <ele>195</ele>
        <time>2013-03-10T15:42:43Z</time>
      </trkpt>
      <trkpt lat="48.52178" lon="-3.33602">
        <ele>195</ele>
        <time>2013-03-10T15:42:45Z</time>
      </trkpt>
      <trkpt lat="48.52179" lon="-3.33598">
        <ele>195</ele>
        <time>2013-03-10T15:42:48Z</time>
      </trkpt>
      <trkpt lat="48.52179" lon="-3.33595">
        <ele>196</ele>
        <time>2013-03-10T15:42:50Z</time>
      </trkpt>
      <trkpt lat="48.52179" lon="-3.33593">
        <ele>196</ele>
        <time>2013-03-10T15:42:52Z</time>
      </trkpt>
      <trkpt lat="48.52179" lon="-3.33588">
        <ele>196</ele>
        <time>2013-03-10T15:42:55Z</time>
      </trkpt>
      <trkpt lat="48.5218" lon="-3.33586">
        <ele>196</ele>
        <time>2013-03-10T15:42:57Z</time>
      </trkpt>
      <trkpt lat="48.52181" lon="-3.33583">
        <ele>196</ele>
        <time>2013-03-10T15:42:59Z</time>
      </trkpt>
      <trkpt lat="48.52182" lon="-3.33578">
        <ele>196</ele>
        <time>2013-03-10T15:43:02Z</time>
      </trkpt>
      <trkpt lat="48.52182" lon="-3.33574">
        <ele>197</ele>
        <time>2013-03-10T15:43:05Z</time>
      </trkpt>
      <trkpt lat="48.52182" lon="-3.33572">
        <ele>197</ele>
        <time>2013-03-10T15:43:07Z</time>
      </trkpt>
      <trkpt lat="48.52182" lon="-3.33569">
        <ele>197</ele>
        <time>2013-03-10T15:43:09Z</time>
      </trkpt>
      <trkpt lat="48.52183" lon="-3.33565">
        <ele>197</ele>
        <time>2013-03-10T15:43:12Z</time>
      </trkpt>
      <trkpt lat="48.52182" lon="-3.33562">
        <ele>196</ele>
        <time>2013-03-10T15:43:14Z</time>
      </trkpt>
      <trkpt lat="48.52183" lon="-3.33559">
        <ele>197</ele>
        <time>2013-03-10T15:43:16Z</time>
      </trkpt>
      <trkpt lat="48.52184" lon="-3.33555">
        <ele>197</ele>
        <time>2013-03-10T15:43:19Z</time>
      </trkpt>
      <trkpt lat="48.52184" lon="-3.33552">
        <ele>197</ele>
        <time>2013-03-10T15:43:21Z</time>
      </trkpt>
      <trkpt lat="48.52184" lon="-3.33547">
        <ele>197</ele>
        <time>2013-03-10T15:43:24Z</time>
      </trkpt>
      <trkpt lat="48.52186" lon="-3.33543">
        <ele>197</ele>
        <time>2013-03-10T15:43:27Z</time>
      </trkpt>
      <trkpt lat="48.52187" lon="-3.3354">
        <ele>196</ele>
        <time>2013-03-10T15:43:29Z</time>
      </trkpt>
      <trkpt lat="48.52187" lon="-3.33537">
        <ele>197</ele>
        <time>2013-03-10T15:43:31Z</time>
      </trkpt>
      <trkpt lat="48.52188" lon="-3.33533">
        <ele>197</ele>
        <time>2013-03-10T15:43:34Z</time>
      </trkpt>
      <trkpt lat="48.52189" lon="-3.33529">
        <ele>197</ele>
        <time>2013-03-10T15:43:37Z</time>
      </trkpt>
      <trkpt lat="48.52189" lon="-3.33526">
        <ele>197</ele>
        <time>2013-03-10T15:43:39Z</time>
      </trkpt>
      <trkpt lat="48.52189" lon="-3.33523">
        <ele>197</ele>
        <time>2013-03-10T15:43:42Z</time>
      </trkpt>
      <trkpt lat="48.52189" lon="-3.3352">
        <ele>197</ele>
        <time>2013-03-10T15:43:44Z</time>
      </trkpt>
      <trkpt lat="48.52189" lon="-3.33516">
        <ele>197</ele>
        <time>2013-03-10T15:43:47Z</time>
      </trkpt>
      <trkpt lat="48.52189" lon="-3.33511">
        <ele>197</ele>
        <time>2013-03-10T15:43:50Z</time>
      </trkpt>
      <trkpt lat="48.5219" lon="-3.33509">
        <ele>197</ele>
        <time>2013-03-10T15:43:52Z</time>
      </trkpt>
      <trkpt lat="48.52191" lon="-3.33506">
        <ele>197</ele>
        <time>2013-03-10T15:43:54Z</time>
      </trkpt>
      <trkpt lat="48.52192" lon="-3.33503">
        <ele>197</ele>
        <time>2013-03-10T15:43:56Z</time>
      </trkpt>
      <trkpt lat="48.52193" lon="-3.335">
        <ele>198</ele>
        <time>2013-03-10T15:43:58Z</time>
      </trkpt>
      <trkpt lat="48.52195" lon="-3.33496">
        <ele>198</ele>
        <time>2013-03-10T15:44:01Z</time>
      </trkpt>
      <trkpt lat="48.52196" lon="-3.33492">
        <ele>198</ele>
        <time>2013-03-10T15:44:04Z</time>
      </trkpt>
      <trkpt lat="48.52196" lon="-3.33489">
        <ele>198</ele>
        <time>2013-03-10T15:44:06Z</time>
      </trkpt>
      <trkpt lat="48.52197" lon="-3.33486">
        <ele>198</ele>
        <time>2013-03-10T15:44:08Z</time>
      </trkpt>
      <trkpt lat="48.52197" lon="-3.33482">
        <ele>198</ele>
        <time>2013-03-10T15:44:11Z</time>
      </trkpt>
      <trkpt lat="48.52197" lon="-3.33479">
        <ele>198</ele>
        <time>2013-03-10T15:44:13Z</time>
      </trkpt>
      <trkpt lat="48.52197" lon="-3.33476">
        <ele>198</ele>
        <time>2013-03-10T15:44:15Z</time>
      </trkpt>
      <trkpt lat="48.52198" lon="-3.33472">
        <ele>198</ele>
        <time>2013-03-10T15:44:18Z</time>
      </trkpt>
      <trkpt lat="48.52198" lon="-3.33467">
        <ele>198</ele>
        <time>2013-03-10T15:44:21Z</time>
      </trkpt>
      <trkpt lat="48.52199" lon="-3.33463">
        <ele>198</ele>
        <time>2013-03-10T15:44:24Z</time>
      </trkpt>
      <trkpt lat="48.52199" lon="-3.33458">
        <ele>199</ele>
        <time>2013-03-10T15:44:27Z</time>
      </trkpt>
      <trkpt lat="48.522" lon="-3.33455">
        <ele>199</ele>
        <time>2013-03-10T15:44:29Z</time>
      </trkpt>
      <trkpt lat="48.522" lon="-3.3345">
        <ele>199</ele>
        <time>2013-03-10T15:44:32Z</time>
      </trkpt>
      <trkpt lat="48.522" lon="-3.33446">
        <ele>199</ele>
        <time>2013-03-10T15:44:35Z</time>
      </trkpt>
      <trkpt lat="48.522" lon="-3.33442">
        <ele>199</ele>
        <time>2013-03-10T15:44:37Z</time>
      </trkpt>
      <trkpt lat="48.522" lon="-3.33438">
        <ele>198</ele>
        <time>2013-03-10T15:44:40Z</time>
      </trkpt>
      <trkpt lat="48.52201" lon="-3.33433">
        <ele>198</ele>
        <time>2013-03-10T15:44:43Z</time>
      </trkpt>
      <trkpt lat="48.52201" lon="-3.3343">
        <ele>198</ele>
        <time>2013-03-10T15:44:45Z</time>
      </trkpt>
      <trkpt lat="48.52202" lon="-3.33426">
        <ele>199</ele>
        <time>2013-03-10T15:44:48Z</time>
      </trkpt>
      <trkpt lat="48.52203" lon="-3.33423">
        <ele>199</ele>
        <time>2013-03-10T15:44:50Z</time>
      </trkpt>
      <trkpt lat="48.52203" lon="-3.33419">
        <ele>199</ele>
        <time>2013-03-10T15:44:53Z</time>
      </trkpt>
      <trkpt lat="48.52204" lon="-3.33414">
        <ele>199</ele>
        <time>2013-03-10T15:44:56Z</time>
      </trkpt>
      <trkpt lat="48.52205" lon="-3.3341">
        <ele>199</ele>
        <time>2013-03-10T15:44:59Z</time>
      </trkpt>
      <trkpt lat="48.52206" lon="-3.33407">
        <ele>199</ele>
        <time>2013-03-10T15:45:01Z</time>
      </trkpt>
      <trkpt lat="48.52206" lon="-3.33404">
        <ele>199</ele>
        <time>2013-03-10T15:45:03Z</time>
      </trkpt>
      <trkpt lat="48.52207" lon="-3.33401">
        <ele>199</ele>
        <time>2013-03-10T15:45:05Z</time>
      </trkpt>
      <trkpt lat="48.52208" lon="-3.33398">
        <ele>199</ele>
        <time>2013-03-10T15:45:07Z</time>
      </trkpt>
      <trkpt lat="48.52208" lon="-3.33394">
        <ele>199</ele>
        <time>2013-03-10T15:45:10Z</time>
      </trkpt>
      <trkpt lat="48.52209" lon="-3.33391">
        <ele>199</ele>
        <time>2013-03-10T15:45:12Z</time>
      </trkpt>
      <trkpt lat="48.52209" lon="-3.33388">
        <ele>199</ele>
        <time>2013-03-10T15:45:14Z</time>
      </trkpt>
      <trkpt lat="48.5221" lon="-3.33384">
        <ele>199</ele>
        <time>2013-03-10T15:45:17Z</time>
      </trkpt>
      <trkpt lat="48.5221" lon="-3.33382">
        <ele>199</ele>
        <time>2013-03-10T15:45:19Z</time>
      </trkpt>
      <trkpt lat="48.5221" lon="-3.33377">
        <ele>200</ele>
        <time>2013-03-10T15:45:22Z</time>
      </trkpt>
      <trkpt lat="48.5221" lon="-3.33373">
        <ele>199</ele>
        <time>2013-03-10T15:45:24Z</time>
      </trkpt>
      <trkpt lat="48.5221" lon="-3.3337">
        <ele>199</ele>
        <time>2013-03-10T15:45:26Z</time>
      </trkpt>
      <trkpt lat="48.5221" lon="-3.33367">
        <ele>199</ele>
        <time>2013-03-10T15:45:28Z</time>
      </trkpt>
      <trkpt lat="48.5221" lon="-3.33364">
        <ele>199</ele>
        <time>2013-03-10T15:45:30Z</time>
      </trkpt>
      <trkpt lat="48.5221" lon="-3.3336">
        <ele>199</ele>
        <time>2013-03-10T15:45:33Z</time>
      </trkpt>
      <trkpt lat="48.5221" lon="-3.33356">
        <ele>200</ele>
        <time>2013-03-10T15:45:36Z</time>
      </trkpt>
      <trkpt lat="48.52211" lon="-3.33352">
        <ele>200</ele>
        <time>2013-03-10T15:45:39Z</time>
      </trkpt>
      <trkpt lat="48.52212" lon="-3.33349">
        <ele>200</ele>
        <time>2013-03-10T15:45:41Z</time>
      </trkpt>
      <trkpt lat="48.52213" lon="-3.33345">
        <ele>200</ele>
        <time>2013-03-10T15:45:44Z</time>
      </trkpt>
      <trkpt lat="48.52214" lon="-3.33342">
        <ele>200</ele>
        <time>2013-03-10T15:45:46Z</time>
      </trkpt>
      <trkpt lat="48.52214" lon="-3.33337">
        <ele>201</ele>
        <time>2013-03-10T15:45:49Z</time>
      </trkpt>
      <trkpt lat="48.52215" lon="-3.33333">
        <ele>201</ele>
        <time>2013-03-10T15:45:52Z</time>
      </trkpt>
      <trkpt lat="48.52216" lon="-3.33329">
        <ele>200</ele>
        <time>2013-03-10T15:45:55Z</time>
      </trkpt>
      <trkpt lat="48.52216" lon="-3.33325">
        <ele>200</ele>
        <time>2013-03-10T15:45:58Z</time>
      </trkpt>
      <trkpt lat="48.52217" lon="-3.33321">
        <ele>200</ele>
        <time>2013-03-10T15:46:01Z</time>
      </trkpt>
      <trkpt lat="48.52217" lon="-3.33318">
        <ele>201</ele>
        <time>2013-03-10T15:46:03Z</time>
      </trkpt>
      <trkpt lat="48.52218" lon="-3.33314">
        <ele>201</ele>
        <time>2013-03-10T15:46:06Z</time>
      </trkpt>
      <trkpt lat="48.52218" lon="-3.33311">
        <ele>201</ele>
        <time>2013-03-10T15:46:08Z</time>
      </trkpt>
      <trkpt lat="48.52218" lon="-3.33307">
        <ele>201</ele>
        <time>2013-03-10T15:46:11Z</time>
      </trkpt>
      <trkpt lat="48.52219" lon="-3.33302">
        <ele>201</ele>
        <time>2013-03-10T15:46:14Z</time>
      </trkpt>
      <trkpt lat="48.52219" lon="-3.33298">
        <ele>201</ele>
        <time>2013-03-10T15:46:17Z</time>
      </trkpt>
      <trkpt lat="48.52219" lon="-3.33293">
        <ele>201</ele>
        <time>2013-03-10T15:46:20Z</time>
      </trkpt>
      <trkpt lat="48.52219" lon="-3.33289">
        <ele>202</ele>
        <time>2013-03-10T15:46:23Z</time>
      </trkpt>
      <trkpt lat="48.52219" lon="-3.33285">
        <ele>202</ele>
        <time>2013-03-10T15:46:26Z</time>
      </trkpt>
      <trkpt lat="48.5222" lon="-3.33282">
        <ele>202</ele>
        <time>2013-03-10T15:46:28Z</time>
      </trkpt>
      <trkpt lat="48.52221" lon="-3.33277">
        <ele>202</ele>
        <time>2013-03-10T15:46:31Z</time>
      </trkpt>
      <trkpt lat="48.52221" lon="-3.33274">
        <ele>202</ele>
        <time>2013-03-10T15:46:33Z</time>
      </trkpt>
      <trkpt lat="48.52221" lon="-3.33271">
        <ele>202</ele>
        <time>2013-03-10T15:46:35Z</time>
      </trkpt>
      <trkpt lat="48.52222" lon="-3.33267">
        <ele>202</ele>
        <time>2013-03-10T15:46:38Z</time>
      </trkpt>
      <trkpt lat="48.52223" lon="-3.33263">
        <ele>202</ele>
        <time>2013-03-10T15:46:40Z</time>
      </trkpt>
      <trkpt lat="48.52224" lon="-3.33259">
        <ele>203</ele>
        <time>2013-03-10T15:46:43Z</time>
      </trkpt>
      <trkpt lat="48.52224" lon="-3.33256">
        <ele>203</ele>
        <time>2013-03-10T15:46:45Z</time>
      </trkpt>
      <trkpt lat="48.52224" lon="-3.33253">
        <ele>202</ele>
        <time>2013-03-10T15:46:47Z</time>
      </trkpt>
      <trkpt lat="48.52225" lon="-3.33249">
        <ele>202</ele>
        <time>2013-03-10T15:46:50Z</time>
      </trkpt>
      <trkpt lat="48.52225" lon="-3.33246">
        <ele>203</ele>
        <time>2013-03-10T15:46:52Z</time>
      </trkpt>
      <trkpt lat="48.52226" lon="-3.33242">
        <ele>202</ele>
        <time>2013-03-10T15:46:55Z</time>
      </trkpt>
      <trkpt lat="48.52226" lon="-3.33239">
        <ele>202</ele>
        <time>2013-03-10T15:46:57Z</time>
      </trkpt>
      <trkpt lat="48.52226" lon="-3.33234">
        <ele>203</ele>
        <time>2013-03-10T15:47:00Z</time>
      </trkpt>
      <trkpt lat="48.52227" lon="-3.3323">
        <ele>203</ele>
        <time>2013-03-10T15:47:03Z</time>
      </trkpt>
      <trkpt lat="48.52227" lon="-3.33225">
        <ele>203</ele>
        <time>2013-03-10T15:47:06Z</time>
      </trkpt>
      <trkpt lat="48.52227" lon="-3.3322">
        <ele>203</ele>
        <time>2013-03-10T15:47:09Z</time>
      </trkpt>
      <trkpt lat="48.52227" lon="-3.33217">
        <ele>203</ele>
        <time>2013-03-10T15:47:11Z</time>
      </trkpt>
      <trkpt lat="48.52227" lon="-3.33214">
        <ele>204</ele>
        <time>2013-03-10T15:47:13Z</time>
      </trkpt>
      <trkpt lat="48.52227" lon="-3.33209">
        <ele>204</ele>
        <time>2013-03-10T15:47:16Z</time>
      </trkpt>
      <trkpt lat="48.52227" lon="-3.33207">
        <ele>203</ele>
        <time>2013-03-10T15:47:18Z</time>
      </trkpt>
      <trkpt lat="48.52228" lon="-3.33202">
        <ele>203</ele>
        <time>2013-03-10T15:47:21Z</time>
      </trkpt>
      <trkpt lat="48.52228" lon="-3.33199">
        <ele>203</ele>
        <time>2013-03-10T15:47:23Z</time>
      </trkpt>
      <trkpt lat="48.52228" lon="-3.33194">
        <ele>203</ele>
        <time>2013-03-10T15:47:26Z</time>
      </trkpt>
      <trkpt lat="48.52229" lon="-3.3319">
        <ele>204</ele>
        <time>2013-03-10T15:47:29Z</time>
      </trkpt>
      <trkpt lat="48.52229" lon="-3.33187">
        <ele>204</ele>
        <time>2013-03-10T15:47:31Z</time>
      </trkpt>
      <trkpt lat="48.5223" lon="-3.33183">
        <ele>204</ele>
        <time>2013-03-10T15:47:34Z</time>
      </trkpt>
      <trkpt lat="48.52231" lon="-3.33178">
        <ele>204</ele>
        <time>2013-03-10T15:47:37Z</time>
      </trkpt>
      <trkpt lat="48.52231" lon="-3.33175">
        <ele>204</ele>
        <time>2013-03-10T15:47:39Z</time>
      </trkpt>
      <trkpt lat="48.52232" lon="-3.33171">
        <ele>204</ele>
        <time>2013-03-10T15:47:42Z</time>
      </trkpt>
      <trkpt lat="48.52232" lon="-3.33167">
        <ele>204</ele>
        <time>2013-03-10T15:47:44Z</time>
      </trkpt>
      <trkpt lat="48.52232" lon="-3.33162">
        <ele>204</ele>
        <time>2013-03-10T15:47:47Z</time>
      </trkpt>
      <trkpt lat="48.52233" lon="-3.33157">
        <ele>204</ele>
        <time>2013-03-10T15:47:50Z</time>
      </trkpt>
      <trkpt lat="48.52235" lon="-3.33155">
        <ele>204</ele>
        <time>2013-03-10T15:47:52Z</time>
      </trkpt>
      <trkpt lat="48.52235" lon="-3.33151">
        <ele>204</ele>
        <time>2013-03-10T15:47:55Z</time>
      </trkpt>
      <trkpt lat="48.52235" lon="-3.33148">
        <ele>204</ele>
        <time>2013-03-10T15:47:57Z</time>
      </trkpt>
      <trkpt lat="48.52235" lon="-3.33145">
        <ele>204</ele>
        <time>2013-03-10T15:47:59Z</time>
      </trkpt>
      <trkpt lat="48.52236" lon="-3.3314">
        <ele>204</ele>
        <time>2013-03-10T15:48:02Z</time>
      </trkpt>
      <trkpt lat="48.52236" lon="-3.33137">
        <ele>204</ele>
        <time>2013-03-10T15:48:04Z</time>
      </trkpt>
      <trkpt lat="48.52235" lon="-3.33135">
        <ele>205</ele>
        <time>2013-03-10T15:48:06Z</time>
      </trkpt>
      <trkpt lat="48.52236" lon="-3.33131">
        <ele>205</ele>
        <time>2013-03-10T15:48:09Z</time>
      </trkpt>
      <trkpt lat="48.52236" lon="-3.33128">
        <ele>205</ele>
        <time>2013-03-10T15:48:11Z</time>
      </trkpt>
      <trkpt lat="48.52236" lon="-3.33124">
        <ele>205</ele>
        <time>2013-03-10T15:48:13Z</time>
      </trkpt>
      <trkpt lat="48.52237" lon="-3.3312">
        <ele>205</ele>
        <time>2013-03-10T15:48:16Z</time>
      </trkpt>
      <trkpt lat="48.52237" lon="-3.33118">
        <ele>205</ele>
        <time>2013-03-10T15:48:18Z</time>
      </trkpt>
      <trkpt lat="48.52237" lon="-3.33113">
        <ele>205</ele>
        <time>2013-03-10T15:48:21Z</time>
      </trkpt>
      <trkpt lat="48.52239" lon="-3.33108">
        <ele>205</ele>
        <time>2013-03-10T15:48:24Z</time>
      </trkpt>
      <trkpt lat="48.5224" lon="-3.33104">
        <ele>205</ele>
        <time>2013-03-10T15:48:27Z</time>
      </trkpt>
      <trkpt lat="48.52241" lon="-3.33099">
        <ele>205</ele>
        <time>2013-03-10T15:48:30Z</time>
      </trkpt>
      <trkpt lat="48.52242" lon="-3.33095">
        <ele>205</ele>
        <time>2013-03-10T15:48:33Z</time>
      </trkpt>
      <trkpt lat="48.52243" lon="-3.33092">
        <ele>205</ele>
        <time>2013-03-10T15:48:35Z</time>
      </trkpt>
      <trkpt lat="48.52243" lon="-3.33088">
        <ele>205</ele>
        <time>2013-03-10T15:48:37Z</time>
      </trkpt>
      <trkpt lat="48.52243" lon="-3.33086">
        <ele>205</ele>
        <time>2013-03-10T15:48:39Z</time>
      </trkpt>
      <trkpt lat="48.52244" lon="-3.33081">
        <ele>205</ele>
        <time>2013-03-10T15:48:42Z</time>
      </trkpt>
      <trkpt lat="48.52245" lon="-3.33077">
        <ele>205</ele>
        <time>2013-03-10T15:48:45Z</time>
      </trkpt>
      <trkpt lat="48.52245" lon="-3.33072">
        <ele>205</ele>
        <time>2013-03-10T15:48:48Z</time>
      </trkpt>
      <trkpt lat="48.52245" lon="-3.33067">
        <ele>206</ele>
        <time>2013-03-10T15:48:51Z</time>
      </trkpt>
      <trkpt lat="48.52246" lon="-3.33063">
        <ele>206</ele>
        <time>2013-03-10T15:48:54Z</time>
      </trkpt>
      <trkpt lat="48.52247" lon="-3.33058">
        <ele>206</ele>
        <time>2013-03-10T15:48:57Z</time>
      </trkpt>
      <trkpt lat="48.52248" lon="-3.33056">
        <ele>206</ele>
        <time>2013-03-10T15:48:59Z</time>
      </trkpt>
      <trkpt lat="48.52248" lon="-3.3305">
        <ele>206</ele>
        <time>2013-03-10T15:49:02Z</time>
      </trkpt>
      <trkpt lat="48.52249" lon="-3.33048">
        <ele>206</ele>
        <time>2013-03-10T15:49:04Z</time>
      </trkpt>
      <trkpt lat="48.52249" lon="-3.33045">
        <ele>206</ele>
        <time>2013-03-10T15:49:06Z</time>
      </trkpt>
      <trkpt lat="48.52249" lon="-3.33042">
        <ele>205</ele>
        <time>2013-03-10T15:49:08Z</time>
      </trkpt>
      <trkpt lat="48.52251" lon="-3.33037">
        <ele>206</ele>
        <time>2013-03-10T15:49:11Z</time>
      </trkpt>
      <trkpt lat="48.52251" lon="-3.33035">
        <ele>206</ele>
        <time>2013-03-10T15:49:13Z</time>
      </trkpt>
      <trkpt lat="48.52252" lon="-3.33032">
        <ele>206</ele>
        <time>2013-03-10T15:49:15Z</time>
      </trkpt>
      <trkpt lat="48.52253" lon="-3.33029">
        <ele>206</ele>
        <time>2013-03-10T15:49:17Z</time>
      </trkpt>
      <trkpt lat="48.52254" lon="-3.33026">
        <ele>207</ele>
        <time>2013-03-10T15:49:19Z</time>
      </trkpt>
      <trkpt lat="48.52256" lon="-3.33024">
        <ele>207</ele>
        <time>2013-03-10T15:49:21Z</time>
      </trkpt>
      <trkpt lat="48.52257" lon="-3.3302">
        <ele>207</ele>
        <time>2013-03-10T15:49:24Z</time>
      </trkpt>
      <trkpt lat="48.52258" lon="-3.33017">
        <ele>207</ele>
        <time>2013-03-10T15:49:26Z</time>
      </trkpt>
      <trkpt lat="48.52259" lon="-3.33013">
        <ele>206</ele>
        <time>2013-03-10T15:49:29Z</time>
      </trkpt>
      <trkpt lat="48.52259" lon="-3.33008">
        <ele>207</ele>
        <time>2013-03-10T15:49:32Z</time>
      </trkpt>
      <trkpt lat="48.52259" lon="-3.33005">
        <ele>207</ele>
        <time>2013-03-10T15:49:34Z</time>
      </trkpt>
      <trkpt lat="48.5226" lon="-3.33001">
        <ele>207</ele>
        <time>2013-03-10T15:49:37Z</time>
      </trkpt>
      <trkpt lat="48.52261" lon="-3.32997">
        <ele>207</ele>
        <time>2013-03-10T15:49:40Z</time>
      </trkpt>
      <trkpt lat="48.52261" lon="-3.32994">
        <ele>207</ele>
        <time>2013-03-10T15:49:42Z</time>
      </trkpt>
      <trkpt lat="48.52261" lon="-3.32991">
        <ele>207</ele>
        <time>2013-03-10T15:49:44Z</time>
      </trkpt>
      <trkpt lat="48.52261" lon="-3.32988">
        <ele>207</ele>
        <time>2013-03-10T15:49:47Z</time>
      </trkpt>
      <trkpt lat="48.52262" lon="-3.32985">
        <ele>207</ele>
        <time>2013-03-10T15:49:49Z</time>
      </trkpt>
      <trkpt lat="48.52262" lon="-3.32981">
        <ele>207</ele>
        <time>2013-03-10T15:49:52Z</time>
      </trkpt>
      <trkpt lat="48.52262" lon="-3.32977">
        <ele>208</ele>
        <time>2013-03-10T15:49:55Z</time>
      </trkpt>
      <trkpt lat="48.52262" lon="-3.32974">
        <ele>208</ele>
        <time>2013-03-10T15:49:57Z</time>
      </trkpt>
      <trkpt lat="48.52263" lon="-3.32972">
        <ele>208</ele>
        <time>2013-03-10T15:49:59Z</time>
      </trkpt>
      <trkpt lat="48.52264" lon="-3.32968">
        <ele>208</ele>
        <time>2013-03-10T15:50:02Z</time>
      </trkpt>
      <trkpt lat="48.52265" lon="-3.32965">
        <ele>208</ele>
        <time>2013-03-10T15:50:04Z</time>
      </trkpt>
      <trkpt lat="48.52265" lon="-3.32961">
        <ele>208</ele>
        <time>2013-03-10T15:50:07Z</time>
      </trkpt>
      <trkpt lat="48.52266" lon="-3.32958">
        <ele>208</ele>
        <time>2013-03-10T15:50:09Z</time>
      </trkpt>
      <trkpt lat="48.52265" lon="-3.32953">
        <ele>208</ele>
        <time>2013-03-10T15:50:12Z</time>
      </trkpt>
      <trkpt lat="48.52265" lon="-3.32948">
        <ele>207</ele>
        <time>2013-03-10T15:50:15Z</time>
      </trkpt>
      <trkpt lat="48.52266" lon="-3.32946">
        <ele>208</ele>
        <time>2013-03-10T15:50:17Z</time>
      </trkpt>
      <trkpt lat="48.52266" lon="-3.32942">
        <ele>208</ele>
        <time>2013-03-10T15:50:20Z</time>
      </trkpt>
      <trkpt lat="48.52266" lon="-3.32938">
        <ele>208</ele>
        <time>2013-03-10T15:50:23Z</time>
      </trkpt>
      <trkpt lat="48.52266" lon="-3.32936">
        <ele>208</ele>
        <time>2013-03-10T15:50:25Z</time>
      </trkpt>
      <trkpt lat="48.52266" lon="-3.32933">
        <ele>208</ele>
        <time>2013-03-10T15:50:27Z</time>
      </trkpt>
      <trkpt lat="48.52267" lon="-3.32929">
        <ele>208</ele>
        <time>2013-03-10T15:50:30Z</time>
      </trkpt>
      <trkpt lat="48.52267" lon="-3.32927">
        <ele>208</ele>
        <time>2013-03-10T15:50:32Z</time>
      </trkpt>
      <trkpt lat="48.52267" lon="-3.32925">
        <ele>208</ele>
        <time>2013-03-10T15:50:34Z</time>
      </trkpt>
      <trkpt lat="48.52268" lon="-3.3292">
        <ele>208</ele>
        <time>2013-03-10T15:50:37Z</time>
      </trkpt>
      <trkpt lat="48.52269" lon="-3.32916">
        <ele>209</ele>
        <time>2013-03-10T15:50:40Z</time>
      </trkpt>
      <trkpt lat="48.5227" lon="-3.32911">
        <ele>208</ele>
        <time>2013-03-10T15:50:43Z</time>
      </trkpt>
      <trkpt lat="48.5227" lon="-3.32907">
        <ele>208</ele>
        <time>2013-03-10T15:50:46Z</time>
      </trkpt>
      <trkpt lat="48.52271" lon="-3.32902">
        <ele>208</ele>
        <time>2013-03-10T15:50:49Z</time>
      </trkpt>
      <trkpt lat="48.52271" lon="-3.32899">
        <ele>208</ele>
        <time>2013-03-10T15:50:51Z</time>
      </trkpt>
      <trkpt lat="48.52272" lon="-3.32894">
        <ele>208</ele>
        <time>2013-03-10T15:50:54Z</time>
      </trkpt>
      <trkpt lat="48.52272" lon="-3.3289">
        <ele>208</ele>
        <time>2013-03-10T15:50:57Z</time>
      </trkpt>
      <trkpt lat="48.52272" lon="-3.32884">
        <ele>209</ele>
        <time>2013-03-10T15:51:00Z</time>
      </trkpt>
      <trkpt lat="48.52272" lon="-3.32881">
        <ele>208</ele>
        <time>2013-03-10T15:51:02Z</time>
      </trkpt>
      <trkpt lat="48.52273" lon="-3.32876">
        <ele>209</ele>
        <time>2013-03-10T15:51:05Z</time>
      </trkpt>
      <trkpt lat="48.52273" lon="-3.32873">
        <ele>209</ele>
        <time>2013-03-10T15:51:07Z</time>
      </trkpt>
      <trkpt lat="48.52273" lon="-3.32868">
        <ele>209</ele>
        <time>2013-03-10T15:51:10Z</time>
      </trkpt>
      <trkpt lat="48.52273" lon="-3.32865">
        <ele>209</ele>
        <time>2013-03-10T15:51:12Z</time>
      </trkpt>
      <trkpt lat="48.52274" lon="-3.3286">
        <ele>209</ele>
        <time>2013-03-10T15:51:15Z</time>
      </trkpt>
      <trkpt lat="48.52273" lon="-3.32857">
        <ele>209</ele>
        <time>2013-03-10T15:51:17Z</time>
      </trkpt>
      <trkpt lat="48.52274" lon="-3.32853">
        <ele>209</ele>
        <time>2013-03-10T15:51:20Z</time>
      </trkpt>
      <trkpt lat="48.52274" lon="-3.32848">
        <ele>209</ele>
        <time>2013-03-10T15:51:23Z</time>
      </trkpt>
      <trkpt lat="48.52274" lon="-3.32845">
        <ele>209</ele>
        <time>2013-03-10T15:51:25Z</time>
      </trkpt>
      <trkpt lat="48.52274" lon="-3.3284">
        <ele>210</ele>
        <time>2013-03-10T15:51:28Z</time>
      </trkpt>
      <trkpt lat="48.52275" lon="-3.32837">
        <ele>210</ele>
        <time>2013-03-10T15:51:30Z</time>
      </trkpt>
      <trkpt lat="48.52274" lon="-3.32833">
        <ele>210</ele>
        <time>2013-03-10T15:51:33Z</time>
      </trkpt>
      <trkpt lat="48.52275" lon="-3.32829">
        <ele>210</ele>
        <time>2013-03-10T15:51:36Z</time>
      </trkpt>
      <trkpt lat="48.52275" lon="-3.32824">
        <ele>210</ele>
        <time>2013-03-10T15:51:39Z</time>
      </trkpt>
      <trkpt lat="48.52276" lon="-3.3282">
        <ele>210</ele>
        <time>2013-03-10T15:51:42Z</time>
      </trkpt>
      <trkpt lat="48.52277" lon="-3.32817">
        <ele>210</ele>
        <time>2013-03-10T15:51:44Z</time>
      </trkpt>
      <trkpt lat="48.52277" lon="-3.32815">
        <ele>210</ele>
        <time>2013-03-10T15:51:46Z</time>
      </trkpt>
      <trkpt lat="48.52278" lon="-3.32811">
        <ele>210</ele>
        <time>2013-03-10T15:51:49Z</time>
      </trkpt>
      <trkpt lat="48.52279" lon="-3.32808">
        <ele>210</ele>
        <time>2013-03-10T15:51:51Z</time>
      </trkpt>
      <trkpt lat="48.52279" lon="-3.32804">
        <ele>210</ele>
        <time>2013-03-10T15:51:54Z</time>
      </trkpt>
      <trkpt lat="48.52279" lon="-3.32801">
        <ele>210</ele>
        <time>2013-03-10T15:51:56Z</time>
      </trkpt>
      <trkpt lat="48.5228" lon="-3.32796">
        <ele>210</ele>
        <time>2013-03-10T15:51:59Z</time>
      </trkpt>
      <trkpt lat="48.52281" lon="-3.32793">
        <ele>211</ele>
        <time>2013-03-10T15:52:01Z</time>
      </trkpt>
      <trkpt lat="48.52281" lon="-3.32788">
        <ele>211</ele>
        <time>2013-03-10T15:52:04Z</time>
      </trkpt>
      <trkpt lat="48.52281" lon="-3.32783">
        <ele>211</ele>
        <time>2013-03-10T15:52:07Z</time>
      </trkpt>
      <trkpt lat="48.52281" lon="-3.32781">
        <ele>211</ele>
        <time>2013-03-10T15:52:09Z</time>
      </trkpt>
      <trkpt lat="48.52282" lon="-3.32776">
        <ele>211</ele>
        <time>2013-03-10T15:52:12Z</time>
      </trkpt>
      <trkpt lat="48.52282" lon="-3.32773">
        <ele>211</ele>
        <time>2013-03-10T15:52:14Z</time>
      </trkpt>
      <trkpt lat="48.52283" lon="-3.32768">
        <ele>211</ele>
        <time>2013-03-10T15:52:17Z</time>
      </trkpt>
      <trkpt lat="48.52283" lon="-3.32765">
        <ele>211</ele>
        <time>2013-03-10T15:52:19Z</time>
      </trkpt>
      <trkpt lat="48.52284" lon="-3.32761">
        <ele>211</ele>
        <time>2013-03-10T15:52:22Z</time>
      </trkpt>
      <trkpt lat="48.52285" lon="-3.32757">
        <ele>211</ele>
        <time>2013-03-10T15:52:24Z</time>
      </trkpt>
      <trkpt lat="48.52285" lon="-3.32753">
        <ele>211</ele>
        <time>2013-03-10T15:52:27Z</time>
      </trkpt>
      <trkpt lat="48.52287" lon="-3.32749">
        <ele>211</ele>
        <time>2013-03-10T15:52:30Z</time>
      </trkpt>
      <trkpt lat="48.52288" lon="-3.32744">
        <ele>211</ele>
        <time>2013-03-10T15:52:33Z</time>
      </trkpt>
      <trkpt lat="48.52288" lon="-3.32742">
        <ele>212</ele>
        <time>2013-03-10T15:52:35Z</time>
      </trkpt>
      <trkpt lat="48.52289" lon="-3.32737">
        <ele>212</ele>
        <time>2013-03-10T15:52:38Z</time>
      </trkpt>
      <trkpt lat="48.5229" lon="-3.32733">
        <ele>212</ele>
        <time>2013-03-10T15:52:41Z</time>
      </trkpt>
      <trkpt lat="48.52291" lon="-3.3273">
        <ele>212</ele>
        <time>2013-03-10T15:52:43Z</time>
      </trkpt>
      <trkpt lat="48.52292" lon="-3.32727">
        <ele>212</ele>
        <time>2013-03-10T15:52:45Z</time>
      </trkpt>
      <trkpt lat="48.52293" lon="-3.32723">
        <ele>213</ele>
        <time>2013-03-10T15:52:48Z</time>
      </trkpt>
      <trkpt lat="48.52295" lon="-3.3272">
        <ele>213</ele>
        <time>2013-03-10T15:52:50Z</time>
      </trkpt>
      <trkpt lat="48.52296" lon="-3.32716">
        <ele>213</ele>
        <time>2013-03-10T15:52:53Z</time>
      </trkpt>
      <trkpt lat="48.52296" lon="-3.32713">
        <ele>213</ele>
        <time>2013-03-10T15:52:55Z</time>
      </trkpt>
      <trkpt lat="48.52297" lon="-3.32709">
        <ele>213</ele>
        <time>2013-03-10T15:52:58Z</time>
      </trkpt>
      <trkpt lat="48.52296" lon="-3.32705">
        <ele>213</ele>
        <time>2013-03-10T15:53:00Z</time>
      </trkpt>
      <trkpt lat="48.52296" lon="-3.32701">
        <ele>213</ele>
        <time>2013-03-10T15:53:03Z</time>
      </trkpt>
      <trkpt lat="48.52296" lon="-3.32697">
        <ele>213</ele>
        <time>2013-03-10T15:53:06Z</time>
      </trkpt>
      <trkpt lat="48.52297" lon="-3.32693">
        <ele>213</ele>
        <time>2013-03-10T15:53:08Z</time>
      </trkpt>
      <trkpt lat="48.52296" lon="-3.3269">
        <ele>213</ele>
        <time>2013-03-10T15:53:10Z</time>
      </trkpt>
      <trkpt lat="48.52296" lon="-3.32687">
        <ele>213</ele>
        <time>2013-03-10T15:53:12Z</time>
      </trkpt>
      <trkpt lat="48.52297" lon="-3.32684">
        <ele>213</ele>
        <time>2013-03-10T15:53:15Z</time>
      </trkpt>
      <trkpt lat="48.52297" lon="-3.32681">
        <ele>213</ele>
        <time>2013-03-10T15:53:17Z</time>
      </trkpt>
      <trkpt lat="48.52298" lon="-3.32679">
        <ele>214</ele>
        <time>2013-03-10T15:53:19Z</time>
      </trkpt>
      <trkpt lat="48.52298" lon="-3.32675">
        <ele>213</ele>
        <time>2013-03-10T15:53:22Z</time>
      </trkpt>
      <trkpt lat="48.52299" lon="-3.3267">
        <ele>214</ele>
        <time>2013-03-10T15:53:25Z</time>
      </trkpt>
      <trkpt lat="48.52299" lon="-3.32666">
        <ele>214</ele>
        <time>2013-03-10T15:53:28Z</time>
      </trkpt>
      <trkpt lat="48.52299" lon="-3.32663">
        <ele>214</ele>
        <time>2013-03-10T15:53:30Z</time>
      </trkpt>
      <trkpt lat="48.523" lon="-3.32661">
        <ele>214</ele>
        <time>2013-03-10T15:53:32Z</time>
      </trkpt>
      <trkpt lat="48.52299" lon="-3.32657">
        <ele>214</ele>
        <time>2013-03-10T15:53:35Z</time>
      </trkpt>
      <trkpt lat="48.52299" lon="-3.32654">
        <ele>214</ele>
        <time>2013-03-10T15:53:37Z</time>
      </trkpt>
      <trkpt lat="48.52299" lon="-3.32651">
        <ele>214</ele>
        <time>2013-03-10T15:53:40Z</time>
      </trkpt>
      <trkpt lat="48.52299" lon="-3.32648">
        <ele>214</ele>
        <time>2013-03-10T15:53:43Z</time>
      </trkpt>
      <trkpt lat="48.52299" lon="-3.32647">
        <ele>214</ele>
        <time>2013-03-10T15:53:45Z</time>
      </trkpt>
      <trkpt lat="48.52299" lon="-3.32646">
        <ele>214</ele>
        <time>2013-03-10T15:53:49Z</time>
      </trkpt>
      <trkpt lat="48.52299" lon="-3.32646">
        <ele>214</ele>
        <time>2013-03-10T15:53:51Z</time>
      </trkpt>
      <trkpt lat="48.52299" lon="-3.32642">
        <ele>214</ele>
        <time>2013-03-10T15:53:54Z</time>
      </trkpt>
      <trkpt lat="48.52299" lon="-3.32639">
        <ele>214</ele>
        <time>2013-03-10T15:53:56Z</time>
      </trkpt>
      <trkpt lat="48.52299" lon="-3.32635">
        <ele>214</ele>
        <time>2013-03-10T15:53:58Z</time>
      </trkpt>
      <trkpt lat="48.52298" lon="-3.32632">
        <ele>215</ele>
        <time>2013-03-10T15:54:00Z</time>
      </trkpt>
      <trkpt lat="48.52299" lon="-3.32628">
        <ele>215</ele>
        <time>2013-03-10T15:54:03Z</time>
      </trkpt>
      <trkpt lat="48.523" lon="-3.32625">
        <ele>215</ele>
        <time>2013-03-10T15:54:05Z</time>
      </trkpt>
      <trkpt lat="48.52301" lon="-3.3262">
        <ele>215</ele>
        <time>2013-03-10T15:54:08Z</time>
      </trkpt>
      <trkpt lat="48.52301" lon="-3.32618">
        <ele>215</ele>
        <time>2013-03-10T15:54:10Z</time>
      </trkpt>
      <trkpt lat="48.52302" lon="-3.32615">
        <ele>215</ele>
        <time>2013-03-10T15:54:12Z</time>
      </trkpt>
      <trkpt lat="48.52303" lon="-3.3261">
        <ele>215</ele>
        <time>2013-03-10T15:54:15Z</time>
      </trkpt>
      <trkpt lat="48.52304" lon="-3.32606">
        <ele>215</ele>
        <time>2013-03-10T15:54:18Z</time>
      </trkpt>
      <trkpt lat="48.52305" lon="-3.32603">
        <ele>215</ele>
        <time>2013-03-10T15:54:20Z</time>
      </trkpt>
      <trkpt lat="48.52305" lon="-3.32599">
        <ele>215</ele>
        <time>2013-03-10T15:54:22Z</time>
      </trkpt>
      <trkpt lat="48.52306" lon="-3.32597">
        <ele>215</ele>
        <time>2013-03-10T15:54:24Z</time>
      </trkpt>
      <trkpt lat="48.52307" lon="-3.32594">
        <ele>215</ele>
        <time>2013-03-10T15:54:26Z</time>
      </trkpt>
      <trkpt lat="48.52307" lon="-3.3259">
        <ele>215</ele>
        <time>2013-03-10T15:54:29Z</time>
      </trkpt>
      <trkpt lat="48.52307" lon="-3.32586">
        <ele>216</ele>
        <time>2013-03-10T15:54:32Z</time>
      </trkpt>
      <trkpt lat="48.52308" lon="-3.32583">
        <ele>216</ele>
        <time>2013-03-10T15:54:34Z</time>
      </trkpt>
      <trkpt lat="48.52308" lon="-3.3258">
        <ele>216</ele>
        <time>2013-03-10T15:54:36Z</time>
      </trkpt>
      <trkpt lat="48.52308" lon="-3.32577">
        <ele>216</ele>
        <time>2013-03-10T15:54:38Z</time>
      </trkpt>
      <trkpt lat="48.52309" lon="-3.32573">
        <ele>216</ele>
        <time>2013-03-10T15:54:41Z</time>
      </trkpt>
      <trkpt lat="48.5231" lon="-3.32568">
        <ele>215</ele>
        <time>2013-03-10T15:54:44Z</time>
      </trkpt>
      <trkpt lat="48.5231" lon="-3.32565">
        <ele>215</ele>
        <time>2013-03-10T15:54:46Z</time>
      </trkpt>
      <trkpt lat="48.52311" lon="-3.32561">
        <ele>215</ele>
        <time>2013-03-10T15:54:48Z</time>
      </trkpt>
      <trkpt lat="48.52311" lon="-3.32559">
        <ele>215</ele>
        <time>2013-03-10T15:54:50Z</time>
      </trkpt>
      <trkpt lat="48.52311" lon="-3.32554">
        <ele>215</ele>
        <time>2013-03-10T15:54:52Z</time>
      </trkpt>
      <trkpt lat="48.52312" lon="-3.32551">
        <ele>216</ele>
        <time>2013-03-10T15:54:55Z</time>
      </trkpt>
      <trkpt lat="48.52312" lon="-3.32548">
        <ele>216</ele>
        <time>2013-03-10T15:54:58Z</time>
      </trkpt>
      <trkpt lat="48.52314" lon="-3.32546">
        <ele>216</ele>
        <time>2013-03-10T15:55:00Z</time>
      </trkpt>
      <trkpt lat="48.52314" lon="-3.32543">
        <ele>216</ele>
        <time>2013-03-10T15:55:03Z</time>
      </trkpt>
      <trkpt lat="48.52315" lon="-3.32539">
        <ele>216</ele>
        <time>2013-03-10T15:55:05Z</time>
      </trkpt>
      <trkpt lat="48.52315" lon="-3.32536">
        <ele>216</ele>
        <time>2013-03-10T15:55:08Z</time>
      </trkpt>
      <trkpt lat="48.52315" lon="-3.32533">
        <ele>216</ele>
        <time>2013-03-10T15:55:10Z</time>
      </trkpt>
      <trkpt lat="48.52316" lon="-3.32528">
        <ele>216</ele>
        <time>2013-03-10T15:55:12Z</time>
      </trkpt>
      <trkpt lat="48.52317" lon="-3.32525">
        <ele>216</ele>
        <time>2013-03-10T15:55:15Z</time>
      </trkpt>
      <trkpt lat="48.52317" lon="-3.3252">
        <ele>216</ele>
        <time>2013-03-10T15:55:17Z</time>
      </trkpt>
      <trkpt lat="48.52318" lon="-3.32517">
        <ele>216</ele>
        <time>2013-03-10T15:55:20Z</time>
      </trkpt>
      <trkpt lat="48.52319" lon="-3.32512">
        <ele>217</ele>
        <time>2013-03-10T15:55:22Z</time>
      </trkpt>
      <trkpt lat="48.52319" lon="-3.32509">
        <ele>217</ele>
        <time>2013-03-10T15:55:25Z</time>
      </trkpt>
      <trkpt lat="48.52319" lon="-3.32506">
        <ele>217</ele>
        <time>2013-03-10T15:55:27Z</time>
      </trkpt>
      <trkpt lat="48.52319" lon="-3.32501">
        <ele>217</ele>
        <time>2013-03-10T15:55:29Z</time>
      </trkpt>
      <trkpt lat="48.5232" lon="-3.32498">
        <ele>217</ele>
        <time>2013-03-10T15:55:31Z</time>
      </trkpt>
      <trkpt lat="48.52321" lon="-3.32494">
        <ele>217</ele>
        <time>2013-03-10T15:55:34Z</time>
      </trkpt>
      <trkpt lat="48.52322" lon="-3.3249">
        <ele>217</ele>
        <time>2013-03-10T15:55:37Z</time>
      </trkpt>
      <trkpt lat="48.52323" lon="-3.32485">
        <ele>217</ele>
        <time>2013-03-10T15:55:40Z</time>
      </trkpt>
      <trkpt lat="48.52324" lon="-3.3248">
        <ele>217</ele>
        <time>2013-03-10T15:55:42Z</time>
      </trkpt>
      <trkpt lat="48.52325" lon="-3.32477">
        <ele>217</ele>
        <time>2013-03-10T15:55:44Z</time>
      </trkpt>
      <trkpt lat="48.52325" lon="-3.32473">
        <ele>217</ele>
        <time>2013-03-10T15:55:47Z</time>
      </trkpt>
      <trkpt lat="48.52326" lon="-3.32469">
        <ele>217</ele>
        <time>2013-03-10T15:55:50Z</time>
      </trkpt>
      <trkpt lat="48.52327" lon="-3.32465">
        <ele>217</ele>
        <time>2013-03-10T15:55:53Z</time>
      </trkpt>
      <trkpt lat="48.52327" lon="-3.3246">
        <ele>218</ele>
        <time>2013-03-10T15:55:56Z</time>
      </trkpt>
      <trkpt lat="48.52328" lon="-3.32457">
        <ele>218</ele>
        <time>2013-03-10T15:55:58Z</time>
      </trkpt>
      <trkpt lat="48.52329" lon="-3.32453">
        <ele>218</ele>
        <time>2013-03-10T15:56:01Z</time>
      </trkpt>
      <trkpt lat="48.5233" lon="-3.32448">
        <ele>217</ele>
        <time>2013-03-10T15:56:04Z</time>
      </trkpt>
      <trkpt lat="48.5233" lon="-3.32443">
        <ele>217</ele>
        <time>2013-03-10T15:56:06Z</time>
      </trkpt>
      <trkpt lat="48.5233" lon="-3.3244">
        <ele>217</ele>
        <time>2013-03-10T15:56:08Z</time>
      </trkpt>
      <trkpt lat="48.5233" lon="-3.32436">
        <ele>217</ele>
        <time>2013-03-10T15:56:11Z</time>
      </trkpt>
      <trkpt lat="48.52331" lon="-3.32432">
        <ele>218</ele>
        <time>2013-03-10T15:56:13Z</time>
      </trkpt>
      <trkpt lat="48.52332" lon="-3.32429">
        <ele>218</ele>
        <time>2013-03-10T15:56:16Z</time>
      </trkpt>
      <trkpt lat="48.52333" lon="-3.32424">
        <ele>218</ele>
        <time>2013-03-10T15:56:18Z</time>
      </trkpt>
      <trkpt lat="48.52333" lon="-3.3242">
        <ele>218</ele>
        <time>2013-03-10T15:56:20Z</time>
      </trkpt>
      <trkpt lat="48.52334" lon="-3.32417">
        <ele>218</ele>
        <time>2013-03-10T15:56:23Z</time>
      </trkpt>
      <trkpt lat="48.52334" lon="-3.32412">
        <ele>218</ele>
        <time>2013-03-10T15:56:26Z</time>
      </trkpt>
      <trkpt lat="48.52334" lon="-3.32407">
        <ele>218</ele>
        <time>2013-03-10T15:56:29Z</time>
      </trkpt>
      <trkpt lat="48.52334" lon="-3.32404">
        <ele>218</ele>
        <time>2013-03-10T15:56:31Z</time>
      </trkpt>
      <trkpt lat="48.52335" lon="-3.32399">
        <ele>218</ele>
        <time>2013-03-10T15:56:33Z</time>
      </trkpt>
      <trkpt lat="48.52335" lon="-3.32397">
        <ele>218</ele>
        <time>2013-03-10T15:56:35Z</time>
      </trkpt>
      <trkpt lat="48.52334" lon="-3.32394">
        <ele>218</ele>
        <time>2013-03-10T15:56:38Z</time>
      </trkpt>
      <trkpt lat="48.52335" lon="-3.32391">
        <ele>219</ele>
        <time>2013-03-10T15:56:40Z</time>
      </trkpt>
      <trkpt lat="48.52335" lon="-3.32386">
        <ele>219</ele>
        <time>2013-03-10T15:56:43Z</time>
      </trkpt>
      <trkpt lat="48.52335" lon="-3.32382">
        <ele>219</ele>
        <time>2013-03-10T15:56:45Z</time>
      </trkpt>
      <trkpt lat="48.52335" lon="-3.32379">
        <ele>219</ele>
        <time>2013-03-10T15:56:47Z</time>
      </trkpt>
      <trkpt lat="48.52336" lon="-3.32376">
        <ele>219</ele>
        <time>2013-03-10T15:56:49Z</time>
      </trkpt>
      <trkpt lat="48.52336" lon="-3.32373">
        <ele>219</ele>
        <time>2013-03-10T15:56:52Z</time>
      </trkpt>
      <trkpt lat="48.52336" lon="-3.3237">
        <ele>219</ele>
        <time>2013-03-10T15:56:54Z</time>
      </trkpt>
      <trkpt lat="48.52337" lon="-3.32367">
        <ele>219</ele>
        <time>2013-03-10T15:56:56Z</time>
      </trkpt>
      <trkpt lat="48.52338" lon="-3.32363">
        <ele>219</ele>
        <time>2013-03-10T15:56:59Z</time>
      </trkpt>
      <trkpt lat="48.52339" lon="-3.32358">
        <ele>219</ele>
        <time>2013-03-10T15:57:01Z</time>
      </trkpt>
      <trkpt lat="48.5234" lon="-3.32355">
        <ele>219</ele>
        <time>2013-03-10T15:57:03Z</time>
      </trkpt>
      <trkpt lat="48.5234" lon="-3.32352">
        <ele>220</ele>
        <time>2013-03-10T15:57:06Z</time>
      </trkpt>
      <trkpt lat="48.52341" lon="-3.32349">
        <ele>220</ele>
        <time>2013-03-10T15:57:08Z</time>
      </trkpt>
      <trkpt lat="48.52341" lon="-3.32346">
        <ele>220</ele>
        <time>2013-03-10T15:57:10Z</time>
      </trkpt>
      <trkpt lat="48.52341" lon="-3.32343">
        <ele>221</ele>
        <time>2013-03-10T15:57:12Z</time>
      </trkpt>
      <trkpt lat="48.52342" lon="-3.32341">
        <ele>221</ele>
        <time>2013-03-10T15:57:15Z</time>
      </trkpt>
      <trkpt lat="48.52343" lon="-3.32336">
        <ele>221</ele>
        <time>2013-03-10T15:57:18Z</time>
      </trkpt>
      <trkpt lat="48.52343" lon="-3.32332">
        <ele>221</ele>
        <time>2013-03-10T15:57:21Z</time>
      </trkpt>
      <trkpt lat="48.52344" lon="-3.3233">
        <ele>221</ele>
        <time>2013-03-10T15:57:23Z</time>
      </trkpt>
      <trkpt lat="48.52344" lon="-3.32326">
        <ele>221</ele>
        <time>2013-03-10T15:57:25Z</time>
      </trkpt>
      <trkpt lat="48.52344" lon="-3.32322">
        <ele>221</ele>
        <time>2013-03-10T15:57:28Z</time>
      </trkpt>
      <trkpt lat="48.52345" lon="-3.3232">
        <ele>222</ele>
        <time>2013-03-10T15:57:30Z</time>
      </trkpt>
      <trkpt lat="48.52346" lon="-3.32316">
        <ele>222</ele>
        <time>2013-03-10T15:57:32Z</time>
      </trkpt>
      <trkpt lat="48.52346" lon="-3.32313">
        <ele>222</ele>
        <time>2013-03-10T15:57:35Z</time>
      </trkpt>
      <trkpt lat="48.52347" lon="-3.32309">
        <ele>222</ele>
        <time>2013-03-10T15:57:38Z</time>
      </trkpt>
      <trkpt lat="48.52347" lon="-3.32305">
        <ele>222</ele>
        <time>2013-03-10T15:57:40Z</time>
      </trkpt>
      <trkpt lat="48.52347" lon="-3.32302">
        <ele>222</ele>
        <time>2013-03-10T15:57:43Z</time>
      </trkpt>
      <trkpt lat="48.52348" lon="-3.32298">
        <ele>222</ele>
        <time>2013-03-10T15:57:45Z</time>
      </trkpt>
      <trkpt lat="48.52347" lon="-3.32295">
        <ele>223</ele>
        <time>2013-03-10T15:57:47Z</time>
      </trkpt>
      <trkpt lat="48.52348" lon="-3.32292">
        <ele>223</ele>
        <time>2013-03-10T15:57:50Z</time>
      </trkpt>
      <trkpt lat="48.52348" lon="-3.32288">
        <ele>223</ele>
        <time>2013-03-10T15:57:53Z</time>
      </trkpt>
      <trkpt lat="48.52348" lon="-3.32286">
        <ele>224</ele>
        <time>2013-03-10T15:57:55Z</time>
      </trkpt>
      <trkpt lat="48.52349" lon="-3.32282">
        <ele>224</ele>
        <time>2013-03-10T15:57:58Z</time>
      </trkpt>
      <trkpt lat="48.5235" lon="-3.32278">
        <ele>224</ele>
        <time>2013-03-10T15:58:00Z</time>
      </trkpt>
      <trkpt lat="48.52351" lon="-3.32275">
        <ele>225</ele>
        <time>2013-03-10T15:58:03Z</time>
      </trkpt>
      <trkpt lat="48.52351" lon="-3.32273">
        <ele>225</ele>
        <time>2013-03-10T15:58:05Z</time>
      </trkpt>
      <trkpt lat="48.52352" lon="-3.3227">
        <ele>225</ele>
        <time>2013-03-10T15:58:07Z</time>
      </trkpt>
      <trkpt lat="48.52353" lon="-3.32266">
        <ele>225</ele>
        <time>2013-03-10T15:58:09Z</time>
      </trkpt>
      <trkpt lat="48.52353" lon="-3.32261">
        <ele>225</ele>
        <time>2013-03-10T15:58:12Z</time>
      </trkpt>
      <trkpt lat="48.52354" lon="-3.32257">
        <ele>225</ele>
        <time>2013-03-10T15:58:15Z</time>
      </trkpt>
      <trkpt lat="48.52354" lon="-3.32255">
        <ele>226</ele>
        <time>2013-03-10T15:58:18Z</time>
      </trkpt>
      <trkpt lat="48.52355" lon="-3.32251">
        <ele>226</ele>
        <time>2013-03-10T15:58:20Z</time>
      </trkpt>
      <trkpt lat="48.52355" lon="-3.32248">
        <ele>226</ele>
        <time>2013-03-10T15:58:22Z</time>
      </trkpt>
      <trkpt lat="48.52356" lon="-3.32245">
        <ele>226</ele>
        <time>2013-03-10T15:58:25Z</time>
      </trkpt>
      <trkpt lat="48.52356" lon="-3.32241">
        <ele>226</ele>
        <time>2013-03-10T15:58:28Z</time>
      </trkpt>
      <trkpt lat="48.52356" lon="-3.32238">
        <ele>227</ele>
        <time>2013-03-10T15:58:30Z</time>
      </trkpt>
      <trkpt lat="48.52357" lon="-3.32234">
        <ele>227</ele>
        <time>2013-03-10T15:58:32Z</time>
      </trkpt>
      <trkpt lat="48.52357" lon="-3.32231">
        <ele>227</ele>
        <time>2013-03-10T15:58:35Z</time>
      </trkpt>
      <trkpt lat="48.52357" lon="-3.32227">
        <ele>227</ele>
        <time>2013-03-10T15:58:38Z</time>
      </trkpt>
      <trkpt lat="48.52357" lon="-3.32223">
        <ele>227</ele>
        <time>2013-03-10T15:58:41Z</time>
      </trkpt>
      <trkpt lat="48.52358" lon="-3.3222">
        <ele>227</ele>
        <time>2013-03-10T15:58:43Z</time>
      </trkpt>
      <trkpt lat="48.52359" lon="-3.32217">
        <ele>228</ele>
        <time>2013-03-10T15:58:45Z</time>
      </trkpt>
      <trkpt lat="48.52359" lon="-3.32213">
        <ele>228</ele>
        <time>2013-03-10T15:58:48Z</time>
      </trkpt>
      <trkpt lat="48.52359" lon="-3.3221">
        <ele>228</ele>
        <time>2013-03-10T15:58:50Z</time>
      </trkpt>
      <trkpt lat="48.52359" lon="-3.32207">
        <ele>228</ele>
        <time>2013-03-10T15:58:52Z</time>
      </trkpt>
      <trkpt lat="48.5236" lon="-3.32205">
        <ele>228</ele>
        <time>2013-03-10T15:58:55Z</time>
      </trkpt>
      <trkpt lat="48.5236" lon="-3.32201">
        <ele>228</ele>
        <time>2013-03-10T15:58:58Z</time>
      </trkpt>
      <trkpt lat="48.5236" lon="-3.32196">
        <ele>228</ele>
        <time>2013-03-10T15:59:00Z</time>
      </trkpt>
      <trkpt lat="48.5236" lon="-3.32193">
        <ele>228</ele>
        <time>2013-03-10T15:59:02Z</time>
      </trkpt>
      <trkpt lat="48.52361" lon="-3.32189">
        <ele>229</ele>
        <time>2013-03-10T15:59:05Z</time>
      </trkpt>
      <trkpt lat="48.52361" lon="-3.32187">
        <ele>229</ele>
        <time>2013-03-10T15:59:08Z</time>
      </trkpt>
      <trkpt lat="48.52362" lon="-3.32182">
        <ele>229</ele>
        <time>2013-03-10T15:59:10Z</time>
      </trkpt>
      <trkpt lat="48.52362" lon="-3.32179">
        <ele>230</ele>
        <time>2013-03-10T15:59:13Z</time>
      </trkpt>
      <trkpt lat="48.52364" lon="-3.32175">
        <ele>230</ele>
        <time>2013-03-10T15:59:16Z</time>
      </trkpt>
      <trkpt lat="48.52365" lon="-3.32173">
        <ele>230</ele>
        <time>2013-03-10T15:59:18Z</time>
      </trkpt>
      <trkpt lat="48.52365" lon="-3.32171">
        <ele>230</ele>
        <time>2013-03-10T15:59:21Z</time>
      </trkpt>
      <trkpt lat="48.52366" lon="-3.32167">
        <ele>231</ele>
        <time>2013-03-10T15:59:23Z</time>
      </trkpt>
      <trkpt lat="48.52366" lon="-3.32165">
        <ele>231</ele>
        <time>2013-03-10T15:59:25Z</time>
      </trkpt>
      <trkpt lat="48.52367" lon="-3.32163">
        <ele>231</ele>
        <time>2013-03-10T15:59:28Z</time>
      </trkpt>
      <trkpt lat="48.52367" lon="-3.32159">
        <ele>231</ele>
        <time>2013-03-10T15:59:30Z</time>
      </trkpt>
      <trkpt lat="48.52367" lon="-3.32156">
        <ele>231</ele>
        <time>2013-03-10T15:59:33Z</time>
      </trkpt>
      <trkpt lat="48.52368" lon="-3.32154">
        <ele>231</ele>
        <time>2013-03-10T15:59:35Z</time>
      </trkpt>
      <trkpt lat="48.52368" lon="-3.3215">
        <ele>232</ele>
        <time>2013-03-10T15:59:38Z</time>
      </trkpt>
      <trkpt lat="48.52368" lon="-3.32147">
        <ele>232</ele>
        <time>2013-03-10T15:59:40Z</time>
      </trkpt>
      <trkpt lat="48.52368" lon="-3.32143">
        <ele>232</ele>
        <time>2013-03-10T15:59:42Z</time>
      </trkpt>
      <trkpt lat="48.52367" lon="-3.32139">
        <ele>232</ele>
        <time>2013-03-10T15:59:45Z</time>
      </trkpt>
      <trkpt lat="48.52368" lon="-3.32135">
        <ele>233</ele>
        <time>2013-03-10T15:59:48Z</time>
      </trkpt>
      <trkpt lat="48.52368" lon="-3.32133">
        <ele>233</ele>
        <time>2013-03-10T15:59:50Z</time>
      </trkpt>
      <trkpt lat="48.52368" lon="-3.32131">
        <ele>233</ele>
        <time>2013-03-10T15:59:53Z</time>
      </trkpt>
      <trkpt lat="48.52369" lon="-3.32127">
        <ele>233</ele>
        <time>2013-03-10T15:59:55Z</time>
      </trkpt>
      <trkpt lat="48.5237" lon="-3.32125">
        <ele>233</ele>
        <time>2013-03-10T15:59:58Z</time>
      </trkpt>
      <trkpt lat="48.5237" lon="-3.32123">
        <ele>233</ele>
        <time>2013-03-10T16:00:00Z</time>
      </trkpt>
      <trkpt lat="48.52371" lon="-3.32121">
        <ele>234</ele>
        <time>2013-03-10T16:00:02Z</time>
      </trkpt>
      <trkpt lat="48.52371" lon="-3.32119">
        <ele>234</ele>
        <time>2013-03-10T16:00:05Z</time>
      </trkpt>
      <trkpt lat="48.52372" lon="-3.32116">
        <ele>234</ele>
        <time>2013-03-10T16:00:07Z</time>
      </trkpt>
      <trkpt lat="48.52372" lon="-3.32113">
        <ele>234</ele>
        <time>2013-03-10T16:00:10Z</time>
      </trkpt>
      <trkpt lat="48.52373" lon="-3.3211">
        <ele>234</ele>
        <time>2013-03-10T16:00:12Z</time>
      </trkpt>
      <trkpt lat="48.52373" lon="-3.32107">
        <ele>235</ele>
        <time>2013-03-10T16:00:15Z</time>
      </trkpt>
      <trkpt lat="48.52374" lon="-3.32105">
        <ele>235</ele>
        <time>2013-03-10T16:00:18Z</time>
      </trkpt>
      <trkpt lat="48.52375" lon="-3.32102">
        <ele>235</ele>
        <time>2013-03-10T16:00:20Z</time>
      </trkpt>
      <trkpt lat="48.52375" lon="-3.32101">
        <ele>235</ele>
        <time>2013-03-10T16:00:23Z</time>
      </trkpt>
      <trkpt lat="48.52376" lon="-3.321">
        <ele>235</ele>
        <time>2013-03-10T16:00:25Z</time>
      </trkpt>
      <trkpt lat="48.52376" lon="-3.32097">
        <ele>235</ele>
        <time>2013-03-10T16:00:29Z</time>
      </trkpt>
      <trkpt lat="48.52375" lon="-3.32094">
        <ele>236</ele>
        <time>2013-03-10T16:00:32Z</time>
      </trkpt>
      <trkpt lat="48.52375" lon="-3.3209">
        <ele>236</ele>
        <time>2013-03-10T16:00:34Z</time>
      </trkpt>
      <trkpt lat="48.52375" lon="-3.32088">
        <ele>236</ele>
        <time>2013-03-10T16:00:37Z</time>
      </trkpt>
      <trkpt lat="48.52375" lon="-3.32086">
        <ele>236</ele>
        <time>2013-03-10T16:00:39Z</time>
      </trkpt>
      <trkpt lat="48.52375" lon="-3.32082">
        <ele>236</ele>
        <time>2013-03-10T16:00:42Z</time>
      </trkpt>
      <trkpt lat="48.52375" lon="-3.3208">
        <ele>236</ele>
        <time>2013-03-10T16:00:43Z</time>
      </trkpt>
      <trkpt lat="48.52375" lon="-3.3208">
        <ele>236</ele>
        <time>2013-03-10T16:00:46Z</time>
      </trkpt>
    </trkseg>
  </trk>
</gpx>